# Wetter Temperatur Luftdruck Luftfeuchtigkeit Sichtweite Windgeschwindigkeit Windrichtung Zeit
1 Clouds 0 1022 69 0 2.84 300.409 20:18 17.10.2019
2 Clouds 0 1022 69 0 2.84 300.409 19:41 17.10.2019
3 Clouds 0 1022 69 0 2.84 300.409 19:20 17.10.2019
4 Clouds 0 1022 69 0 2.84 300.409 19:20 17.10.2019
5 Clouds 0 1022 69 0 2.84 300.409 19:20 17.10.2019
6 Clouds 0 1022 69 0 2.84 300.409 18:59 17.10.2019
7 Clouds 0 1022 69 0 2.84 300.409 18:38 17.10.2019
8 Clouds 0 1022 77 0 3.18 319.514 18:20 17.10.2019
9 Snow 0 1022 77 0 3.181 319 17:43 17.10.2019
10 Snow 0 1022 77 0 3.181 319 17:24 17.10.2019
11 Snow 0 1022 77 0 3.181 319 16:58 17.10.2019
12 Snow 0 1022 77 0 3.181 319 16:40 17.10.2019
13 Snow 0 1022 77 0 3.181 319 16:40 17.10.2019
14 Snow 0 1022 77 0 3.181 319 16:18 17.10.2019
15 Snow 0 1022 77 0 3.181 319 15:56 17.10.2019
16 Snow 0 1022 77 0 3.181 319 15:38 17.10.2019
17 Snow 0 1022 74 0 3.019 334 15:20 17.10.2019
18 -273 0 0 0 0 0 14:56 17.10.2019
19 Snow 0 1022 73 0 3.044 327 14:37 17.10.2019
20 Snow 0 1022 73 0 3.044 327 14:19 17.10.2019
21 Snow 0 1022 73 0 3.044 327 13:39 17.10.2019
22 Snow 0 1022 73 0 3.044 327 13:20 17.10.2019
23 Snow 0 1022 73 0 3.044 327 12:57 17.10.2019
24 Snow 0 1022 73 0 3.044 327 12:37 17.10.2019
25 Snow 0 1022 71 0 2.777 337 12:18 17.10.2019
26 Snow 0 1022 71 0 2.777 337 12:18 17.10.2019
27 Snow 0 1022 71 0 2.777 337 11:42 17.10.2019
28 Snow 0 1022 71 0 2.777 337 11:22 17.10.2019
29 Snow 0 1022 71 0 2.777 337 10:59 17.10.2019
30 Snow 0 1022 71 0 2.777 337 10:41 17.10.2019
31 Snow 0 1022 71 0 2.777 337 10:19 17.10.2019
32 Snow 0 1022 71 0 2.777 337 09:56 17.10.2019
33 Snow 0 1022 74 0 3.179 334 09:37 17.10.2019
34 Snow 0 1022 74 0 3.631 342 09:19 17.10.2019
35 Snow 0 1022 74 0 3.631 342 08:48 17.10.2019
36 Snow 0 1022 74 0 3.631 342 08:27 17.10.2019
37 Snow 0 1022 74 0 3.631 342 07:58 17.10.2019
38 Snow 0 1022 74 0 3.631 342 07:40 17.10.2019
39 Snow 0 1022 74 0 3.631 342 07:20 17.10.2019
40 Snow 0 1022 74 0 3.631 342 07:20 17.10.2019
41 Snow 0 1022 74 0 3.631 342 06:42 17.10.2019
42 Snow 0 1022 74 0 3.631 342 06:42 17.10.2019
43 Snow 0 1022 77 0 4.287 334 06:23 17.10.2019
44 Snow 0 1022 77 0 4.287 334 05:58 17.10.2019
45 Snow 0 1022 77 0 4.287 334 05:35 17.10.2019
46 Snow 0 1022 77 0 4.287 334 04:57 17.10.2019
47 Snow 0 1022 77 0 4.287 334 03:58 17.10.2019
48 Snow 0 1022 77 0 4.287 334 03:38 17.10.2019
49 Snow 0 1022 77 0 5.147 339 01:55 17.10.2019
50 Snow 0 1022 77 0 5.147 339 00:41 17.10.2019
51 Snow 0 1021 73 0 5.632 344 00:20 17.10.2019
52 Snow 0 1021 73 0 5.632 344 23:42 16.10.2019
53 Snow 0 1021 73 0 5.632 344 23:21 16.10.2019
54 Snow 0 1021 73 0 5.632 344 22:57 16.10.2019
55 Snow 0 1021 73 0 5.632 344 22:38 16.10.2019
56 Snow 0 1021 73 0 5.632 344 22:19 16.10.2019
57 Snow 0 1021 73 0 5.632 344 21:58 16.10.2019
58 Snow 0 1022 77 0 5.437 347 21:38 16.10.2019
59 Snow 0 1022 77 0 5.437 347 21:38 16.10.2019
60 Snow 0 1021 69 0 5.432 352 21:20 16.10.2019
61 Snow 0 1021 69 0 5.432 352 20:58 16.10.2019
62 Snow 0 1021 69 0 5.432 352 20:40 16.10.2019
63 Snow 0 1021 69 0 5.432 352 20:21 16.10.2019
64 Snow 0 1021 69 0 5.432 352 19:59 16.10.2019
65 Snow 0 1021 69 0 5.432 352 19:39 16.10.2019
66 Snow 0 1021 69 0 5.432 352 19:39 16.10.2019
67 Snow 0 1021 69 0 5.432 352 19:21 16.10.2019
68 Snow 0 1021 69 0 5.432 352 18:55 16.10.2019
69 Snow 0 1021 69 0 5.432 352 18:37 16.10.2019
70 Snow 0 1021 71 0 5.444 358 18:18 16.10.2019
71 Snow 0 1021 71 0 5.444 358 17:54 16.10.2019
72 Snow 0 1021 71 0 5.444 358 17:54 16.10.2019
73 Snow 0 1021 71 0 5.444 358 17:36 16.10.2019
74 Snow 0 1021 71 0 5.444 358 17:18 16.10.2019
75 Snow 0 1021 71 0 5.444 358 16:43 16.10.2019
76 Snow 0 1021 71 0 5.444 358 16:22 16.10.2019
77 Snow 0 1021 71 0 5.444 358 15:59 16.10.2019
78 Snow 0 1021 71 0 5.444 358 15:39 16.10.2019
79 Clouds 0 1021 71 0 5.095 12 15:19 16.10.2019
80 Clouds 0 1021 71 0 5.095 12 14:58 16.10.2019
81 Snow 0 1021 71 0 5.2 16 14:39 16.10.2019
82 Snow 0 1021 71 0 5.2 16 14:39 16.10.2019
83 Snow 0 1021 71 0 5.2 16 14:20 16.10.2019
84 Snow 0 1021 71 0 5.2 16 13:57 16.10.2019
85 Snow 0 1021 71 0 5.2 16 13:39 16.10.2019
86 Snow 0 1021 71 0 5.2 16 13:20 16.10.2019
87 Snow 0 1021 71 0 5.2 16 12:42 16.10.2019
88 Snow 0 1021 72 0 5.379 33 12:20 16.10.2019
89 Snow 0 1021 72 0 5.379 33 11:55 16.10.2019
90 Snow 0 1021 72 0 5.379 33 11:36 16.10.2019
91 Snow 0 1021 72 0 5.379 33 11:18 16.10.2019
92 Snow 0 1021 72 0 5.379 33 10:36 16.10.2019
93 Snow 0 1021 72 0 5.379 33 10:18 16.10.2019
94 Snow 0 1021 72 0 5.379 33 09:40 16.10.2019
95 Snow 0 1020 76 0 6.738 51 09:22 16.10.2019
96 Snow 0 1020 76 0 6.738 51 08:56 16.10.2019
97 -273 0 0 0 0 0 08:56 16.10.2019
98 Snow 0 1020 76 0 6.738 51 08:38 16.10.2019
99 Snow 0 1020 76 0 6.738 51 08:19 16.10.2019
100 Snow 0 1020 76 0 6.738 51 07:41 16.10.2019
101 Snow 0 1020 76 0 6.738 51 07:23 16.10.2019
102 Snow 0 1020 76 0 6.738 51 06:48 16.10.2019
103 Snow 0 1020 76 0 6.738 51 06:29 16.10.2019
104 Clouds -1 1019 76 0 8.056 56 04:31 16.10.2019
105 Clouds -1 1017 76 0 8.903 58 02:51 16.10.2019
106 Snow -1 1017 76 0 8.828 58 01:20 16.10.2019
107 Snow -1 1017 76 0 8.828 58 00:59 16.10.2019
108 Snow -1 1017 76 0 8.828 58 00:40 16.10.2019
109 Clouds -1 1016 77 0 9.717 58 23:58 15.10.2019
110 Clouds -1 1016 77 0 9.717 58 23:38 15.10.2019
111 Clouds -1 1016 77 0 9.717 58 23:19 15.10.2019
112 Clouds -1 1016 77 0 9.717 58 22:55 15.10.2019
113 Clouds -1 1016 77 0 9.717 58 22:37 15.10.2019
114 Clouds -1 1016 77 0 9.717 58 22:18 15.10.2019
115 Clouds -1 1016 77 0 9.717 58 22:18 15.10.2019
116 Clouds -1 1016 77 0 9.717 58 21:54 15.10.2019
117 Clouds -1 1015 78 0 9.971 54 21:36 15.10.2019
118 Snow -1 1013 79 0 10.656 54 21:18 15.10.2019
119 Snow -1 1013 79 0 10.656 54 20:54 15.10.2019
120 Snow -1 1013 79 0 10.656 54 20:54 15.10.2019
121 Snow -1 1013 79 0 10.656 54 20:54 15.10.2019
122 Snow -1 1013 79 0 10.656 54 20:36 15.10.2019
123 Snow -1 1013 79 0 10.656 54 20:18 15.10.2019
124 Snow -1 1013 79 0 10.656 54 19:41 15.10.2019
125 Snow -1 1013 79 0 10.656 54 19:20 15.10.2019
126 Snow -1 1013 79 0 10.656 54 18:57 15.10.2019
127 Snow -1 1013 79 0 10.656 54 18:57 15.10.2019
128 Snow -1 1013 79 0 10.656 54 18:39 15.10.2019
129 Snow 0 1012 84 0 10.895 54 18:20 15.10.2019
130 Snow 0 1012 84 0 10.895 54 17:42 15.10.2019
131 Snow 0 1012 84 0 10.895 54 17:42 15.10.2019
132 Snow 0 1012 84 0 10.895 54 17:42 15.10.2019
133 Snow 0 1012 84 0 10.895 54 17:21 15.10.2019
134 Snow 0 1012 84 0 10.895 54 16:59 15.10.2019
135 Snow 0 1012 84 0 10.895 54 16:41 15.10.2019
136 Snow 0 1012 84 0 10.895 54 16:21 15.10.2019
137 Snow 0 1012 84 0 10.895 54 15:55 15.10.2019
138 Snow 0 1012 84 0 10.895 54 15:37 15.10.2019
139 Snow 1 1010 85 0 10.98 55 15:19 15.10.2019
140 Snow 1 1010 85 0 10.98 55 14:54 15.10.2019
141 Snow 1 1010 86 0 10.781 56 14:36 15.10.2019
142 Snow 1 1010 86 0 10.781 56 14:18 15.10.2019
143 Snow 1 1010 86 0 10.781 56 13:43 15.10.2019
144 Snow 1 1010 86 0 10.781 56 13:20 15.10.2019
145 Snow 1 1010 86 0 10.781 56 12:44 15.10.2019
146 Snow 2 1008 90 0 10.961 55 12:22 15.10.2019
147 Snow 2 1008 90 0 10.961 55 11:59 15.10.2019
148 Snow 2 1008 90 0 10.961 55 11:40 15.10.2019
149 Snow 2 1008 90 0 10.961 55 11:19 15.10.2019
150 Snow 2 1008 90 0 10.961 55 10:46 15.10.2019
151 Clouds 2 1008 90 0 10.96 55.888 10:23 15.10.2019
152 Clouds 2 1008 90 0 10.96 55.888 09:59 15.10.2019
153 Clouds 2 1008 90 0 10.96 55.888 09:40 15.10.2019
154 Clouds 2 1006 93 0 9.94 64.002 09:21 15.10.2019
155 Clouds 2 1006 92 0 10.37 63.148 08:57 15.10.2019
156 Clouds 2 1006 92 0 10.37 63.148 08:39 15.10.2019
157 Clouds 2 1006 92 0 10.37 63.148 08:18 15.10.2019
158 Clouds 2 1006 92 0 10.37 63.148 07:43 15.10.2019
159 Clouds 2 1006 92 0 10.37 63.148 07:22 15.10.2019
160 Clouds 2 1006 92 0 10.37 63.148 06:55 15.10.2019
161 Clouds 2 1006 92 0 10.37 63.148 06:37 15.10.2019
162 Clouds 2 1004 94 0 9.69 61.106 05:56 15.10.2019
163 Clouds 2 1004 94 0 9.69 61.106 05:36 15.10.2019
164 Clouds 2 1004 94 0 9.69 61.106 04:48 15.10.2019
165 Clouds 2 1004 94 0 9.69 61.106 03:59 15.10.2019
166 Clouds 2 1004 94 0 9.69 61.106 03:34 15.10.2019
167 Clouds 2 1003 96 0 9.61 59.817 01:51 15.10.2019
168 Clouds 2 1003 95 0 9.83 57.704 01:26 15.10.2019
169 Clouds 2 1003 95 0 9.83 57.704 00:59 15.10.2019
170 Clouds 2 1003 95 0 9.83 57.704 00:24 15.10.2019
171 Clouds 3 1003 85 0 8.09 55.878 23:57 14.10.2019
172 Clouds 3 1003 85 0 8.09 55.878 23:37 14.10.2019
173 Clouds 3 1003 85 0 8.09 55.878 23:18 14.10.2019
174 Clouds 3 1003 85 0 8.09 55.878 22:39 14.10.2019
175 Clouds 3 1003 85 0 8.09 55.878 22:20 14.10.2019
176 Clouds 3 1003 85 0 8.09 55.878 21:57 14.10.2019
177 Clouds 3 1003 85 0 8.09 55.878 21:39 14.10.2019
178 Clouds 3 1002 90 0 7.7 49.512 21:20 14.10.2019
179 Clouds 3 1002 84 0 7.72 56.473 20:57 14.10.2019
180 Clouds 3 1002 84 0 7.72 56.473 20:38 14.10.2019
181 Clouds 3 1002 84 0 7.72 56.473 20:19 14.10.2019
182 Snow 3 1002 84 0 7.715 56 19:43 14.10.2019
183 Snow 3 1002 84 0 7.715 56 19:25 14.10.2019
184 Clouds 3 1002 84 0 7.72 56.473 18:59 14.10.2019
185 Clouds 3 1002 84 0 7.72 56.473 18:40 14.10.2019
186 Clouds 3 1002 84 0 7.72 56.473 18:40 14.10.2019
187 Rain 3 1003 86 0 6.93 59.343 18:20 14.10.2019
188 Rain 3 1003 86 0 6.93 59.343 18:20 14.10.2019
189 Rain 3 1003 86 0 6.93 59.343 17:58 14.10.2019
190 Rain 3 1003 86 0 6.93 59.343 17:40 14.10.2019
191 Rain 3 1003 86 0 6.93 59.343 17:21 14.10.2019
192 Rain 3 1003 86 0 6.93 59.343 16:44 14.10.2019
193 Rain 3 1003 86 0 6.93 59.343 16:22 14.10.2019
194 Rain 3 1003 86 0 6.93 59.343 15:57 14.10.2019
195 Rain 3 1003 86 0 6.93 59.343 15:57 14.10.2019
196 Rain 3 1003 86 0 6.93 59.343 15:38 14.10.2019
197 Clouds 3 1002 86 0 5.99 50.497 15:20 14.10.2019
198 Clouds 3 1002 86 0 5.99 50.497 14:43 14.10.2019
199 Clouds 3 1002 86 0 5.99 50.497 14:24 14.10.2019
200 Clouds 3 1002 86 0 5.99 50.497 13:56 14.10.2019
201 Clouds 3 1002 86 0 5.99 50.497 13:37 14.10.2019
202 Clouds 3 1002 87 0 5.7 50.152 13:18 14.10.2019
203 Clouds 3 1002 87 0 5.7 50.152 12:40 14.10.2019
204 Clouds 3 1002 87 0 5.7 50.152 12:40 14.10.2019
205 Clouds 3 1002 87 0 3.04 76.247 12:19 14.10.2019
206 Clouds 3 1002 87 0 3.04 76.247 12:19 14.10.2019
207 Clouds 3 1002 87 0 3.04 76.247 11:47 14.10.2019
208 Clouds 3 1002 87 0 3.04 76.247 11:27 14.10.2019
209 Clouds 3 1002 87 0 3.04 76.247 10:58 14.10.2019
210 Clouds 3 1002 87 0 3.04 76.247 10:39 14.10.2019
211 Clouds 3 1002 87 0 3.04 76.247 10:20 14.10.2019
212 Clouds 3 1002 87 0 3.04 76.247 09:56 14.10.2019
213 Clouds 3 1002 87 0 3.04 76.247 09:37 14.10.2019
214 Rain 3 1002 90 0 2.79 138.998 09:18 14.10.2019
215 Rain 3 1002 90 0 2.79 138.998 08:44 14.10.2019
216 Rain 3 1002 90 0 2.79 138.998 08:22 14.10.2019
217 Rain 3 1002 90 0 2.79 138.998 07:42 14.10.2019
218 Rain 3 1002 90 0 2.79 138.998 07:19 14.10.2019
219 Rain 3 1002 90 0 2.79 138.998 06:48 14.10.2019
220 Clouds 3 1002 88 0 1.41 165.865 06:20 14.10.2019
221 Clouds 3 1002 88 0 1.41 165.865 05:49 14.10.2019
222 Clouds 3 1002 88 0 1.41 165.865 04:43 14.10.2019
223 Clouds 3 1002 88 0 1.41 165.865 03:27 14.10.2019
224 Clouds 3 1002 90 0 2.13 215.193 02:42 14.10.2019
225 Clouds 3 1002 90 0 1.93 222.164 01:23 14.10.2019
226 Clouds 3 1002 90 0 1.93 222.164 00:56 14.10.2019
227 Clouds 3 1001 90 0 4.73 218.554 00:20 14.10.2019
228 Clouds 3 1001 90 0 4.73 218.554 23:45 13.10.2019
229 Clouds 3 1001 90 0 4.73 218.554 23:20 13.10.2019
230 Clouds 3 1001 90 0 4.73 218.554 22:58 13.10.2019
231 Clouds 3 1001 90 0 4.73 218.554 22:58 13.10.2019
232 -273 0 0 0 0 0 22:40 13.10.2019
233 Clouds 3 1001 90 0 4.73 218.554 22:21 13.10.2019
234 Clouds 3 1001 90 0 4.73 218.554 21:58 13.10.2019
235 Clouds 3 1001 90 0 4.73 218.554 21:37 13.10.2019
236 Rain 3 1002 94 0 5.36 213.539 21:19 13.10.2019
237 Rain 3 1002 94 0 5.36 213.539 20:57 13.10.2019
238 Rain 3 1002 94 0 5.36 213.539 20:57 13.10.2019
239 Rain 4 1002 94 0 5.31 220.096 20:38 13.10.2019
240 -273 0 0 0 0 0 20:20 13.10.2019
241 Rain 4 1002 94 0 5.31 220.096 19:58 13.10.2019
242 -273 0 0 0 0 0 19:39 13.10.2019
243 Rain 4 1002 94 0 5.31 220.096 19:21 13.10.2019
244 -273 0 0 0 0 0 18:57 13.10.2019
245 Rain 4 1002 94 0 5.31 220.096 18:56 13.10.2019
246 Rain 4 1002 94 0 5.31 220.096 18:56 13.10.2019
247 Rain 4 1002 94 0 5.31 220.096 18:56 13.10.2019
248 Rain 4 1002 94 0 5.31 220.096 18:36 13.10.2019
249 Rain 4 1001 93 0 6.48 221.05 18:18 13.10.2019
250 Rain 4 1001 93 0 6.48 221.05 17:44 13.10.2019
251 Rain 4 1001 93 0 6.48 221.05 17:44 13.10.2019
252 Rain 4 1001 93 0 6.48 221.05 17:26 13.10.2019
253 Rain 4 1001 93 0 6.48 221.05 17:25 13.10.2019
254 Rain 4 1001 93 0 6.48 221.05 17:25 13.10.2019
255 -273 0 0 0 0 0 16:56 13.10.2019
256 Rain 4 1001 93 0 6.48 221.05 16:36 13.10.2019
257 Rain 4 1001 93 0 6.48 221.05 16:18 13.10.2019
258 Rain 4 1001 93 0 6.48 221.05 15:55 13.10.2019
259 Rain 4 1001 93 0 6.48 221.05 15:55 13.10.2019
260 Rain 4 1001 93 0 6.48 221.05 15:36 13.10.2019
261 Rain 4 1002 93 0 7.12 219.74 15:18 13.10.2019
262 Rain 4 1002 93 0 7.12 219.74 14:40 13.10.2019
263 Rain 4 1002 93 0 7.12 219.74 14:22 13.10.2019
264 Rain 4 1002 93 0 7.12 219.74 13:59 13.10.2019
265 Rain 4 1002 93 0 7.12 219.74 13:39 13.10.2019
266 Rain 4 1002 93 0 7.12 219.74 13:39 13.10.2019
267 Rain 4 1002 92 0 7.76 214.452 13:21 13.10.2019
268 Rain 4 1002 92 0 7.76 214.452 12:56 13.10.2019
269 Rain 4 1002 92 0 7.76 214.452 12:38 13.10.2019
270 Rain 4 1001 93 0 8.56 219.86 12:19 13.10.2019
271 Rain 4 1001 93 0 8.56 219.86 11:58 13.10.2019
272 Rain 4 1001 93 0 8.56 219.86 11:38 13.10.2019
273 Rain 4 1001 93 0 8.56 219.86 11:38 13.10.2019
274 Rain 4 1001 93 0 8.56 219.86 11:19 13.10.2019
275 Rain 4 1001 93 0 8.56 219.86 10:42 13.10.2019
276 Rain 4 1001 93 0 8.56 219.86 10:23 13.10.2019
277 Rain 4 1001 93 0 8.56 219.86 10:23 13.10.2019
278 Rain 4 1001 93 0 8.56 219.86 09:57 13.10.2019
279 Rain 4 1001 93 0 8.56 219.86 09:38 13.10.2019
280 Rain 4 1001 93 0 9.95 221.737 09:19 13.10.2019
281 Rain 4 1001 93 0 9.73 223.1 08:43 13.10.2019
282 Rain 4 1001 93 0 9.73 223.1 08:22 13.10.2019
283 Rain 4 1001 93 0 9.73 223.1 07:46 13.10.2019
284 Rain 4 1001 93 0 9.73 223.1 07:23 13.10.2019
285 Rain 4 1001 93 0 9.73 223.1 06:46 13.10.2019
286 Rain 4 1001 92 0 8.3 218.048 05:50 13.10.2019
287 Rain 4 1001 92 0 8.3 218.048 04:52 13.10.2019
288 Rain 4 1001 92 0 8.3 218.048 04:32 13.10.2019
289 Rain 4 1001 94 0 8.86 222.641 02:42 13.10.2019
290 Rain 4 1001 94 0 8.86 222.641 02:42 13.10.2019
291 Rain 4 1001 94 0 8.86 222.641 02:18 13.10.2019
292 Rain 4 1001 94 0 8.86 222.641 01:31 13.10.2019
293 Rain 4 1001 93 0 8.75 223.097 00:50 13.10.2019
294 Rain 3 1001 94 0 9.67 219.177 00:22 13.10.2019
295 Rain 3 1001 94 0 9.67 219.177 23:57 12.10.2019
296 Rain 3 1001 94 0 9.67 219.177 23:39 12.10.2019
297 Rain 3 1001 94 0 9.67 219.177 23:20 12.10.2019
298 Rain 3 1001 94 0 9.67 219.177 22:57 12.10.2019
299 Rain 3 1001 94 0 9.67 219.177 22:38 12.10.2019
300 Rain 3 1001 94 0 9.67 219.177 22:20 12.10.2019
301 Rain 3 1001 94 0 9.67 219.177 21:55 12.10.2019
302 Rain 3 1001 94 0 9.67 219.177 21:37 12.10.2019
303 Rain 3 1001 96 0 10.09 217.713 21:19 12.10.2019
304 -273 0 0 0 0 0 20:41 12.10.2019
305 Rain 3 1001 93 0 10.58 215.476 20:23 12.10.2019
306 Rain 3 1001 93 0 10.58 215.476 19:40 12.10.2019
307 Rain 3 1001 93 0 10.58 215.476 19:40 12.10.2019
308 Rain 3 1001 93 0 10.58 215.476 19:22 12.10.2019
309 Rain 3 1001 93 0 10.58 215.476 18:59 12.10.2019
310 Rain 3 1001 93 0 10.58 215.476 18:40 12.10.2019
311 Rain 3 1001 93 0 10.58 215.476 18:40 12.10.2019
312 Clouds 3 1002 96 0 11.21 222.498 18:22 12.10.2019
313 Clouds 3 1002 96 0 11.21 222.498 17:43 12.10.2019
314 Clouds 3 1002 96 0 11.21 222.498 17:19 12.10.2019
315 Clouds 3 1002 96 0 11.21 222.498 16:54 12.10.2019
316 Clouds 3 1002 96 0 11.21 222.498 16:54 12.10.2019
317 Clouds 3 1002 96 0 11.21 222.498 16:36 12.10.2019
318 Clouds 3 1002 96 0 11.21 222.498 16:18 12.10.2019
319 Clouds 3 1002 96 0 11.21 222.498 15:43 12.10.2019
320 Clouds 3 1002 96 0 11.73 220.702 15:23 12.10.2019
321 Clouds 3 1002 96 0 11.73 220.702 14:43 12.10.2019
322 Clouds 3 1002 96 0 11.73 220.702 14:22 12.10.2019
323 Clouds 3 1002 96 0 11.73 220.702 13:58 12.10.2019
324 Clouds 3 1002 96 0 11.73 220.702 13:40 12.10.2019
325 Clouds 3 1002 96 0 11.73 220.702 13:40 12.10.2019
326 Rain 3 1002 96 0 11.72 221.401 13:21 12.10.2019
327 Rain 3 1002 96 0 11.72 221.401 12:39 12.10.2019
328 Rain 3 1002 93 0 12.05 219.905 12:21 12.10.2019
329 Rain 3 1002 93 0 12.05 219.905 11:58 12.10.2019
330 Rain 3 1002 93 0 12.05 219.905 11:39 12.10.2019
331 Rain 3 1002 93 0 12.05 219.905 11:39 12.10.2019
332 Rain 3 1002 93 0 12.05 219.905 11:20 12.10.2019
333 Rain 3 1002 93 0 12.05 219.905 10:43 12.10.2019
334 Rain 3 1002 93 0 12.05 219.905 10:23 12.10.2019
335 Rain 3 1002 93 0 12.05 219.905 09:58 12.10.2019
336 Rain 3 1002 93 0 12.05 219.905 09:39 12.10.2019
337 Clouds 3 1002 96 0 11.76 210.476 09:21 12.10.2019
338 Clouds 2 1003 96 0 10.1 217.26 08:57 12.10.2019
339 Clouds 2 1003 96 0 10.1 217.26 08:38 12.10.2019
340 Clouds 2 1003 96 0 10.1 217.26 08:19 12.10.2019
341 Clouds 2 1003 96 0 10.1 217.26 07:34 12.10.2019
342 Clouds 2 1003 96 0 10.1 217.26 06:51 12.10.2019
343 Clouds 3 1003 95 0 11.89 216.811 05:47 12.10.2019
344 Clouds 3 1003 95 0 11.89 216.811 05:22 12.10.2019
345 Clouds 3 1003 95 0 11.89 216.811 04:24 12.10.2019
346 Clouds 3 1003 95 0 11.89 216.811 03:30 12.10.2019
347 Clouds 2 1003 96 0 11.25 209.207 01:38 12.10.2019
348 Clouds 3 1003 96 0 11.58 207.837 01:19 12.10.2019
349 Clouds 3 1003 96 0 11.58 207.837 00:40 12.10.2019
350 Clouds 2 1004 96 0 12.33 200.357 23:59 11.10.2019
351 Clouds 2 1004 96 0 12.33 200.357 23:40 11.10.2019
352 Clouds 2 1004 96 0 12.33 200.357 23:20 11.10.2019
353 Clouds 2 1004 96 0 12.33 200.357 22:41 11.10.2019
354 Clouds 2 1004 96 0 12.33 200.357 22:41 11.10.2019
355 Clouds 2 1004 96 0 12.33 200.357 22:21 11.10.2019
356 Clouds 2 1004 96 0 12.33 200.357 21:57 11.10.2019
357 Clouds 2 1004 96 0 12.33 200.357 21:38 11.10.2019
358 Clouds 2 1005 95 0 11.96 204.545 21:20 11.10.2019
359 Clouds 2 1005 95 0 11.6 203.583 20:44 11.10.2019
360 Clouds 2 1005 95 0 11.6 203.583 20:26 11.10.2019
361 Clouds 2 1005 95 0 11.6 203.583 19:58 11.10.2019
362 Clouds 2 1005 95 0 11.6 203.583 19:39 11.10.2019
363 Clouds 2 1005 95 0 11.6 203.583 19:18 11.10.2019
364 Clouds 2 1005 95 0 11.6 203.583 18:58 11.10.2019
365 Clouds 2 1005 95 0 11.6 203.583 18:38 11.10.2019
366 Clouds 2 1005 95 0 11.6 203.583 18:38 11.10.2019
367 Clouds 2 1006 95 0 11.07 198.998 18:19 11.10.2019
368 Clouds 2 1006 95 0 11.07 198.998 17:58 11.10.2019
369 Clouds 2 1006 95 0 11.07 198.998 17:38 11.10.2019
370 Clouds 2 1006 95 0 11.07 198.998 17:19 11.10.2019
371 Clouds 2 1006 95 0 11.07 198.998 16:56 11.10.2019
372 Clouds 2 1006 95 0 11.07 198.998 16:37 11.10.2019
373 Clouds 2 1006 95 0 11.07 198.998 16:18 11.10.2019
374 Clouds 2 1006 95 0 11.07 198.998 15:41 11.10.2019
375 Clouds 2 1007 90 0 10.89 202.364 15:20 11.10.2019
376 Clouds 2 1007 90 0 10.89 202.364 14:58 11.10.2019
377 Clouds 2 1007 90 0 10.89 202.364 14:58 11.10.2019
378 Clouds 2 1007 90 0 10.89 202.364 14:37 11.10.2019
379 Clouds 2 1007 90 0 10.89 202.364 14:19 11.10.2019
380 Clouds 2 1007 90 0 10.89 202.364 13:43 11.10.2019
381 Clouds 2 1007 91 0 10.92 200.672 13:24 11.10.2019
382 Clouds 2 1007 91 0 10.92 200.672 12:56 11.10.2019
383 Clouds 2 1007 91 0 10.92 200.672 12:38 11.10.2019
384 Clouds 2 1008 89 0 11.12 206.15 12:20 11.10.2019
385 Clouds 2 1008 89 0 11.12 206.15 11:57 11.10.2019
386 Clouds 2 1008 89 0 11.12 206.15 11:38 11.10.2019
387 Clouds 2 1008 89 0 11.12 206.15 11:20 11.10.2019
388 Clouds 2 1008 89 0 11.12 206.15 10:42 11.10.2019
389 Clouds 2 1008 89 0 11.12 206.15 10:23 11.10.2019
390 Clouds 2 1008 89 0 11.12 206.15 09:59 11.10.2019
391 Clouds 2 1008 87 0 11.18 207.695 09:40 11.10.2019
392 Clouds 2 1007 84 0 10.62 215.481 09:20 11.10.2019
393 Clouds 2 1007 84 0 10.62 215.481 08:56 11.10.2019
394 Clouds 2 1007 84 0 10.62 215.481 08:38 11.10.2019
395 Clouds 2 1007 84 0 10.62 215.481 08:19 11.10.2019
396 Clouds 2 1007 84 0 10.62 215.481 07:51 11.10.2019
397 Clouds 2 1007 84 0 10.62 215.481 07:33 11.10.2019
398 Clouds 2 1007 84 0 10.62 215.481 06:49 11.10.2019
399 Clouds 2 1007 84 0 10.62 215.481 06:24 11.10.2019
400 Clouds 2 1006 83 0 11.71 223.027 05:41 11.10.2019
401 Clouds 2 1006 83 0 11.71 223.027 05:20 11.10.2019
402 Clouds 2 1006 83 0 11.71 223.027 04:38 11.10.2019
403 Clouds 2 1004 92 0 11.15 239.521 02:47 11.10.2019
404 Clouds 2 1004 95 0 11.52 241.1 00:52 11.10.2019
405 Clouds 2 1004 95 0 11.52 241.1 00:29 11.10.2019
406 Rain 3 1001 96 0 12.35 264.537 23:48 10.10.2019
407 Rain 3 1001 96 0 12.35 264.537 23:23 10.10.2019
408 Rain 3 1001 96 0 12.35 264.537 22:58 10.10.2019
409 Rain 3 1001 96 0 12.35 264.537 22:40 10.10.2019
410 Rain 3 1001 96 0 12.35 264.537 22:21 10.10.2019
411 Rain 3 1001 96 0 12.35 264.537 21:58 10.10.2019
412 Rain 3 1001 96 0 12.35 264.537 21:40 10.10.2019
413 Rain 3 1000 97 0 8.21 278.488 21:21 10.10.2019
414 Rain 4 999 96 0 11.16 273.973 20:57 10.10.2019
415 Rain 4 999 96 0 11.16 273.973 20:57 10.10.2019
416 Rain 4 999 96 0 11.16 273.973 20:38 10.10.2019
417 Rain 4 999 96 0 11.16 273.973 20:18 10.10.2019
418 Rain 4 999 96 0 11.16 273.973 20:18 10.10.2019
419 Rain 4 999 96 0 11.16 273.973 19:54 10.10.2019
420 Rain 4 999 96 0 11.16 273.973 19:36 10.10.2019
421 Rain 4 999 96 0 11.16 273.973 19:18 10.10.2019
422 Rain 4 999 96 0 11.16 273.973 18:41 10.10.2019
423 Rain 3 1000 98 0 2.4 3.614 18:20 10.10.2019
424 Rain 3 1000 98 0 2.4 3.614 17:55 10.10.2019
425 Rain 3 1000 98 0 2.4 3.614 17:37 10.10.2019
426 Rain 3 1000 98 0 2.4 3.614 17:18 10.10.2019
427 Rain 3 1000 98 0 2.4 3.614 16:46 10.10.2019
428 Rain 3 1000 98 0 2.4 3.614 16:26 10.10.2019
429 Rain 3 1000 98 0 2.4 3.614 16:26 10.10.2019
430 Rain 3 1000 98 0 2.4 3.614 15:58 10.10.2019
431 Rain 3 1000 98 0 2.4 3.614 15:38 10.10.2019
432 Rain 4 1003 98 0 5.1 51.398 15:19 10.10.2019
433 Rain 4 1003 98 0 5.1 51.398 14:55 10.10.2019
434 Rain 4 1003 98 0 5.1 51.398 14:36 10.10.2019
435 Rain 4 1003 98 0 5.1 51.398 14:18 10.10.2019
436 Rain 4 1003 98 0 5.1 51.398 13:42 10.10.2019
437 Rain 4 1003 98 0 5.64 39.293 13:24 10.10.2019
438 Rain 4 1003 98 0 5.64 39.293 12:58 10.10.2019
439 Rain 4 1003 98 0 5.64 39.293 12:40 10.10.2019
440 Rain 3 1006 97 0 5.8 36.481 12:20 10.10.2019
441 Rain 3 1006 97 0 5.8 36.481 11:57 10.10.2019
442 Rain 3 1006 97 0 5.8 36.481 11:38 10.10.2019
443 Rain 3 1006 97 0 5.8 36.481 11:19 10.10.2019
444 Rain 3 1006 97 0 5.8 36.481 10:44 10.10.2019
445 Rain 3 1006 97 0 5.8 36.481 10:26 10.10.2019
446 Rain 3 1006 97 0 5.8 36.481 09:56 10.10.2019
447 Rain 3 1006 97 0 5.8 36.481 09:38 10.10.2019
448 Rain 3 1009 95 0 3.61 51.528 09:20 10.10.2019
449 Rain 3 1010 95 0 2.42 68.998 08:57 10.10.2019
450 Rain 3 1010 95 0 2.42 68.998 08:37 10.10.2019
451 Rain 3 1010 95 0 2.42 68.998 08:18 10.10.2019
452 Rain 3 1010 95 0 2.42 68.998 07:44 10.10.2019
453 Rain 3 1010 95 0 2.42 68.998 07:21 10.10.2019
454 Rain 3 1010 95 0 2.42 68.998 06:48 10.10.2019
455 Rain 3 1010 95 0 2.42 68.998 06:29 10.10.2019
456 Clouds 2 1012 92 0 2.96 56.412 05:28 10.10.2019
457 Clouds 2 1012 92 0 2.96 56.412 04:47 10.10.2019
458 Clouds 2 1012 92 0 2.96 56.412 04:26 10.10.2019
459 Clouds 2 1012 92 0 2.96 56.412 04:26 10.10.2019
460 Clouds 2 1012 84 0 1.94 125.113 01:44 10.10.2019
461 Clouds 2 1012 84 0 1.94 125.113 01:44 10.10.2019
462 Clouds 2 1012 90 0 2.57 81.826 01:25 10.10.2019
463 Clouds 2 1012 90 0 2.57 81.826 00:54 10.10.2019
464 Clouds 2 1012 90 0 2.57 81.826 00:54 10.10.2019
465 Clouds 3 1014 74 0 2.62 163.401 00:22 10.10.2019
466 Clouds 3 1014 74 0 2.62 163.401 23:40 09.10.2019
467 Clouds 3 1014 74 0 2.62 163.401 23:21 09.10.2019
468 Clouds 3 1014 74 0 2.62 163.401 22:56 09.10.2019
469 Clouds 3 1014 74 0 2.62 163.401 22:38 09.10.2019
470 Clouds 3 1014 74 0 2.62 163.401 22:20 09.10.2019
471 Clouds 3 1014 74 0 2.62 163.401 21:40 09.10.2019
472 Clouds 3 1015 74 0 3.36 184.972 21:21 09.10.2019
473 Clouds 3 1016 75 0 2.56 174.198 20:56 09.10.2019
474 Clouds 3 1016 75 0 2.56 174.198 20:38 09.10.2019
475 Clouds 3 1016 75 0 2.56 174.198 20:19 09.10.2019
476 Clouds 3 1016 75 0 2.56 174.198 19:58 09.10.2019
477 Clouds 3 1016 75 0 2.56 174.198 19:39 09.10.2019
478 Clouds 3 1016 75 0 2.56 174.198 19:20 09.10.2019
479 Clouds 3 1016 75 0 2.56 174.198 18:38 09.10.2019
480 Clouds 3 1016 75 0 2.56 174.198 18:38 09.10.2019
481 Clouds 4 1016 75 0 4.17 168.423 18:19 09.10.2019
482 Clouds 4 1016 75 0 4.17 168.423 17:57 09.10.2019
483 Clouds 4 1016 75 0 4.17 168.423 17:37 09.10.2019
484 Clouds 4 1016 75 0 4.17 168.423 17:19 09.10.2019
485 Clouds 4 1016 75 0 4.17 168.423 16:55 09.10.2019
486 Clouds 4 1016 75 0 4.17 168.423 16:36 09.10.2019
487 Clouds 4 1016 75 0 4.17 168.423 16:18 09.10.2019
488 Clouds 4 1016 75 0 4.17 168.423 15:55 09.10.2019
489 Clouds 4 1016 75 0 4.17 168.423 15:36 09.10.2019
490 Clouds 4 1016 75 0 4.17 168.423 15:36 09.10.2019
491 Clouds 4 1016 78 0 5.13 146.372 15:18 09.10.2019
492 Clouds 4 1016 78 0 5.13 146.372 14:42 09.10.2019
493 Clouds 4 1016 78 0 5.13 146.372 14:42 09.10.2019
494 Clouds 4 1016 78 0 5.13 146.372 14:18 09.10.2019
495 -273 0 0 0 0 0 13:55 09.10.2019
496 Clouds 4 1016 78 0 5.13 146.372 13:36 09.10.2019
497 Clouds 4 1016 78 0 5.13 146.372 13:36 09.10.2019
498 Clouds 4 1016 79 0 5.72 141.454 13:18 09.10.2019
499 Clouds 4 1016 79 0 5.72 141.454 12:42 09.10.2019
500 Clouds 4 1017 77 0 4.81 150.683 12:22 09.10.2019
501 Clouds 4 1017 77 0 4.81 150.683 11:57 09.10.2019
502 Clouds 4 1017 77 0 4.81 150.683 11:39 09.10.2019
503 Clouds 4 1017 77 0 4.81 150.683 11:20 09.10.2019
504 Clouds 4 1017 77 0 4.81 150.683 10:55 09.10.2019
505 Clouds 4 1017 77 0 4.81 150.683 10:37 09.10.2019
506 Clouds 4 1017 77 0 4.81 150.683 10:18 09.10.2019
507 Clouds 4 1017 77 0 4.81 150.683 09:42 09.10.2019
508 Clouds 4 1017 76 0 5.65 207.018 09:19 09.10.2019
509 Clouds 4 1017 76 0 5.65 207.018 08:55 09.10.2019
510 Clouds 4 1017 76 0 5.58 198.402 08:37 09.10.2019
511 Clouds 4 1017 76 0 5.58 198.402 08:18 09.10.2019
512 Clouds 4 1017 76 0 5.58 198.402 07:42 09.10.2019
513 Clouds 4 1017 76 0 5.58 198.402 07:22 09.10.2019
514 Clouds 4 1017 76 0 5.58 198.402 06:52 09.10.2019
515 Clouds 4 1016 82 0 9.19 208.053 06:20 09.10.2019
516 Clouds 4 1016 82 0 9.19 208.053 05:46 09.10.2019
517 Clouds 4 1016 82 0 9.19 208.053 04:27 09.10.2019
518 Clouds 4 1014 85 0 6.77 181.59 02:54 09.10.2019
519 Clouds 4 1014 85 0 6.77 181.59 01:44 09.10.2019
520 Clouds 4 1014 87 0 5.97 172.937 01:21 09.10.2019
521 Clouds 4 1014 87 0 5.97 172.937 00:57 09.10.2019
522 Clouds 4 1014 87 0 5.97 172.937 00:39 09.10.2019
523 Clouds 3 1014 76 0 7.02 152.559 00:20 09.10.2019
524 Clouds 3 1014 76 0 7.02 152.559 23:40 08.10.2019
525 Clouds 3 1014 76 0 7.02 152.559 23:19 08.10.2019
526 Clouds 3 1014 76 0 7.02 152.559 22:58 08.10.2019
527 Clouds 3 1014 76 0 7.02 152.559 22:39 08.10.2019
528 Clouds 3 1014 76 0 7.02 152.559 22:20 08.10.2019
529 Clouds 3 1014 76 0 7.02 152.559 21:57 08.10.2019
530 Clouds 3 1014 76 0 7.02 152.559 21:39 08.10.2019
531 Clouds 3 1014 76 0 7.02 152.559 21:39 08.10.2019
532 Clouds 3 1015 73 0 7.51 127.457 21:19 08.10.2019
533 Clouds 3 1015 73 0 7.51 127.457 20:56 08.10.2019
534 Clouds 3 1015 75 0 7.8 123.498 20:38 08.10.2019
535 Clouds 3 1015 75 0 7.8 123.498 20:20 08.10.2019
536 Clouds 3 1015 75 0 7.8 123.498 19:58 08.10.2019
537 Clouds 3 1015 75 0 7.8 123.498 19:39 08.10.2019
538 Clouds 3 1015 75 0 7.8 123.498 19:20 08.10.2019
539 Clouds 3 1015 75 0 7.8 123.498 18:54 08.10.2019
540 Clouds 3 1015 75 0 7.8 123.498 18:36 08.10.2019
541 Clouds 3 1016 81 0 10.64 111.385 18:18 08.10.2019
542 Clouds 3 1016 81 0 10.64 111.385 17:40 08.10.2019
543 Clouds 3 1016 81 0 10.64 111.385 17:40 08.10.2019
544 Clouds 3 1016 81 0 10.64 111.385 17:20 08.10.2019
545 Clouds 3 1016 81 0 10.64 111.385 16:58 08.10.2019
546 Clouds 3 1016 81 0 10.64 111.385 16:38 08.10.2019
547 Clouds 3 1016 81 0 10.64 111.385 16:20 08.10.2019
548 Clouds 3 1016 81 0 10.64 111.385 15:40 08.10.2019
549 Clouds 3 1019 81 0 11.05 108.916 15:21 08.10.2019
550 Clouds 3 1019 81 0 11.05 108.916 14:57 08.10.2019
551 Clouds 3 1019 81 0 11.05 108.916 14:39 08.10.2019
552 Clouds 3 1019 81 0 11.05 108.916 14:20 08.10.2019
553 Clouds 3 1019 81 0 11.05 108.916 13:56 08.10.2019
554 Clouds 3 1019 81 0 11.05 108.916 13:37 08.10.2019
555 Clouds 3 1019 81 0 11.05 108.916 13:18 08.10.2019
556 Clouds 3 1019 82 0 11.09 109.598 12:42 08.10.2019
557 Clouds 3 1020 84 0 8.15 106.085 12:21 08.10.2019
558 Clouds 3 1020 84 0 8.15 106.085 12:21 08.10.2019
559 Clouds 3 1020 84 0 8.15 106.085 11:59 08.10.2019
560 Clouds 3 1020 84 0 8.15 106.085 11:40 08.10.2019
561 Clouds 3 1020 84 0 8.15 106.085 11:21 08.10.2019
562 Clouds 3 1020 84 0 8.15 106.085 10:55 08.10.2019
563 Clouds 3 1020 84 0 8.15 106.085 10:36 08.10.2019
564 Clouds 3 1020 84 0 8.15 106.085 10:36 08.10.2019
565 Clouds 3 1020 84 0 8.15 106.085 10:18 08.10.2019
566 Clouds 3 1020 84 0 8.15 106.085 09:41 08.10.2019
567 Clouds 2 1022 86 0 4.51 117.68 09:22 08.10.2019
568 Clouds 2 1022 86 0 4.51 117.68 08:55 08.10.2019
569 Clouds 2 1022 87 0 4.23 121.584 08:36 08.10.2019
570 Clouds 2 1022 87 0 4.23 121.584 08:18 08.10.2019
571 Clouds 2 1022 87 0 4.23 121.584 07:41 08.10.2019
572 Clouds 2 1022 87 0 4.23 121.584 07:19 08.10.2019
573 Clouds 2 1022 87 0 4.23 121.584 06:46 08.10.2019
574 Clouds 2 1022 86 0 0.71 199.382 06:23 08.10.2019
575 Clouds 2 1022 86 0 0.71 199.382 05:44 08.10.2019
576 Clouds 2 1022 86 0 0.71 199.382 05:44 08.10.2019
577 Clouds 2 1022 86 0 0.71 199.382 05:21 08.10.2019
578 Clouds 2 1022 86 0 0.71 199.382 03:32 08.10.2019
579 Clouds 2 1022 89 0 1.91 223.431 02:44 08.10.2019
580 Clouds 2 1022 89 0 1.91 223.431 02:25 08.10.2019
581 Clouds 2 1022 89 0 1.91 223.431 01:42 08.10.2019
582 Clouds 2 1022 89 0 2.53 245.045 00:57 08.10.2019
583 Clouds 2 1022 89 0 2.53 245.045 00:57 08.10.2019
584 Clouds 2 1022 89 0 2.53 245.045 00:25 08.10.2019
585 Clouds 3 1021 88 0 3.47 279.15 23:58 07.10.2019
586 Clouds 3 1021 88 0 3.47 279.15 23:38 07.10.2019
587 Clouds 3 1021 88 0 3.47 279.15 23:19 07.10.2019
588 Clouds 3 1021 88 0 3.47 279.15 23:19 07.10.2019
589 Clouds 3 1021 88 0 3.47 279.15 22:55 07.10.2019
590 Clouds 3 1021 88 0 3.47 279.15 22:37 07.10.2019
591 Clouds 3 1021 88 0 3.47 279.15 22:18 07.10.2019
592 Clouds 3 1021 88 0 3.47 279.15 21:54 07.10.2019
593 Clouds 3 1021 88 0 3.47 279.15 21:36 07.10.2019
594 Clouds 3 1021 88 0 3.47 279.15 21:36 07.10.2019
595 Clouds 3 1020 87 0 4.85 288.371 21:18 07.10.2019
596 Clouds 3 1020 82 0 2.63 326.135 20:56 07.10.2019
597 Clouds 3 1020 82 0 2.63 326.135 20:56 07.10.2019
598 Clouds 3 1020 82 0 2.63 326.135 20:37 07.10.2019
599 Clouds 3 1020 82 0 2.63 326.135 20:18 07.10.2019
600 Clouds 3 1020 82 0 2.63 326.135 19:41 07.10.2019
601 Clouds 3 1020 82 0 2.63 326.135 19:21 07.10.2019
602 Clouds 3 1020 82 0 2.63 326.135 18:59 07.10.2019
603 Clouds 3 1020 82 0 2.63 326.135 18:59 07.10.2019
604 Clouds 3 1020 82 0 2.63 326.135 18:41 07.10.2019
605 Clouds 3 1018 86 0 5.89 314.278 18:19 07.10.2019
606 Clouds 3 1018 86 0 5.89 314.278 17:56 07.10.2019
607 Clouds 3 1018 86 0 5.89 314.278 17:38 07.10.2019
608 Clouds 3 1018 86 0 5.89 314.278 17:18 07.10.2019
609 Clouds 3 1018 86 0 5.89 314.278 16:44 07.10.2019
610 Clouds 3 1018 86 0 5.89 314.278 16:25 07.10.2019
611 Clouds 3 1018 86 0 5.89 314.278 15:57 07.10.2019
612 Clouds 3 1018 86 0 5.89 314.278 15:38 07.10.2019
613 Clouds 3 1016 86 0 7.42 304.191 15:20 07.10.2019
614 Clouds 3 1016 86 0 7.42 304.191 14:41 07.10.2019
615 Clouds 3 1016 86 0 7.42 304.191 14:22 07.10.2019
616 Clouds 3 1016 86 0 7.42 304.191 13:44 07.10.2019
617 Clouds 3 1017 84 0 7.97 298.397 13:21 07.10.2019
618 Clouds 3 1017 84 0 7.97 298.397 12:57 07.10.2019
619 Clouds 3 1017 84 0 7.97 298.397 12:57 07.10.2019
620 Clouds 3 1017 84 0 7.97 298.397 12:39 07.10.2019
621 Clouds 3 1014 83 0 9.43 301.741 12:20 07.10.2019
622 Clouds 3 1014 83 0 9.43 301.741 12:20 07.10.2019
623 Clouds 3 1014 83 0 9.43 301.741 11:59 07.10.2019
624 Clouds 3 1014 83 0 9.43 301.741 11:39 07.10.2019
625 Clouds 3 1014 83 0 9.43 301.741 11:20 07.10.2019
626 Clouds 3 1014 83 0 9.43 301.741 10:42 07.10.2019
627 Clouds 3 1014 83 0 9.43 301.741 10:23 07.10.2019
628 Clouds 3 1014 83 0 9.43 301.741 09:57 07.10.2019
629 Clouds 3 1014 83 0 9.43 301.741 09:38 07.10.2019
630 Clouds 3 1014 83 0 9.43 301.741 09:38 07.10.2019
631 Clouds 3 1011 84 0 8.89 304.334 09:20 07.10.2019
632 Clouds 3 1012 83 0 8.11 292.258 08:43 07.10.2019
633 Clouds 3 1012 83 0 8.11 292.258 08:20 07.10.2019
634 Clouds 3 1012 83 0 8.11 292.258 07:47 07.10.2019
635 Clouds 3 1012 83 0 8.11 292.258 07:27 07.10.2019
636 Clouds 3 1012 83 0 8.11 292.258 06:57 07.10.2019
637 Clouds 3 1012 83 0 8.11 292.258 06:38 07.10.2019
638 Clouds 3 1009 86 0 9.23 304.663 05:56 07.10.2019
639 Clouds 3 1009 86 0 9.23 304.663 05:25 07.10.2019
640 Clouds 3 1009 86 0 9.23 304.663 04:49 07.10.2019
641 Clouds 3 1009 86 0 9.23 304.663 03:46 07.10.2019
642 Clouds 3 1009 86 0 9.23 304.663 03:46 07.10.2019
643 Clouds 3 1009 86 0 9.23 304.663 03:27 07.10.2019
644 Clouds 3 1006 85 0 10.04 296.108 02:37 07.10.2019
645 Clouds 3 1006 85 0 10.04 296.108 02:18 07.10.2019
646 Clouds 3 1006 85 0 10.04 296.108 02:18 07.10.2019
647 Clouds 2 1006 86 0 10.18 293.015 01:23 07.10.2019
648 Clouds 2 1006 86 0 10.18 293.015 00:49 07.10.2019
649 Clouds 2 1003 95 0 9.22 319.136 00:23 07.10.2019
650 Clouds 2 1003 95 0 9.22 319.136 23:59 06.10.2019
651 Clouds 2 1003 95 0 9.22 319.136 23:40 06.10.2019
652 Clouds 2 1003 95 0 9.22 319.136 23:19 06.10.2019
653 Clouds 2 1003 95 0 9.22 319.136 22:55 06.10.2019
654 Clouds 2 1003 95 0 9.22 319.136 22:55 06.10.2019
655 Clouds 2 1003 95 0 9.22 319.136 22:37 06.10.2019
656 Clouds 2 1003 95 0 9.22 319.136 22:18 06.10.2019
657 Clouds 2 1003 95 0 9.22 319.136 21:55 06.10.2019
658 Clouds 2 1003 95 0 9.22 319.136 21:54 06.10.2019
659 Clouds 2 1003 95 0 9.22 319.136 21:36 06.10.2019
660 Clouds 2 1003 95 0 9.22 319.136 21:36 06.10.2019
661 Clouds 2 1003 95 0 9.22 319.136 21:36 06.10.2019
662 Clouds 2 1000 96 0 8.9 303.52 21:18 06.10.2019
663 Clouds 2 1000 96 0 8.9 303.52 21:18 06.10.2019
664 Clouds 2 1000 96 0 8.9 303.52 20:54 06.10.2019
665 Clouds 2 999 95 0 8.04 309.526 20:36 06.10.2019
666 Clouds 2 999 95 0 8.04 309.526 20:36 06.10.2019
667 Clouds 2 999 95 0 8.04 309.526 20:36 06.10.2019
668 Clouds 2 999 95 0 8.04 309.526 20:18 06.10.2019
669 Clouds 2 999 95 0 8.04 309.526 19:54 06.10.2019
670 Clouds 2 999 95 0 8.04 309.526 19:36 06.10.2019
671 Clouds 2 999 95 0 8.04 309.526 19:18 06.10.2019
672 Clouds 2 999 95 0 8.04 309.526 18:54 06.10.2019
673 Clouds 2 999 95 0 8.04 309.526 18:36 06.10.2019
674 Clouds 2 997 96 0 7.28 307.229 18:18 06.10.2019
675 Clouds 2 997 96 0 7.28 307.229 17:42 06.10.2019
676 Clouds 2 997 96 0 7.28 307.229 17:19 06.10.2019
677 Clouds 2 997 96 0 7.28 307.229 16:54 06.10.2019
678 Clouds 2 997 96 0 7.28 307.229 16:36 06.10.2019
679 Clouds 2 997 96 0 7.28 307.229 16:18 06.10.2019
680 Clouds 2 997 96 0 7.28 307.229 15:42 06.10.2019
681 Clouds 2 996 93 0 5.28 250.412 15:19 06.10.2019
682 Clouds 2 996 93 0 5.28 250.412 14:44 06.10.2019
683 Clouds 2 996 93 0 5.28 250.412 14:25 06.10.2019
684 Clouds 2 996 93 0 5.28 250.412 13:58 06.10.2019
685 Clouds 2 996 93 0 5.28 250.412 13:39 06.10.2019
686 Clouds 2 996 96 0 7.75 265.698 13:21 06.10.2019
687 Clouds 2 996 96 0 7.75 265.698 12:57 06.10.2019
688 Clouds 2 996 96 0 7.75 265.698 12:39 06.10.2019
689 Clouds 2 995 93 0 6.09 214.41 12:20 06.10.2019
690 Clouds 2 995 93 0 6.09 214.41 12:20 06.10.2019
691 Clouds 2 995 93 0 6.09 214.41 11:57 06.10.2019
692 Clouds 2 995 93 0 6.09 214.41 11:38 06.10.2019
693 Clouds 2 995 93 0 6.09 214.41 11:20 06.10.2019
694 Clouds 2 995 93 0 6.09 214.41 10:44 06.10.2019
695 Clouds 2 995 93 0 6.09 214.41 10:26 06.10.2019
696 Clouds 2 995 93 0 6.09 214.41 09:58 06.10.2019
697 Clouds 2 995 93 0 6.09 214.41 09:39 06.10.2019
698 Clouds 2 996 89 0 5.1 202.54 09:18 06.10.2019
699 Clouds 2 996 89 0 5.1 202.54 08:43 06.10.2019
700 Clouds 2 997 89 0 4.63 196.022 08:21 06.10.2019
701 Clouds 2 997 89 0 4.63 196.022 07:56 06.10.2019
702 Clouds 2 997 89 0 4.63 196.022 07:56 06.10.2019
703 Clouds 2 997 89 0 4.63 196.022 07:33 06.10.2019
704 Clouds 1 998 92 0 4.38 143.502 06:20 06.10.2019
705 Clouds 1 998 92 0 4.38 143.502 05:34 06.10.2019
706 Clouds 1 998 92 0 4.38 143.502 03:56 06.10.2019
707 Clouds 2 1000 96 0 8.15 84.718 02:44 06.10.2019
708 Clouds 2 1000 96 0 8.15 84.718 02:22 06.10.2019
709 Clouds 2 1000 96 0 8.15 84.718 01:45 06.10.2019
710 Clouds 2 1000 96 0 8.63 79.909 01:27 06.10.2019
711 Clouds 2 1000 96 0 8.63 79.909 00:53 06.10.2019
712 Clouds 2 1000 96 0 8.63 79.909 00:27 06.10.2019
713 Clouds 2 1002 82 0 6.96 80.52 23:45 05.10.2019
714 Clouds 2 1002 82 0 6.96 80.52 23:22 05.10.2019
715 Clouds 2 1002 82 0 6.96 80.52 22:58 05.10.2019
716 Clouds 2 1002 82 0 6.96 80.52 22:40 05.10.2019
717 Clouds 2 1002 82 0 6.96 80.52 22:40 05.10.2019
718 Clouds 2 1002 82 0 6.96 80.52 22:20 05.10.2019
719 Clouds 2 1002 82 0 6.96 80.52 21:57 05.10.2019
720 Clouds 2 1002 82 0 6.96 80.52 21:38 05.10.2019
721 Clouds 2 1005 76 0 5.91 89.893 21:18 05.10.2019
722 Clouds 2 1005 76 0 5.91 89.893 20:56 05.10.2019
723 Clouds 2 1005 81 0 6.17 93.635 20:37 05.10.2019
724 Clouds 2 1005 81 0 6.17 93.635 20:18 05.10.2019
725 Clouds 2 1005 81 0 6.17 93.635 19:38 05.10.2019
726 Clouds 2 1005 81 0 6.17 93.635 19:19 05.10.2019
727 Clouds 2 1005 81 0 6.17 93.635 18:55 05.10.2019
728 Clouds 2 1005 81 0 6.17 93.635 18:55 05.10.2019
729 Clouds 2 1005 81 0 6.17 93.635 18:37 05.10.2019
730 Clouds 2 1006 80 0 5.96 84.278 18:19 05.10.2019
731 Clouds 2 1006 80 0 5.96 84.278 17:43 05.10.2019
732 Clouds 2 1006 80 0 5.96 84.278 17:24 05.10.2019
733 Clouds 2 1006 80 0 5.96 84.278 16:57 05.10.2019
734 Clouds 2 1006 80 0 5.96 84.278 16:39 05.10.2019
735 Clouds 2 1006 80 0 5.96 84.278 16:20 05.10.2019
736 Clouds 2 1006 80 0 5.96 84.278 15:56 05.10.2019
737 Clouds 2 1006 80 0 5.96 84.278 15:38 05.10.2019
738 Clouds 2 1008 77 0 6.12 80.021 15:19 05.10.2019
739 Clouds 2 1008 77 0 6.12 80.021 14:43 05.10.2019
740 Clouds 2 1008 77 0 6.12 80.021 14:24 05.10.2019
741 Clouds 2 1008 77 0 6.12 80.021 13:58 05.10.2019
742 Clouds 2 1008 77 0 6.12 80.021 13:40 05.10.2019
743 Clouds 2 1008 76 0 6.88 75.204 13:19 05.10.2019
744 Clouds 2 1008 76 0 6.88 75.204 12:43 05.10.2019
745 Clouds 2 1008 78 0 5.78 69.457 12:19 05.10.2019
746 Clouds 2 1008 78 0 5.78 69.457 11:44 05.10.2019
747 Clouds 2 1008 78 0 5.78 69.457 11:21 05.10.2019
748 Clouds 2 1008 78 0 5.78 69.457 10:58 05.10.2019
749 Clouds 2 1008 78 0 5.78 69.457 10:40 05.10.2019
750 Clouds 2 1008 78 0 5.78 69.457 10:21 05.10.2019
751 Clouds 2 1008 78 0 5.78 69.457 09:55 05.10.2019
752 Clouds 2 1008 78 0 5.78 69.457 09:37 05.10.2019
753 Clouds 2 1008 87 0 5.7 66.985 09:18 05.10.2019
754 Clouds 2 1009 81 0 6.04 59.455 08:39 05.10.2019
755 Clouds 2 1009 81 0 6.04 59.455 08:19 05.10.2019
756 Clouds 2 1009 81 0 6.04 59.455 07:52 05.10.2019
757 Clouds 2 1009 81 0 6.04 59.455 07:30 05.10.2019
758 Clouds 2 1009 81 0 6.04 59.455 06:56 05.10.2019
759 Clouds 2 1009 81 0 5.38 20.611 06:23 05.10.2019
760 Clouds 2 1009 81 0 5.38 20.611 05:39 05.10.2019
761 Clouds 2 1009 81 0 5.38 20.611 03:34 05.10.2019
762 Clouds 3 1008 80 0 6.1 348.598 02:45 05.10.2019
763 Clouds 3 1008 77 0 6.7 347.99 01:27 05.10.2019
764 Clouds 3 1008 77 0 6.7 347.99 00:49 05.10.2019
765 Clouds 3 1008 77 0 6.7 347.99 00:28 05.10.2019
766 Clouds 3 1008 78 0 7.99 329.172 23:58 04.10.2019
767 Clouds 3 1008 78 0 7.99 329.172 23:40 04.10.2019
768 Clouds 3 1008 78 0 7.99 329.172 23:21 04.10.2019
769 Clouds 3 1008 78 0 7.99 329.172 22:56 04.10.2019
770 Clouds 3 1008 78 0 7.99 329.172 22:37 04.10.2019
771 Clouds 3 1008 78 0 7.99 329.172 22:37 04.10.2019
772 Clouds 3 1008 78 0 7.99 329.172 22:19 04.10.2019
773 Clouds 3 1008 78 0 7.99 329.172 21:40 04.10.2019
774 Clouds 3 1006 79 0 8.41 327.928 21:22 04.10.2019
775 Clouds 3 1006 79 0 8.41 327.928 21:22 04.10.2019
776 Clouds 3 1006 79 0 8.41 327.928 20:59 04.10.2019
777 Clouds 3 1006 75 0 8.48 329.399 20:41 04.10.2019
778 Clouds 3 1006 75 0 8.48 329.399 20:22 04.10.2019
779 Clouds 3 1006 75 0 8.48 329.399 19:56 04.10.2019
780 Clouds 3 1006 75 0 8.48 329.399 19:37 04.10.2019
781 Clouds 3 1006 75 0 8.48 329.399 19:19 04.10.2019
782 Clouds 3 1006 75 0 8.48 329.399 18:54 04.10.2019
783 Clouds 3 1006 75 0 8.48 329.399 18:36 04.10.2019
784 Clouds 3 1005 81 0 8.49 331.156 18:18 04.10.2019
785 Clouds 3 1005 81 0 8.49 331.156 17:39 04.10.2019
786 Clouds 3 1005 81 0 8.49 331.156 17:21 04.10.2019
787 Clouds 3 1005 81 0 8.49 331.156 16:58 04.10.2019
788 Clouds 3 1005 81 0 8.49 331.156 16:39 04.10.2019
789 Clouds 3 1005 81 0 8.49 331.156 16:18 04.10.2019
790 Clouds 3 1005 81 0 8.49 331.156 15:56 04.10.2019
791 Clouds 3 1005 81 0 8.49 331.156 15:37 04.10.2019
792 Clouds 4 1003 88 0 6.67 327.187 15:19 04.10.2019
793 Clouds 4 1003 88 0 6.67 327.187 14:55 04.10.2019
794 Clouds 4 1003 88 0 6.67 327.187 14:55 04.10.2019
795 Clouds 4 1003 88 0 6.67 327.187 14:36 04.10.2019
796 Clouds 4 1003 88 0 6.67 327.187 14:18 04.10.2019
797 Clouds 4 1003 88 0 6.67 327.187 13:43 04.10.2019
798 Clouds 3 1003 88 0 6.74 323.629 13:21 04.10.2019
799 Clouds 3 1003 88 0 6.74 323.629 12:47 04.10.2019
800 Clouds 3 1003 88 0 6.74 323.629 12:29 04.10.2019
801 Rain 4 1001 86 0 6.55 312.31 11:59 04.10.2019
802 Rain 4 1001 86 0 6.55 312.31 11:59 04.10.2019
803 Rain 4 1001 86 0 6.55 312.31 11:59 04.10.2019
804 Rain 4 1001 86 0 6.55 312.31 11:59 04.10.2019
805 Rain 4 1001 86 0 6.55 312.31 11:41 04.10.2019
806 Rain 4 1001 86 0 6.55 312.31 11:40 04.10.2019
807 Rain 4 1001 86 0 6.55 312.31 11:40 04.10.2019
808 Rain 4 1001 86 0 6.55 312.31 11:20 04.10.2019
809 Rain 4 1001 86 0 6.55 312.31 10:40 04.10.2019
810 Rain 4 1001 86 0 6.55 312.31 10:21 04.10.2019
811 Rain 4 1001 86 0 6.55 312.31 09:47 04.10.2019
812 Clouds 3 1001 86 0 6.92 298.637 09:28 04.10.2019
813 Clouds 3 998 83 0 5.1 341.266 08:56 04.10.2019
814 Clouds 3 998 83 0 5.1 341.266 08:38 04.10.2019
815 Clouds 3 998 83 0 5.1 341.266 08:19 04.10.2019
816 Clouds 3 998 83 0 5.1 341.266 07:44 04.10.2019
817 Clouds 3 998 83 0 5.1 341.266 07:22 04.10.2019
818 Clouds 3 998 83 0 5.1 341.266 06:44 04.10.2019
819 Clouds 3 998 83 0 5.1 341.266 06:44 04.10.2019
820 Clouds 3 998 83 0 5.1 341.266 06:25 04.10.2019
821 Clouds 3 998 83 0 5.1 341.266 06:25 04.10.2019
822 Clouds 3 994 78 0 5.89 34.392 05:42 04.10.2019
823 Clouds 3 994 78 0 5.89 34.392 05:18 04.10.2019
824 Clouds 3 994 78 0 5.89 34.392 03:48 04.10.2019
825 Rain 3 991 81 0 4.56 93.156 02:53 04.10.2019
826 Rain 3 991 81 0 4.56 93.156 02:53 04.10.2019
827 Rain 3 991 81 0 4.56 93.156 01:55 04.10.2019
828 Clouds 3 991 79 0 4.52 94.482 01:30 04.10.2019
829 Clouds 3 991 79 0 4.52 94.482 00:58 04.10.2019
830 Clouds 2 989 96 0 7.68 166.221 23:58 03.10.2019
831 Clouds 2 989 96 0 7.68 166.221 23:37 03.10.2019
832 Clouds 2 989 96 0 7.68 166.221 23:18 03.10.2019
833 Clouds 2 989 96 0 7.68 166.221 23:18 03.10.2019
834 Clouds 2 989 96 0 7.68 166.221 22:56 03.10.2019
835 Clouds 2 989 96 0 7.68 166.221 22:37 03.10.2019
836 Clouds 2 989 96 0 7.68 166.221 22:19 03.10.2019
837 Clouds 2 989 96 0 7.68 166.221 21:55 03.10.2019
838 Clouds 2 989 96 0 7.68 166.221 21:36 03.10.2019
839 Clouds 2 989 96 0 7.68 166.221 21:36 03.10.2019
840 Clouds 3 989 85 0 8.06 201.259 21:18 03.10.2019
841 Clouds 3 989 85 0 8.06 201.259 20:55 03.10.2019
842 Clouds 3 989 85 0 8.06 201.259 20:55 03.10.2019
843 Clouds 3 989 83 0 8.04 200.932 20:37 03.10.2019
844 Clouds 3 989 83 0 8.04 200.932 20:37 03.10.2019
845 Clouds 3 989 83 0 8.04 200.932 20:19 03.10.2019
846 Clouds 3 989 83 0 8.04 200.932 19:41 03.10.2019
847 Clouds 3 989 83 0 8.04 200.932 19:22 03.10.2019
848 Clouds 3 989 83 0 8.04 200.932 18:58 03.10.2019
849 Clouds 3 989 83 0 8.04 200.932 18:39 03.10.2019
850 Clouds 3 990 88 0 8.45 226.529 18:19 03.10.2019
851 Clouds 3 990 88 0 8.45 226.529 17:56 03.10.2019
852 Clouds 3 990 88 0 8.45 226.529 17:37 03.10.2019
853 Clouds 3 990 88 0 8.45 226.529 17:19 03.10.2019
854 Clouds 3 990 88 0 8.45 226.529 17:19 03.10.2019
855 Clouds 3 990 88 0 8.45 226.529 16:41 03.10.2019
856 Clouds 3 990 88 0 8.45 226.529 16:23 03.10.2019
857 Clouds 3 990 88 0 8.45 226.529 15:55 03.10.2019
858 Clouds 3 990 88 0 8.45 226.529 15:55 03.10.2019
859 Clouds 3 990 88 0 8.45 226.529 15:37 03.10.2019
860 Clouds 3 990 85 0 7.31 235.562 15:19 03.10.2019
861 Clouds 3 990 85 0 7.31 235.562 14:45 03.10.2019
862 Clouds 3 990 85 0 7.31 235.562 14:26 03.10.2019
863 Clouds 3 990 85 0 7.31 235.562 13:57 03.10.2019
864 Clouds 3 990 85 0 7.31 235.562 13:39 03.10.2019
865 Clouds 3 990 84 0 8.03 223.269 13:19 03.10.2019
866 Clouds 3 990 84 0 8.03 223.269 12:55 03.10.2019
867 Clouds 3 990 84 0 8.03 223.269 12:36 03.10.2019
868 Clouds 4 989 81 0 8.96 229.09 12:18 03.10.2019
869 Clouds 4 989 81 0 8.96 229.09 11:41 03.10.2019
870 Clouds 4 989 81 0 8.96 229.09 11:22 03.10.2019
871 Clouds 4 989 81 0 8.96 229.09 10:58 03.10.2019
872 Clouds 4 989 81 0 8.96 229.09 10:40 03.10.2019
873 Clouds 4 989 81 0 8.96 229.09 10:18 03.10.2019
874 Clouds 4 989 81 0 8.96 229.09 09:57 03.10.2019
875 Clouds 4 989 81 0 8.96 229.09 09:39 03.10.2019
876 Clouds 3 988 87 0 9.73 232.18 09:20 03.10.2019
877 Clouds 3 988 87 0 9.72 231.696 08:44 03.10.2019
878 Clouds 3 988 87 0 9.72 231.696 08:26 03.10.2019
879 Clouds 3 988 87 0 9.72 231.696 07:57 03.10.2019
880 Clouds 3 988 87 0 9.72 231.696 07:38 03.10.2019
881 Clouds 3 988 87 0 9.72 231.696 07:19 03.10.2019
882 Clouds 3 988 87 0 9.72 231.696 06:45 03.10.2019
883 Rain 2 987 96 0 10.45 228.337 06:18 03.10.2019
884 Rain 2 987 96 0 10.45 228.337 05:38 03.10.2019
885 Rain 2 987 96 0 10.45 228.337 04:50 03.10.2019
886 Rain 2 987 96 0 10.45 228.337 04:25 03.10.2019
887 Clouds 1 986 97 0 10.99 246.856 03:21 03.10.2019
888 Clouds 1 986 97 0 10.99 246.856 02:37 03.10.2019
889 Clouds 1 986 97 0 10.99 246.856 01:51 03.10.2019
890 Clouds 2 985 97 0 12.25 267.506 01:32 03.10.2019
891 Clouds 2 985 97 0 12.25 267.506 00:47 03.10.2019
892 Rain 3 986 98 0 5.3 7.494 00:18 03.10.2019
893 Rain 3 986 98 0 5.3 7.494 23:43 02.10.2019
894 Rain 3 986 98 0 5.3 7.494 23:21 02.10.2019
895 Rain 3 986 98 0 5.3 7.494 22:43 02.10.2019
896 Rain 3 986 98 0 5.3 7.494 22:43 02.10.2019
897 Rain 3 986 98 0 5.3 7.494 22:21 02.10.2019
898 Rain 3 986 98 0 5.3 7.494 21:56 02.10.2019
899 Rain 3 986 98 0 5.3 7.494 21:38 02.10.2019
900 Rain 4 987 97 0 4.23 74.278 21:19 02.10.2019
901 Rain 4 987 98 0 5.64 86.46 20:56 02.10.2019
902 Rain 4 987 98 0 5.64 86.46 20:38 02.10.2019
903 Rain 4 987 98 0 5.64 86.46 20:20 02.10.2019
904 Rain 4 987 98 0 5.64 86.46 19:47 02.10.2019
905 Rain 4 987 98 0 5.64 86.46 19:25 02.10.2019
906 Rain 4 987 98 0 5.64 86.46 18:59 02.10.2019
907 Rain 4 987 98 0 5.64 86.46 18:40 02.10.2019
908 Rain 3 991 92 0 3.22 86.38 18:22 02.10.2019
909 Rain 3 991 92 0 3.22 86.38 17:59 02.10.2019
910 Rain 3 991 92 0 3.22 86.38 17:40 02.10.2019
911 Rain 3 991 92 0 3.22 86.38 17:21 02.10.2019
912 Rain 3 991 92 0 3.22 86.38 16:57 02.10.2019
913 Rain 3 991 92 0 3.22 86.38 16:38 02.10.2019
914 Rain 3 991 92 0 3.22 86.38 16:20 02.10.2019
915 Rain 3 991 92 0 3.22 86.38 15:56 02.10.2019
916 Rain 3 991 92 0 3.22 86.38 15:37 02.10.2019
917 Clouds 3 993 80 0 3.47 196.182 15:18 02.10.2019
918 Clouds 3 993 80 0 3.47 196.182 14:44 02.10.2019
919 Clouds 3 993 80 0 3.47 196.182 14:25 02.10.2019
920 Clouds 3 993 80 0 3.47 196.182 13:57 02.10.2019
921 Clouds 3 993 80 0 3.47 196.182 13:39 02.10.2019
922 Clouds 3 993 83 0 1.48 158.407 13:21 02.10.2019
923 Clouds 3 993 83 0 1.48 158.407 12:40 02.10.2019
924 Clouds 3 994 83 0 3.57 211.537 12:22 02.10.2019
925 Clouds 3 994 83 0 3.57 211.537 12:22 02.10.2019
926 Clouds 3 994 83 0 3.57 211.537 11:59 02.10.2019
927 Clouds 3 994 83 0 3.57 211.537 11:41 02.10.2019
928 Clouds 3 994 83 0 3.57 211.537 11:20 02.10.2019
929 Clouds 3 994 83 0 3.57 211.537 10:39 02.10.2019
930 Clouds 3 994 83 0 3.57 211.537 10:19 02.10.2019
931 Clouds 3 994 83 0 3.57 211.537 09:41 02.10.2019
932 Clouds 2 994 90 0 4.64 241.697 09:20 02.10.2019
933 Clouds 2 994 90 0 4.64 241.697 08:56 02.10.2019
934 Clouds 2 994 90 0 4.64 241.697 08:56 02.10.2019
935 Clouds 2 995 86 0 4.47 254.38 08:38 02.10.2019
936 Clouds 2 995 86 0 4.47 254.38 08:19 02.10.2019
937 Clouds 2 995 86 0 4.47 254.38 07:41 02.10.2019
938 Clouds 2 995 86 0 4.47 254.38 07:22 02.10.2019
939 Clouds 2 995 86 0 4.47 254.38 06:57 02.10.2019
940 Clouds 2 995 86 0 4.47 254.38 06:27 02.10.2019
941 Clouds 3 995 90 0 4.25 269.191 05:49 02.10.2019
942 Clouds 3 995 90 0 4.25 269.191 05:20 02.10.2019
943 Clouds 3 995 90 0 4.25 269.191 03:53 02.10.2019
944 Clouds 3 996 94 0 3.6 292.082 03:24 02.10.2019
945 Clouds 3 996 94 0 3.6 292.082 02:26 02.10.2019
946 Clouds 3 996 94 0 3.6 292.082 01:56 02.10.2019
947 Rain 3 996 93 0 3.35 301.712 00:52 02.10.2019
948 Rain 3 996 93 0 3.35 301.712 00:29 02.10.2019
949 Clouds 3 997 95 0 2.08 312.394 23:54 01.10.2019
950 Clouds 3 997 95 0 2.08 312.394 23:36 01.10.2019
951 Clouds 3 997 95 0 2.08 312.394 23:18 01.10.2019
952 Clouds 3 997 95 0 2.08 312.394 22:57 01.10.2019
953 Clouds 3 997 95 0 2.08 312.394 22:36 01.10.2019
954 Clouds 3 997 95 0 2.08 312.394 22:18 01.10.2019
955 Clouds 3 997 95 0 2.08 312.394 21:42 01.10.2019
956 Clouds 3 997 96 0 2.78 325.383 21:22 01.10.2019
957 Clouds 3 997 96 0 2.78 325.383 20:57 01.10.2019
958 Clouds 3 997 94 0 3.65 287.293 20:38 01.10.2019
959 Clouds 3 997 94 0 3.65 287.293 20:20 01.10.2019
960 Clouds 3 997 94 0 3.65 287.293 19:57 01.10.2019
961 Clouds 3 997 94 0 3.65 287.293 19:38 01.10.2019
962 Clouds 3 997 94 0 3.65 287.293 19:20 01.10.2019
963 Clouds 3 997 94 0 3.65 287.293 18:55 01.10.2019
964 Clouds 3 997 94 0 3.65 287.293 18:36 01.10.2019
965 Clouds 3 997 94 0 3.69 333.803 18:18 01.10.2019
966 Clouds 3 997 94 0 3.69 333.803 17:42 01.10.2019
967 Clouds 3 997 94 0 3.69 333.803 17:42 01.10.2019
968 Clouds 3 997 94 0 3.69 333.803 17:20 01.10.2019
969 Clouds 3 997 94 0 3.69 333.803 16:59 01.10.2019
970 Clouds 3 997 94 0 3.69 333.803 16:40 01.10.2019
971 Clouds 3 997 94 0 3.69 333.803 16:22 01.10.2019
972 Clouds 3 997 94 0 3.69 333.803 15:48 01.10.2019
973 Rain 3 998 95 0 5.03 24.595 15:24 01.10.2019
974 Rain 3 998 95 0 5.03 24.595 14:58 01.10.2019
975 Rain 3 998 95 0 5.03 24.595 14:37 01.10.2019
976 Rain 3 998 95 0 5.03 24.595 14:19 01.10.2019
977 Rain 3 998 95 0 5.03 24.595 13:55 01.10.2019
978 Rain 3 998 95 0 5.03 24.595 13:55 01.10.2019
979 Rain 3 998 95 0 5.03 24.595 13:55 01.10.2019
980 Rain 3 998 95 0 5.03 24.595 13:55 01.10.2019
981 Rain 3 998 95 0 5.03 24.595 13:36 01.10.2019
982 Clouds 3 998 92 0 6.79 6.707 13:18 01.10.2019
983 Clouds 3 998 92 0 6.79 6.707 12:42 01.10.2019
984 Rain 4 998 95 0 8.71 30.515 12:20 01.10.2019
985 Rain 4 998 95 0 8.71 30.515 11:58 01.10.2019
986 Rain 4 998 95 0 8.71 30.515 11:39 01.10.2019
987 Rain 4 998 95 0 8.71 30.515 11:19 01.10.2019
988 Rain 4 998 95 0 8.71 30.515 11:19 01.10.2019
989 Rain 4 998 95 0 8.71 30.515 10:58 01.10.2019
990 Rain 4 998 95 0 8.71 30.515 10:40 01.10.2019
991 Rain 4 998 95 0 8.71 30.515 10:22 01.10.2019
992 Rain 4 998 95 0 8.71 30.515 09:42 01.10.2019
993 Rain 4 998 97 0 3.54 36.919 09:21 01.10.2019
994 Rain 3 999 96 0 12.41 43.629 08:43 01.10.2019
995 Rain 3 999 96 0 12.41 43.629 08:43 01.10.2019
996 Rain 3 999 96 0 12.41 43.629 08:25 01.10.2019
997 Rain 3 999 96 0 12.41 43.629 07:49 01.10.2019
998 Rain 3 999 96 0 12.41 43.629 07:25 01.10.2019
999 Rain 3 999 96 0 12.41 43.629 07:25 01.10.2019
1000 Rain 3 999 96 0 12.41 43.629 06:50 01.10.2019
1001 Rain 4 999 96 0 9.41 68.277 06:22 01.10.2019
1002 Rain 4 999 96 0 9.41 68.277 05:46 01.10.2019
1003 Rain 4 999 96 0 9.41 68.277 05:46 01.10.2019
1004 Rain 4 999 96 0 9.41 68.277 05:18 01.10.2019
1005 Rain 4 999 96 0 9.41 68.277 04:30 01.10.2019
1006 Rain 4 998 97 0 7.82 69.908 02:29 01.10.2019
1007 Rain 4 998 97 0 7.82 69.908 01:59 01.10.2019
1008 Rain 3 998 96 0 8.83 58.176 01:25 01.10.2019
1009 Rain 3 998 96 0 8.83 58.176 00:37 01.10.2019
1010 Rain 3 998 96 0 8.83 58.176 00:37 01.10.2019
1011 Rain 3 997 96 0 8.15 80.424 00:19 01.10.2019
1012 Rain 3 997 96 0 8.15 80.424 23:41 30.09.2019
1013 Rain 3 997 96 0 8.15 80.424 23:41 30.09.2019
1014 Rain 3 997 96 0 8.15 80.424 23:21 30.09.2019
1015 Rain 3 997 96 0 8.15 80.424 22:43 30.09.2019
1016 Rain 3 997 96 0 8.15 80.424 22:25 30.09.2019
1017 Rain 3 997 96 0 8.15 80.424 21:58 30.09.2019
1018 Rain 3 997 96 0 8.15 80.424 21:38 30.09.2019
1019 Rain 3 997 96 0 8.15 80.424 21:38 30.09.2019
1020 Rain 3 998 97 0 7.61 77.307 21:19 30.09.2019
1021 Rain 3 998 97 0 7.61 77.307 20:58 30.09.2019
1022 Rain 2 998 97 0 9.23 76.539 20:39 30.09.2019
1023 Rain 2 998 97 0 9.23 76.539 20:39 30.09.2019
1024 Rain 2 998 97 0 9.23 76.539 20:20 30.09.2019
1025 Rain 2 998 97 0 9.23 76.539 19:57 30.09.2019
1026 Rain 2 998 97 0 9.23 76.539 19:57 30.09.2019
1027 Rain 2 998 97 0 9.23 76.539 19:39 30.09.2019
1028 Rain 2 998 97 0 9.23 76.539 19:19 30.09.2019
1029 -273 0 0 0 0 0 18:57 30.09.2019
1030 Rain 2 998 97 0 9.23 76.539 18:39 30.09.2019
1031 Rain 3 998 97 0 6.36 89.145 18:20 30.09.2019
1032 Rain 3 998 97 0 6.36 89.145 17:43 30.09.2019
1033 Rain 3 998 97 0 6.36 89.145 17:23 30.09.2019
1034 Rain 3 998 97 0 6.36 89.145 16:57 30.09.2019
1035 Rain 3 998 97 0 6.36 89.145 16:39 30.09.2019
1036 Rain 3 998 97 0 6.36 89.145 16:19 30.09.2019
1037 Rain 3 998 97 0 6.36 89.145 16:19 30.09.2019
1038 Rain 3 998 97 0 6.36 89.145 15:58 30.09.2019
1039 Rain 3 998 97 0 6.36 89.145 15:38 30.09.2019
1040 Clouds 3 999 94 0 3.21 155.503 15:19 30.09.2019
1041 Clouds 3 999 94 0 3.21 155.503 14:57 30.09.2019
1042 Clouds 3 999 94 0 3.21 155.503 14:37 30.09.2019
1043 Clouds 3 999 94 0 3.21 155.503 14:19 30.09.2019
1044 Clouds 3 999 94 0 3.21 155.503 13:57 30.09.2019
1045 Clouds 3 999 94 0 3.21 155.503 13:38 30.09.2019
1046 Rain 3 999 96 0 4.02 122.445 13:20 30.09.2019
1047 Rain 3 999 96 0 4.02 122.445 12:43 30.09.2019
1048 Rain 3 999 92 0 4.76 198.321 12:22 30.09.2019
1049 Rain 3 999 92 0 4.76 198.321 11:57 30.09.2019
1050 Rain 3 999 92 0 4.76 198.321 11:38 30.09.2019
1051 Rain 3 999 92 0 4.76 198.321 11:19 30.09.2019
1052 Rain 3 999 92 0 4.76 198.321 10:41 30.09.2019
1053 Rain 3 999 92 0 4.76 198.321 10:20 30.09.2019
1054 Rain 3 999 92 0 4.76 198.321 09:59 30.09.2019
1055 Rain 3 999 92 0 4.76 198.321 09:39 30.09.2019
1056 Rain 3 999 92 0 4.76 198.321 09:39 30.09.2019
1057 Clouds 3 998 85 0 4.5 203.023 09:21 30.09.2019
1058 Clouds 3 998 85 0 4.5 203.023 08:51 30.09.2019
1059 Clouds 3 999 85 0 4.15 205.603 08:33 30.09.2019
1060 Clouds 3 999 85 0 4.15 205.603 07:46 30.09.2019
1061 Clouds 3 999 85 0 4.15 205.603 07:28 30.09.2019
1062 Clouds 3 999 85 0 4.15 205.603 06:57 30.09.2019
1063 Clouds 3 999 85 0 4.15 205.603 06:34 30.09.2019
1064 Clouds 3 998 86 0 4.57 222.339 05:48 30.09.2019
1065 -273 0 0 0 0 0 05:24 30.09.2019
1066 Clouds 4 998 88 0 5.38 248.794 02:48 30.09.2019
1067 Clouds 4 998 88 0 5.38 248.794 01:39 30.09.2019
1068 Clouds 3 999 87 0 4.9 249.14 00:43 30.09.2019
1069 Clouds 4 997 86 0 4.95 257.003 00:23 30.09.2019
1070 Clouds 4 997 86 0 4.95 257.003 23:56 29.09.2019
1071 Clouds 4 997 86 0 4.95 257.003 23:38 29.09.2019
1072 Clouds 4 997 86 0 4.95 257.003 23:19 29.09.2019
1073 Clouds 4 997 86 0 4.95 257.003 22:42 29.09.2019
1074 Clouds 4 997 86 0 4.95 257.003 22:23 29.09.2019
1075 Clouds 4 997 86 0 4.95 257.003 22:23 29.09.2019
1076 Clouds 4 997 86 0 4.95 257.003 21:58 29.09.2019
1077 Clouds 4 997 86 0 4.95 257.003 21:38 29.09.2019
1078 Clouds 3 997 87 0 4.36 261.032 21:19 29.09.2019
1079 Clouds 3 997 87 0 4.36 261.032 21:19 29.09.2019
1080 Clouds 3 997 87 0 4.36 261.032 20:55 29.09.2019
1081 Clouds 3 997 87 0 4.36 261.032 20:55 29.09.2019
1082 -273 0 0 0 0 0 20:55 29.09.2019
1083 Clouds 3 997 87 0 4.36 261.032 20:37 29.09.2019
1084 Rain 4 996 84 0 4.74 259.876 20:19 29.09.2019
1085 Rain 4 996 84 0 4.74 259.876 19:39 29.09.2019
1086 Rain 4 996 84 0 4.74 259.876 19:19 29.09.2019
1087 Rain 4 996 84 0 4.74 259.876 18:57 29.09.2019
1088 Rain 4 996 84 0 4.74 259.876 18:57 29.09.2019
1089 Rain 4 996 84 0 4.74 259.876 18:38 29.09.2019
1090 Clouds 4 996 88 0 3.5 246.98 18:20 29.09.2019
1091 Clouds 4 996 88 0 3.5 246.98 17:59 29.09.2019
1092 Clouds 4 996 88 0 3.5 246.98 17:41 29.09.2019
1093 Clouds 4 996 88 0 3.5 246.98 17:41 29.09.2019
1094 Clouds 4 996 88 0 3.5 246.98 17:20 29.09.2019
1095 Clouds 4 996 88 0 3.5 246.98 16:59 29.09.2019
1096 Clouds 4 996 88 0 3.5 246.98 16:59 29.09.2019
1097 Clouds 4 996 88 0 3.5 246.98 16:40 29.09.2019
1098 Clouds 4 996 88 0 3.5 246.98 16:19 29.09.2019
1099 Clouds 4 996 88 0 3.5 246.98 15:57 29.09.2019
1100 Clouds 4 996 88 0 3.5 246.98 15:37 29.09.2019
1101 Rain 4 996 93 0 4.25 245.393 15:18 29.09.2019
1102 Rain 4 996 93 0 4.25 245.393 14:56 29.09.2019
1103 Rain 4 996 93 0 4.25 245.393 14:37 29.09.2019
1104 Rain 4 996 93 0 4.25 245.393 14:18 29.09.2019
1105 Rain 4 996 93 0 4.25 245.393 13:54 29.09.2019
1106 Rain 4 996 93 0 4.25 245.393 13:36 29.09.2019
1107 Rain 4 996 90 0 6.38 280.534 13:18 29.09.2019
1108 Rain 4 996 90 0 6.38 280.534 12:55 29.09.2019
1109 Rain 4 996 90 0 6.38 280.534 12:55 29.09.2019
1110 Rain 4 996 90 0 6.38 280.534 12:37 29.09.2019
1111 Clouds 2 996 97 0 7.63 152.175 12:18 29.09.2019
1112 Clouds 2 996 97 0 7.63 152.175 11:40 29.09.2019
1113 Clouds 2 996 97 0 7.63 152.175 11:19 29.09.2019
1114 Clouds 2 996 97 0 7.63 152.175 10:57 29.09.2019
1115 Clouds 2 996 97 0 7.63 152.175 10:38 29.09.2019
1116 Clouds 2 996 97 0 7.63 152.175 10:19 29.09.2019
1117 Clouds 2 996 97 0 7.63 152.175 09:56 29.09.2019
1118 Clouds 2 996 97 0 7.63 152.175 09:37 29.09.2019
1119 Clouds 2 996 96 0 8.39 158.357 09:18 29.09.2019
1120 Clouds 2 996 96 0 8.39 158.357 08:42 29.09.2019
1121 Clouds 2 996 91 0 8.59 156.373 08:21 29.09.2019
1122 Clouds 2 996 91 0 8.59 156.373 07:43 29.09.2019
1123 Clouds 2 996 91 0 8.59 156.373 07:25 29.09.2019
1124 Clouds 2 996 91 0 8.59 156.373 06:49 29.09.2019
1125 -273 0 0 0 0 0 05:55 29.09.2019
1126 Clouds 1 997 89 0 7.89 165.458 05:54 29.09.2019
1127 Clouds 1 997 89 0 7.89 165.458 04:42 29.09.2019
1128 Clouds 1 997 89 0 7.89 165.458 04:23 29.09.2019
1129 Clouds 1 998 91 0 8.19 179.699 02:55 29.09.2019
1130 Clouds 1 998 91 0 8.19 179.699 02:19 29.09.2019
1131 Clouds 1 998 91 0 8.19 179.699 01:40 29.09.2019
1132 Clouds 1 998 92 0 8.26 181.255 00:55 29.09.2019
1133 Clouds 1 998 92 0 8.26 181.255 00:36 29.09.2019
1134 Clouds 1 999 96 0 8.68 188.127 00:18 29.09.2019
1135 Clouds 1 999 96 0 8.68 188.127 23:37 28.09.2019
1136 Clouds 1 999 96 0 8.68 188.127 23:19 28.09.2019
1137 Clouds 1 999 96 0 8.68 188.127 22:40 28.09.2019
1138 Clouds 1 999 96 0 8.68 188.127 22:21 28.09.2019
1139 Clouds 1 999 96 0 8.68 188.127 21:57 28.09.2019
1140 Clouds 1 999 96 0 8.68 188.127 21:39 28.09.2019
1141 Clouds 2 1000 88 0 8.67 196.161 21:21 28.09.2019
1142 Clouds 2 1000 88 0 8.67 196.161 20:57 28.09.2019
1143 Clouds 2 1000 90 0 8.44 195.429 20:38 28.09.2019
1144 Clouds 2 1000 90 0 8.44 195.429 20:19 28.09.2019
1145 Clouds 2 1000 90 0 8.44 195.429 19:56 28.09.2019
1146 Clouds 2 1000 90 0 8.44 195.429 19:38 28.09.2019
1147 Clouds 2 1000 90 0 8.44 195.429 19:19 28.09.2019
1148 Clouds 2 1000 90 0 8.44 195.429 18:54 28.09.2019
1149 Clouds 2 1000 90 0 8.44 195.429 18:36 28.09.2019
1150 Clouds 2 1002 83 0 6.85 193.091 18:18 28.09.2019
1151 Clouds 2 1002 83 0 6.85 193.091 17:42 28.09.2019
1152 Clouds 2 1002 83 0 6.85 193.091 17:23 28.09.2019
1153 Clouds 2 1002 83 0 6.85 193.091 16:58 28.09.2019
1154 Clouds 2 1002 83 0 6.85 193.091 16:38 28.09.2019
1155 Clouds 2 1002 83 0 6.85 193.091 16:20 28.09.2019
1156 Clouds 2 1002 83 0 6.85 193.091 15:41 28.09.2019
1157 Clouds 2 1003 78 0 5.39 192.424 15:22 28.09.2019
1158 Clouds 2 1003 78 0 5.39 192.424 14:56 28.09.2019
1159 Clouds 2 1003 78 0 5.39 192.424 14:38 28.09.2019
1160 Clouds 2 1003 78 0 5.39 192.424 14:19 28.09.2019
1161 Clouds 2 1003 78 0 5.39 192.424 13:56 28.09.2019
1162 Clouds 2 1003 78 0 5.39 192.424 13:37 28.09.2019
1163 Clouds 3 1003 80 0 5.78 194.902 13:19 28.09.2019
1164 Clouds 3 1003 80 0 5.78 194.902 12:40 28.09.2019
1165 Clouds 2 1003 78 0 4.02 208.89 12:19 28.09.2019
1166 Clouds 2 1003 78 0 4.02 208.89 11:43 28.09.2019
1167 Clouds 2 1003 78 0 4.02 208.89 11:22 28.09.2019
1168 Clouds 2 1003 78 0 4.02 208.89 10:59 28.09.2019
1169 Clouds 2 1003 78 0 4.02 208.89 10:39 28.09.2019
1170 Clouds 2 1003 78 0 4.02 208.89 10:19 28.09.2019
1171 Clouds 2 1003 78 0 4.02 208.89 09:42 28.09.2019
1172 Clouds 1 1004 80 0 4.41 207.024 09:23 28.09.2019
1173 Clouds 1 1004 80 0 4.41 207.024 08:55 28.09.2019
1174 Clouds 2 1004 81 0 4.31 208.726 08:37 28.09.2019
1175 Clouds 2 1004 81 0 4.31 208.726 08:18 28.09.2019
1176 Clouds 2 1004 81 0 4.31 208.726 07:43 28.09.2019
1177 Clouds 2 1004 81 0 4.31 208.726 07:19 28.09.2019
1178 Clouds 2 1004 81 0 4.31 208.726 06:51 28.09.2019
1179 Clouds 2 1004 81 0 4.31 208.726 06:30 28.09.2019
1180 Clouds 2 1004 87 0 3.28 220.67 05:41 28.09.2019
1181 Clouds 2 1004 87 0 3.28 220.67 05:19 28.09.2019
1182 Clouds 2 1004 87 0 3.28 220.67 04:37 28.09.2019
1183 Clouds 2 1004 87 0 3.28 220.67 03:48 28.09.2019
1184 Clouds 2 1005 82 0 2.01 251.151 03:20 28.09.2019
1185 Clouds 2 1005 82 0 2.01 251.151 02:43 28.09.2019
1186 Clouds 2 1005 82 0 2.01 251.151 02:43 28.09.2019
1187 Clouds 2 1005 82 0 2.01 251.151 02:25 28.09.2019
1188 Clouds 2 1005 82 0 2.01 251.151 01:46 28.09.2019
1189 Clouds 2 1004 85 0 2.67 253.005 01:24 28.09.2019
1190 Clouds 2 1004 85 0 2.67 253.005 00:49 28.09.2019
1191 Clouds 2 1004 85 0 2.67 253.005 00:30 28.09.2019
1192 Clouds 2 1004 90 0 2.98 263.28 23:41 27.09.2019
1193 Clouds 2 1004 90 0 2.98 263.28 23:22 27.09.2019
1194 Clouds 2 1004 90 0 2.98 263.28 22:59 27.09.2019
1195 Clouds 2 1004 90 0 2.98 263.28 22:41 27.09.2019
1196 Clouds 2 1004 90 0 2.98 263.28 22:19 27.09.2019
1197 Clouds 2 1004 90 0 2.98 263.28 22:18 27.09.2019
1198 Clouds 2 1004 90 0 2.98 263.28 21:55 27.09.2019
1199 Clouds 2 1004 90 0 2.98 263.28 21:36 27.09.2019
1200 Clouds 2 1005 83 0 1.6 237.271 21:18 27.09.2019
1201 Clouds 2 1005 83 0 1.6 237.271 20:54 27.09.2019
1202 Clouds 3 1005 72 0 1.97 118.387 20:36 27.09.2019
1203 Clouds 3 1005 72 0 1.97 118.387 20:18 27.09.2019
1204 Clouds 3 1005 72 0 1.97 118.387 19:42 27.09.2019
1205 Clouds 3 1005 72 0 1.97 118.387 19:23 27.09.2019
1206 Clouds 3 1005 72 0 1.97 118.387 18:56 27.09.2019
1207 Clouds 3 1005 72 0 1.97 118.387 18:37 27.09.2019
1208 Clouds 3 1005 72 0 2.15 72.837 18:19 27.09.2019
1209 Clouds 3 1005 72 0 2.15 72.837 17:40 27.09.2019
1210 Clouds 3 1005 72 0 2.15 72.837 17:22 27.09.2019
1211 Clouds 3 1005 72 0 2.15 72.837 16:59 27.09.2019
1212 Clouds 3 1005 72 0 2.15 72.837 16:41 27.09.2019
1213 Clouds 3 1005 72 0 2.15 72.837 16:20 27.09.2019
1214 Clouds 3 1005 72 0 2.15 72.837 16:20 27.09.2019
1215 Clouds 3 1005 72 0 2.15 72.837 15:57 27.09.2019
1216 Clouds 3 1005 72 0 2.15 72.837 15:39 27.09.2019
1217 Clouds 3 1005 77 0 1.95 48.869 15:19 27.09.2019
1218 Clouds 3 1005 77 0 1.95 48.869 14:56 27.09.2019
1219 Clouds 3 1005 77 0 1.95 48.869 14:37 27.09.2019
1220 Clouds 3 1005 77 0 1.95 48.869 14:18 27.09.2019
1221 Clouds 3 1005 77 0 1.95 48.869 13:42 27.09.2019
1222 Clouds 3 1005 78 0 2.51 48.745 13:22 27.09.2019
1223 Clouds 3 1005 78 0 2.51 48.745 12:59 27.09.2019
1224 Clouds 3 1005 78 0 2.51 48.745 12:41 27.09.2019
1225 Clouds 3 1004 78 0 3.28 68.131 12:20 27.09.2019
1226 Clouds 3 1004 78 0 3.28 68.131 11:39 27.09.2019
1227 Clouds 3 1004 78 0 3.28 68.131 11:21 27.09.2019
1228 Clouds 3 1004 78 0 3.28 68.131 10:57 27.09.2019
1229 Clouds 3 1004 78 0 3.28 68.131 10:39 27.09.2019
1230 Clouds 3 1004 78 0 3.28 68.131 10:20 27.09.2019
1231 Clouds 3 1004 78 0 3.28 68.131 09:42 27.09.2019
1232 Clouds 3 1003 82 0 3.91 62.366 09:22 27.09.2019
1233 Clouds 3 1003 82 0 3.91 62.366 08:57 27.09.2019
1234 Clouds 3 1003 82 0 3.91 62.366 08:38 27.09.2019
1235 -273 0 0 0 0 0 08:20 27.09.2019
1236 Clouds 3 1003 80 0 3.67 78.662 07:45 27.09.2019
1237 Clouds 3 1003 80 0 3.67 78.662 07:23 27.09.2019
1238 Clouds 3 1003 80 0 3.67 78.662 06:43 27.09.2019
1239 Clouds 4 1003 82 0 4 56.032 06:23 27.09.2019
1240 Clouds 4 1003 82 0 4 56.032 05:50 27.09.2019
1241 Clouds 4 1003 82 0 4 56.032 05:50 27.09.2019
1242 Clouds 4 1003 82 0 4 56.032 05:32 27.09.2019
1243 Clouds 4 1003 82 0 4 56.032 03:55 27.09.2019
1244 Rain 4 1002 85 0 3.99 44.056 02:42 27.09.2019
1245 Rain 4 1002 85 0 3.99 44.056 01:44 27.09.2019
1246 Clouds 3 1001 86 0 2.08 43.169 00:59 27.09.2019
1247 Clouds 3 1001 81 0 3.09 90.834 00:20 27.09.2019
1248 Clouds 3 1001 81 0 3.09 90.834 23:56 26.09.2019
1249 Clouds 3 1001 81 0 3.09 90.834 23:38 26.09.2019
1250 Clouds 3 1001 81 0 3.09 90.834 23:18 26.09.2019
1251 Clouds 3 1001 81 0 3.09 90.834 23:18 26.09.2019
1252 Clouds 3 1001 81 0 3.09 90.834 22:55 26.09.2019
1253 Clouds 3 1001 81 0 3.09 90.834 22:55 26.09.2019
1254 Clouds 3 1001 81 0 3.09 90.834 22:37 26.09.2019
1255 Clouds 3 1001 81 0 3.09 90.834 22:18 26.09.2019
1256 Clouds 3 1001 81 0 3.09 90.834 22:18 26.09.2019
1257 Clouds 3 1001 81 0 3.09 90.834 21:55 26.09.2019
1258 Clouds 3 1001 81 0 3.09 90.834 21:36 26.09.2019
1259 Clouds 3 999 84 0 5.76 76.934 21:18 26.09.2019
1260 Clouds 3 999 81 0 5.9 87.356 20:56 26.09.2019
1261 Clouds 3 999 81 0 5.9 87.356 20:37 26.09.2019
1262 Clouds 3 999 81 0 5.9 87.356 20:19 26.09.2019
1263 Clouds 3 999 81 0 5.9 87.356 19:40 26.09.2019
1264 Clouds 3 999 81 0 5.9 87.356 19:19 26.09.2019
1265 Clouds 3 999 81 0 5.9 87.356 19:19 26.09.2019
1266 Clouds 3 999 81 0 5.9 87.356 18:58 26.09.2019
1267 Clouds 3 999 81 0 5.9 87.356 18:58 26.09.2019
1268 Clouds 3 999 81 0 5.9 87.356 18:39 26.09.2019
1269 Clouds 3 999 81 0 5.9 87.356 18:39 26.09.2019
1270 Rain 3 998 86 0 7.55 72.652 18:21 26.09.2019
1271 Rain 3 998 86 0 7.55 72.652 17:54 26.09.2019
1272 Rain 3 998 86 0 7.55 72.652 17:36 26.09.2019
1273 Rain 3 998 86 0 7.55 72.652 17:18 26.09.2019
1274 Rain 3 998 86 0 7.55 72.652 16:39 26.09.2019
1275 Rain 3 998 86 0 7.55 72.652 16:20 26.09.2019
1276 Rain 3 998 86 0 7.55 72.652 15:58 26.09.2019
1277 Rain 3 998 86 0 7.55 72.652 15:38 26.09.2019
1278 Clouds 3 996 87 0 4.99 56.218 15:19 26.09.2019
1279 Clouds 3 996 87 0 4.99 56.218 14:57 26.09.2019
1280 Clouds 3 996 87 0 4.99 56.218 14:57 26.09.2019
1281 Clouds 3 996 87 0 4.99 56.218 14:37 26.09.2019
1282 Clouds 3 996 87 0 4.99 56.218 14:37 26.09.2019
1283 Clouds 3 996 87 0 4.99 56.218 14:19 26.09.2019
1284 Clouds 3 996 87 0 4.99 56.218 13:41 26.09.2019
1285 Clouds 3 996 87 0 4.99 56.218 13:41 26.09.2019
1286 Clouds 3 996 87 0 4.99 56.218 13:41 26.09.2019
1287 Clouds 3 996 83 0 5.32 68.801 13:20 26.09.2019
1288 Clouds 3 996 83 0 5.32 68.801 12:59 26.09.2019
1289 Clouds 3 996 83 0 5.32 68.801 12:59 26.09.2019
1290 Clouds 3 996 83 0 5.32 68.801 12:41 26.09.2019
1291 Rain 3 993 87 0 4.97 96.364 12:20 26.09.2019
1292 Rain 3 993 87 0 4.97 96.364 11:42 26.09.2019
1293 Rain 3 993 87 0 4.97 96.364 11:23 26.09.2019
1294 Rain 3 993 87 0 4.97 96.364 10:56 26.09.2019
1295 Rain 3 993 87 0 4.97 96.364 10:38 26.09.2019
1296 Rain 3 993 87 0 4.97 96.364 10:20 26.09.2019
1297 Rain 3 993 87 0 4.97 96.364 09:45 26.09.2019
1298 Rain 3 993 87 0 4.97 96.364 09:26 26.09.2019
1299 Rain 4 991 88 0 5.22 38.997 08:58 26.09.2019
1300 Rain 4 991 88 0 5.72 42.676 08:40 26.09.2019
1301 Rain 4 991 88 0 5.72 42.676 08:22 26.09.2019
1302 Rain 4 991 88 0 5.72 42.676 07:44 26.09.2019
1303 Rain 4 991 88 0 5.72 42.676 07:22 26.09.2019
1304 Rain 4 991 88 0 5.72 42.676 06:47 26.09.2019
1305 Rain 4 991 88 0 5.72 42.676 06:27 26.09.2019
1306 Rain 4 989 87 0 5.61 41.698 05:46 26.09.2019
1307 Rain 4 989 87 0 5.61 41.698 05:25 26.09.2019
1308 Rain 4 987 85 0 3.93 65.527 03:18 26.09.2019
1309 Rain 4 987 85 0 3.93 65.527 01:54 26.09.2019
1310 Rain 4 987 83 0 4.01 54.741 01:31 26.09.2019
1311 Rain 4 987 83 0 4.01 54.741 00:56 26.09.2019
1312 Rain 4 987 83 0 4.01 54.741 00:38 26.09.2019
1313 Rain 4 985 83 0 2.08 7.651 00:19 26.09.2019
1314 Rain 4 985 83 0 2.08 7.651 23:42 25.09.2019
1315 Rain 4 985 83 0 2.08 7.651 23:19 25.09.2019
1316 Rain 4 985 83 0 2.08 7.651 22:42 25.09.2019
1317 Rain 4 985 83 0 2.08 7.651 22:21 25.09.2019
1318 Rain 4 985 83 0 2.08 7.651 22:21 25.09.2019
1319 Rain 4 985 83 0 2.08 7.651 21:58 25.09.2019
1320 Rain 4 985 83 0 2.08 7.651 21:40 25.09.2019
1321 Rain 4 984 83 0 3.34 359.092 21:19 25.09.2019
1322 Rain 4 984 83 0 3.34 359.092 20:58 25.09.2019
1323 Rain 4 984 80 0 3.44 9.23 20:40 25.09.2019
1324 Rain 4 984 80 0 3.44 9.23 20:22 25.09.2019
1325 Rain 4 984 80 0 3.44 9.23 19:55 25.09.2019
1326 Rain 4 984 80 0 3.44 9.23 19:36 25.09.2019
1327 Rain 4 984 80 0 3.44 9.23 19:18 25.09.2019
1328 Rain 4 984 80 0 3.44 9.23 18:55 25.09.2019
1329 Rain 4 984 80 0 3.44 9.23 18:37 25.09.2019
1330 Rain 4 983 82 0 4.88 326.037 18:18 25.09.2019
1331 Rain 4 983 82 0 4.88 326.037 17:39 25.09.2019
1332 Rain 4 983 82 0 4.88 326.037 17:20 25.09.2019
1333 Rain 4 983 82 0 4.88 326.037 16:56 25.09.2019
1334 Rain 4 983 82 0 4.88 326.037 16:36 25.09.2019
1335 Rain 4 983 82 0 4.88 326.037 16:18 25.09.2019
1336 Rain 4 983 82 0 4.88 326.037 15:41 25.09.2019
1337 Rain 4 982 82 0 5.63 313.604 15:23 25.09.2019
1338 Rain 4 982 82 0 5.63 313.604 14:57 25.09.2019
1339 Rain 4 982 82 0 5.63 313.604 14:57 25.09.2019
1340 Rain 4 982 82 0 5.63 313.604 14:39 25.09.2019
1341 Rain 4 982 82 0 5.63 313.604 14:21 25.09.2019
1342 Rain 4 982 82 0 5.63 313.604 13:56 25.09.2019
1343 Rain 4 982 82 0 5.63 313.604 13:56 25.09.2019
1344 Rain 4 982 82 0 5.63 313.604 13:37 25.09.2019
1345 Rain 3 982 94 0 8.11 309.057 13:19 25.09.2019
1346 Rain 3 982 94 0 8.11 309.057 12:41 25.09.2019
1347 Rain 4 981 84 0 7.12 321.795 12:23 25.09.2019
1348 Rain 4 981 84 0 7.12 321.795 11:58 25.09.2019
1349 Rain 4 981 84 0 7.12 321.795 11:40 25.09.2019
1350 Rain 4 981 84 0 7.12 321.795 11:19 25.09.2019
1351 Rain 4 981 84 0 7.12 321.795 10:45 25.09.2019
1352 Rain 4 981 84 0 7.12 321.795 10:25 25.09.2019
1353 Rain 4 981 84 0 7.12 321.795 10:25 25.09.2019
1354 Rain 4 981 84 0 7.12 321.795 09:58 25.09.2019
1355 Rain 4 981 84 0 7.12 321.795 09:37 25.09.2019
1356 Rain 4 980 81 0 7.16 327.276 09:19 25.09.2019
1357 Rain 4 981 88 0 7.9 318.171 08:44 25.09.2019
1358 Rain 4 981 88 0 7.9 318.171 08:21 25.09.2019
1359 Rain 4 981 88 0 7.9 318.171 08:21 25.09.2019
1360 Rain 4 981 88 0 7.9 318.171 07:57 25.09.2019
1361 Rain 4 981 88 0 7.9 318.171 07:38 25.09.2019
1362 Rain 4 981 88 0 7.9 318.171 07:20 25.09.2019
1363 Rain 4 981 88 0 7.9 318.171 06:45 25.09.2019
1364 Rain 4 981 84 0 8.83 321.86 06:22 25.09.2019
1365 Rain 4 981 84 0 8.83 321.86 05:35 25.09.2019
1366 Rain 4 981 84 0 8.83 321.86 04:55 25.09.2019
1367 Rain 4 981 84 0 7.17 336.213 02:31 25.09.2019
1368 Rain 3 981 89 0 6.11 353.432 00:46 25.09.2019
1369 Rain 3 981 89 0 6.11 353.432 00:27 25.09.2019
1370 Rain 3 981 96 0 10.94 327.359 23:59 24.09.2019
1371 Rain 3 981 96 0 10.94 327.359 23:40 24.09.2019
1372 Rain 3 981 96 0 10.94 327.359 23:21 24.09.2019
1373 Rain 3 981 96 0 10.94 327.359 22:39 24.09.2019
1374 Rain 3 981 96 0 10.94 327.359 22:21 24.09.2019
1375 Rain 3 981 89 0 6.7 338.776 21:58 24.09.2019
1376 Rain 3 981 89 0 6.7 338.776 21:58 24.09.2019
1377 Rain 3 981 89 0 6.7 338.776 21:38 24.09.2019
1378 Rain 3 981 89 0 10.63 327.062 21:19 24.09.2019
1379 Rain 3 981 89 0 10.63 327.062 20:58 24.09.2019
1380 Rain 3 981 89 0 10.63 327.062 20:40 24.09.2019
1381 Rain 3 981 89 0 10.63 327.062 20:22 24.09.2019
1382 Rain 3 981 89 0 10.63 327.062 19:59 24.09.2019
1383 Rain 3 981 89 0 10.63 327.062 19:41 24.09.2019
1384 Rain 3 981 89 0 10.63 327.062 19:18 24.09.2019
1385 Rain 3 981 89 0 10.63 327.062 18:55 24.09.2019
1386 Rain 3 981 89 0 10.63 327.062 18:55 24.09.2019
1387 Rain 3 981 89 0 10.63 327.062 18:36 24.09.2019
1388 Rain 3 981 96 0 13.51 324.034 18:18 24.09.2019
1389 Rain 3 981 96 0 13.51 324.034 17:54 24.09.2019
1390 Rain 3 981 96 0 13.51 324.034 17:36 24.09.2019
1391 Rain 3 981 96 0 13.51 324.034 17:18 24.09.2019
1392 Rain 3 981 96 0 13.51 324.034 16:41 24.09.2019
1393 Rain 3 981 96 0 13.51 324.034 16:19 24.09.2019
1394 Rain 3 981 96 0 13.51 324.034 15:43 24.09.2019
1395 Rain 3 981 95 0 12.12 322.181 15:24 24.09.2019
1396 Rain 3 981 95 0 12.12 322.181 14:58 24.09.2019
1397 Rain 3 981 95 0 12.12 322.181 14:37 24.09.2019
1398 Rain 3 981 95 0 12.12 322.181 14:18 24.09.2019
1399 Rain 3 981 95 0 12.12 322.181 14:18 24.09.2019
1400 Rain 3 981 95 0 12.12 322.181 13:40 24.09.2019
1401 Rain 3 981 89 0 12.23 331.154 13:21 24.09.2019
1402 Rain 3 981 89 0 12.23 331.154 12:42 24.09.2019
1403 Rain 3 981 95 0 11.4 339.31 12:21 24.09.2019
1404 Rain 3 981 95 0 11.4 339.31 11:57 24.09.2019
1405 Rain 3 981 95 0 11.4 339.31 11:39 24.09.2019
1406 Rain 3 981 95 0 11.4 339.31 11:21 24.09.2019
1407 Rain 3 981 95 0 11.4 339.31 10:40 24.09.2019
1408 Rain 3 981 95 0 11.4 339.31 10:21 24.09.2019
1409 Rain 3 981 95 0 11.4 339.31 09:57 24.09.2019
1410 Rain 3 981 95 0 11.4 339.31 09:39 24.09.2019
1411 Rain 4 982 87 0 11.99 340.279 09:19 24.09.2019
1412 Rain 4 982 87 0 11.99 340.279 08:55 24.09.2019
1413 Rain 3 982 94 0 12.76 337.218 08:37 24.09.2019
1414 Rain 3 982 94 0 12.76 337.218 08:18 24.09.2019
1415 Rain 3 982 94 0 12.76 337.218 07:42 24.09.2019
1416 Rain 3 982 94 0 12.76 337.218 07:42 24.09.2019
1417 Rain 3 982 94 0 12.76 337.218 07:23 24.09.2019
1418 Rain 3 982 94 0 12.76 337.218 06:47 24.09.2019
1419 Rain 3 982 94 0 12.76 337.218 06:27 24.09.2019
1420 Rain 4 983 90 0 13.46 348.103 05:26 24.09.2019
1421 Rain 4 983 90 0 13.46 348.103 04:19 24.09.2019
1422 Rain 4 983 90 0 13.46 348.103 03:34 24.09.2019
1423 Rain 4 984 89 0 12.22 356.525 02:45 24.09.2019
1424 Rain 4 984 89 0 12.22 356.525 01:44 24.09.2019
1425 Rain 4 984 91 0 12.18 355.536 00:42 24.09.2019
1426 Rain 4 985 88 0 10.83 2.55 00:23 24.09.2019
1427 Rain 4 985 88 0 10.83 2.55 23:43 23.09.2019
1428 Rain 4 985 88 0 10.83 2.55 23:23 23.09.2019
1429 Rain 4 985 88 0 10.83 2.55 22:57 23.09.2019
1430 Rain 4 985 88 0 10.83 2.55 22:38 23.09.2019
1431 Rain 4 985 88 0 10.83 2.55 22:20 23.09.2019
1432 Rain 4 985 88 0 10.83 2.55 21:56 23.09.2019
1433 Rain 4 985 88 0 10.83 2.55 21:37 23.09.2019
1434 Rain 4 986 86 0 9.47 9.419 21:18 23.09.2019
1435 Rain 4 987 83 0 8.87 16.742 20:40 23.09.2019
1436 Rain 4 987 83 0 8.87 16.742 20:20 23.09.2019
1437 Rain 4 987 83 0 8.87 16.742 19:56 23.09.2019
1438 Rain 4 987 83 0 8.87 16.742 19:38 23.09.2019
1439 Rain 4 987 83 0 8.87 16.742 19:20 23.09.2019
1440 Rain 4 987 83 0 8.87 16.742 18:42 23.09.2019
1441 Rain 4 988 82 0 8.83 15.06 18:21 23.09.2019
1442 Rain 4 988 82 0 8.83 15.06 17:59 23.09.2019
1443 Rain 4 988 82 0 8.83 15.06 17:39 23.09.2019
1444 Rain 4 988 82 0 8.83 15.06 17:21 23.09.2019
1445 Rain 4 988 82 0 8.83 15.06 16:58 23.09.2019
1446 Rain 4 988 82 0 8.83 15.06 16:37 23.09.2019
1447 Rain 4 988 82 0 8.83 15.06 16:19 23.09.2019
1448 Rain 4 988 82 0 8.83 15.06 15:57 23.09.2019
1449 Rain 4 988 82 0 8.83 15.06 15:38 23.09.2019
1450 Rain 5 990 83 0 8.34 9.947 15:19 23.09.2019
1451 Rain 5 990 83 0 8.34 9.947 14:40 23.09.2019
1452 Rain 5 990 83 0 8.34 9.947 14:21 23.09.2019
1453 Rain 5 990 83 0 8.34 9.947 13:59 23.09.2019
1454 Rain 5 990 83 0 8.34 9.947 13:39 23.09.2019
1455 Rain 4 991 80 0 8.85 6.726 13:18 23.09.2019
1456 Rain 4 991 80 0 8.85 6.726 12:56 23.09.2019
1457 Rain 4 991 80 0 8.85 6.726 12:37 23.09.2019
1458 Clouds 4 992 80 0 9.23 12.888 12:19 23.09.2019
1459 Clouds 4 992 80 0 9.23 12.888 11:44 23.09.2019
1460 Clouds 4 992 80 0 9.23 12.888 11:26 23.09.2019
1461 Clouds 4 992 80 0 9.23 12.888 10:55 23.09.2019
1462 Clouds 4 992 80 0 9.23 12.888 10:36 23.09.2019
1463 Clouds 4 992 80 0 9.23 12.888 10:18 23.09.2019
1464 Clouds 4 992 80 0 9.23 12.888 09:39 23.09.2019
1465 Clouds 4 994 75 0 7.23 33.644 09:21 23.09.2019
1466 Clouds 4 994 75 0 7.23 33.644 08:50 23.09.2019
1467 Rain 4 995 78 0 6.24 23.777 08:30 23.09.2019
1468 Rain 4 995 78 0 6.24 23.777 07:58 23.09.2019
1469 Rain 4 995 78 0 6.24 23.777 07:33 23.09.2019
1470 Rain 4 995 78 0 6.24 23.777 06:44 23.09.2019
1471 Clouds 4 997 77 0 6.12 37.021 06:18 23.09.2019
1472 Clouds 4 997 77 0 6.12 37.021 05:22 23.09.2019
1473 Clouds 4 997 77 0 6.12 37.021 04:55 23.09.2019
1474 Clouds 4 997 77 0 6.12 37.021 03:54 23.09.2019
1475 Clouds 4 999 80 0 6.88 33.087 01:22 23.09.2019
1476 Rain 4 1000 82 0 3.46 38.598 00:23 23.09.2019
1477 Rain 4 1000 82 0 3.46 38.598 23:57 22.09.2019
1478 Rain 4 1000 82 0 3.46 38.598 23:33 22.09.2019
1479 Rain 4 1000 82 0 3.46 38.598 22:59 22.09.2019
1480 Rain 4 1000 82 0 3.46 38.598 22:41 22.09.2019
1481 Rain 4 1000 82 0 3.46 38.598 22:23 22.09.2019
1482 Rain 4 1000 82 0 3.46 38.598 22:23 22.09.2019
1483 Rain 4 1000 82 0 3.46 38.598 21:55 22.09.2019
1484 Rain 4 1000 82 0 3.46 38.598 21:37 22.09.2019
1485 Rain 4 1000 82 0 3.46 38.598 21:37 22.09.2019
1486 Clouds 4 1001 82 0 0.79 77.865 21:19 22.09.2019
1487 Clouds 4 1001 82 0 0.79 77.865 20:42 22.09.2019
1488 Clouds 4 1001 77 0 2.39 214.589 20:24 22.09.2019
1489 Clouds 4 1001 77 0 2.39 214.589 19:56 22.09.2019
1490 Clouds 4 1001 77 0 2.39 214.589 19:37 22.09.2019
1491 Clouds 4 1001 77 0 2.39 214.589 19:19 22.09.2019
1492 Clouds 4 1001 77 0 2.39 214.589 18:56 22.09.2019
1493 Clouds 4 1001 77 0 2.39 214.589 18:36 22.09.2019
1494 Clouds 4 1001 77 0 2.39 214.589 18:36 22.09.2019
1495 Clouds 4 1002 76 0 1.65 235.384 18:18 22.09.2019
1496 Clouds 4 1002 76 0 1.65 235.384 17:42 22.09.2019
1497 Clouds 4 1002 76 0 1.65 235.384 17:24 22.09.2019
1498 Clouds 4 1002 76 0 1.65 235.384 16:46 22.09.2019
1499 Clouds 4 1002 76 0 1.65 235.384 16:27 22.09.2019
1500 Clouds 4 1002 76 0 1.65 235.384 15:58 22.09.2019
1501 Clouds 4 1002 76 0 1.65 235.384 15:40 22.09.2019
1502 Clouds 4 1002 81 0 2.57 303.535 15:21 22.09.2019
1503 Clouds 4 1002 81 0 2.57 303.535 15:21 22.09.2019
1504 Clouds 4 1002 81 0 2.57 303.535 14:46 22.09.2019
1505 Clouds 4 1002 81 0 2.57 303.535 14:26 22.09.2019
1506 Clouds 4 1002 81 0 2.57 303.535 13:59 22.09.2019
1507 Clouds 4 1002 81 0 2.57 303.535 13:59 22.09.2019
1508 Clouds 4 1002 81 0 2.57 303.535 13:41 22.09.2019
1509 Rain 4 1001 86 0 4.06 272.78 13:22 22.09.2019
1510 Rain 4 1001 86 0 4.06 272.78 12:56 22.09.2019
1511 Rain 4 1001 86 0 4.06 272.78 12:37 22.09.2019
1512 Rain 4 1001 90 0 6.21 260.941 12:18 22.09.2019
1513 Rain 4 1001 90 0 6.21 260.941 11:42 22.09.2019
1514 Rain 4 1001 90 0 6.21 260.941 11:24 22.09.2019
1515 Rain 4 1001 90 0 6.21 260.941 10:55 22.09.2019
1516 Rain 4 1001 90 0 6.21 260.941 10:37 22.09.2019
1517 Rain 4 1001 90 0 6.21 260.941 10:18 22.09.2019
1518 Rain 4 1001 90 0 6.21 260.941 09:41 22.09.2019
1519 Rain 3 1000 96 0 4.9 268.633 09:20 22.09.2019
1520 Rain 3 1000 96 0 4.9 268.633 08:47 22.09.2019
1521 Rain 3 1000 96 0 5.27 275.839 08:25 22.09.2019
1522 Rain 3 1000 96 0 5.27 275.839 07:56 22.09.2019
1523 Rain 3 1000 96 0 5.27 275.839 07:38 22.09.2019
1524 Rain 3 1000 96 0 5.27 275.839 07:19 22.09.2019
1525 Rain 3 1000 96 0 5.27 275.839 06:55 22.09.2019
1526 Rain 4 999 96 0 5.48 282.923 05:36 22.09.2019
1527 Rain 4 999 96 0 5.48 282.923 03:49 22.09.2019
1528 Rain 4 999 96 0 7.44 270.839 02:38 22.09.2019
1529 Rain 4 999 96 0 7.44 270.839 02:19 22.09.2019
1530 Rain 4 998 96 0 8.37 267.644 01:20 22.09.2019
1531 Rain 4 998 96 0 8.37 267.644 00:33 22.09.2019
1532 Rain 3 998 96 0 12.11 254.158 23:59 21.09.2019
1533 Rain 3 998 96 0 12.11 254.158 23:40 21.09.2019
1534 Rain 3 998 96 0 12.11 254.158 23:20 21.09.2019
1535 Rain 3 998 96 0 12.11 254.158 22:39 21.09.2019
1536 Rain 3 998 96 0 12.11 254.158 22:21 21.09.2019
1537 Rain 3 998 96 0 12.11 254.158 22:21 21.09.2019
1538 Rain 3 998 96 0 12.11 254.158 21:55 21.09.2019
1539 Rain 3 998 96 0 12.11 254.158 21:55 21.09.2019
1540 Rain 3 998 96 0 12.11 254.158 21:36 21.09.2019
1541 Rain 3 997 92 0 11.54 256.977 21:18 21.09.2019
1542 Rain 3 997 94 0 11.79 254.86 20:39 21.09.2019
1543 Rain 3 997 94 0 11.79 254.86 20:39 21.09.2019
1544 Rain 3 997 94 0 11.79 254.86 20:21 21.09.2019
1545 Rain 3 997 94 0 11.79 254.86 19:47 21.09.2019
1546 Rain 3 997 94 0 11.79 254.86 19:24 21.09.2019
1547 Rain 3 997 94 0 11.79 254.86 18:55 21.09.2019
1548 Rain 3 997 94 0 11.79 254.86 18:37 21.09.2019
1549 Rain 3 997 94 0 11.79 254.86 18:37 21.09.2019
1550 Rain 4 997 86 0 11.24 269.042 18:18 21.09.2019
1551 Rain 4 997 86 0 11.24 269.042 17:40 21.09.2019
1552 Rain 4 997 86 0 11.24 269.042 17:21 21.09.2019
1553 Rain 4 997 86 0 11.24 269.042 16:44 21.09.2019
1554 Rain 4 997 86 0 11.24 269.042 16:24 21.09.2019
1555 Rain 4 997 86 0 11.24 269.042 15:56 21.09.2019
1556 Rain 4 997 86 0 11.24 269.042 15:38 21.09.2019
1557 Clouds 5 996 81 0 11.5 270.797 15:19 21.09.2019
1558 Clouds 5 996 81 0 11.5 270.797 14:43 21.09.2019
1559 Clouds 5 996 81 0 11.5 270.797 14:43 21.09.2019
1560 Clouds 5 996 81 0 11.5 270.797 14:24 21.09.2019
1561 Clouds 5 996 81 0 11.5 270.797 13:42 21.09.2019
1562 Clouds 5 997 76 0 10.89 268.658 13:23 21.09.2019
1563 Clouds 5 997 76 0 10.89 268.658 12:57 21.09.2019
1564 Clouds 5 997 76 0 10.89 268.658 12:38 21.09.2019
1565 Clouds 5 996 74 0 10.71 275.973 12:20 21.09.2019
1566 Clouds 5 996 74 0 10.71 275.973 11:50 21.09.2019
1567 Clouds 5 996 74 0 10.71 275.973 11:25 21.09.2019
1568 Clouds 5 996 74 0 10.71 275.973 10:56 21.09.2019
1569 Clouds 5 996 74 0 10.71 275.973 10:37 21.09.2019
1570 Clouds 5 996 74 0 10.71 275.973 10:19 21.09.2019
1571 Clouds 5 996 74 0 10.71 275.973 09:40 21.09.2019
1572 Clouds 5 995 77 0 12.21 274.151 09:21 21.09.2019
1573 Clouds 5 995 77 0 12.21 274.151 08:59 21.09.2019
1574 Rain 4 995 88 0 12.45 271.947 08:40 21.09.2019
1575 Rain 4 995 88 0 12.45 271.947 07:55 21.09.2019
1576 Rain 4 995 88 0 12.45 271.947 07:55 21.09.2019
1577 Rain 4 995 88 0 12.45 271.947 07:55 21.09.2019
1578 Rain 4 995 88 0 12.45 271.947 07:37 21.09.2019
1579 Rain 4 995 88 0 12.45 271.947 07:18 21.09.2019
1580 Rain 4 995 88 0 12.45 271.947 06:34 21.09.2019
1581 Clouds 4 994 83 0 12.35 280.952 05:51 21.09.2019
1582 Clouds 4 994 83 0 12.35 280.952 04:38 21.09.2019
1583 Clouds 4 994 83 0 12.35 280.952 03:25 21.09.2019
1584 Clouds 4 994 83 0 12.35 283.165 02:23 21.09.2019
1585 Clouds 4 994 83 0 12.35 283.165 01:47 21.09.2019
1586 Clouds 4 994 83 0 12.35 283.165 01:21 21.09.2019
1587 Clear 4 993 78 0 11.55 286.174 00:23 21.09.2019
1588 Clear 4 993 78 0 11.55 286.174 23:48 20.09.2019
1589 Clear 4 993 78 0 11.55 286.174 23:30 20.09.2019
1590 Clear 4 993 78 0 11.55 286.174 22:46 20.09.2019
1591 Clear 4 993 78 0 11.55 286.174 22:26 20.09.2019
1592 Clear 4 993 78 0 11.55 286.174 21:57 20.09.2019
1593 Clear 4 993 78 0 11.55 286.174 21:39 20.09.2019
1594 Clouds 5 994 73 0 10.42 292.283 21:21 20.09.2019
1595 Clouds 5 994 73 0 10.42 292.283 20:59 20.09.2019
1596 Clouds 5 994 73 0 10.42 292.283 20:59 20.09.2019
1597 Clouds 5 993 73 0 10.51 290.379 20:41 20.09.2019
1598 Clouds 5 993 73 0 10.51 290.379 20:20 20.09.2019
1599 Clouds 5 993 73 0 10.51 290.379 19:56 20.09.2019
1600 Clouds 5 993 73 0 10.51 290.379 19:36 20.09.2019
1601 Clouds 5 993 73 0 10.51 290.379 19:18 20.09.2019
1602 Clouds 5 993 73 0 10.51 290.379 18:39 20.09.2019
1603 Clouds 5 994 74 0 9.97 297.336 18:20 20.09.2019
1604 Clouds 5 994 74 0 9.97 297.336 17:47 20.09.2019
1605 Clouds 5 994 74 0 9.97 297.336 17:27 20.09.2019
1606 Clouds 5 994 74 0 9.97 297.336 16:59 20.09.2019
1607 Clouds 5 994 74 0 9.97 297.336 16:37 20.09.2019
1608 Clouds 5 994 74 0 9.97 297.336 16:19 20.09.2019
1609 Clouds 5 994 74 0 9.97 297.336 15:42 20.09.2019
1610 Clouds 4 994 75 0 9.86 302.586 15:23 20.09.2019
1611 Clouds 4 994 75 0 9.86 302.586 14:55 20.09.2019
1612 Clouds 4 994 75 0 9.86 302.586 14:36 20.09.2019
1613 Clouds 4 994 75 0 9.86 302.586 14:36 20.09.2019
1614 Clouds 4 994 75 0 9.86 302.586 14:18 20.09.2019
1615 Clouds 4 994 75 0 9.86 302.586 14:18 20.09.2019
1616 Clouds 4 994 75 0 9.86 302.586 13:41 20.09.2019
1617 Clouds 4 995 76 0 9.27 300.963 13:22 20.09.2019
1618 Clouds 4 995 76 0 9.27 300.963 12:42 20.09.2019
1619 Clouds 5 994 70 0 8.31 305.299 12:23 20.09.2019
1620 Clouds 5 994 70 0 8.31 305.299 11:52 20.09.2019
1621 Clouds 5 994 70 0 8.31 305.299 11:27 20.09.2019
1622 Clouds 5 994 70 0 8.31 305.299 10:59 20.09.2019
1623 Clouds 5 994 70 0 8.31 305.299 10:41 20.09.2019
1624 Clouds 5 994 70 0 8.31 305.299 10:22 20.09.2019
1625 Clouds 5 994 70 0 8.31 305.299 10:22 20.09.2019
1626 Clouds 5 994 70 0 8.31 305.299 09:38 20.09.2019
1627 Clouds 5 994 68 0 8.26 312.963 09:19 20.09.2019
1628 Clouds 5 994 68 0 8.26 312.963 08:48 20.09.2019
1629 Clouds 5 994 68 0 8.26 312.963 08:29 20.09.2019
1630 Clouds 5 994 68 0 8.26 312.963 07:59 20.09.2019
1631 Clouds 5 994 68 0 8.26 312.963 07:41 20.09.2019
1632 Clouds 5 994 72 0 7.09 327.028 07:23 20.09.2019
1633 Clouds 5 994 72 0 7.09 327.028 06:43 20.09.2019
1634 Clouds 5 994 72 0 7.09 327.028 06:43 20.09.2019
1635 Clouds 5 995 74 0 6.06 305.14 06:19 20.09.2019
1636 Clouds 5 995 74 0 6.06 305.14 04:58 20.09.2019
1637 Clouds 5 995 74 0 6.06 305.14 03:29 20.09.2019
1638 Clouds 5 995 74 0 6.06 305.14 03:29 20.09.2019
1639 Clouds 5 995 79 0 5.23 308.115 02:22 20.09.2019
1640 Clouds 5 995 79 0 5.23 308.115 01:43 20.09.2019
1641 Clouds 5 995 79 0 5.23 308.115 01:43 20.09.2019
1642 Clouds 5 995 82 0 4.61 307.882 00:43 20.09.2019
1643 Rain 5 995 85 0 4.51 312.028 23:50 19.09.2019
1644 Rain 5 995 85 0 4.51 312.028 23:50 19.09.2019
1645 Rain 5 995 85 0 4.51 312.028 23:29 19.09.2019
1646 Rain 5 995 85 0 4.51 312.028 22:59 19.09.2019
1647 Rain 5 995 85 0 4.51 312.028 22:40 19.09.2019
1648 Rain 5 995 85 0 4.51 312.028 22:22 19.09.2019
1649 Rain 5 995 85 0 4.51 312.028 21:57 19.09.2019
1650 Rain 5 995 85 0 4.51 312.028 21:39 19.09.2019
1651 Rain 5 995 84 0 1.93 335.239 21:19 19.09.2019
1652 Rain 5 995 84 0 1.93 335.239 21:19 19.09.2019
1653 Rain 5 995 84 0 1.93 335.239 20:57 19.09.2019
1654 Rain 5 995 84 0 1.93 335.239 20:57 19.09.2019
1655 Rain 6 996 84 0 4.09 286.964 20:38 19.09.2019
1656 Rain 6 996 84 0 4.09 286.964 20:19 19.09.2019
1657 Rain 6 996 84 0 4.09 286.964 19:40 19.09.2019
1658 Rain 6 996 84 0 4.09 286.964 19:22 19.09.2019
1659 Rain 6 996 84 0 4.09 286.964 18:59 19.09.2019
1660 Rain 6 996 84 0 4.09 286.964 18:41 19.09.2019
1661 Clear 6 996 84 0 2.47 240.201 18:21 19.09.2019
1662 Clear 6 996 84 0 2.47 240.201 17:42 19.09.2019
1663 Clear 6 996 84 0 2.47 240.201 17:24 19.09.2019
1664 Clear 6 996 84 0 2.47 240.201 16:59 19.09.2019
1665 Clear 6 996 84 0 2.47 240.201 16:40 19.09.2019
1666 Clear 6 996 84 0 2.47 240.201 16:19 19.09.2019
1667 Clear 6 996 84 0 2.47 240.201 15:40 19.09.2019
1668 Clouds 5 996 86 0 0.83 171.987 15:21 19.09.2019
1669 Clouds 5 996 86 0 0.83 171.987 14:58 19.09.2019
1670 Clouds 5 996 86 0 0.83 171.987 14:38 19.09.2019
1671 Clouds 5 996 86 0 0.83 171.987 14:20 19.09.2019
1672 Clouds 5 996 86 0 0.83 171.987 13:40 19.09.2019
1673 Clouds 5 996 86 0 0.83 171.987 13:40 19.09.2019
1674 Clouds 5 996 86 0 0.83 171.987 13:40 19.09.2019
1675 Clouds 5 996 82 0 0.94 162.861 13:21 19.09.2019
1676 Clouds 5 996 82 0 0.94 162.861 12:58 19.09.2019
1677 Clouds 5 996 82 0 0.94 162.861 12:36 19.09.2019
1678 Clouds 5 995 79 0 0.84 274.656 12:18 19.09.2019
1679 Clouds 5 995 79 0 0.84 274.656 11:41 19.09.2019
1680 Clouds 5 995 79 0 0.84 274.656 11:21 19.09.2019
1681 Clouds 5 995 79 0 0.84 274.656 10:58 19.09.2019
1682 Clouds 5 995 79 0 0.84 274.656 10:37 19.09.2019
1683 Clouds 5 995 79 0 0.84 274.656 10:18 19.09.2019
1684 Clouds 5 995 79 0 0.84 274.656 09:55 19.09.2019
1685 -273 0 0 0 0 0 09:55 19.09.2019
1686 Clouds 5 995 79 0 0.84 274.656 09:55 19.09.2019
1687 Clouds 5 995 79 0 0.84 274.656 09:36 19.09.2019
1688 Clouds 5 995 79 0 0.84 274.656 09:36 19.09.2019
1689 Clouds 5 994 81 0 2.98 276.54 09:18 19.09.2019
1690 Clouds 5 994 80 0 2.55 264.348 08:41 19.09.2019
1691 Clouds 5 994 80 0 2.55 264.348 08:22 19.09.2019
1692 Clouds 5 994 80 0 2.55 264.348 07:43 19.09.2019
1693 Clouds 5 994 80 0 2.55 264.348 07:22 19.09.2019
1694 Clouds 5 994 80 0 2.55 264.348 06:48 19.09.2019
1695 Clouds 5 994 80 0 2.55 264.348 06:28 19.09.2019
1696 Clouds 5 994 87 0 3.81 269.608 05:52 19.09.2019
1697 Clouds 5 994 87 0 3.81 269.608 04:58 19.09.2019
1698 Clouds 5 994 87 0 3.81 269.608 03:54 19.09.2019
1699 Rain 5 994 92 0 4.31 281.154 02:47 19.09.2019
1700 Rain 5 994 93 0 5 292.925 01:32 19.09.2019
1701 Rain 5 994 93 0 5 292.925 00:50 19.09.2019
1702 Rain 5 994 93 0 5 292.925 00:50 19.09.2019
1703 Rain 5 994 93 0 5 292.925 00:26 19.09.2019
1704 Rain 5 994 93 0 5 292.925 00:26 19.09.2019
1705 Clouds 6 993 95 0 3.83 249.229 23:42 18.09.2019
1706 Clouds 6 993 95 0 3.83 249.229 23:22 18.09.2019
1707 Clouds 6 993 95 0 3.83 249.229 22:55 18.09.2019
1708 Clouds 6 993 95 0 3.83 249.229 22:36 18.09.2019
1709 Clouds 6 993 95 0 3.83 249.229 22:18 18.09.2019
1710 Clouds 6 993 95 0 3.83 249.229 21:54 18.09.2019
1711 Clouds 6 993 95 0 3.83 249.229 21:54 18.09.2019
1712 Clouds 6 993 95 0 3.83 249.229 21:36 18.09.2019
1713 Clouds 7 993 84 0 5.6 150.64 21:18 18.09.2019
1714 Clouds 7 993 86 0 5.53 165.27 20:55 18.09.2019
1715 Clouds 7 993 86 0 5.53 165.27 20:37 18.09.2019
1716 Clouds 7 993 86 0 5.53 165.27 20:18 18.09.2019
1717 Clouds 7 993 86 0 5.53 165.27 19:41 18.09.2019
1718 Clouds 7 993 86 0 5.53 165.27 19:20 18.09.2019
1719 Clouds 7 993 86 0 5.53 165.27 18:57 18.09.2019
1720 Clouds 7 993 86 0 5.53 165.27 18:38 18.09.2019
1721 Clouds 7 993 81 0 6.15 139.579 18:19 18.09.2019
1722 Clouds 7 993 81 0 6.15 139.579 17:59 18.09.2019
1723 Clouds 7 993 81 0 6.15 139.579 17:40 18.09.2019
1724 Clouds 7 993 81 0 6.15 139.579 17:19 18.09.2019
1725 Clouds 7 993 81 0 6.15 139.579 17:19 18.09.2019
1726 Clouds 7 993 81 0 6.15 139.579 16:56 18.09.2019
1727 Clouds 7 993 81 0 6.15 139.579 16:38 18.09.2019
1728 Clouds 7 993 81 0 6.15 139.579 16:19 18.09.2019
1729 Clouds 7 993 81 0 6.15 139.579 15:56 18.09.2019
1730 Clouds 7 993 81 0 6.15 139.579 15:37 18.09.2019
1731 Rain 7 993 87 0 1.42 77.449 15:19 18.09.2019
1732 Rain 7 993 87 0 1.42 77.449 14:57 18.09.2019
1733 Rain 7 993 87 0 1.42 77.449 14:39 18.09.2019
1734 Rain 7 993 87 0 1.42 77.449 14:21 18.09.2019
1735 Rain 7 993 87 0 1.42 77.449 13:54 18.09.2019
1736 Rain 7 993 87 0 1.42 77.449 13:36 18.09.2019
1737 Clouds 7 993 84 0 2.54 93.904 13:18 18.09.2019
1738 Clouds 7 993 84 0 2.54 93.904 12:37 18.09.2019
1739 Rain 7 993 89 0 3.27 185.428 12:19 18.09.2019
1740 Rain 7 993 89 0 3.27 185.428 11:40 18.09.2019
1741 Rain 7 993 89 0 3.27 185.428 11:20 18.09.2019
1742 Rain 7 993 89 0 3.27 185.428 10:55 18.09.2019
1743 Rain 7 993 89 0 3.27 185.428 10:37 18.09.2019
1744 Rain 7 993 89 0 3.27 185.428 10:18 18.09.2019
1745 Rain 7 993 89 0 3.27 185.428 09:41 18.09.2019
1746 Rain 6 992 92 0 4.55 169.746 09:22 18.09.2019
1747 Rain 6 992 92 0 4.55 169.746 08:57 18.09.2019
1748 Rain 6 992 91 0 4.19 168.736 08:39 18.09.2019
1749 Rain 6 992 91 0 4.19 168.736 08:19 18.09.2019
1750 Rain 6 992 91 0 4.19 168.736 07:43 18.09.2019
1751 Rain 6 992 91 0 4.19 168.736 07:23 18.09.2019
1752 Rain 6 992 91 0 4.19 168.736 06:46 18.09.2019
1753 Rain 6 991 95 0 4.09 155.83 06:21 18.09.2019
1754 Rain 6 991 95 0 4.09 155.83 06:21 18.09.2019
1755 Rain 6 991 95 0 4.09 155.83 05:27 18.09.2019
1756 Rain 6 991 95 0 4.09 155.83 03:40 18.09.2019
1757 Rain 6 991 91 0 4.26 155.77 02:40 18.09.2019
1758 Rain 6 991 93 0 4.04 157.09 01:41 18.09.2019
1759 Rain 6 991 93 0 4.04 157.09 00:55 18.09.2019
1760 Rain 6 991 93 0 4.04 157.09 00:31 18.09.2019
1761 Clouds 6 990 93 0 5.18 156.36 23:48 17.09.2019
1762 Clouds 6 990 93 0 5.18 156.36 23:25 17.09.2019
1763 Clouds 6 990 93 0 5.18 156.36 23:25 17.09.2019
1764 Clouds 6 990 93 0 5.18 156.36 22:56 17.09.2019
1765 Clouds 6 990 93 0 5.18 156.36 22:38 17.09.2019
1766 Clouds 6 990 93 0 5.18 156.36 22:19 17.09.2019
1767 Clouds 6 990 93 0 5.18 156.36 21:54 17.09.2019
1768 Clouds 6 990 93 0 5.18 156.36 21:36 17.09.2019
1769 Rain 6 991 91 0 3.55 177.16 21:18 17.09.2019
1770 Clouds 6 991 92 0 4.72 180.764 20:55 17.09.2019
1771 Clouds 6 991 92 0 4.72 180.764 20:55 17.09.2019
1772 Clouds 6 991 92 0 4.72 180.764 20:37 17.09.2019
1773 Clouds 6 991 92 0 4.72 180.764 20:19 17.09.2019
1774 Clouds 6 991 92 0 4.72 180.764 20:19 17.09.2019
1775 Clouds 6 991 92 0 4.72 180.764 19:40 17.09.2019
1776 Clouds 6 991 92 0 4.72 180.764 19:40 17.09.2019
1777 Clouds 6 991 92 0 4.72 180.764 19:20 17.09.2019
1778 Clouds 6 991 92 0 4.72 180.764 18:59 17.09.2019
1779 Clouds 6 991 92 0 4.72 180.764 18:59 17.09.2019
1780 Clouds 6 991 92 0 4.72 180.764 18:41 17.09.2019
1781 Clouds 6 991 92 0 4.72 180.764 18:41 17.09.2019
1782 Clouds 6 991 90 0 4.42 206.089 18:22 17.09.2019
1783 Clouds 6 991 90 0 4.42 206.089 17:55 17.09.2019
1784 Clouds 6 991 90 0 4.42 206.089 17:36 17.09.2019
1785 Clouds 6 991 90 0 4.42 206.089 17:18 17.09.2019
1786 Clouds 6 991 90 0 4.42 206.089 17:18 17.09.2019
1787 Clouds 6 991 90 0 4.42 206.089 16:41 17.09.2019
1788 Clouds 6 991 90 0 4.42 206.089 16:22 17.09.2019
1789 -273 0 0 0 0 0 15:56 17.09.2019
1790 Clouds 6 991 90 0 4.42 206.089 15:37 17.09.2019
1791 Rain 7 991 88 0 4.78 218.94 15:19 17.09.2019
1792 Rain 7 991 88 0 4.78 218.94 14:55 17.09.2019
1793 Rain 7 991 88 0 4.78 218.94 14:37 17.09.2019
1794 Rain 7 991 88 0 4.78 218.94 14:18 17.09.2019
1795 Rain 7 991 88 0 4.78 218.94 13:42 17.09.2019
1796 Rain 6 991 90 0 4.58 228.988 13:23 17.09.2019
1797 Rain 6 991 90 0 4.58 228.988 12:56 17.09.2019
1798 Rain 6 991 90 0 4.58 228.988 12:37 17.09.2019
1799 Rain 6 991 94 0 3.83 136.387 12:18 17.09.2019
1800 Rain 6 991 94 0 3.83 136.387 11:42 17.09.2019
1801 Rain 6 991 94 0 3.83 136.387 11:22 17.09.2019
1802 Rain 6 991 94 0 3.83 136.387 10:42 17.09.2019
1803 Rain 6 991 94 0 3.83 136.387 10:24 17.09.2019
1804 Rain 6 991 94 0 3.83 136.387 09:59 17.09.2019
1805 Rain 6 991 94 0 3.83 136.387 09:40 17.09.2019
1806 Rain 7 990 86 0 3.9 140.732 09:20 17.09.2019
1807 Rain 7 990 86 0 3.9 140.732 08:45 17.09.2019
1808 Rain 6 991 91 0 3.28 130.897 08:26 17.09.2019
1809 Rain 6 991 91 0 3.28 130.897 07:56 17.09.2019
1810 Rain 6 991 91 0 3.28 130.897 07:56 17.09.2019
1811 Rain 6 991 91 0 3.28 130.897 07:38 17.09.2019
1812 Rain 6 991 91 0 3.28 130.897 07:19 17.09.2019
1813 Rain 6 991 91 0 3.28 130.897 06:45 17.09.2019
1814 Rain 6 991 92 0 5.96 98.592 06:19 17.09.2019
1815 Rain 6 991 92 0 5.96 98.592 05:38 17.09.2019
1816 Rain 6 991 92 0 5.96 98.592 04:27 17.09.2019
1817 Rain 6 991 90 0 6.43 86.07 02:55 17.09.2019
1818 Rain 6 991 90 0 6.43 86.07 02:35 17.09.2019
1819 Clouds 6 992 86 0 5.53 88.716 01:24 17.09.2019
1820 Clouds 6 992 86 0 5.53 88.716 00:28 17.09.2019
1821 Clouds 6 992 87 0 6.31 86.84 23:38 16.09.2019
1822 Clouds 6 992 87 0 6.31 86.84 23:18 16.09.2019
1823 Clouds 6 992 87 0 6.31 86.84 22:42 16.09.2019
1824 Clouds 6 992 87 0 6.31 86.84 22:24 16.09.2019
1825 Clouds 6 992 87 0 6.31 86.84 21:59 16.09.2019
1826 Clouds 6 992 87 0 6.31 86.84 21:40 16.09.2019
1827 Clouds 6 993 88 0 8.25 79.539 21:21 16.09.2019
1828 Clouds 6 993 88 0 8.25 79.539 20:58 16.09.2019
1829 Clouds 6 993 86 0 8.06 88.044 20:39 16.09.2019
1830 Clouds 6 993 86 0 8.06 88.044 20:19 16.09.2019
1831 Clouds 6 993 86 0 8.06 88.044 19:56 16.09.2019
1832 Clouds 6 993 86 0 8.06 88.044 19:37 16.09.2019
1833 Clouds 6 993 86 0 8.06 88.044 19:18 16.09.2019
1834 Clouds 6 993 86 0 8.06 88.044 18:43 16.09.2019
1835 Clouds 6 993 86 0 8.06 88.044 18:25 16.09.2019
1836 Clouds 6 994 88 0 9.05 93.415 17:55 16.09.2019
1837 Clouds 6 994 88 0 9.05 93.415 17:37 16.09.2019
1838 Clouds 6 994 88 0 9.05 93.415 17:19 16.09.2019
1839 Clouds 6 994 88 0 9.05 93.415 16:43 16.09.2019
1840 Clouds 6 994 88 0 9.05 93.415 16:21 16.09.2019
1841 Clouds 6 994 88 0 9.05 93.415 15:57 16.09.2019
1842 Clouds 6 994 88 0 9.05 93.415 15:39 16.09.2019
1843 Rain 6 995 90 0 10.81 95.463 15:20 16.09.2019
1844 Rain 6 995 90 0 10.81 95.463 14:58 16.09.2019
1845 Rain 6 995 90 0 10.81 95.463 14:39 16.09.2019
1846 Rain 6 995 90 0 10.81 95.463 14:20 16.09.2019
1847 Rain 6 995 90 0 10.81 95.463 13:43 16.09.2019
1848 Rain 6 995 89 0 10.31 99.399 13:22 16.09.2019
1849 Rain 6 995 89 0 10.31 99.399 12:57 16.09.2019
1850 Rain 6 995 89 0 10.31 99.399 12:57 16.09.2019
1851 Rain 6 995 89 0 10.31 99.399 12:38 16.09.2019
1852 Clouds 6 995 89 0 9.9 105.061 12:18 16.09.2019
1853 Clouds 6 995 89 0 9.9 105.061 11:44 16.09.2019
1854 Clouds 6 995 89 0 9.9 105.061 11:22 16.09.2019
1855 Clouds 6 995 89 0 9.9 105.061 10:56 16.09.2019
1856 Clouds 6 995 89 0 9.9 105.061 10:37 16.09.2019
1857 Clouds 6 995 89 0 9.9 105.061 10:18 16.09.2019
1858 Clouds 6 995 89 0 9.9 105.061 09:41 16.09.2019
1859 Rain 6 996 91 0 8.65 94.87 09:21 16.09.2019
1860 Rain 6 996 91 0 8.65 94.87 08:55 16.09.2019
1861 Rain 6 995 89 0 7.14 105.299 08:35 16.09.2019
1862 Rain 6 995 89 0 7.14 105.299 07:59 16.09.2019
1863 Rain 6 995 89 0 7.14 105.299 07:41 16.09.2019
1864 Rain 6 995 89 0 7.14 105.299 07:20 16.09.2019
1865 Rain 6 995 89 0 7.14 105.299 06:50 16.09.2019
1866 Rain 6 995 89 0 7.14 105.299 06:50 16.09.2019
1867 Rain 6 995 89 0 7.14 105.299 06:32 16.09.2019
1868 Rain 6 996 89 0 9.65 113.031 05:58 16.09.2019
1869 Rain 6 996 89 0 9.65 113.031 05:39 16.09.2019
1870 Rain 6 996 89 0 9.65 113.031 05:18 16.09.2019
1871 Rain 6 996 89 0 9.65 113.031 03:36 16.09.2019
1872 Rain 6 997 90 0 10.98 114.249 00:58 16.09.2019
1873 Rain 6 997 90 0 10.98 114.249 00:58 16.09.2019
1874 Rain 6 997 90 0 10.98 114.249 00:38 16.09.2019
1875 Rain 6 998 90 0 12.95 104.562 00:19 16.09.2019
1876 Rain 6 998 90 0 12.95 104.562 23:39 15.09.2019
1877 Rain 6 998 90 0 12.95 104.562 23:20 15.09.2019
1878 Rain 6 998 90 0 12.95 104.562 22:39 15.09.2019
1879 Rain 6 998 90 0 12.95 104.562 22:20 15.09.2019
1880 Rain 6 998 90 0 12.95 104.562 21:57 15.09.2019
1881 Rain 6 998 90 0 12.95 104.562 21:39 15.09.2019
1882 Rain 6 998 90 0 12.95 104.562 21:39 15.09.2019
1883 Rain 5 999 91 0 14.92 107.65 21:20 15.09.2019
1884 Rain 6 998 91 0 14.37 108.572 20:46 15.09.2019
1885 Rain 6 998 91 0 14.37 108.572 20:27 15.09.2019
1886 Rain 6 998 91 0 14.37 108.572 19:59 15.09.2019
1887 Rain 6 998 91 0 14.37 108.572 19:41 15.09.2019
1888 Rain 6 998 91 0 14.37 108.572 19:22 15.09.2019
1889 Rain 6 998 91 0 14.37 108.572 18:42 15.09.2019
1890 Rain 5 1000 90 0 15.6 110.805 18:23 15.09.2019
1891 Rain 5 1000 90 0 15.6 110.805 17:56 15.09.2019
1892 Rain 5 1000 90 0 15.6 110.805 17:36 15.09.2019
1893 Rain 5 1000 90 0 15.6 110.805 17:18 15.09.2019
1894 Rain 5 1000 90 0 15.6 110.805 16:42 15.09.2019
1895 Rain 5 1000 90 0 15.6 110.805 16:23 15.09.2019
1896 Rain 5 1000 90 0 15.6 110.805 15:58 15.09.2019
1897 Rain 5 1000 90 0 15.6 110.805 15:38 15.09.2019
1898 Clouds 6 1001 83 0 16.68 108.041 15:19 15.09.2019
1899 Clouds 6 1001 83 0 16.68 108.041 14:56 15.09.2019
1900 Clouds 6 1001 83 0 16.68 108.041 14:38 15.09.2019
1901 Clouds 6 1001 83 0 16.68 108.041 14:19 15.09.2019
1902 Clouds 6 1001 83 0 16.68 108.041 13:44 15.09.2019
1903 Clouds 6 1001 80 0 16.76 107.074 13:23 15.09.2019
1904 Clouds 6 1001 80 0 16.76 107.074 12:43 15.09.2019
1905 Clouds 6 1001 80 0 16.76 107.074 12:25 15.09.2019
1906 Clouds 5 1002 84 0 17.11 104.052 11:59 15.09.2019
1907 Clouds 5 1002 84 0 17.11 104.052 11:41 15.09.2019
1908 Clouds 5 1002 84 0 17.11 104.052 11:22 15.09.2019
1909 Clouds 5 1002 84 0 17.11 104.052 10:55 15.09.2019
1910 Clouds 5 1002 84 0 17.11 104.052 10:37 15.09.2019
1911 Clouds 5 1002 84 0 17.11 104.052 10:18 15.09.2019
1912 Clouds 5 1002 84 0 17.11 104.052 09:39 15.09.2019
1913 Clouds 5 1004 83 0 16.23 108.204 09:19 15.09.2019
1914 Clouds 5 1004 83 0 16.23 108.204 08:46 15.09.2019
1915 Clouds 6 1004 84 0 15.84 108.005 08:27 15.09.2019
1916 Clouds 6 1004 84 0 15.84 108.005 07:49 15.09.2019
1917 Clouds 6 1004 84 0 15.84 108.005 07:28 15.09.2019
1918 Clouds 6 1004 84 0 15.84 108.005 06:43 15.09.2019
1919 Clouds 5 1006 85 0 15.07 104.307 03:31 15.09.2019
1920 Clouds 5 1007 83 0 14.16 109.74 02:41 15.09.2019
1921 Clouds 5 1007 83 0 14.16 109.74 01:41 15.09.2019
1922 Clouds 5 1007 84 0 14.07 110.687 01:19 15.09.2019
1923 Clouds 5 1007 84 0 14.07 110.687 00:43 15.09.2019
1924 Clouds 5 1008 85 0 13.12 113.404 00:22 15.09.2019
1925 Clouds 5 1008 85 0 13.12 113.404 23:58 14.09.2019
1926 Clouds 5 1008 85 0 13.12 113.404 23:39 14.09.2019
1927 Clouds 5 1008 85 0 13.12 113.404 23:39 14.09.2019
1928 Clouds 5 1008 85 0 13.12 113.404 23:39 14.09.2019
1929 Clouds 5 1008 85 0 13.12 113.404 23:21 14.09.2019
1930 Clouds 5 1008 85 0 13.12 113.404 22:59 14.09.2019
1931 Clouds 5 1008 85 0 13.12 113.404 22:40 14.09.2019
1932 Clouds 5 1008 85 0 13.12 113.404 22:20 14.09.2019
1933 Clouds 5 1008 85 0 13.12 113.404 21:56 14.09.2019
1934 Clouds 5 1008 85 0 13.12 113.404 21:38 14.09.2019
1935 Clouds 5 1008 86 0 13.17 112.195 21:19 14.09.2019
1936 Clouds 5 1008 86 0 12.99 113.93 20:40 14.09.2019
1937 Clouds 5 1008 86 0 12.99 113.93 20:40 14.09.2019
1938 Clouds 5 1008 86 0 12.99 113.93 20:22 14.09.2019
1939 Clouds 5 1008 86 0 12.99 113.93 19:59 14.09.2019
1940 Clouds 5 1008 86 0 12.99 113.93 19:40 14.09.2019
1941 Clouds 5 1008 86 0 12.99 113.93 19:19 14.09.2019
1942 Clouds 5 1008 86 0 12.99 113.93 18:41 14.09.2019
1943 Rain 6 1009 84 0 13.08 111.187 18:21 14.09.2019
1944 Rain 6 1009 84 0 13.08 111.187 17:58 14.09.2019
1945 Rain 6 1009 84 0 13.08 111.187 17:39 14.09.2019
1946 Rain 6 1009 84 0 13.08 111.187 17:21 14.09.2019
1947 Rain 6 1009 84 0 13.08 111.187 16:44 14.09.2019
1948 Rain 6 1009 84 0 13.08 111.187 16:22 14.09.2019
1949 Rain 6 1009 84 0 13.08 111.187 15:56 14.09.2019
1950 Rain 6 1009 84 0 13.08 111.187 15:36 14.09.2019
1951 Rain 6 1008 86 0 13.16 109.784 15:18 14.09.2019
1952 Rain 6 1008 86 0 13.16 109.784 14:42 14.09.2019
1953 Rain 6 1008 86 0 13.16 109.784 14:19 14.09.2019
1954 Rain 6 1008 86 0 13.16 109.784 14:19 14.09.2019
1955 Rain 6 1008 86 0 13.16 109.784 13:47 14.09.2019
1956 Clouds 6 1008 85 0 13.25 109.483 13:22 14.09.2019
1957 Clouds 6 1008 85 0 13.25 109.483 12:48 14.09.2019
1958 Clouds 6 1008 85 0 13.25 109.483 12:26 14.09.2019
1959 Clouds 6 1008 85 0 13.79 110.968 11:43 14.09.2019
1960 Clouds 6 1008 85 0 13.79 110.968 11:22 14.09.2019
1961 Clouds 6 1008 85 0 13.79 110.968 10:58 14.09.2019
1962 Clouds 6 1008 85 0 13.79 110.968 10:37 14.09.2019
1963 Clouds 6 1008 85 0 13.79 110.968 10:18 14.09.2019
1964 Clouds 6 1008 85 0 13.79 110.968 09:56 14.09.2019
1965 Clouds 6 1008 85 0 13.79 110.968 09:38 14.09.2019
1966 Clouds 6 1008 85 0 14.02 114.538 09:18 14.09.2019
1967 Clouds 6 1007 86 0 14.12 112.931 08:44 14.09.2019
1968 Clouds 6 1007 86 0 14.12 112.931 08:44 14.09.2019
1969 Clouds 6 1007 86 0 14.12 112.931 08:23 14.09.2019
1970 Clouds 6 1007 86 0 14.12 112.931 07:45 14.09.2019
1971 Clouds 6 1007 86 0 14.12 112.931 07:45 14.09.2019
1972 Clouds 6 1007 86 0 14.12 112.931 07:27 14.09.2019
1973 Clouds 6 1007 86 0 14.12 112.931 06:39 14.09.2019
1974 Clouds 6 1008 87 0 14.29 110.642 05:57 14.09.2019
1975 Clouds 6 1008 87 0 14.29 110.642 04:55 14.09.2019
1976 Clouds 6 1008 87 0 14.29 110.642 03:38 14.09.2019
1977 Clouds 6 1008 87 0 14.04 113.346 02:51 14.09.2019
1978 Clouds 6 1008 87 0 14.04 113.346 01:47 14.09.2019
1979 Clouds 6 1007 88 0 13.91 111.023 01:21 14.09.2019
1980 Clouds 6 1007 88 0 13.91 111.023 00:56 14.09.2019
1981 Clouds 6 1007 88 0 13.91 111.023 00:37 14.09.2019
1982 Clouds 6 1007 88 0 13.54 109.725 00:18 14.09.2019
1983 Clouds 6 1007 88 0 13.54 109.725 23:38 13.09.2019
1984 Clouds 6 1007 88 0 13.54 109.725 23:19 13.09.2019
1985 Clouds 6 1007 88 0 13.54 109.725 22:56 13.09.2019
1986 Clouds 6 1007 88 0 13.54 109.725 22:56 13.09.2019
1987 Clouds 6 1007 88 0 13.54 109.725 22:37 13.09.2019
1988 Clouds 6 1007 88 0 13.54 109.725 22:37 13.09.2019
1989 Clouds 6 1007 88 0 13.54 109.725 22:19 13.09.2019
1990 Clouds 6 1007 88 0 13.54 109.725 21:40 13.09.2019
1991 Clouds 6 1008 88 0 12.73 112.69 21:19 13.09.2019
1992 Clouds 6 1008 88 0 12.73 112.69 20:58 13.09.2019
1993 Clouds 6 1008 89 0 12.85 111.666 20:38 13.09.2019
1994 Clouds 6 1008 89 0 12.85 111.666 20:20 13.09.2019
1995 Clouds 6 1008 89 0 12.85 111.666 19:55 13.09.2019
1996 Clouds 6 1008 89 0 12.85 111.666 19:37 13.09.2019
1997 Clouds 6 1008 89 0 12.85 111.666 19:18 13.09.2019
1998 Clouds 6 1008 89 0 12.85 111.666 19:18 13.09.2019
1999 Clouds 6 1008 89 0 12.85 111.666 18:38 13.09.2019
2000 Clouds 6 1009 89 0 12.82 109.345 18:20 13.09.2019
2001 Clouds 6 1009 89 0 12.82 109.345 17:58 13.09.2019
2002 Clouds 6 1009 89 0 12.82 109.345 17:37 13.09.2019
2003 Clouds 6 1009 89 0 12.82 109.345 17:18 13.09.2019
2004 Clouds 6 1009 89 0 12.82 109.345 17:18 13.09.2019
2005 Clouds 6 1009 89 0 12.82 109.345 16:40 13.09.2019
2006 Clouds 6 1009 89 0 12.82 109.345 16:20 13.09.2019
2007 Clouds 6 1009 89 0 12.82 109.345 15:45 13.09.2019
2008 Clouds 6 1009 89 0 12.82 109.345 15:27 13.09.2019
2009 Clouds 6 1009 89 0 11.74 107.819 14:56 13.09.2019
2010 Clouds 6 1009 89 0 11.74 107.819 14:38 13.09.2019
2011 Clouds 6 1009 89 0 11.74 107.819 14:19 13.09.2019
2012 Clouds 6 1009 89 0 11.74 107.819 13:44 13.09.2019
2013 Clouds 6 1008 89 0 12.33 108.035 13:22 13.09.2019
2014 Clouds 6 1008 89 0 12.33 108.035 12:46 13.09.2019
2015 Clouds 6 1008 89 0 12.33 108.035 12:26 13.09.2019
2016 Clouds 6 1009 89 0 11.98 110.257 11:58 13.09.2019
2017 Clouds 6 1009 89 0 11.98 110.257 11:21 13.09.2019
2018 Clouds 6 1009 89 0 11.98 110.257 10:59 13.09.2019
2019 Clouds 6 1009 89 0 11.98 110.257 10:37 13.09.2019
2020 Clouds 6 1009 89 0 11.98 110.257 10:18 13.09.2019
2021 Clouds 6 1009 89 0 11.98 110.257 09:43 13.09.2019
2022 Clouds 6 1009 91 0 11.63 111.615 09:23 13.09.2019
2023 Clouds 6 1009 91 0 11.63 111.615 08:58 13.09.2019
2024 Clouds 6 1009 91 0 11.91 114.49 08:39 13.09.2019
2025 Clouds 6 1009 91 0 11.91 114.49 08:20 13.09.2019
2026 Clouds 6 1009 91 0 11.91 114.49 07:43 13.09.2019
2027 Clouds 6 1009 91 0 11.91 114.49 07:24 13.09.2019
2028 Clouds 6 1009 91 0 11.91 114.49 06:39 13.09.2019
2029 Clouds 7 1010 92 0 11.45 115.475 05:39 13.09.2019
2030 Clouds 7 1010 92 0 11.45 115.475 04:34 13.09.2019
2031 Clouds 7 1010 92 0 11.45 115.475 03:33 13.09.2019
2032 Clouds 7 1010 92 0 9.48 114.398 02:20 13.09.2019
2033 Clouds 7 1010 92 0 9.48 114.398 01:38 13.09.2019
2034 Clouds 7 1010 92 0 9.32 117.024 00:59 13.09.2019
2035 Clouds 7 1010 92 0 9.32 117.024 00:36 13.09.2019
2036 Rain 7 1011 93 0 9.05 119.984 23:53 12.09.2019
2037 Rain 7 1011 93 0 9.05 119.984 23:30 12.09.2019
2038 Rain 7 1011 93 0 9.05 119.984 22:58 12.09.2019
2039 Rain 7 1011 93 0 9.05 119.984 22:40 12.09.2019
2040 Rain 7 1011 93 0 9.05 119.984 22:22 12.09.2019
2041 Rain 7 1011 93 0 9.05 119.984 21:56 12.09.2019
2042 Rain 7 1011 93 0 9.05 119.984 21:37 12.09.2019
2043 Clouds 7 1012 93 0 5.89 128.155 21:19 12.09.2019
2044 Rain 7 1013 94 0 6.16 124.725 20:44 12.09.2019
2045 Rain 7 1013 94 0 6.16 124.725 20:23 12.09.2019
2046 Rain 7 1013 94 0 6.16 124.725 19:58 12.09.2019
2047 Rain 7 1013 94 0 6.16 124.725 19:40 12.09.2019
2048 Rain 7 1013 94 0 6.16 124.725 19:19 12.09.2019
2049 Rain 7 1013 94 0 6.16 124.725 18:57 12.09.2019
2050 Rain 7 1013 94 0 6.16 124.725 18:36 12.09.2019
2051 Rain 7 1014 95 0 6.03 139.616 18:18 12.09.2019
2052 Rain 7 1014 95 0 6.03 139.616 17:41 12.09.2019
2053 Rain 7 1014 95 0 6.03 139.616 17:20 12.09.2019
2054 Rain 7 1014 95 0 6.03 139.616 16:56 12.09.2019
2055 Rain 7 1014 95 0 6.03 139.616 16:38 12.09.2019
2056 Rain 7 1014 95 0 6.03 139.616 16:19 12.09.2019
2057 Rain 7 1014 95 0 6.03 139.616 15:41 12.09.2019
2058 Rain 7 1015 95 0 6.14 140.052 15:23 12.09.2019
2059 Rain 7 1015 95 0 6.14 140.052 14:46 12.09.2019
2060 Rain 7 1015 95 0 6.14 140.052 14:22 12.09.2019
2061 Rain 7 1015 95 0 6.14 140.052 13:58 12.09.2019
2062 Rain 7 1015 95 0 6.14 140.052 13:38 12.09.2019
2063 Rain 7 1015 95 0 5.57 146.743 13:19 12.09.2019
2064 Rain 7 1015 95 0 5.57 146.743 12:45 12.09.2019
2065 Rain 7 1016 93 0 6.36 145.628 12:19 12.09.2019
2066 Rain 7 1016 93 0 6.36 145.628 12:19 12.09.2019
2067 Rain 7 1016 93 0 6.36 145.628 11:57 12.09.2019
2068 Rain 7 1016 93 0 6.36 145.628 11:39 12.09.2019
2069 Rain 7 1016 93 0 6.36 145.628 11:19 12.09.2019
2070 Rain 7 1016 93 0 6.36 145.628 10:45 12.09.2019
2071 Rain 7 1016 93 0 6.36 145.628 10:26 12.09.2019
2072 Rain 7 1016 93 0 6.36 145.628 09:45 12.09.2019
2073 Rain 6 1017 91 0 5.95 147.347 09:25 12.09.2019
2074 Rain 6 1017 91 0 5.95 147.347 08:59 12.09.2019
2075 Rain 6 1017 89 0 5.79 141.926 08:40 12.09.2019
2076 Rain 6 1017 89 0 5.79 141.926 08:22 12.09.2019
2077 Rain 6 1017 89 0 5.79 141.926 07:40 12.09.2019
2078 Rain 6 1017 89 0 5.79 141.926 07:20 12.09.2019
2079 Rain 6 1017 89 0 5.79 141.926 06:51 12.09.2019
2080 Clouds 6 1018 89 0 4.9 142.931 06:23 12.09.2019
2081 Clouds 6 1018 89 0 4.9 142.931 05:51 12.09.2019
2082 Clouds 6 1018 89 0 4.9 142.931 05:32 12.09.2019
2083 Clouds 6 1018 89 0 4.9 142.931 04:40 12.09.2019
2084 Rain 6 1018 90 0 4.52 143.835 02:28 12.09.2019
2085 Rain 6 1018 89 0 4.13 150.746 01:36 12.09.2019
2086 Rain 6 1018 89 0 4.13 150.746 01:18 12.09.2019
2087 Rain 6 1018 89 0 4.13 150.746 00:42 12.09.2019
2088 Rain 5 1019 88 0 2.98 156.698 00:23 12.09.2019
2089 Rain 5 1019 88 0 2.98 156.698 23:42 11.09.2019
2090 Rain 5 1019 88 0 2.98 156.698 23:22 11.09.2019
2091 Rain 5 1019 88 0 2.98 156.698 22:56 11.09.2019
2092 Rain 5 1019 88 0 2.98 156.698 22:37 11.09.2019
2093 Rain 5 1019 88 0 2.98 156.698 22:19 11.09.2019
2094 Rain 5 1019 88 0 2.98 156.698 21:42 11.09.2019
2095 Rain 5 1019 90 0 4.02 178.787 21:24 11.09.2019
2096 Rain 5 1019 90 0 4.02 178.787 20:58 11.09.2019
2097 Rain 5 1019 88 0 4.3 134.925 20:39 11.09.2019
2098 Rain 5 1019 88 0 4.3 134.925 20:19 11.09.2019
2099 Rain 5 1019 88 0 4.3 134.925 19:58 11.09.2019
2100 Rain 5 1019 88 0 4.3 134.925 19:39 11.09.2019
2101 Rain 5 1019 88 0 4.3 134.925 19:21 11.09.2019
2102 Rain 5 1019 88 0 4.3 134.925 18:58 11.09.2019
2103 Rain 5 1019 88 0 4.3 134.925 18:38 11.09.2019
2104 Rain 5 1020 87 0 4.65 123.191 18:19 11.09.2019
2105 Rain 5 1020 87 0 4.65 123.191 17:55 11.09.2019
2106 Rain 5 1020 87 0 4.65 123.191 17:37 11.09.2019
2107 Rain 5 1020 87 0 4.65 123.191 17:19 11.09.2019
2108 Rain 5 1020 87 0 4.65 123.191 16:46 11.09.2019
2109 Rain 5 1020 87 0 4.65 123.191 16:25 11.09.2019
2110 Rain 5 1020 87 0 4.65 123.191 15:54 11.09.2019
2111 Rain 5 1020 87 0 4.65 123.191 15:54 11.09.2019
2112 Rain 5 1020 87 0 4.65 123.191 15:36 11.09.2019
2113 Rain 5 1021 92 0 1.64 205.55 15:18 11.09.2019
2114 Rain 5 1021 92 0 1.64 205.55 14:41 11.09.2019
2115 Rain 5 1021 92 0 1.64 205.55 14:21 11.09.2019
2116 Rain 5 1021 92 0 1.64 205.55 13:59 11.09.2019
2117 Rain 5 1021 92 0 1.64 205.55 13:37 11.09.2019
2118 Rain 5 1021 88 0 1.24 179.538 13:19 11.09.2019
2119 Rain 5 1021 88 0 1.24 179.538 12:44 11.09.2019
2120 Rain 5 1021 86 0 2.8 290.242 12:23 11.09.2019
2121 Rain 5 1021 86 0 2.8 290.242 11:59 11.09.2019
2122 Rain 5 1021 86 0 2.8 290.242 11:39 11.09.2019
2123 Rain 5 1021 86 0 2.8 290.242 11:39 11.09.2019
2124 Rain 5 1021 86 0 2.8 290.242 11:39 11.09.2019
2125 Rain 5 1021 86 0 2.8 290.242 11:21 11.09.2019
2126 Rain 5 1021 86 0 2.8 290.242 10:55 11.09.2019
2127 Rain 5 1021 86 0 2.8 290.242 10:37 11.09.2019
2128 Rain 5 1021 86 0 2.8 290.242 10:18 11.09.2019
2129 Rain 5 1021 86 0 2.8 290.242 09:37 11.09.2019
2130 Clouds 6 1021 79 0 5.07 299.263 09:19 11.09.2019
2131 Clouds 6 1021 80 0 5.15 292.827 08:42 11.09.2019
2132 Clouds 6 1021 80 0 5.15 292.827 08:22 11.09.2019
2133 Clouds 6 1021 80 0 5.15 292.827 07:57 11.09.2019
2134 Clouds 6 1021 80 0 5.15 292.827 07:39 11.09.2019
2135 Clouds 6 1021 80 0 5.15 292.827 07:20 11.09.2019
2136 Clouds 6 1021 80 0 5.15 292.827 07:20 11.09.2019
2137 Clouds 6 1021 80 0 5.15 292.827 06:40 11.09.2019
2138 Clouds 6 1021 82 0 6.28 281.276 06:21 11.09.2019
2139 Clouds 6 1021 82 0 6.28 281.276 05:34 11.09.2019
2140 Clouds 6 1021 82 0 6.28 281.276 04:53 11.09.2019
2141 Clouds 6 1021 82 0 6.28 281.276 04:18 11.09.2019
2142 Clouds 6 1021 82 0 6.28 281.276 03:27 11.09.2019
2143 Clouds 7 1022 82 0 6.33 261.48 02:32 11.09.2019
2144 Clouds 7 1022 83 0 6.72 250.57 01:32 11.09.2019
2145 Clouds 7 1022 83 0 6.72 250.57 00:37 11.09.2019
2146 Clouds 6 1022 78 0 4.97 250.323 00:19 11.09.2019
2147 Clouds 6 1022 78 0 4.97 250.323 23:40 10.09.2019
2148 Clouds 6 1022 78 0 4.97 250.323 23:21 10.09.2019
2149 Clouds 6 1022 78 0 4.97 250.323 22:55 10.09.2019
2150 Clouds 6 1022 78 0 4.97 250.323 22:37 10.09.2019
2151 Clouds 6 1022 78 0 4.97 250.323 22:18 10.09.2019
2152 Clouds 6 1022 78 0 4.97 250.323 21:54 10.09.2019
2153 Clouds 6 1022 78 0 4.97 250.323 21:36 10.09.2019
2154 Clouds 6 1023 71 0 3.43 313.652 21:18 10.09.2019
2155 Clouds 6 1023 71 0 3.43 313.652 20:55 10.09.2019
2156 Clouds 6 1024 69 0 2.55 310.331 20:37 10.09.2019
2157 Clouds 6 1024 69 0 2.55 310.331 20:18 10.09.2019
2158 Clouds 6 1024 69 0 2.55 310.331 19:55 10.09.2019
2159 Clouds 6 1024 69 0 2.55 310.331 19:36 10.09.2019
2160 Clouds 6 1024 69 0 2.55 310.331 19:36 10.09.2019
2161 Clouds 6 1024 69 0 2.55 310.331 19:18 10.09.2019
2162 Clouds 6 1024 69 0 2.55 310.331 18:43 10.09.2019
2163 Clouds 6 1023 71 0 5.49 347.679 18:22 10.09.2019
2164 Clouds 6 1023 71 0 5.49 347.679 17:57 10.09.2019
2165 Clouds 6 1023 71 0 5.49 347.679 17:39 10.09.2019
2166 Clouds 6 1023 71 0 5.49 347.679 17:19 10.09.2019
2167 Clouds 6 1023 71 0 5.49 347.679 16:57 10.09.2019
2168 Clouds 6 1023 71 0 5.49 347.679 16:38 10.09.2019
2169 Clouds 6 1023 71 0 5.49 347.679 16:19 10.09.2019
2170 Clouds 6 1023 71 0 5.49 347.679 15:43 10.09.2019
2171 Clouds 6 1022 73 0 7.36 347.048 15:23 10.09.2019
2172 Clouds 6 1022 73 0 7.36 347.048 14:57 10.09.2019
2173 Clouds 6 1022 73 0 7.36 347.048 14:39 10.09.2019
2174 Clouds 6 1022 73 0 7.36 347.048 14:20 10.09.2019
2175 Clouds 6 1022 73 0 7.36 347.048 13:47 10.09.2019
2176 Clouds 7 1021 75 0 5.74 347.065 13:23 10.09.2019
2177 Clouds 7 1021 75 0 5.74 347.065 12:53 10.09.2019
2178 Clouds 7 1021 75 0 5.74 347.065 12:28 10.09.2019
2179 Clouds 7 1018 76 0 5.52 8.927 11:59 10.09.2019
2180 Clouds 7 1018 76 0 5.52 8.927 11:40 10.09.2019
2181 Clouds 7 1018 76 0 5.52 8.927 11:22 10.09.2019
2182 Clouds 7 1018 76 0 5.52 8.927 10:54 10.09.2019
2183 Clouds 7 1018 76 0 5.52 8.927 10:36 10.09.2019
2184 Clouds 7 1018 76 0 5.52 8.927 10:18 10.09.2019
2185 Clouds 7 1018 76 0 5.52 8.927 09:43 10.09.2019
2186 Clouds 7 1015 82 0 7.63 7.505 09:20 10.09.2019
2187 Clouds 7 1016 83 0 7.01 16.116 08:48 10.09.2019
2188 Clouds 7 1016 83 0 7.01 16.116 08:29 10.09.2019
2189 Clouds 7 1016 83 0 7.01 16.116 08:29 10.09.2019
2190 Clouds 7 1016 83 0 7.01 16.116 07:59 10.09.2019
2191 Clouds 7 1016 83 0 7.01 16.116 07:41 10.09.2019
2192 Clouds 7 1016 83 0 7.01 16.116 07:41 10.09.2019
2193 Clouds 7 1016 83 0 7.01 16.116 07:41 10.09.2019
2194 Clouds 7 1016 83 0 7.01 16.116 07:23 10.09.2019
2195 Clouds 7 1016 83 0 7.01 16.116 06:42 10.09.2019
2196 Rain 7 1012 87 0 6.85 9.975 06:21 10.09.2019
2197 Rain 7 1012 87 0 6.85 9.975 04:24 10.09.2019
2198 Rain 7 1009 96 0 5.58 355.639 02:40 10.09.2019
2199 Rain 7 1009 96 0 5.58 355.639 02:21 10.09.2019
2200 Rain 7 1009 96 0 5.58 355.639 02:21 10.09.2019
2201 Rain 7 1009 96 0 5.58 355.639 02:21 10.09.2019
2202 Rain 7 1009 96 0 5.58 355.639 02:21 10.09.2019
2203 Rain 7 1009 96 0 5.58 355.639 01:50 10.09.2019
2204 Rain 7 1010 91 0 5.71 358.987 01:23 10.09.2019
2205 Rain 7 1010 91 0 5.71 358.987 00:42 10.09.2019
2206 Rain 7 1008 97 0 5.61 308.634 00:22 10.09.2019
2207 Rain 7 1008 97 0 5.61 308.634 23:40 09.09.2019
2208 Rain 7 1008 97 0 5.61 308.634 23:19 09.09.2019
2209 Rain 7 1008 97 0 5.61 308.634 22:55 09.09.2019
2210 Rain 7 1008 97 0 5.61 308.634 22:55 09.09.2019
2211 Rain 7 1008 97 0 5.61 308.634 22:55 09.09.2019
2212 Rain 7 1008 97 0 5.61 308.634 22:36 09.09.2019
2213 Rain 7 1008 97 0 5.61 308.634 22:36 09.09.2019
2214 Rain 7 1008 97 0 5.61 308.634 22:18 09.09.2019
2215 Rain 7 1008 97 0 5.61 308.634 21:55 09.09.2019
2216 Rain 7 1008 97 0 5.61 308.634 21:37 09.09.2019
2217 Rain 8 1009 97 0 7.21 294.014 21:18 09.09.2019
2218 Rain 8 1009 97 0 7.21 294.014 20:55 09.09.2019
2219 Rain 8 1010 97 0 7.13 283.36 20:36 09.09.2019
2220 Rain 8 1010 97 0 7.13 283.36 20:18 09.09.2019
2221 Rain 8 1010 97 0 7.13 283.36 19:55 09.09.2019
2222 Rain 8 1010 97 0 7.13 283.36 19:37 09.09.2019
2223 Rain 8 1010 97 0 7.13 283.36 19:18 09.09.2019
2224 Rain 8 1010 97 0 7.13 283.36 19:18 09.09.2019
2225 Rain 8 1010 97 0 7.13 283.36 18:54 09.09.2019
2226 Rain 8 1010 97 0 7.13 283.36 18:36 09.09.2019
2227 Rain 8 1012 95 0 8.8 259.427 18:18 09.09.2019
2228 Rain 8 1012 95 0 8.8 259.427 17:55 09.09.2019
2229 Rain 8 1012 95 0 8.8 259.427 17:37 09.09.2019
2230 Rain 8 1012 95 0 8.8 259.427 17:19 09.09.2019
2231 Rain 8 1012 95 0 8.8 259.427 16:40 09.09.2019
2232 Rain 8 1012 95 0 8.8 259.427 16:21 09.09.2019
2233 Rain 8 1012 95 0 8.8 259.427 15:56 09.09.2019
2234 Rain 8 1012 95 0 8.8 259.427 15:38 09.09.2019
2235 Rain 7 1016 93 0 11.71 236.938 15:19 09.09.2019
2236 Rain 7 1016 93 0 11.71 236.938 14:57 09.09.2019
2237 Rain 7 1016 93 0 11.71 236.938 14:38 09.09.2019
2238 Rain 7 1016 93 0 11.71 236.938 14:20 09.09.2019
2239 Rain 7 1016 93 0 11.71 236.938 13:45 09.09.2019
2240 Rain 8 1016 93 0 12.73 242.35 13:21 09.09.2019
2241 Rain 8 1016 93 0 12.73 242.35 12:59 09.09.2019
2242 Rain 8 1016 93 0 12.73 242.35 12:41 09.09.2019
2243 Rain 6 1020 90 0 11.8 218.696 12:21 09.09.2019
2244 Rain 6 1020 90 0 11.8 218.696 11:55 09.09.2019
2245 Rain 6 1020 90 0 11.8 218.696 11:55 09.09.2019
2246 Rain 6 1020 90 0 11.8 218.696 11:36 09.09.2019
2247 Rain 6 1020 90 0 11.8 218.696 11:18 09.09.2019
2248 Rain 6 1020 90 0 11.8 218.696 10:42 09.09.2019
2249 Rain 6 1020 90 0 11.8 218.696 10:21 09.09.2019
2250 Rain 6 1020 90 0 11.8 218.696 09:57 09.09.2019
2251 Rain 6 1020 90 0 11.8 218.696 09:38 09.09.2019
2252 Clouds 7 1023 83 0 9.91 244.568 09:20 09.09.2019
2253 Clouds 7 1023 83 0 9.93 244.049 08:39 09.09.2019
2254 Clouds 7 1023 83 0 9.93 244.049 08:20 09.09.2019
2255 Clouds 7 1023 83 0 9.93 244.049 07:48 09.09.2019
2256 Clouds 7 1023 83 0 9.93 244.049 07:28 09.09.2019
2257 Clouds 7 1023 83 0 9.93 244.049 06:59 09.09.2019
2258 Clouds 7 1023 83 0 9.93 244.049 06:40 09.09.2019
2259 Clouds 7 1025 81 0 9.16 267.134 05:34 09.09.2019
2260 Rain 7 1026 82 0 9.29 279.183 02:59 09.09.2019
2261 Rain 7 1026 82 0 9.29 279.183 02:39 09.09.2019
2262 Rain 7 1025 81 0 9.63 283.501 00:54 09.09.2019
2263 Clouds 7 1026 80 0 8.79 268.925 00:23 09.09.2019
2264 Clouds 7 1026 80 0 8.79 268.925 23:46 08.09.2019
2265 Clouds 7 1026 80 0 8.79 268.925 23:26 08.09.2019
2266 Clouds 7 1026 80 0 8.79 268.925 22:57 08.09.2019
2267 Clouds 7 1026 80 0 8.79 268.925 22:38 08.09.2019
2268 Clouds 7 1026 80 0 8.79 268.925 22:20 08.09.2019
2269 Clouds 7 1026 80 0 8.79 268.925 21:55 08.09.2019
2270 Clouds 7 1026 80 0 8.79 268.925 21:36 08.09.2019
2271 Clouds 6 1026 66 0 8.25 290.793 21:18 08.09.2019
2272 Clouds 6 1026 66 0 9.8 298.469 20:40 08.09.2019
2273 Clouds 6 1026 66 0 9.8 298.469 20:22 08.09.2019
2274 Clouds 6 1026 66 0 9.8 298.469 19:59 08.09.2019
2275 Clouds 6 1026 66 0 9.8 298.469 19:38 08.09.2019
2276 Clouds 6 1026 66 0 9.8 298.469 19:20 08.09.2019
2277 Clouds 6 1026 66 0 9.8 298.469 18:57 08.09.2019
2278 Clouds 6 1026 66 0 9.8 298.469 18:38 08.09.2019
2279 Clouds 6 1026 66 0 10.01 299.878 18:19 08.09.2019
2280 Clouds 6 1026 66 0 10.01 299.878 17:56 08.09.2019
2281 Clouds 6 1026 66 0 10.01 299.878 17:56 08.09.2019
2282 Clouds 6 1026 66 0 10.01 299.878 17:36 08.09.2019
2283 Clouds 6 1026 66 0 10.01 299.878 17:18 08.09.2019
2284 Clouds 6 1026 66 0 10.01 299.878 16:44 08.09.2019
2285 Clouds 6 1026 66 0 10.01 299.878 16:22 08.09.2019
2286 Clouds 6 1026 66 0 10.01 299.878 15:58 08.09.2019
2287 Clouds 6 1026 66 0 10.01 299.878 15:40 08.09.2019
2288 Clouds 6 1024 71 0 11.72 306.388 15:21 08.09.2019
2289 Clouds 6 1024 71 0 11.72 306.388 14:57 08.09.2019
2290 -273 0 0 0 0 0 14:57 08.09.2019
2291 Clouds 6 1024 71 0 11.72 306.388 14:38 08.09.2019
2292 Clouds 6 1024 71 0 11.72 306.388 14:20 08.09.2019
2293 Clouds 6 1024 71 0 11.72 306.388 13:56 08.09.2019
2294 Clouds 6 1024 71 0 11.72 306.388 13:37 08.09.2019
2295 Clouds 6 1024 74 0 11.94 304.104 13:19 08.09.2019
2296 Clouds 6 1024 74 0 11.94 304.104 12:41 08.09.2019
2297 Clouds 6 1024 74 0 11.94 304.104 12:41 08.09.2019
2298 Clouds 6 1021 78 0 12.35 304.763 12:23 08.09.2019
2299 Clouds 6 1021 78 0 12.35 304.763 11:58 08.09.2019
2300 Clouds 6 1021 78 0 12.35 304.763 11:39 08.09.2019
2301 Clouds 6 1021 78 0 12.35 304.763 11:20 08.09.2019
2302 Clouds 6 1021 78 0 12.35 304.763 10:57 08.09.2019
2303 Clouds 6 1021 78 0 12.35 304.763 10:39 08.09.2019
2304 Clouds 6 1021 78 0 12.35 304.763 10:21 08.09.2019
2305 Clouds 6 1021 78 0 12.35 304.763 09:38 08.09.2019
2306 Rain 7 1016 80 0 13.4 301.245 09:20 08.09.2019
2307 Rain 7 1016 80 0 13.4 301.245 08:56 08.09.2019
2308 Clouds 7 1016 81 0 13.17 298.322 08:37 08.09.2019
2309 Clouds 7 1016 81 0 13.17 298.322 08:18 08.09.2019
2310 Clouds 7 1016 81 0 13.17 298.322 07:39 08.09.2019
2311 Clouds 7 1016 81 0 13.17 298.322 07:20 08.09.2019
2312 Clouds 7 1016 81 0 13.17 298.322 06:49 08.09.2019
2313 Clouds 7 1016 81 0 13.17 298.322 06:31 08.09.2019
2314 Rain 9 1014 94 0 9.66 267.022 05:37 08.09.2019
2315 Rain 9 1014 94 0 9.66 267.022 03:54 08.09.2019
2316 Clear 9 1012 90 0 9.48 243.1 02:57 08.09.2019
2317 Clear 9 1012 90 0 9.48 243.1 02:26 08.09.2019
2318 Clear 9 1012 90 0 9.48 243.1 02:26 08.09.2019
2319 Clear 9 1012 90 0 9.48 243.1 01:45 08.09.2019
2320 Clear 8 1012 91 0 9.88 241.311 01:19 08.09.2019
2321 Clear 8 1012 91 0 9.88 241.311 00:44 08.09.2019
2322 Clear 8 1012 88 0 9.42 240.892 00:26 08.09.2019
2323 Clear 8 1012 88 0 9.42 240.892 23:38 07.09.2019
2324 Clear 8 1012 88 0 9.42 240.892 23:20 07.09.2019
2325 Clear 8 1012 88 0 9.42 240.892 22:57 07.09.2019
2326 Clear 8 1012 88 0 9.42 240.892 22:38 07.09.2019
2327 Clear 8 1012 88 0 9.42 240.892 22:19 07.09.2019
2328 Clear 8 1012 88 0 9.42 240.892 21:42 07.09.2019
2329 Clouds 9 1012 90 0 9.33 238.61 21:23 07.09.2019
2330 Clouds 9 1012 90 0 9.33 238.61 20:57 07.09.2019
2331 Clouds 8 1012 92 0 9.27 236.562 20:37 07.09.2019
2332 Clouds 8 1012 92 0 9.27 236.562 20:18 07.09.2019
2333 Clouds 8 1012 92 0 9.27 236.562 19:54 07.09.2019
2334 Clouds 8 1012 92 0 9.27 236.562 19:36 07.09.2019
2335 Clouds 8 1012 92 0 9.27 236.562 19:18 07.09.2019
2336 Clouds 8 1012 92 0 9.27 236.562 18:54 07.09.2019
2337 Clouds 8 1012 92 0 9.27 236.562 18:36 07.09.2019
2338 Clouds 9 1012 92 0 9.72 243.511 18:18 07.09.2019
2339 Clouds 9 1012 92 0 9.72 243.511 17:41 07.09.2019
2340 Clouds 9 1012 92 0 9.72 243.511 17:19 07.09.2019
2341 Clouds 9 1012 92 0 9.72 243.511 16:59 07.09.2019
2342 Clouds 9 1012 92 0 9.72 243.511 16:41 07.09.2019
2343 Clouds 9 1012 92 0 9.72 243.511 16:20 07.09.2019
2344 Clouds 9 1012 92 0 9.72 243.511 15:48 07.09.2019
2345 Clouds 9 1012 92 0 9.72 243.511 15:26 07.09.2019
2346 Clouds 9 1012 92 0 9.72 243.511 15:26 07.09.2019
2347 Rain 10 1010 91 0 10.09 241.418 14:58 07.09.2019
2348 Rain 10 1010 91 0 10.09 241.418 14:37 07.09.2019
2349 Rain 10 1010 91 0 10.09 241.418 14:19 07.09.2019
2350 Rain 10 1010 91 0 10.09 241.418 13:58 07.09.2019
2351 Rain 10 1010 91 0 10.09 241.418 13:58 07.09.2019
2352 Rain 10 1010 91 0 10.09 241.418 13:39 07.09.2019
2353 Clouds 10 1010 89 0 9.89 242.414 13:21 07.09.2019
2354 Clouds 10 1010 89 0 9.89 242.414 12:44 07.09.2019
2355 Clouds 10 1010 89 0 9.89 242.414 12:25 07.09.2019
2356 Clouds 11 1009 83 0 10.95 232.973 11:57 07.09.2019
2357 Clouds 11 1009 83 0 10.95 232.973 11:39 07.09.2019
2358 Clouds 11 1009 83 0 10.95 232.973 11:19 07.09.2019
2359 Clouds 11 1009 83 0 10.95 232.973 10:40 07.09.2019
2360 Clouds 11 1009 83 0 10.95 232.973 10:21 07.09.2019
2361 Clouds 11 1009 83 0 10.95 232.973 09:45 07.09.2019
2362 Clouds 11 1009 83 0 10.95 232.973 09:27 07.09.2019
2363 Clouds 11 1009 86 0 10.22 222.799 08:59 07.09.2019
2364 Clouds 11 1009 87 0 9.93 223.572 08:41 07.09.2019
2365 Clouds 11 1009 87 0 9.93 223.572 08:41 07.09.2019
2366 Clouds 11 1009 87 0 9.93 223.572 08:23 07.09.2019
2367 Clouds 11 1009 87 0 9.93 223.572 07:45 07.09.2019
2368 Clouds 11 1009 87 0 9.93 223.572 07:26 07.09.2019
2369 Clouds 11 1009 87 0 9.93 223.572 06:47 07.09.2019
2370 Clouds 10 1011 91 0 9.02 215.124 06:20 07.09.2019
2371 Clouds 10 1011 91 0 9.02 215.124 04:48 07.09.2019
2372 Clouds 10 1011 91 0 9.02 215.124 04:20 07.09.2019
2373 Clouds 10 1012 90 0 8.47 210.426 02:45 07.09.2019
2374 Clouds 10 1012 90 0 8.47 210.426 01:46 07.09.2019
2375 Clouds 10 1012 92 0 8.58 212.789 01:18 07.09.2019
2376 Clouds 10 1012 92 0 8.58 212.789 00:39 07.09.2019
2377 Clouds 10 1013 90 0 9.29 216.333 00:19 07.09.2019
2378 Clouds 10 1013 90 0 9.29 216.333 23:40 06.09.2019
2379 Clouds 10 1013 90 0 9.29 216.333 23:40 06.09.2019
2380 Clouds 10 1013 90 0 9.29 216.333 23:21 06.09.2019
2381 Clouds 10 1013 90 0 9.29 216.333 23:21 06.09.2019
2382 Clouds 10 1013 90 0 9.29 216.333 23:21 06.09.2019
2383 Clouds 10 1013 90 0 9.29 216.333 22:57 06.09.2019
2384 Clouds 10 1013 90 0 9.29 216.333 22:37 06.09.2019
2385 Clouds 10 1013 90 0 9.29 216.333 22:19 06.09.2019
2386 Clouds 10 1013 90 0 9.29 216.333 21:57 06.09.2019
2387 Clouds 10 1013 90 0 9.29 216.333 21:38 06.09.2019
2388 Clouds 10 1014 84 0 8.92 215.872 21:20 06.09.2019
2389 Clouds 10 1014 84 0 8.92 215.872 20:57 06.09.2019
2390 Clouds 10 1015 85 0 8.82 216.301 20:38 06.09.2019
2391 Clouds 10 1015 85 0 8.82 216.301 20:18 06.09.2019
2392 Clouds 10 1015 85 0 8.82 216.301 19:42 06.09.2019
2393 Clouds 10 1015 85 0 8.82 216.301 19:24 06.09.2019
2394 Clouds 10 1015 85 0 8.82 216.301 18:58 06.09.2019
2395 Clouds 10 1015 85 0 8.82 216.301 18:40 06.09.2019
2396 Clouds 10 1016 80 0 8.34 218.264 18:22 06.09.2019
2397 Clouds 10 1016 80 0 8.34 218.264 17:56 06.09.2019
2398 Clouds 10 1016 80 0 8.34 218.264 17:56 06.09.2019
2399 Clouds 10 1016 80 0 8.34 218.264 17:37 06.09.2019
2400 Clouds 10 1016 80 0 8.34 218.264 17:18 06.09.2019
2401 Clouds 10 1016 80 0 8.34 218.264 16:38 06.09.2019
2402 Clouds 10 1016 80 0 8.34 218.264 16:18 06.09.2019
2403 Clouds 10 1016 80 0 8.34 218.264 15:41 06.09.2019
2404 Clouds 11 1017 80 0 8.06 220.281 15:23 06.09.2019
2405 Clouds 11 1017 80 0 8.06 220.281 14:48 06.09.2019
2406 Clouds 11 1017 80 0 8.06 220.281 14:20 06.09.2019
2407 Clouds 11 1017 80 0 8.06 220.281 13:45 06.09.2019
2408 Clouds 11 1017 83 0 7.79 223.637 13:26 06.09.2019
2409 Clouds 11 1017 83 0 7.79 223.637 12:59 06.09.2019
2410 Clouds 11 1017 83 0 7.79 223.637 12:37 06.09.2019
2411 Clouds 10 1018 87 0 8.92 225.586 12:18 06.09.2019
2412 Clouds 10 1018 87 0 8.92 225.586 12:18 06.09.2019
2413 Clouds 10 1018 87 0 8.92 225.586 11:43 06.09.2019
2414 Clouds 10 1018 87 0 8.92 225.586 11:24 06.09.2019
2415 Clouds 10 1018 87 0 8.92 225.586 10:58 06.09.2019
2416 Clouds 10 1018 87 0 8.92 225.586 10:40 06.09.2019
2417 Clouds 10 1017 86 0 9.1 227.174 10:21 06.09.2019
2418 Clouds 10 1017 86 0 9.1 227.174 09:40 06.09.2019
2419 Clouds 9 1017 88 0 9.3 225.928 09:21 06.09.2019
2420 Clouds 9 1017 88 0 9.3 225.928 08:57 06.09.2019
2421 Clouds 9 1017 88 0 9.3 225.928 08:39 06.09.2019
2422 Clouds 9 1017 88 0 9.3 225.928 08:39 06.09.2019
2423 Clouds 9 1017 88 0 9.3 225.928 08:39 06.09.2019
2424 Clouds 9 1017 88 0 9.3 225.928 08:20 06.09.2019
2425 Clouds 9 1017 88 0 9.3 225.928 08:20 06.09.2019
2426 Clouds 9 1017 88 0 9.3 225.928 07:45 06.09.2019
2427 Clouds 9 1017 88 0 9.3 225.928 07:27 06.09.2019
2428 Clouds 9 1017 88 0 9.3 225.928 06:56 06.09.2019
2429 Clouds 9 1017 93 0 8.77 227.505 05:58 06.09.2019
2430 Clouds 9 1017 93 0 8.77 227.505 05:58 06.09.2019
2431 Clouds 9 1017 93 0 8.77 227.505 05:29 06.09.2019
2432 Clouds 9 1017 93 0 8.77 227.505 04:45 06.09.2019
2433 Clouds 9 1017 93 0 8.77 227.505 03:49 06.09.2019
2434 Clouds 8 1016 92 0 8.11 237.151 01:53 06.09.2019
2435 Clouds 8 1016 91 0 8.2 236.548 00:41 06.09.2019
2436 Clouds 9 1015 90 0 7.37 245.013 23:45 05.09.2019
2437 Clouds 9 1015 90 0 7.37 245.013 23:45 05.09.2019
2438 Clouds 9 1015 90 0 7.37 245.013 23:25 05.09.2019
2439 Clouds 9 1015 90 0 7.37 245.013 22:58 05.09.2019
2440 Clouds 9 1015 90 0 7.37 245.013 22:40 05.09.2019
2441 Clouds 9 1015 90 0 7.37 245.013 22:22 05.09.2019
2442 Clouds 9 1015 90 0 7.37 245.013 21:56 05.09.2019
2443 Clouds 9 1015 90 0 7.37 245.013 21:37 05.09.2019
2444 Clouds 9 1013 94 0 4.71 268.091 21:19 05.09.2019
2445 Clouds 9 1013 94 0 4.71 268.091 20:56 05.09.2019
2446 Clouds 9 1013 95 0 4.28 274.461 20:37 05.09.2019
2447 Clouds 9 1013 95 0 4.28 274.461 20:19 05.09.2019
2448 Clouds 9 1013 95 0 4.28 274.461 19:42 05.09.2019
2449 Clouds 9 1013 95 0 4.28 274.461 19:24 05.09.2019
2450 Clouds 9 1013 95 0 4.28 274.461 18:58 05.09.2019
2451 Clouds 9 1013 95 0 4.28 274.461 18:40 05.09.2019
2452 Rain 9 1012 95 0 3.98 331.151 18:20 05.09.2019
2453 Rain 9 1012 95 0 3.98 331.151 17:56 05.09.2019
2454 Rain 9 1012 95 0 3.98 331.151 17:37 05.09.2019
2455 Rain 9 1012 95 0 3.98 331.151 17:19 05.09.2019
2456 Rain 9 1012 95 0 3.98 331.151 16:41 05.09.2019
2457 Rain 9 1012 95 0 3.98 331.151 16:20 05.09.2019
2458 Rain 9 1012 95 0 3.98 331.151 15:58 05.09.2019
2459 Rain 9 1012 95 0 3.98 331.151 15:39 05.09.2019
2460 Rain 9 1012 95 0 3.98 331.151 15:39 05.09.2019
2461 Rain 10 1010 96 0 5.72 271.513 15:18 05.09.2019
2462 Rain 10 1010 96 0 5.72 271.513 15:18 05.09.2019
2463 Rain 10 1010 96 0 5.72 271.513 14:43 05.09.2019
2464 Rain 10 1010 96 0 5.72 271.513 14:22 05.09.2019
2465 Rain 10 1010 96 0 5.72 271.513 13:44 05.09.2019
2466 Rain 10 1010 96 0 5.34 261.815 13:23 05.09.2019
2467 Rain 10 1010 96 0 5.34 261.815 12:59 05.09.2019
2468 Rain 10 1010 96 0 5.34 261.815 12:41 05.09.2019
2469 Rain 10 1010 96 0 5.34 261.815 12:41 05.09.2019
2470 Rain 10 1009 94 0 7.87 234.345 12:22 05.09.2019
2471 Rain 10 1009 94 0 7.87 234.345 11:44 05.09.2019
2472 Rain 10 1009 94 0 7.87 234.345 11:20 05.09.2019
2473 Rain 10 1009 94 0 7.87 234.345 10:57 05.09.2019
2474 Rain 10 1009 94 0 7.87 234.345 10:36 05.09.2019
2475 Rain 10 1009 94 0 7.87 234.345 10:18 05.09.2019
2476 Rain 10 1009 94 0 7.87 234.345 09:40 05.09.2019
2477 Clouds 11 1009 83 0 8.39 223.253 09:20 05.09.2019
2478 Clouds 11 1009 83 0 8.39 223.253 08:56 05.09.2019
2479 Clouds 11 1009 83 0 8.39 223.253 08:37 05.09.2019
2480 Clouds 11 1009 83 0 8.39 223.253 08:19 05.09.2019
2481 Clouds 11 1009 83 0 8.39 223.253 07:43 05.09.2019
2482 Clouds 11 1009 83 0 8.39 223.253 07:24 05.09.2019
2483 Clouds 11 1009 83 0 8.39 223.253 06:46 05.09.2019
2484 Clouds 11 1009 83 0 8.39 223.253 06:26 05.09.2019
2485 Clouds 10 1009 85 0 8.54 209.831 05:43 05.09.2019
2486 Clouds 10 1009 85 0 8.54 209.831 05:43 05.09.2019
2487 Clouds 10 1009 85 0 8.54 209.831 05:25 05.09.2019
2488 Clouds 10 1009 85 0 8.54 209.831 04:30 05.09.2019
2489 Clouds 10 1009 85 0 8.54 209.831 03:47 05.09.2019
2490 Clouds 10 1009 85 0 8.51 211.586 02:57 05.09.2019
2491 Clouds 10 1009 85 0 8.51 211.586 02:29 05.09.2019
2492 Clouds 10 1009 85 0 8.51 211.586 01:54 05.09.2019
2493 Clouds 10 1009 89 0 7.98 218.36 00:56 05.09.2019
2494 Clouds 10 1009 89 0 7.98 218.36 00:37 05.09.2019
2495 Clouds 10 1010 85 0 9.31 213.362 00:18 05.09.2019
2496 Clouds 10 1010 85 0 9.31 213.362 23:39 04.09.2019
2497 Clouds 10 1010 85 0 9.31 213.362 23:21 04.09.2019
2498 Clouds 10 1010 85 0 9.31 213.362 22:47 04.09.2019
2499 Clouds 10 1010 85 0 9.31 213.362 22:20 04.09.2019
2500 -273 0 0 0 0 0 21:56 04.09.2019
2501 Clouds 10 1010 87 0 8.98 215.667 21:38 04.09.2019
2502 Clouds 11 1011 84 0 8.38 211.151 21:19 04.09.2019
2503 Clouds 11 1011 84 0 8.38 211.151 20:55 04.09.2019
2504 Clouds 11 1011 84 0 8.38 211.151 20:36 04.09.2019
2505 Clouds 11 1011 84 0 8.38 211.151 20:18 04.09.2019
2506 Clouds 11 1011 84 0 8.38 211.151 19:40 04.09.2019
2507 Clouds 11 1011 84 0 8.38 211.151 19:21 04.09.2019
2508 Clouds 11 1011 84 0 8.38 211.151 18:42 04.09.2019
2509 Clouds 11 1012 83 0 5.8 214.364 18:24 04.09.2019
2510 Clouds 11 1012 83 0 5.8 214.364 17:59 04.09.2019
2511 Clouds 11 1012 83 0 5.8 214.364 17:40 04.09.2019
2512 Clouds 11 1012 83 0 5.8 214.364 17:21 04.09.2019
2513 Clouds 11 1012 83 0 5.8 214.364 17:21 04.09.2019
2514 Clouds 11 1012 83 0 5.8 214.364 17:21 04.09.2019
2515 Clouds 11 1012 83 0 5.8 214.364 16:54 04.09.2019
2516 Clouds 11 1012 83 0 5.8 214.364 16:36 04.09.2019
2517 Clouds 11 1012 83 0 5.8 214.364 16:18 04.09.2019
2518 Clouds 11 1012 83 0 5.8 214.364 15:40 04.09.2019
2519 Clouds 11 1012 85 0 7.66 237.801 15:21 04.09.2019
2520 Clouds 11 1012 85 0 7.66 237.801 14:58 04.09.2019
2521 Clouds 11 1012 85 0 7.66 237.801 14:38 04.09.2019
2522 Clouds 11 1012 85 0 7.66 237.801 14:38 04.09.2019
2523 Clouds 11 1012 85 0 7.66 237.801 14:20 04.09.2019
2524 Clouds 11 1012 85 0 7.66 237.801 13:57 04.09.2019
2525 Clouds 11 1012 85 0 7.66 237.801 13:38 04.09.2019
2526 Clouds 11 1012 85 0 7.66 237.801 13:38 04.09.2019
2527 Clouds 10 1012 88 0 7.69 236.13 13:19 04.09.2019
2528 Clouds 10 1012 88 0 7.69 236.13 12:43 04.09.2019
2529 Clouds 10 1012 88 0 8.03 232.542 12:24 04.09.2019
2530 Clouds 10 1012 88 0 8.03 232.542 11:56 04.09.2019
2531 Clouds 10 1012 88 0 8.03 232.542 11:37 04.09.2019
2532 Clouds 10 1012 88 0 8.03 232.542 11:19 04.09.2019
2533 Clouds 10 1012 88 0 8.03 232.542 10:45 04.09.2019
2534 Clouds 10 1012 88 0 8.03 232.542 10:26 04.09.2019
2535 Clouds 10 1012 88 0 8.43 233.292 09:58 04.09.2019
2536 Clouds 10 1012 88 0 8.43 233.292 09:40 04.09.2019
2537 Clouds 10 1012 87 0 8.15 227.035 09:19 04.09.2019
2538 Clouds 10 1012 87 0 8.15 227.035 08:41 04.09.2019
2539 Clouds 10 1012 87 0 8.15 227.035 08:41 04.09.2019
2540 Clouds 10 1012 87 0 8.15 227.035 08:23 04.09.2019
2541 Clouds 10 1012 87 0 8.15 227.035 07:56 04.09.2019
2542 Clouds 10 1012 87 0 8.15 227.035 07:34 04.09.2019
2543 Clouds 10 1012 87 0 8.15 227.035 06:49 04.09.2019
2544 Clouds 10 1012 87 0 8.15 227.035 06:26 04.09.2019
2545 Clouds 9 1012 89 0 8.2 223.893 04:54 04.09.2019
2546 Clouds 9 1012 89 0 8.2 223.893 04:21 04.09.2019
2547 Clouds 9 1013 88 0 7.94 225.393 02:36 04.09.2019
2548 Clouds 9 1012 90 0 8.1 226.61 00:56 04.09.2019
2549 Clouds 9 1012 90 0 8.1 226.61 00:38 04.09.2019
2550 Clouds 9 1012 88 0 7.15 231.265 00:18 04.09.2019
2551 Clouds 9 1012 88 0 7.15 231.265 23:47 03.09.2019
2552 Clouds 9 1012 88 0 7.15 231.265 23:23 03.09.2019
2553 Clouds 9 1012 88 0 7.15 231.265 22:40 03.09.2019
2554 Clouds 9 1012 88 0 7.15 231.265 22:22 03.09.2019
2555 Clear 9 1013 92 0 6.86 238.376 21:56 03.09.2019
2556 Clear 9 1013 92 0 6.86 238.376 21:38 03.09.2019
2557 Clouds 9 1013 93 0 6.99 246.181 21:20 03.09.2019
2558 Clouds 9 1013 93 0 6.99 246.181 20:55 03.09.2019
2559 Clouds 9 1013 93 0 6.99 246.181 20:36 03.09.2019
2560 Clouds 9 1013 93 0 6.99 246.181 20:36 03.09.2019
2561 Clouds 9 1013 93 0 6.99 246.181 20:36 03.09.2019
2562 Clouds 9 1013 93 0 6.99 246.181 20:18 03.09.2019
2563 Clouds 9 1013 93 0 6.99 246.181 19:42 03.09.2019
2564 Clouds 9 1013 93 0 6.99 246.181 19:19 03.09.2019
2565 Clouds 9 1013 93 0 6.99 246.181 18:56 03.09.2019
2566 Clouds 9 1013 93 0 6.99 246.181 18:38 03.09.2019
2567 Clouds 9 1013 90 0 6.87 252.28 18:18 03.09.2019
2568 Clouds 9 1013 90 0 6.87 252.28 17:43 03.09.2019
2569 Clouds 9 1013 90 0 6.87 252.28 17:21 03.09.2019
2570 Clouds 9 1013 90 0 6.87 252.28 17:00 03.09.2019
2571 Clouds 9 1013 90 0 6.87 252.28 16:41 03.09.2019
2572 Clouds 9 1013 90 0 6.87 252.28 16:22 03.09.2019
2573 Clouds 9 1013 90 0 6.87 252.28 15:42 03.09.2019
2574 Clouds 9 1013 90 0 6.87 252.28 15:42 03.09.2019
2575 Clouds 10 1013 89 0 5 274.805 15:22 03.09.2019
2576 Clouds 10 1013 89 0 5 274.805 14:59 03.09.2019
2577 Clouds 10 1013 89 0 5 274.805 14:41 03.09.2019
2578 Clouds 10 1013 89 0 5 274.805 14:41 03.09.2019
2579 Clouds 10 1013 89 0 5 274.805 14:21 03.09.2019
2580 Clouds 10 1013 89 0 5 274.805 13:58 03.09.2019
2581 Clouds 10 1013 89 0 5 274.805 13:38 03.09.2019
2582 Clouds 10 1012 87 0 7.39 250.05 13:20 03.09.2019
2583 Clouds 10 1012 87 0 7.39 250.05 13:19 03.09.2019
2584 Clouds 10 1012 87 0 7.39 250.05 12:57 03.09.2019
2585 Clouds 10 1012 87 0 7.39 250.05 12:38 03.09.2019
2586 Clouds 9 1013 90 0 7.68 251.688 12:20 03.09.2019
2587 Clouds 9 1013 90 0 7.68 251.688 11:42 03.09.2019
2588 Clouds 9 1013 90 0 7.68 251.688 11:23 03.09.2019
2589 Clouds 9 1013 90 0 7.68 251.688 10:57 03.09.2019
2590 Clouds 9 1013 90 0 7.68 251.688 10:39 03.09.2019
2591 Clouds 9 1013 90 0 7.68 251.688 10:20 03.09.2019
2592 Clouds 9 1013 89 0 7.76 243.488 09:44 03.09.2019
2593 Clouds 9 1013 89 0 7.76 243.488 09:26 03.09.2019
2594 Clouds 9 1013 87 0 8.15 242.127 08:56 03.09.2019
2595 Clouds 9 1013 87 0 8.15 242.127 08:56 03.09.2019
2596 Clouds 9 1013 87 0 8.15 242.127 08:37 03.09.2019
2597 Clouds 9 1013 87 0 8.15 242.127 08:18 03.09.2019
2598 Clouds 9 1013 87 0 8.15 242.127 07:41 03.09.2019
2599 Clouds 9 1013 87 0 8.15 242.127 07:23 03.09.2019
2600 Clouds 9 1013 87 0 8.15 242.127 06:45 03.09.2019
2601 Clouds 8 1013 87 0 8.08 232.95 05:53 03.09.2019
2602 Clouds 8 1013 87 0 8.08 232.95 03:42 03.09.2019
2603 Clouds 7 1014 86 0 7.47 238.094 02:46 03.09.2019
2604 Clouds 7 1014 86 0 7.47 238.094 02:24 03.09.2019
2605 Clouds 7 1014 86 0 7.47 238.094 01:50 03.09.2019
2606 Clouds 7 1014 86 0 7.38 240.392 01:32 03.09.2019
2607 Clouds 7 1014 86 0 7.38 240.392 00:43 03.09.2019
2608 Clouds 7 1015 86 0 7.13 246.329 00:23 03.09.2019
2609 Clouds 7 1015 86 0 7.13 246.329 00:23 03.09.2019
2610 Clouds 7 1015 86 0 7.13 246.329 23:40 02.09.2019
2611 Clouds 7 1015 86 0 7.13 246.329 23:20 02.09.2019
2612 Clouds 7 1015 86 0 7.13 246.329 23:20 02.09.2019
2613 Clouds 7 1015 86 0 7.13 246.329 22:56 02.09.2019
2614 Clouds 7 1015 86 0 7.13 246.329 22:38 02.09.2019
2615 Clouds 7 1015 86 0 7.13 246.329 22:19 02.09.2019
2616 Clouds 7 1015 86 0 7.13 246.329 21:57 02.09.2019
2617 Clouds 7 1014 87 0 6.97 248.95 21:38 02.09.2019
2618 Clouds 7 1015 87 0 6.96 247.647 21:20 02.09.2019
2619 Clouds 7 1015 87 0 6.96 247.647 20:57 02.09.2019
2620 Clouds 7 1015 87 0 6.96 247.647 20:39 02.09.2019
2621 Clouds 7 1015 87 0 6.96 247.647 20:18 02.09.2019
2622 Clouds 7 1015 87 0 6.96 247.647 19:55 02.09.2019
2623 Clouds 7 1015 87 0 6.96 247.647 19:55 02.09.2019
2624 Clouds 7 1015 87 0 6.96 247.647 19:37 02.09.2019
2625 Clouds 7 1015 87 0 6.96 247.647 19:19 02.09.2019
2626 Clouds 7 1015 87 0 6.96 247.647 18:39 02.09.2019
2627 Clouds 8 1015 83 0 6.67 248.087 18:21 02.09.2019
2628 Clouds 8 1015 83 0 6.67 248.087 17:56 02.09.2019
2629 Clouds 8 1015 83 0 6.67 248.087 17:38 02.09.2019
2630 Clouds 8 1015 83 0 6.67 248.087 17:19 02.09.2019
2631 Clouds 8 1015 83 0 6.67 248.087 16:41 02.09.2019
2632 Clouds 8 1015 83 0 6.67 248.087 16:22 02.09.2019
2633 Clouds 8 1015 83 0 6.67 248.087 15:57 02.09.2019
2634 Clouds 8 1015 83 0 6.67 248.087 15:38 02.09.2019
2635 Clouds 8 1016 79 0 6.17 252.707 15:19 02.09.2019
2636 Clouds 8 1016 79 0 6.17 252.707 14:56 02.09.2019
2637 Clouds 8 1016 79 0 6.17 252.707 14:37 02.09.2019
2638 Clouds 8 1016 79 0 6.17 252.707 14:37 02.09.2019
2639 Clouds 8 1016 79 0 6.17 252.707 14:18 02.09.2019
2640 Clouds 8 1016 79 0 6.17 252.707 13:44 02.09.2019
2641 Clouds 8 1016 79 0 6.01 255.827 13:25 02.09.2019
2642 Clouds 8 1016 79 0 6.01 255.827 12:47 02.09.2019
2643 Clouds 8 1016 79 0 6.01 255.827 12:27 02.09.2019
2644 Clouds 8 1016 81 0 4.94 259.952 12:00 02.09.2019
2645 Clouds 8 1016 81 0 4.94 259.952 11:41 02.09.2019
2646 Clouds 8 1016 81 0 4.94 259.952 11:22 02.09.2019
2647 Clouds 8 1016 81 0 4.94 259.952 10:59 02.09.2019
2648 Clouds 8 1016 81 0 4.94 259.952 10:59 02.09.2019
2649 Clouds 8 1016 81 0 4.94 259.952 10:41 02.09.2019
2650 Clouds 8 1016 81 0 4.94 259.952 10:22 02.09.2019
2651 Clouds 8 1016 81 0 4.94 259.952 09:58 02.09.2019
2652 Clouds 8 1016 82 0 5.07 258.708 09:38 02.09.2019
2653 Clouds 7 1016 89 0 4.78 258.803 09:19 02.09.2019
2654 Clouds 7 1016 89 0 4.78 258.803 08:42 02.09.2019
2655 Clouds 7 1016 89 0 4.78 258.803 08:21 02.09.2019
2656 Clouds 7 1016 89 0 4.78 258.803 07:54 02.09.2019
2657 Clouds 7 1016 89 0 4.78 258.803 07:54 02.09.2019
2658 Clouds 7 1016 89 0 4.78 258.803 07:36 02.09.2019
2659 Clouds 7 1016 89 0 4.78 258.803 07:18 02.09.2019
2660 Clouds 7 1016 89 0 4.78 258.803 06:39 02.09.2019
2661 Clouds 7 1017 89 0 4.33 271.959 05:53 02.09.2019
2662 Clouds 7 1017 89 0 4.33 271.959 05:22 02.09.2019
2663 Clouds 7 1017 89 0 4.33 271.959 04:47 02.09.2019
2664 Clouds 7 1017 90 0 4.16 294.928 01:59 02.09.2019
2665 Clouds 6 1017 90 0 4.33 287.979 00:58 02.09.2019
2666 Clouds 6 1017 90 0 4.33 287.979 00:32 02.09.2019
2667 Clouds 7 1017 89 0 2.42 291.867 23:59 01.09.2019
2668 Clouds 7 1017 89 0 2.42 291.867 23:38 01.09.2019
2669 Clouds 7 1017 89 0 2.42 291.867 23:18 01.09.2019
2670 Clouds 7 1017 89 0 2.42 291.867 22:54 01.09.2019
2671 Clouds 7 1017 89 0 2.42 291.867 22:36 01.09.2019
2672 Clouds 7 1017 89 0 2.42 291.867 22:18 01.09.2019
2673 Clouds 7 1018 90 0 2.63 322.886 21:41 01.09.2019
2674 Clouds 7 1018 93 0 1.75 21.07 21:23 01.09.2019
2675 Clouds 7 1018 93 0 1.75 21.07 21:23 01.09.2019
2676 Clouds 7 1018 93 0 1.75 21.07 20:57 01.09.2019
2677 Clouds 7 1018 93 0 1.75 21.07 20:38 01.09.2019
2678 Clouds 7 1018 93 0 1.75 21.07 20:19 01.09.2019
2679 Clouds 7 1018 93 0 1.75 21.07 19:58 01.09.2019
2680 Clouds 7 1018 93 0 1.75 21.07 19:39 01.09.2019
2681 Clouds 7 1018 93 0 1.75 21.07 19:20 01.09.2019
2682 Clouds 7 1018 93 0 1.75 21.07 18:44 01.09.2019
2683 Clouds 7 1018 93 0 1.75 21.07 18:25 01.09.2019
2684 Clouds 7 1018 94 0 3.31 33.7 17:57 01.09.2019
2685 Clouds 7 1018 94 0 3.31 33.7 17:38 01.09.2019
2686 Clouds 7 1018 94 0 3.31 33.7 17:19 01.09.2019
2687 Clouds 7 1018 94 0 3.31 33.7 16:41 01.09.2019
2688 Clouds 7 1018 94 0 3.31 33.7 16:20 01.09.2019
2689 Clouds 7 1018 94 0 3.31 33.7 15:56 01.09.2019
2690 Clouds 7 1018 94 0 3.31 33.7 15:55 01.09.2019
2691 Clouds 7 1018 94 0 3.31 33.7 15:37 01.09.2019
2692 Clouds 7 1018 94 0 3.95 26.136 15:19 01.09.2019
2693 Clouds 7 1018 94 0 3.95 26.136 14:40 01.09.2019
2694 Clouds 7 1018 94 0 3.95 26.136 14:21 01.09.2019
2695 Clouds 7 1018 94 0 3.95 26.136 13:56 01.09.2019
2696 Clouds 7 1018 94 0 3.95 26.136 13:37 01.09.2019
2697 Clouds 7 1018 93 0 3.15 34.715 13:19 01.09.2019
2698 Clouds 7 1018 93 0 3.15 34.715 12:42 01.09.2019
2699 Clouds 7 1018 94 0 4.28 26.727 12:24 01.09.2019
2700 Clouds 7 1018 94 0 4.28 26.727 11:42 01.09.2019
2701 Clouds 7 1018 94 0 4.28 26.727 11:21 01.09.2019
2702 Clouds 7 1018 94 0 4.28 26.727 10:59 01.09.2019
2703 Clouds 7 1018 94 0 4.28 26.727 10:41 01.09.2019
2704 Clouds 7 1018 94 0 4.28 26.727 10:23 01.09.2019
2705 Clouds 7 1018 94 0 4.28 26.727 09:43 01.09.2019
2706 Clouds 7 1018 93 0 4.13 47.433 09:25 01.09.2019
2707 Clouds 7 1018 94 0 4.04 41.566 08:45 01.09.2019
2708 Clouds 7 1018 94 0 4.04 41.566 08:24 01.09.2019
2709 Clouds 7 1018 94 0 4.04 41.566 07:56 01.09.2019
2710 Clouds 7 1018 94 0 4.04 41.566 07:38 01.09.2019
2711 Clouds 7 1018 94 0 4.04 41.566 07:38 01.09.2019
2712 Clouds 7 1018 94 0 4.04 41.566 06:51 01.09.2019
2713 Clouds 7 1018 94 0 4.04 41.566 06:28 01.09.2019
2714 Clouds 7 1018 92 0 4.12 46.082 05:57 01.09.2019
2715 Clouds 7 1018 92 0 4.12 46.082 04:32 01.09.2019
2716 Clouds 7 1018 92 0 4.12 46.082 03:42 01.09.2019
2717 Clouds 7 1018 92 0 4.12 46.082 03:42 01.09.2019
2718 Clouds 7 1018 93 0 4.61 48.184 02:58 01.09.2019
2719 Clouds 7 1018 93 0 4.61 48.184 02:28 01.09.2019
2720 Clouds 7 1018 93 0 4.61 48.184 01:51 01.09.2019
2721 Clouds 7 1018 93 0 4.61 48.184 01:51 01.09.2019
2722 Clouds 7 1019 94 0 4.15 42.673 01:23 01.09.2019
2723 Clouds 7 1019 94 0 4.15 42.673 00:46 01.09.2019
2724 Clouds 7 1018 95 0 3.7 25.714 00:22 01.09.2019
2725 Clouds 7 1018 95 0 3.7 25.714 23:54 31.08.2019
2726 Clouds 7 1018 95 0 3.7 25.714 23:36 31.08.2019
2727 Clouds 7 1018 95 0 3.7 25.714 23:18 31.08.2019
2728 Clouds 7 1018 95 0 3.7 25.714 23:18 31.08.2019
2729 Clouds 7 1018 95 0 3.7 25.714 22:44 31.08.2019
2730 Clouds 7 1018 95 0 3.7 25.714 22:25 31.08.2019
2731 Clouds 7 1018 95 0 3.7 25.714 21:57 31.08.2019
2732 Clouds 7 1018 94 0 3.81 32.74 21:38 31.08.2019
2733 Clouds 7 1019 95 0 4.34 58.007 21:19 31.08.2019
2734 Clouds 7 1019 95 0 4.34 58.007 20:47 31.08.2019
2735 Clouds 7 1019 95 0 4.34 58.007 20:28 31.08.2019
2736 Clouds 7 1019 95 0 4.34 58.007 19:56 31.08.2019
2737 Clouds 7 1019 95 0 4.34 58.007 19:37 31.08.2019
2738 Clouds 7 1019 95 0 4.34 58.007 19:19 31.08.2019
2739 Clouds 7 1019 95 0 4.34 58.007 18:40 31.08.2019
2740 Clouds 7 1019 95 0 5.08 36.565 18:20 31.08.2019
2741 Clouds 7 1019 95 0 5.08 36.565 17:56 31.08.2019
2742 Clouds 7 1019 95 0 5.08 36.565 17:37 31.08.2019
2743 Clouds 7 1019 95 0 5.08 36.565 17:18 31.08.2019
2744 Clouds 7 1019 95 0 5.08 36.565 16:57 31.08.2019
2745 Clouds 7 1019 95 0 5.08 36.565 16:39 31.08.2019
2746 Clouds 7 1019 95 0 5.08 36.565 16:20 31.08.2019
2747 Clouds 7 1019 95 0 5.08 36.565 15:42 31.08.2019
2748 Clouds 7 1019 95 0 6.3 28.996 15:19 31.08.2019
2749 Clouds 7 1019 95 0 6.3 28.996 14:57 31.08.2019
2750 Clouds 7 1019 95 0 6.3 28.996 14:39 31.08.2019
2751 Clouds 7 1019 95 0 6.3 28.996 14:39 31.08.2019
2752 Clouds 7 1019 95 0 6.3 28.996 14:19 31.08.2019
2753 Clouds 7 1019 95 0 6.3 28.996 13:41 31.08.2019
2754 Clouds 7 1019 95 0 6.31 37.661 13:23 31.08.2019
2755 Clouds 7 1019 95 0 6.31 37.661 12:58 31.08.2019
2756 Clouds 7 1019 95 0 6.31 37.661 12:38 31.08.2019
2757 Rain 7 1019 95 0 7.47 25.065 12:19 31.08.2019
2758 Rain 7 1019 95 0 7.47 25.065 11:48 31.08.2019
2759 Rain 7 1019 95 0 7.47 25.065 11:48 31.08.2019
2760 Rain 7 1019 95 0 7.47 25.065 11:29 31.08.2019
2761 Rain 7 1019 95 0 7.47 25.065 10:59 31.08.2019
2762 Rain 7 1019 95 0 7.47 25.065 10:41 31.08.2019
2763 Rain 7 1019 95 0 7.47 25.065 10:19 31.08.2019
2764 Rain 7 1019 95 0 7.47 25.065 09:56 31.08.2019
2765 Clouds 7 1019 94 0 7.45 27.057 09:37 31.08.2019
2766 Rain 7 1019 93 0 8.37 22.546 09:19 31.08.2019
2767 Rain 7 1019 93 0 8.37 22.546 08:42 31.08.2019
2768 Rain 7 1019 93 0 8.37 22.546 08:22 31.08.2019
2769 Rain 7 1019 93 0 8.37 22.546 07:40 31.08.2019
2770 Rain 7 1019 93 0 8.37 22.546 07:21 31.08.2019
2771 Rain 7 1019 93 0 8.37 22.546 06:28 31.08.2019
2772 Clouds 7 1020 91 0 8.99 15.681 05:58 31.08.2019
2773 Clouds 7 1020 91 0 8.99 15.681 05:31 31.08.2019
2774 Clouds 7 1020 91 0 8.99 15.681 04:32 31.08.2019
2775 Clouds 7 1020 91 0 8.99 15.681 03:44 31.08.2019
2776 Clouds 7 1020 90 0 7.84 13.887 02:30 31.08.2019
2777 Clouds 7 1020 90 0 7.84 13.887 01:53 31.08.2019
2778 Clouds 7 1021 89 0 8.07 18.237 01:33 31.08.2019
2779 Clouds 7 1021 89 0 8.07 18.237 00:49 31.08.2019
2780 Clouds 7 1021 89 0 8.07 18.237 00:49 31.08.2019
2781 Clouds 7 1021 89 0 8.07 18.237 00:28 31.08.2019
2782 Clouds 6 1020 85 0 8.4 11.302 23:57 30.08.2019
2783 Clouds 6 1020 85 0 8.4 11.302 23:38 30.08.2019
2784 Clouds 6 1020 85 0 8.4 11.302 23:18 30.08.2019
2785 Clouds 6 1020 85 0 8.4 11.302 22:40 30.08.2019
2786 Clouds 6 1020 85 0 8.4 11.302 22:22 30.08.2019
2787 Clouds 6 1020 85 0 8.4 11.302 21:58 30.08.2019
2788 Clouds 6 1020 84 0 7.57 17.947 21:37 30.08.2019
2789 Clouds 6 1022 83 0 8.21 17.236 21:19 30.08.2019
2790 Clouds 6 1022 83 0 8.21 17.236 20:58 30.08.2019
2791 Clouds 6 1022 83 0 8.21 17.236 20:39 30.08.2019
2792 Clouds 6 1022 83 0 8.21 17.236 20:20 30.08.2019
2793 Clouds 6 1022 83 0 8.21 17.236 19:56 30.08.2019
2794 Clouds 6 1022 83 0 8.21 17.236 19:56 30.08.2019
2795 Clouds 6 1022 83 0 8.21 17.236 19:38 30.08.2019
2796 Clouds 6 1022 83 0 8.21 17.236 19:19 30.08.2019
2797 Clouds 6 1022 83 0 8.21 17.236 18:46 30.08.2019
2798 Clouds 6 1022 83 0 8.21 17.236 18:25 30.08.2019
2799 Clouds 6 1022 85 0 8.13 15.334 17:58 30.08.2019
2800 Clouds 6 1022 85 0 8.13 15.334 17:40 30.08.2019
2801 Clouds 6 1022 85 0 8.13 15.334 17:19 30.08.2019
2802 Clouds 6 1022 85 0 8.13 15.334 16:57 30.08.2019
2803 Clouds 6 1022 85 0 8.13 15.334 16:39 30.08.2019
2804 Clouds 6 1022 85 0 8.13 15.334 16:21 30.08.2019
2805 Clouds 6 1022 85 0 8.13 15.334 15:42 30.08.2019
2806 Clouds 7 1022 84 0 7.47 5.162 15:21 30.08.2019
2807 Clouds 7 1022 84 0 7.47 5.162 14:45 30.08.2019
2808 Clouds 7 1022 84 0 7.47 5.162 14:26 30.08.2019
2809 Clouds 7 1022 84 0 7.47 5.162 13:57 30.08.2019
2810 Clouds 7 1022 84 0 7.47 5.162 13:39 30.08.2019
2811 Clouds 7 1022 84 0 7.47 5.162 13:39 30.08.2019
2812 Clouds 7 1022 80 0 7.88 9.896 13:21 30.08.2019
2813 Clouds 7 1022 80 0 7.88 9.896 12:45 30.08.2019
2814 Clouds 7 1022 80 0 7.88 9.896 12:26 30.08.2019
2815 Rain 7 1022 80 0 7.88 8.14 11:57 30.08.2019
2816 Rain 7 1022 80 0 7.88 8.14 11:39 30.08.2019
2817 Rain 7 1022 80 0 7.88 8.14 11:39 30.08.2019
2818 Rain 7 1022 80 0 7.88 8.14 11:21 30.08.2019
2819 Rain 7 1022 80 0 7.88 8.14 10:37 30.08.2019
2820 Rain 7 1022 80 0 7.88 8.14 10:19 30.08.2019
2821 Rain 7 1022 80 0 7.88 8.14 09:55 30.08.2019
2822 Rain 7 1022 80 0 7.88 8.14 09:36 30.08.2019
2823 Rain 6 1022 81 0 7.42 7.301 09:18 30.08.2019
2824 Rain 6 1022 81 0 7.42 7.301 08:43 30.08.2019
2825 Rain 6 1022 81 0 7.42 7.301 08:23 30.08.2019
2826 Rain 6 1022 81 0 7.42 7.301 07:46 30.08.2019
2827 Rain 6 1022 81 0 7.42 7.301 07:26 30.08.2019
2828 Rain 6 1022 81 0 7.42 7.301 06:58 30.08.2019
2829 Rain 6 1022 81 0 7.42 7.301 06:39 30.08.2019
2830 Clouds 6 1022 81 0 7.82 8.672 06:20 30.08.2019
2831 Clouds 6 1022 81 0 7.82 8.672 05:28 30.08.2019
2832 Clouds 6 1022 81 0 7.82 8.672 03:56 30.08.2019
2833 Clouds 6 1022 81 0 7.82 8.672 03:37 30.08.2019
2834 Rain 7 1022 82 0 6.81 4.21 02:41 30.08.2019
2835 Rain 7 1022 82 0 6.81 4.21 01:40 30.08.2019
2836 Clouds 7 1022 83 0 7.01 0.997 00:53 30.08.2019
2837 Clouds 6 1021 85 0 6.77 351.38 00:19 30.08.2019
2838 Clouds 6 1021 85 0 6.77 351.38 23:47 29.08.2019
2839 Clouds 6 1021 85 0 6.77 351.38 23:22 29.08.2019
2840 Clouds 6 1021 85 0 6.77 351.38 23:22 29.08.2019
2841 Clouds 6 1021 85 0 6.77 351.38 22:45 29.08.2019
2842 Clouds 6 1021 85 0 6.77 351.38 22:27 29.08.2019
2843 Clouds 6 1021 85 0 6.77 351.38 22:27 29.08.2019
2844 Clouds 6 1021 85 0 6.59 355.447 21:59 29.08.2019
2845 Clouds 6 1021 85 0 6.59 355.447 21:41 29.08.2019
2846 Clouds 7 1022 84 0 6.61 350.273 21:21 29.08.2019
2847 Clouds 7 1022 84 0 6.61 350.273 20:58 29.08.2019
2848 Clouds 7 1022 84 0 6.61 350.273 20:39 29.08.2019
2849 Clouds 7 1022 84 0 6.61 350.273 20:19 29.08.2019
2850 Clouds 7 1022 84 0 6.61 350.273 19:47 29.08.2019
2851 Clouds 7 1022 84 0 6.61 350.273 19:27 29.08.2019
2852 Clouds 7 1022 84 0 6.61 350.273 18:59 29.08.2019
2853 Clouds 7 1022 84 0 6.61 350.273 18:41 29.08.2019
2854 Clouds 7 1021 82 0 6.43 348.545 18:19 29.08.2019
2855 Clouds 7 1021 82 0 6.43 348.545 17:56 29.08.2019
2856 Clouds 7 1021 82 0 6.43 348.545 17:36 29.08.2019
2857 Clouds 7 1021 82 0 6.43 348.545 17:18 29.08.2019
2858 Clouds 7 1021 82 0 6.43 348.545 16:42 29.08.2019
2859 Clouds 7 1021 82 0 6.43 348.545 16:23 29.08.2019
2860 Clouds 7 1021 82 0 6.43 348.545 15:54 29.08.2019
2861 Clouds 7 1021 82 0 6.43 348.545 15:36 29.08.2019
2862 Clouds 7 1021 81 0 6.37 342.185 15:18 29.08.2019
2863 Clouds 7 1021 81 0 6.37 342.185 14:42 29.08.2019
2864 Clouds 7 1021 81 0 6.37 342.185 14:21 29.08.2019
2865 Clouds 7 1021 81 0 6.37 342.185 13:57 29.08.2019
2866 Clouds 7 1021 81 0 6.37 342.185 13:39 29.08.2019
2867 Clouds 7 1021 78 0 6.91 343.67 13:19 29.08.2019
2868 Clouds 7 1021 78 0 6.91 343.67 12:57 29.08.2019
2869 Clouds 7 1021 78 0 6.91 343.67 12:38 29.08.2019
2870 Clouds 7 1020 78 0 6.27 347.938 12:20 29.08.2019
2871 Clouds 7 1020 78 0 6.27 347.938 11:56 29.08.2019
2872 Clouds 7 1020 78 0 6.27 347.938 11:36 29.08.2019
2873 Clouds 7 1020 78 0 6.27 347.938 11:18 29.08.2019
2874 Clouds 7 1020 78 0 6.27 347.938 10:41 29.08.2019
2875 Clouds 7 1020 78 0 6.27 347.938 10:23 29.08.2019
2876 Clouds 7 1020 79 0 5.83 349.581 09:42 29.08.2019
2877 Clouds 7 1020 80 0 6.55 353.075 09:20 29.08.2019
2878 Clouds 7 1020 80 0 6.55 353.075 08:56 29.08.2019
2879 Clouds 7 1020 80 0 6.55 353.075 08:37 29.08.2019
2880 Clouds 7 1020 80 0 6.55 353.075 08:19 29.08.2019
2881 Clouds 7 1020 80 0 6.55 353.075 07:43 29.08.2019
2882 Clouds 7 1020 80 0 6.55 353.075 07:23 29.08.2019
2883 Clouds 7 1020 80 0 6.55 353.075 06:42 29.08.2019
2884 Clouds 7 1019 82 0 6.96 355.624 06:18 29.08.2019
2885 Clouds 7 1019 82 0 6.96 355.624 05:34 29.08.2019
2886 Clouds 7 1019 82 0 6.96 355.624 04:50 29.08.2019
2887 Clouds 7 1019 82 0 6.96 355.624 04:28 29.08.2019
2888 Rain 7 1019 85 0 6.36 353.522 02:44 29.08.2019
2889 Rain 7 1019 85 0 6.36 353.522 01:42 29.08.2019
2890 Rain 7 1019 84 0 6.79 354.321 00:56 29.08.2019
2891 Rain 7 1019 84 0 6.79 354.321 00:37 29.08.2019
2892 Rain 7 1018 86 0 7.6 349.958 00:18 29.08.2019
2893 Rain 7 1018 86 0 7.6 349.958 23:41 28.08.2019
2894 Rain 7 1018 86 0 7.6 349.958 23:22 28.08.2019
2895 Rain 7 1018 86 0 7.6 349.958 22:57 28.08.2019
2896 Rain 7 1018 86 0 7.6 349.958 22:38 28.08.2019
2897 Rain 7 1018 86 0 7.6 349.958 22:18 28.08.2019
2898 Rain 7 1018 84 0 7.49 349.609 21:54 28.08.2019
2899 Rain 7 1018 84 0 7.49 349.609 21:36 28.08.2019
2900 Clouds 7 1019 81 0 7.48 336.137 21:18 28.08.2019
2901 Clouds 7 1019 81 0 7.48 336.137 20:40 28.08.2019
2902 Clouds 7 1019 81 0 7.48 336.137 20:22 28.08.2019
2903 Clouds 7 1019 81 0 7.48 336.137 19:44 28.08.2019
2904 Clouds 7 1019 81 0 7.48 336.137 19:23 28.08.2019
2905 Clouds 7 1019 81 0 7.48 336.137 18:59 28.08.2019
2906 Clouds 7 1019 81 0 7.48 336.137 18:41 28.08.2019
2907 Clouds 7 1019 77 0 5.4 345.024 18:21 28.08.2019
2908 Clouds 7 1019 77 0 5.4 345.024 17:39 28.08.2019
2909 Clouds 7 1019 77 0 5.4 345.024 17:19 28.08.2019
2910 Clouds 7 1019 77 0 5.4 345.024 16:56 28.08.2019
2911 Clouds 7 1019 77 0 5.4 345.024 16:38 28.08.2019
2912 Clouds 7 1019 77 0 5.4 345.024 16:38 28.08.2019
2913 Clouds 7 1019 77 0 5.4 345.024 16:18 28.08.2019
2914 Clouds 7 1019 77 0 5.4 345.024 15:38 28.08.2019
2915 Clouds 6 1019 69 0 4.99 356.498 15:20 28.08.2019
2916 Clouds 6 1019 69 0 4.99 356.498 14:58 28.08.2019
2917 Clouds 6 1019 69 0 4.99 356.498 14:40 28.08.2019
2918 Clouds 6 1019 69 0 4.99 356.498 14:20 28.08.2019
2919 Clouds 6 1019 69 0 4.99 356.498 13:59 28.08.2019
2920 Clouds 6 1019 69 0 4.99 356.498 13:39 28.08.2019
2921 Clouds 6 1019 69 0 4.99 356.498 13:39 28.08.2019
2922 Clouds 6 1020 67 0 4.87 353.507 13:20 28.08.2019
2923 Clouds 6 1020 67 0 4.87 353.507 12:42 28.08.2019
2924 Clouds 6 1019 68 0 4.6 3.774 12:24 28.08.2019
2925 Clouds 6 1019 68 0 4.6 3.774 11:57 28.08.2019
2926 Clouds 6 1019 68 0 4.6 3.774 11:39 28.08.2019
2927 Clouds 6 1019 68 0 4.6 3.774 11:20 28.08.2019
2928 Clouds 6 1019 68 0 4.6 3.774 10:55 28.08.2019
2929 Clouds 6 1019 68 0 4.6 3.774 10:37 28.08.2019
2930 Clouds 6 1019 68 0 4.6 3.774 10:18 28.08.2019
2931 Clouds 6 1019 68 0 4.6 3.774 09:41 28.08.2019
2932 Clouds 6 1019 70 0 4.63 11.072 09:20 28.08.2019
2933 Clouds 6 1019 70 0 4.63 11.072 08:40 28.08.2019
2934 Clouds 6 1019 70 0 4.63 11.072 08:21 28.08.2019
2935 Clouds 6 1019 70 0 4.63 11.072 07:57 28.08.2019
2936 Clouds 6 1019 70 0 4.63 11.072 07:36 28.08.2019
2937 Clouds 6 1019 70 0 4.63 11.072 07:18 28.08.2019
2938 Clouds 6 1019 70 0 4.63 11.072 06:40 28.08.2019
2939 Clouds 5 1020 71 0 5.29 22.791 05:47 28.08.2019
2940 -273 0 0 0 0 0 03:55 28.08.2019
2941 Rain 6 1020 79 0 6.76 18.658 01:53 28.08.2019
2942 Rain 6 1020 83 0 5.47 18.326 01:30 28.08.2019
2943 Rain 6 1020 83 0 5.47 18.326 00:42 28.08.2019
2944 Rain 6 1019 82 0 2.98 352.511 00:18 28.08.2019
2945 Rain 6 1019 82 0 2.98 352.511 23:40 27.08.2019
2946 Rain 6 1019 82 0 2.98 352.511 23:21 27.08.2019
2947 Rain 6 1019 82 0 2.98 352.511 22:57 27.08.2019
2948 Rain 6 1019 82 0 2.98 352.511 22:38 27.08.2019
2949 Rain 6 1019 82 0 2.98 352.511 22:20 27.08.2019
2950 Rain 6 1019 82 0 4.87 356.23 21:55 27.08.2019
2951 Rain 6 1019 82 0 4.87 356.23 21:55 27.08.2019
2952 Rain 6 1019 82 0 4.87 356.23 21:37 27.08.2019
2953 Clear 6 1020 76 0 2.74 45.976 21:18 27.08.2019
2954 Clear 6 1020 76 0 2.74 45.976 20:42 27.08.2019
2955 Clear 6 1020 76 0 2.74 45.976 20:21 27.08.2019
2956 Clear 6 1020 76 0 2.74 45.976 19:58 27.08.2019
2957 Clear 6 1020 76 0 2.74 45.976 19:40 27.08.2019
2958 Clear 6 1020 76 0 2.74 45.976 19:22 27.08.2019
2959 Clear 6 1020 76 0 2.74 45.976 18:43 27.08.2019
2960 Clear 6 1019 74 0 3.97 70.521 18:19 27.08.2019
2961 Clear 6 1019 74 0 3.97 70.521 17:59 27.08.2019
2962 Clear 6 1019 74 0 3.97 70.521 17:41 27.08.2019
2963 Clear 6 1019 74 0 3.97 70.521 17:22 27.08.2019
2964 Clear 6 1019 74 0 3.97 70.521 16:47 27.08.2019
2965 Clear 6 1019 74 0 3.97 70.521 16:28 27.08.2019
2966 Clear 6 1019 74 0 3.97 70.521 16:28 27.08.2019
2967 Clear 6 1019 74 0 3.97 70.521 16:28 27.08.2019
2968 Clear 6 1019 74 0 3.97 70.521 15:58 27.08.2019
2969 Clear 6 1019 74 0 3.97 70.521 15:40 27.08.2019
2970 Clouds 6 1019 78 0 3.98 88.979 15:21 27.08.2019
2971 Clouds 6 1019 78 0 3.98 88.979 14:57 27.08.2019
2972 Clouds 6 1019 78 0 3.98 88.979 14:37 27.08.2019
2973 Clouds 6 1019 78 0 3.98 88.979 14:18 27.08.2019
2974 Clouds 6 1019 78 0 3.98 88.979 13:41 27.08.2019
2975 Clouds 6 1019 74 0 3.69 82.661 13:21 27.08.2019
2976 Clouds 6 1019 74 0 3.69 82.661 12:42 27.08.2019
2977 Clouds 5 1017 82 0 2.63 82.735 12:21 27.08.2019
2978 Clouds 5 1017 82 0 2.63 82.735 11:58 27.08.2019
2979 Clouds 5 1017 82 0 2.63 82.735 11:40 27.08.2019
2980 Clouds 5 1017 82 0 2.63 82.735 11:21 27.08.2019
2981 Clouds 5 1017 82 0 2.63 82.735 10:41 27.08.2019
2982 Clouds 5 1017 82 0 2.63 82.735 10:20 27.08.2019
2983 Clouds 5 1017 82 0 2.63 82.735 09:57 27.08.2019
2984 Clouds 5 1017 82 0 2.63 82.735 09:37 27.08.2019
2985 Clouds 5 1017 85 0 1.07 269.196 09:19 27.08.2019
2986 Clouds 5 1017 85 0 1.07 269.196 08:46 27.08.2019
2987 Clouds 5 1017 85 0 1.07 269.196 08:24 27.08.2019
2988 Clouds 5 1017 85 0 1.07 269.196 07:56 27.08.2019
2989 Clouds 5 1017 85 0 1.07 269.196 07:37 27.08.2019
2990 Clouds 5 1017 85 0 1.07 269.196 07:18 27.08.2019
2991 Clouds 5 1017 85 0 1.07 269.196 06:45 27.08.2019
2992 Rain 5 1016 88 0 1.24 243.29 06:19 27.08.2019
2993 Rain 5 1016 88 0 1.24 243.29 05:28 27.08.2019
2994 Rain 5 1016 88 0 1.24 243.29 03:44 27.08.2019
2995 Rain 6 1016 88 0 3.72 281.367 02:55 27.08.2019
2996 Rain 6 1016 88 0 3.72 281.367 01:46 27.08.2019
2997 Rain 6 1016 86 0 3.43 281.261 01:25 27.08.2019
2998 Rain 6 1016 86 0 3.43 281.261 00:49 27.08.2019
2999 Rain 6 1016 86 0 3.43 281.261 00:28 27.08.2019
3000 Rain 6 1015 84 0 3.7 140.161 23:44 26.08.2019
3001 Rain 6 1015 84 0 3.7 140.161 23:25 26.08.2019
3002 Rain 6 1015 84 0 3.7 140.161 22:59 26.08.2019
3003 Rain 6 1015 84 0 3.7 140.161 22:37 26.08.2019
3004 Rain 6 1015 84 0 3.7 140.161 22:18 26.08.2019
3005 Rain 6 1015 85 0 3.76 148.274 21:40 26.08.2019
3006 Clouds 6 1016 80 0 3.95 125.079 21:22 26.08.2019
3007 Clouds 6 1016 80 0 3.95 125.079 20:59 26.08.2019
3008 Clouds 6 1016 80 0 3.95 125.079 20:40 26.08.2019
3009 Clouds 6 1016 80 0 3.95 125.079 20:20 26.08.2019
3010 Clouds 6 1016 80 0 3.95 125.079 19:58 26.08.2019
3011 Clouds 6 1016 80 0 3.95 125.079 19:39 26.08.2019
3012 Clouds 6 1016 80 0 3.95 125.079 19:19 26.08.2019
3013 Clouds 6 1016 80 0 3.95 125.079 18:39 26.08.2019
3014 Clouds 6 1016 80 0 3.95 125.079 18:39 26.08.2019
3015 Clouds 6 1015 77 0 3.07 153.518 18:21 26.08.2019
3016 Clouds 6 1015 77 0 3.07 153.518 17:59 26.08.2019
3017 Clouds 6 1015 77 0 3.07 153.518 17:40 26.08.2019
3018 Clouds 6 1015 77 0 3.07 153.518 17:19 26.08.2019
3019 Clouds 6 1015 77 0 3.07 153.518 16:56 26.08.2019
3020 Clouds 6 1015 77 0 3.07 153.518 16:38 26.08.2019
3021 Clouds 6 1015 77 0 3.07 153.518 16:18 26.08.2019
3022 Clouds 6 1015 77 0 3.07 153.518 16:18 26.08.2019
3023 Clouds 6 1015 77 0 3.07 153.518 15:42 26.08.2019
3024 Clouds 6 1015 77 0 3.07 153.518 15:42 26.08.2019
3025 Clouds 6 1016 72 0 3.27 129.613 15:22 26.08.2019
3026 Clouds 6 1016 72 0 3.27 129.613 14:56 26.08.2019
3027 Clouds 6 1016 72 0 3.27 129.613 14:37 26.08.2019
3028 Clouds 6 1016 72 0 3.27 129.613 14:18 26.08.2019
3029 Clouds 6 1016 72 0 3.27 129.613 13:41 26.08.2019
3030 Clouds 6 1016 74 0 2.85 119.727 13:21 26.08.2019
3031 Clouds 6 1016 74 0 2.85 119.727 12:45 26.08.2019
3032 Clouds 6 1016 74 0 2.85 119.727 12:27 26.08.2019
3033 Clouds 6 1016 74 0 2.18 80.14 11:58 26.08.2019
3034 Clouds 6 1016 74 0 2.18 80.14 11:37 26.08.2019
3035 Clouds 6 1016 74 0 2.18 80.14 11:19 26.08.2019
3036 Clouds 6 1016 74 0 2.18 80.14 10:54 26.08.2019
3037 Clouds 6 1016 74 0 2.18 80.14 10:36 26.08.2019
3038 Clouds 6 1016 74 0 2.18 80.14 10:18 26.08.2019
3039 Clouds 6 1016 74 0 2.18 80.14 09:41 26.08.2019
3040 Clouds 6 1016 67 0 0.93 1.483 09:23 26.08.2019
3041 Clouds 6 1016 67 0 0.93 1.483 08:55 26.08.2019
3042 Clouds 6 1016 67 0 0.93 1.483 08:37 26.08.2019
3043 Clouds 6 1016 67 0 0.93 1.483 08:18 26.08.2019
3044 Clouds 6 1016 67 0 0.93 1.483 07:42 26.08.2019
3045 Clouds 6 1016 67 0 0.93 1.483 07:23 26.08.2019
3046 Clouds 6 1016 67 0 0.93 1.483 06:48 26.08.2019
3047 Clouds 6 1016 71 0 1.24 4.906 06:25 26.08.2019
3048 Clouds 6 1016 71 0 1.24 4.906 05:51 26.08.2019
3049 Clouds 6 1016 71 0 1.24 4.906 04:31 26.08.2019
3050 Clouds 6 1016 71 0 2.01 29.483 03:19 26.08.2019
3051 Clouds 6 1016 71 0 2.01 29.483 01:40 26.08.2019
3052 Clouds 6 1016 68 0 3.01 2.949 01:21 26.08.2019
3053 Clouds 6 1016 68 0 3.01 2.949 00:41 26.08.2019
3054 Clouds 6 1016 72 0 2.97 13.498 00:22 26.08.2019
3055 Clouds 6 1016 72 0 2.97 13.498 23:43 25.08.2019
3056 Clouds 6 1016 72 0 2.97 13.498 23:19 25.08.2019
3057 Clouds 6 1016 72 0 2.97 13.498 22:57 25.08.2019
3058 Clouds 6 1016 72 0 2.97 13.498 22:38 25.08.2019
3059 Clouds 6 1016 72 0 2.97 13.498 22:38 25.08.2019
3060 Clouds 6 1016 72 0 2.97 13.498 22:19 25.08.2019
3061 Clouds 6 1016 72 0 2.97 13.498 21:56 25.08.2019
3062 Rain 5 1016 80 0 1.43 50.338 21:37 25.08.2019
3063 Rain 6 1016 83 0 2.59 43.088 21:18 25.08.2019
3064 Rain 6 1016 83 0 2.59 43.088 20:40 25.08.2019
3065 Rain 6 1016 83 0 2.59 43.088 20:20 25.08.2019
3066 Rain 6 1016 83 0 2.59 43.088 19:58 25.08.2019
3067 Rain 6 1016 83 0 2.59 43.088 19:38 25.08.2019
3068 Rain 6 1016 83 0 2.59 43.088 19:19 25.08.2019
3069 Rain 6 1016 83 0 2.59 43.088 18:57 25.08.2019
3070 Rain 6 1016 83 0 2.59 43.088 18:39 25.08.2019
3071 Rain 6 1016 82 0 2.89 14.128 18:20 25.08.2019
3072 Rain 6 1016 82 0 2.89 14.128 17:43 25.08.2019
3073 Rain 6 1016 82 0 2.89 14.128 17:25 25.08.2019
3074 Rain 6 1016 82 0 2.89 14.128 16:54 25.08.2019
3075 Rain 6 1016 82 0 2.89 14.128 16:36 25.08.2019
3076 Rain 6 1016 82 0 2.89 14.128 16:18 25.08.2019
3077 Rain 6 1016 82 0 2.89 14.128 15:42 25.08.2019
3078 Clouds 6 1016 83 0 2.62 18.186 15:23 25.08.2019
3079 Clouds 6 1016 83 0 2.62 18.186 14:42 25.08.2019
3080 Clouds 6 1016 83 0 2.62 18.186 14:24 25.08.2019
3081 Clouds 6 1016 83 0 2.62 18.186 13:56 25.08.2019
3082 Clouds 6 1016 83 0 2.62 18.186 13:37 25.08.2019
3083 Clouds 6 1016 80 0 2.23 19.369 13:18 25.08.2019
3084 Clouds 6 1016 80 0 2.23 19.369 12:41 25.08.2019
3085 Clouds 6 1015 80 0 2.55 12.964 12:23 25.08.2019
3086 Clouds 6 1015 80 0 2.55 12.964 11:57 25.08.2019
3087 Clouds 6 1015 80 0 2.55 12.964 11:37 25.08.2019
3088 Clouds 6 1015 80 0 2.55 12.964 11:19 25.08.2019
3089 Clouds 6 1015 80 0 2.55 12.964 10:56 25.08.2019
3090 Clouds 6 1015 80 0 2.55 12.964 10:37 25.08.2019
3091 Clouds 6 1015 80 0 2.55 12.964 10:19 25.08.2019
3092 Clouds 6 1015 80 0 2.55 12.964 09:42 25.08.2019
3093 Clouds 6 1015 83 0 2.67 352.931 09:24 25.08.2019
3094 Clouds 6 1015 83 0 2.67 352.931 08:47 25.08.2019
3095 Clouds 6 1015 83 0 2.67 352.931 08:29 25.08.2019
3096 Clouds 6 1015 83 0 2.67 352.931 07:54 25.08.2019
3097 Clouds 6 1015 83 0 2.67 352.931 07:32 25.08.2019
3098 Clouds 6 1015 83 0 2.67 352.931 06:38 25.08.2019
3099 Clear 6 1015 86 0 2.01 353.112 05:27 25.08.2019
3100 Clear 6 1015 86 0 2.01 353.112 03:43 25.08.2019
3101 Clear 6 1014 86 0 2.36 2.573 02:42 25.08.2019
3102 Clear 6 1014 86 0 2.36 2.573 01:53 25.08.2019
3103 Clear 6 1014 85 0 2.56 8.054 00:54 25.08.2019
3104 Clear 6 1014 86 0 2.71 358.796 00:23 25.08.2019
3105 Clear 6 1014 86 0 2.71 358.796 23:58 24.08.2019
3106 Clear 6 1014 86 0 2.71 358.796 23:39 24.08.2019
3107 Clear 6 1014 86 0 2.71 358.796 23:21 24.08.2019
3108 Clear 6 1014 86 0 2.71 358.796 22:42 24.08.2019
3109 Clear 6 1014 86 0 2.71 358.796 22:19 24.08.2019
3110 Clear 6 1014 86 0 2.71 358.796 21:59 24.08.2019
3111 Clear 6 1014 86 0 2.71 358.796 21:39 24.08.2019
3112 Clear 6 1014 85 0 2.7 348.557 21:21 24.08.2019
3113 Clear 6 1014 85 0 2.7 348.557 20:57 24.08.2019
3114 Clear 6 1014 85 0 2.7 348.557 20:39 24.08.2019
3115 Clear 6 1014 85 0 2.7 348.557 20:19 24.08.2019
3116 Clear 6 1014 85 0 2.7 348.557 19:57 24.08.2019
3117 Clear 6 1014 85 0 2.7 348.557 19:38 24.08.2019
3118 Clear 6 1014 85 0 2.7 348.557 19:20 24.08.2019
3119 Clear 6 1014 85 0 2.7 348.557 18:46 24.08.2019
3120 Clear 7 1014 85 0 3.16 352.293 18:24 24.08.2019
3121 Clear 7 1014 85 0 3.16 352.293 17:46 24.08.2019
3122 Clear 7 1014 85 0 3.16 352.293 17:27 24.08.2019
3123 Clear 7 1014 85 0 3.16 352.293 16:57 24.08.2019
3124 Clear 7 1014 85 0 3.16 352.293 16:38 24.08.2019
3125 Clear 7 1014 85 0 3.16 352.293 16:19 24.08.2019
3126 Clear 7 1014 85 0 3.16 352.293 15:44 24.08.2019
3127 Clear 7 1014 85 0 3.16 352.293 15:26 24.08.2019
3128 Clear 7 1013 84 0 3.84 351.351 14:57 24.08.2019
3129 Clear 7 1013 84 0 3.84 351.351 14:39 24.08.2019
3130 Clear 7 1013 84 0 3.84 351.351 14:18 24.08.2019
3131 Clear 7 1013 84 0 3.84 351.351 13:43 24.08.2019
3132 Clear 6 1014 84 0 4.01 359.986 13:23 24.08.2019
3133 Clear 6 1014 84 0 4.01 359.986 12:59 24.08.2019
3134 Clear 6 1014 84 0 4.01 359.986 12:40 24.08.2019
3135 Clear 6 1013 84 0 3.77 1.916 12:22 24.08.2019
3136 Clear 6 1013 84 0 3.77 1.916 11:49 24.08.2019
3137 Clear 6 1013 84 0 3.77 1.916 11:31 24.08.2019
3138 Clear 6 1013 84 0 3.77 1.916 10:59 24.08.2019
3139 Clear 6 1013 84 0 3.77 1.916 10:38 24.08.2019
3140 Clear 6 1013 84 0 3.77 1.916 10:20 24.08.2019
3141 Clear 6 1013 84 0 3.77 1.916 09:42 24.08.2019
3142 Clear 6 1013 84 0 3.54 9.156 09:19 24.08.2019
3143 Clear 6 1013 84 0 3.54 9.156 08:43 24.08.2019
3144 Clear 6 1013 84 0 3.54 9.156 08:24 24.08.2019
3145 Clear 6 1013 84 0 3.54 9.156 07:52 24.08.2019
3146 Clear 6 1013 84 0 3.54 9.156 07:30 24.08.2019
3147 Clear 6 1013 84 0 3.54 9.156 06:39 24.08.2019
3148 Clear 6 1012 85 0 3.71 31.925 06:21 24.08.2019
3149 Clear 6 1012 85 0 3.71 31.925 05:35 24.08.2019
3150 Clear 6 1012 85 0 3.71 31.925 03:41 24.08.2019
3151 Clouds 6 1011 87 0 4.11 43.434 02:50 24.08.2019
3152 Clouds 6 1011 87 0 4.11 43.434 02:18 24.08.2019
3153 Clouds 6 1011 88 0 4.21 37.951 01:25 24.08.2019
3154 Clouds 6 1011 88 0 4.21 37.951 00:47 24.08.2019
3155 Clouds 6 1010 90 0 4.62 35.023 00:23 24.08.2019
3156 Clouds 6 1010 90 0 4.62 35.023 00:23 24.08.2019
3157 Clouds 6 1010 90 0 4.62 35.023 23:45 23.08.2019
3158 Clouds 6 1010 90 0 4.62 35.023 23:20 23.08.2019
3159 Clouds 6 1010 90 0 4.62 35.023 22:45 23.08.2019
3160 Clouds 6 1010 90 0 4.62 35.023 22:27 23.08.2019
3161 Clouds 6 1010 90 0 4.62 35.023 21:56 23.08.2019
3162 Clouds 6 1010 88 0 4.73 37.914 21:37 23.08.2019
3163 Clouds 6 1010 92 0 5.11 53.579 21:19 23.08.2019
3164 Clouds 6 1010 92 0 5.11 53.579 20:52 23.08.2019
3165 Clouds 6 1010 92 0 5.11 53.579 20:33 23.08.2019
3166 Clouds 6 1010 92 0 5.11 53.579 19:47 23.08.2019
3167 Clouds 6 1010 92 0 5.11 53.579 19:19 23.08.2019
3168 Clouds 6 1010 92 0 5.11 53.579 18:58 23.08.2019
3169 Clouds 6 1010 92 0 5.11 53.579 18:39 23.08.2019
3170 Clouds 6 1010 92 0 5.11 53.579 18:39 23.08.2019
3171 Clouds 6 1009 94 0 5.88 65.367 18:21 23.08.2019
3172 Clouds 6 1009 94 0 5.88 65.367 17:45 23.08.2019
3173 Clouds 6 1009 94 0 5.88 65.367 17:45 23.08.2019
3174 Clouds 6 1009 94 0 5.88 65.367 17:26 23.08.2019
3175 Clouds 6 1009 94 0 5.88 65.367 16:57 23.08.2019
3176 Clouds 6 1009 94 0 5.88 65.367 16:39 23.08.2019
3177 Clouds 6 1009 94 0 5.88 65.367 16:21 23.08.2019
3178 Clouds 6 1009 94 0 5.88 65.367 15:40 23.08.2019
3179 Clouds 7 1009 94 0 4.01 55.213 15:22 23.08.2019
3180 Clouds 7 1009 94 0 4.01 55.213 14:57 23.08.2019
3181 Clouds 7 1009 94 0 4.01 55.213 14:39 23.08.2019
3182 Clouds 7 1009 94 0 4.01 55.213 14:20 23.08.2019
3183 Clouds 7 1009 94 0 4.01 55.213 13:42 23.08.2019
3184 Clouds 8 1010 94 0 3.71 48.723 13:23 23.08.2019
3185 Clouds 8 1010 94 0 3.71 48.723 13:00 23.08.2019
3186 Clouds 8 1010 94 0 3.71 48.723 12:41 23.08.2019
3187 Clouds 7 1009 95 0 2 42.426 12:22 23.08.2019
3188 Clouds 7 1009 95 0 2 42.426 11:58 23.08.2019
3189 Clouds 7 1009 95 0 2 42.426 11:39 23.08.2019
3190 Clouds 7 1009 95 0 2 42.426 11:20 23.08.2019
3191 Clouds 7 1009 95 0 2 42.426 10:57 23.08.2019
3192 Clouds 7 1009 95 0 2 42.426 10:39 23.08.2019
3193 Clouds 7 1010 96 0 2.32 45.087 10:19 23.08.2019
3194 Clouds 7 1010 96 0 2.32 45.087 09:43 23.08.2019
3195 Clouds 7 1010 98 0 0.34 356.254 09:25 23.08.2019
3196 Clouds 7 1010 98 0 0.34 356.254 08:46 23.08.2019
3197 Clouds 7 1010 98 0 0.34 356.254 08:22 23.08.2019
3198 Clouds 7 1010 98 0 0.34 356.254 07:59 23.08.2019
3199 Clouds 7 1010 98 0 0.34 356.254 07:41 23.08.2019
3200 Clouds 7 1010 98 0 0.34 356.254 07:23 23.08.2019
3201 Clouds 7 1010 98 0 0.34 356.254 06:43 23.08.2019
3202 Clouds 7 1011 97 0 2.24 240.525 06:22 23.08.2019
3203 Clouds 7 1011 97 0 2.24 240.525 05:45 23.08.2019
3204 Clouds 7 1011 97 0 2.24 240.525 05:25 23.08.2019
3205 Clouds 7 1011 97 0 2.24 240.525 03:57 23.08.2019
3206 Clouds 7 1011 98 0 4.26 241.396 02:39 23.08.2019
3207 Clouds 7 1011 98 0 4.26 241.396 02:20 23.08.2019
3208 Clouds 7 1011 98 0 3.94 236.584 01:30 23.08.2019
3209 Clouds 7 1011 98 0 3.94 236.584 00:42 23.08.2019
3210 Clouds 7 1012 98 0 4.4 247.543 00:18 23.08.2019
3211 Clouds 7 1012 98 0 4.4 247.543 23:43 22.08.2019
3212 Clouds 7 1012 98 0 4.4 247.543 23:22 22.08.2019
3213 Clouds 7 1012 98 0 4.4 247.543 22:43 22.08.2019
3214 Clouds 7 1012 98 0 4.4 247.543 22:24 22.08.2019
3215 Clouds 7 1012 98 0 4.4 247.543 21:59 22.08.2019
3216 Clouds 7 1012 98 0 3.99 254.356 21:40 22.08.2019
3217 Clouds 7 1013 94 0 2.87 246.04 21:22 22.08.2019
3218 Clouds 7 1013 94 0 2.87 246.04 20:58 22.08.2019
3219 Clouds 7 1013 94 0 2.87 246.04 20:40 22.08.2019
3220 Clouds 7 1013 94 0 2.87 246.04 20:40 22.08.2019
3221 Clouds 7 1013 94 0 2.87 246.04 20:20 22.08.2019
3222 Clouds 7 1013 94 0 2.87 246.04 19:57 22.08.2019
3223 Clouds 7 1013 94 0 2.87 246.04 19:38 22.08.2019
3224 Clouds 7 1013 94 0 2.87 246.04 19:20 22.08.2019
3225 Clouds 7 1013 94 0 2.87 246.04 18:57 22.08.2019
3226 Clouds 7 1013 94 0 2.87 246.04 18:39 22.08.2019
3227 Clouds 7 1013 94 0 3.17 293.574 18:19 22.08.2019
3228 Clouds 7 1013 94 0 3.17 293.574 17:54 22.08.2019
3229 Clouds 7 1013 94 0 3.17 293.574 17:36 22.08.2019
3230 Clouds 7 1013 94 0 3.17 293.574 17:18 22.08.2019
3231 Clouds 7 1013 94 0 3.17 293.574 16:56 22.08.2019
3232 Clouds 7 1013 94 0 3.17 293.574 16:37 22.08.2019
3233 Clouds 7 1013 94 0 3.17 293.574 16:18 22.08.2019
3234 Clouds 7 1013 94 0 3.17 293.574 16:18 22.08.2019
3235 Clouds 7 1013 94 0 3.17 293.574 15:41 22.08.2019
3236 Clouds 7 1013 94 0 3.17 293.574 15:41 22.08.2019
3237 Clouds 6 1013 95 0 4.94 304.465 15:22 22.08.2019
3238 Clouds 6 1013 95 0 4.94 304.465 14:57 22.08.2019
3239 Clouds 6 1013 95 0 4.94 304.465 14:39 22.08.2019
3240 Clouds 6 1013 95 0 4.94 304.465 14:20 22.08.2019
3241 Clouds 6 1013 95 0 4.94 304.465 13:56 22.08.2019
3242 Clouds 6 1013 95 0 4.94 304.465 13:38 22.08.2019
3243 Clouds 7 1013 97 0 6.32 306.632 13:18 22.08.2019
3244 Clouds 7 1013 97 0 6.32 306.632 12:40 22.08.2019
3245 Clouds 7 1012 96 0 7.1 286.756 12:22 22.08.2019
3246 Clouds 7 1012 96 0 7.1 286.756 11:58 22.08.2019
3247 Clouds 7 1012 96 0 7.1 286.756 11:39 22.08.2019
3248 Clouds 7 1012 96 0 7.1 286.756 11:19 22.08.2019
3249 Clouds 7 1012 96 0 7.1 286.756 10:57 22.08.2019
3250 Clouds 7 1012 96 0 7.1 286.756 10:37 22.08.2019
3251 Clouds 7 1012 96 0 7.1 286.756 10:19 22.08.2019
3252 Clouds 7 1012 96 0 6.87 290.436 09:54 22.08.2019
3253 Clouds 7 1012 96 0 6.87 290.436 09:54 22.08.2019
3254 Clouds 7 1012 96 0 6.87 290.436 09:36 22.08.2019
3255 Rain 7 1011 98 0 7.74 279.55 09:18 22.08.2019
3256 Rain 7 1011 98 0 7.74 279.55 08:41 22.08.2019
3257 Rain 7 1011 98 0 7.74 279.55 08:21 22.08.2019
3258 Rain 7 1011 98 0 7.74 279.55 07:55 22.08.2019
3259 Rain 7 1011 98 0 7.74 279.55 07:37 22.08.2019
3260 Rain 7 1011 98 0 7.74 279.55 07:18 22.08.2019
3261 Rain 7 1011 98 0 7.74 279.55 06:44 22.08.2019
3262 Rain 7 1010 99 0 9.14 282.941 06:20 22.08.2019
3263 Rain 7 1010 99 0 9.14 282.941 04:58 22.08.2019
3264 Rain 10 1011 98 0 5.53 211.273 03:20 22.08.2019
3265 Rain 10 1011 98 0 5.53 211.273 02:36 22.08.2019
3266 Rain 10 1011 99 0 4.97 190.101 01:30 22.08.2019
3267 Rain 10 1011 99 0 4.97 190.101 00:50 22.08.2019
3268 Rain 10 1011 99 0 4.97 190.101 00:30 22.08.2019
3269 Rain 10 1012 99 0 4.97 195.102 23:59 21.08.2019
3270 Rain 10 1012 99 0 4.97 195.102 23:39 21.08.2019
3271 Rain 10 1012 99 0 4.97 195.102 23:21 21.08.2019
3272 Rain 10 1012 99 0 4.97 195.102 22:57 21.08.2019
3273 Rain 10 1012 99 0 4.97 195.102 22:39 21.08.2019
3274 Rain 10 1012 99 0 4.97 195.102 22:20 21.08.2019
3275 Rain 10 1012 99 0 4.97 195.102 22:20 21.08.2019
3276 -273 0 0 0 0 0 21:55 21.08.2019
3277 Rain 10 1012 98 0 4.24 191.265 21:37 21.08.2019
3278 Rain 10 1012 98 0 4.24 191.265 21:37 21.08.2019
3279 Clouds 10 1014 97 0 4.76 193.034 21:18 21.08.2019
3280 Clouds 10 1014 97 0 4.76 193.034 20:44 21.08.2019
3281 Clouds 10 1014 97 0 4.76 193.034 20:25 21.08.2019
3282 Clouds 10 1014 97 0 4.76 193.034 19:59 21.08.2019
3283 Clouds 10 1014 97 0 4.76 193.034 19:41 21.08.2019
3284 Clouds 10 1014 97 0 4.76 193.034 19:23 21.08.2019
3285 Clouds 10 1014 97 0 4.76 193.034 18:56 21.08.2019
3286 Clouds 10 1014 97 0 4.76 193.034 18:56 21.08.2019
3287 Clouds 10 1014 97 0 4.76 193.034 18:38 21.08.2019
3288 Rain 10 1016 94 0 5.33 188.534 18:20 21.08.2019
3289 Rain 10 1016 94 0 5.33 188.534 17:43 21.08.2019
3290 Rain 10 1016 94 0 5.33 188.534 17:21 21.08.2019
3291 Rain 10 1016 94 0 5.33 188.534 16:56 21.08.2019
3292 Rain 10 1016 94 0 5.33 188.534 16:37 21.08.2019
3293 Rain 10 1016 94 0 5.33 188.534 16:18 21.08.2019
3294 Rain 10 1016 94 0 5.33 188.534 15:56 21.08.2019
3295 Rain 10 1016 94 0 5.33 188.534 15:38 21.08.2019
3296 Rain 10 1017 93 0 6.78 198.028 15:18 21.08.2019
3297 Rain 10 1017 93 0 6.78 198.028 14:54 21.08.2019
3298 Rain 10 1017 93 0 6.78 198.028 14:36 21.08.2019
3299 Rain 10 1017 93 0 6.78 198.028 14:18 21.08.2019
3300 Rain 10 1017 93 0 6.78 198.028 14:18 21.08.2019
3301 Rain 10 1017 93 0 6.78 198.028 13:42 21.08.2019
3302 Clouds 11 1017 87 0 6.08 208.936 13:20 21.08.2019
3303 Clouds 11 1017 87 0 6.08 208.936 12:57 21.08.2019
3304 Clouds 11 1017 87 0 6.08 208.936 12:39 21.08.2019
3305 Clouds 12 1018 77 0 5.4 211.525 12:19 21.08.2019
3306 Clouds 12 1018 77 0 5.4 211.525 11:44 21.08.2019
3307 Clouds 12 1018 77 0 5.4 211.525 11:24 21.08.2019
3308 Clouds 12 1018 77 0 5.4 211.525 10:58 21.08.2019
3309 Clouds 12 1018 77 0 5.4 211.525 10:40 21.08.2019
3310 Clouds 12 1018 77 0 5.4 211.525 10:21 21.08.2019
3311 Clouds 12 1018 77 0 5.4 211.525 09:58 21.08.2019
3312 Clouds 12 1018 77 0 5.4 211.525 09:40 21.08.2019
3313 Clouds 11 1019 77 0 6.19 190.786 09:21 21.08.2019
3314 Clouds 11 1019 77 0 6.19 190.786 08:50 21.08.2019
3315 Clouds 11 1019 77 0 6.19 190.786 08:26 21.08.2019
3316 Clouds 11 1019 77 0 6.19 190.786 07:46 21.08.2019
3317 Clouds 11 1019 77 0 6.19 190.786 07:26 21.08.2019
3318 Clouds 11 1019 77 0 6.19 190.786 06:59 21.08.2019
3319 Clouds 11 1019 77 0 6.19 190.786 06:41 21.08.2019
3320 Clouds 10 1020 79 0 7.25 180.956 06:18 21.08.2019
3321 Clouds 10 1020 79 0 7.25 180.956 05:29 21.08.2019
3322 Clouds 10 1020 79 0 7.25 180.956 04:42 21.08.2019
3323 Clouds 10 1021 79 0 6.87 179.591 02:44 21.08.2019
3324 Clouds 10 1021 79 0 6.87 179.591 01:34 21.08.2019
3325 Clouds 11 1021 79 0 6.99 179.016 00:42 21.08.2019
3326 Clouds 11 1022 75 0 6.17 181.216 00:21 21.08.2019
3327 Clouds 11 1022 75 0 6.17 181.216 23:45 20.08.2019
3328 Clouds 11 1022 75 0 6.17 181.216 23:20 20.08.2019
3329 Clouds 11 1022 75 0 6.17 181.216 22:59 20.08.2019
3330 Clouds 11 1022 75 0 6.17 181.216 22:40 20.08.2019
3331 Clouds 11 1022 75 0 6.17 181.216 22:22 20.08.2019
3332 Clouds 11 1022 75 0 6.17 181.216 21:58 20.08.2019
3333 Clear 11 1023 76 0 6 178.128 21:39 20.08.2019
3334 Clear 12 1023 79 0 6.31 149.776 21:20 20.08.2019
3335 Clear 12 1023 79 0 6.31 149.776 20:59 20.08.2019
3336 Clear 12 1023 79 0 6.31 149.776 20:59 20.08.2019
3337 Clear 12 1023 79 0 6.31 149.776 20:41 20.08.2019
3338 Clear 12 1023 79 0 6.31 149.776 20:22 20.08.2019
3339 Clear 12 1023 79 0 6.31 149.776 19:40 20.08.2019
3340 Clear 12 1023 79 0 6.31 149.776 19:22 20.08.2019
3341 Clear 12 1023 79 0 6.31 149.776 18:57 20.08.2019
3342 Clear 12 1023 79 0 6.31 149.776 18:39 20.08.2019
3343 Clear 12 1024 76 0 4.17 134.708 18:19 20.08.2019
3344 Clear 12 1024 76 0 4.17 134.708 17:57 20.08.2019
3345 Clear 12 1024 76 0 4.17 134.708 17:38 20.08.2019
3346 Clear 12 1024 76 0 4.17 134.708 17:19 20.08.2019
3347 Clear 12 1024 76 0 4.17 134.708 16:45 20.08.2019
3348 Clear 12 1024 76 0 4.17 134.708 16:26 20.08.2019
3349 Clear 12 1024 76 0 4.17 134.708 15:56 20.08.2019
3350 Clear 12 1024 76 0 4.17 134.708 15:38 20.08.2019
3351 Clear 11 1025 77 0 6.75 120.659 15:18 20.08.2019
3352 Clear 11 1025 77 0 6.75 120.659 14:43 20.08.2019
3353 Clear 11 1025 77 0 6.75 120.659 14:22 20.08.2019
3354 Clear 11 1025 77 0 6.75 120.659 14:22 20.08.2019
3355 Clear 11 1025 77 0 6.75 120.659 13:57 20.08.2019
3356 Clear 11 1025 77 0 6.75 120.659 13:38 20.08.2019
3357 Clear 11 1025 80 0 6.89 119.336 13:20 20.08.2019
3358 Clear 11 1025 80 0 6.89 119.336 12:51 20.08.2019
3359 Clear 11 1025 80 0 6.89 119.336 12:30 20.08.2019
3360 Clear 11 1025 80 0 6.69 111.555 11:59 20.08.2019
3361 Clear 11 1025 80 0 6.69 111.555 11:40 20.08.2019
3362 Clear 11 1025 80 0 6.69 111.555 11:20 20.08.2019
3363 Clear 11 1025 80 0 6.69 111.555 10:57 20.08.2019
3364 Clear 11 1025 80 0 6.69 111.555 10:38 20.08.2019
3365 Clear 11 1025 80 0 6.69 111.555 10:20 20.08.2019
3366 Clear 11 1025 80 0 6.69 111.555 09:44 20.08.2019
3367 Clear 10 1026 81 0 4.23 126.428 09:25 20.08.2019
3368 Clear 10 1026 81 0 4.23 126.428 08:58 20.08.2019
3369 Clear 10 1026 81 0 4.23 126.428 08:40 20.08.2019
3370 Clear 10 1026 81 0 4.23 126.428 08:21 20.08.2019
3371 Clear 10 1026 81 0 4.23 126.428 07:57 20.08.2019
3372 Clear 10 1026 81 0 4.23 126.428 07:37 20.08.2019
3373 Clear 10 1026 81 0 4.23 126.428 07:18 20.08.2019
3374 Clear 10 1026 81 0 4.23 126.428 07:18 20.08.2019
3375 Clear 10 1026 81 0 4.23 126.428 06:28 20.08.2019
3376 Clear 9 1027 83 0 2.82 164.23 05:58 20.08.2019
3377 Clear 9 1027 83 0 2.82 164.23 05:38 20.08.2019
3378 Clear 9 1027 83 0 2.82 164.23 04:21 20.08.2019
3379 Clear 9 1027 85 0 3.56 195.406 02:46 20.08.2019
3380 Clear 9 1027 85 0 3.56 195.406 01:45 20.08.2019
3381 Clear 9 1027 85 0 3.42 189.402 01:19 20.08.2019
3382 Clear 9 1027 85 0 3.42 189.402 00:43 20.08.2019
3383 Clear 10 1027 82 0 3.25 188.642 00:21 20.08.2019
3384 Clear 10 1027 82 0 3.25 188.642 23:40 19.08.2019
3385 Clear 10 1027 82 0 3.25 188.642 23:18 19.08.2019
3386 Clear 10 1027 82 0 3.25 188.642 22:57 19.08.2019
3387 Clear 10 1027 82 0 3.25 188.642 22:39 19.08.2019
3388 Clear 10 1027 82 0 3.25 188.642 22:18 19.08.2019
3389 Clear 10 1027 82 0 3.25 188.642 21:56 19.08.2019
3390 Clear 9 1027 83 0 2.4 193.863 21:37 19.08.2019
3391 Clear 9 1027 83 0 2.4 193.863 21:37 19.08.2019
3392 Clear 9 1027 82 0 3.07 213.55 21:18 19.08.2019
3393 Clear 9 1027 82 0 3.07 213.55 20:40 19.08.2019
3394 Clear 9 1027 82 0 3.07 213.55 20:40 19.08.2019
3395 Clear 9 1027 82 0 3.07 213.55 20:40 19.08.2019
3396 Clear 9 1027 82 0 3.07 213.55 20:20 19.08.2019
3397 Clear 9 1027 82 0 3.07 213.55 19:59 19.08.2019
3398 Clear 9 1027 82 0 3.07 213.55 19:40 19.08.2019
3399 Clear 9 1027 82 0 3.07 213.55 19:19 19.08.2019
3400 Clear 9 1027 82 0 3.07 213.55 18:47 19.08.2019
3401 Clear 9 1027 82 0 3.07 213.55 18:29 19.08.2019
3402 Clear 10 1027 82 0 4.16 240.545 17:59 19.08.2019
3403 Clear 10 1027 82 0 4.16 240.545 17:41 19.08.2019
3404 Clear 10 1027 82 0 4.16 240.545 17:22 19.08.2019
3405 Clear 10 1027 82 0 4.16 240.545 16:58 19.08.2019
3406 Clear 10 1027 82 0 4.16 240.545 16:38 19.08.2019
3407 Clear 10 1027 82 0 4.16 240.545 16:19 19.08.2019
3408 Clear 10 1027 82 0 4.16 240.545 15:56 19.08.2019
3409 Clear 10 1027 82 0 4.16 240.545 15:37 19.08.2019
3410 Clouds 10 1027 82 0 5.88 244.981 15:18 19.08.2019
3411 Clouds 10 1027 82 0 5.88 244.981 14:43 19.08.2019
3412 Clouds 10 1027 82 0 5.88 244.981 14:23 19.08.2019
3413 Clouds 10 1027 82 0 5.88 244.981 13:57 19.08.2019
3414 Clouds 10 1027 82 0 5.88 244.981 13:38 19.08.2019
3415 Clear 10 1027 83 0 5.82 240.255 13:19 19.08.2019
3416 Clear 10 1027 83 0 5.82 240.255 12:56 19.08.2019
3417 Clear 10 1027 83 0 5.82 240.255 12:36 19.08.2019
3418 Clouds 9 1026 86 0 7.39 246.15 12:18 19.08.2019
3419 Clouds 9 1026 86 0 7.39 246.15 11:39 19.08.2019
3420 Clouds 9 1026 86 0 7.39 246.15 11:21 19.08.2019
3421 Clouds 9 1026 86 0 7.39 246.15 10:56 19.08.2019
3422 Clouds 9 1026 86 0 7.39 246.15 10:37 19.08.2019
3423 Clouds 9 1026 86 0 7.39 246.15 10:37 19.08.2019
3424 Clouds 9 1026 86 0 7.39 246.15 10:18 19.08.2019
3425 Clouds 9 1026 86 0 7.39 246.15 09:44 19.08.2019
3426 Clouds 8 1025 90 0 7.86 239.224 09:24 19.08.2019
3427 Clouds 8 1025 90 0 7.86 239.224 08:56 19.08.2019
3428 Clouds 8 1025 90 0 7.86 239.224 08:38 19.08.2019
3429 Clouds 8 1025 90 0 7.86 239.224 08:19 19.08.2019
3430 Clouds 8 1025 90 0 7.86 239.224 07:45 19.08.2019
3431 Clouds 8 1025 90 0 7.86 239.224 07:27 19.08.2019
3432 Clouds 8 1025 90 0 7.86 239.224 06:47 19.08.2019
3433 Clouds 8 1025 90 0 7.86 239.224 06:26 19.08.2019
3434 Clouds 8 1025 92 0 7.74 240.209 04:56 19.08.2019
3435 Clouds 8 1025 92 0 7.74 240.209 04:25 19.08.2019
3436 Clouds 8 1025 91 0 7.09 236.981 03:21 19.08.2019
3437 Clouds 8 1025 91 0 7.09 236.981 02:19 19.08.2019
3438 Clouds 8 1025 90 0 7.45 234.772 01:31 19.08.2019
3439 Clouds 8 1025 90 0 7.45 234.772 00:43 19.08.2019
3440 Clouds 8 1025 90 0 7.45 234.772 00:43 19.08.2019
3441 Clouds 8 1023 90 0 8.44 230.271 00:23 19.08.2019
3442 Clouds 8 1023 90 0 8.44 230.271 23:42 18.08.2019
3443 Clouds 8 1023 90 0 8.44 230.271 23:21 18.08.2019
3444 Clouds 8 1023 90 0 8.44 230.271 22:42 18.08.2019
3445 Clouds 8 1023 90 0 8.44 230.271 22:22 18.08.2019
3446 Clouds 8 1023 90 0 8.44 230.271 21:59 18.08.2019
3447 Clouds 8 1023 90 0 8.44 230.271 21:41 18.08.2019
3448 Clouds 7 1023 91 0 7.4 222.962 21:22 18.08.2019
3449 Clouds 7 1023 91 0 7.4 222.962 20:59 18.08.2019
3450 Clouds 7 1023 91 0 7.4 222.962 20:41 18.08.2019
3451 Clouds 7 1023 91 0 7.4 222.962 20:23 18.08.2019
3452 Clouds 7 1023 91 0 7.4 222.962 19:54 18.08.2019
3453 Clouds 7 1023 91 0 7.4 222.962 19:36 18.08.2019
3454 Clouds 7 1023 91 0 7.4 222.962 19:18 18.08.2019
3455 Clouds 7 1023 91 0 7.4 222.962 18:41 18.08.2019
3456 Clouds 7 1023 91 0 7.07 234.589 18:23 18.08.2019
3457 Clouds 7 1023 91 0 7.07 234.589 17:56 18.08.2019
3458 Clouds 7 1023 91 0 7.07 234.589 17:38 18.08.2019
3459 Clouds 7 1023 91 0 7.07 234.589 17:19 18.08.2019
3460 Clouds 7 1023 91 0 7.07 234.589 16:55 18.08.2019
3461 Clouds 7 1023 91 0 7.07 234.589 16:37 18.08.2019
3462 Clouds 7 1023 91 0 7.07 234.589 16:18 18.08.2019
3463 Clouds 7 1023 91 0 7.07 234.589 15:40 18.08.2019
3464 Clouds 7 1023 92 0 7.23 235.504 15:20 18.08.2019
3465 Clouds 7 1023 92 0 7.23 235.504 14:59 18.08.2019
3466 Clouds 7 1023 92 0 7.23 235.504 14:59 18.08.2019
3467 Clouds 7 1023 92 0 7.23 235.504 14:40 18.08.2019
3468 Clouds 7 1023 92 0 7.23 235.504 14:20 18.08.2019
3469 Clouds 7 1023 92 0 7.23 235.504 13:58 18.08.2019
3470 Clouds 7 1023 92 0 7.23 235.504 13:40 18.08.2019
3471 Clouds 7 1023 92 0 7.23 235.504 13:20 18.08.2019
3472 Clouds 7 1023 92 0 7.23 235.504 13:20 18.08.2019
3473 Clouds 7 1023 92 0 7.23 235.504 12:54 18.08.2019
3474 Clouds 7 1023 92 0 7.23 235.504 12:36 18.08.2019
3475 Clouds 7 1022 91 0 6.75 248.512 12:18 18.08.2019
3476 Clouds 7 1022 91 0 6.75 248.512 11:41 18.08.2019
3477 Clouds 7 1022 91 0 6.75 248.512 11:21 18.08.2019
3478 Clouds 7 1022 91 0 6.75 248.512 10:41 18.08.2019
3479 Clouds 7 1022 91 0 6.75 248.512 10:22 18.08.2019
3480 Clouds 7 1022 91 0 6.75 248.512 10:22 18.08.2019
3481 Clouds 7 1022 91 0 6.75 248.512 09:56 18.08.2019
3482 Clouds 7 1022 91 0 6.75 248.512 09:37 18.08.2019
3483 Clouds 7 1020 90 0 5.5 248.884 09:18 18.08.2019
3484 Clouds 7 1020 90 0 5.5 248.884 08:42 18.08.2019
3485 Clouds 7 1020 90 0 5.5 248.884 08:24 18.08.2019
3486 Clouds 7 1020 90 0 5.5 248.884 07:49 18.08.2019
3487 Clouds 7 1020 90 0 5.5 248.884 07:29 18.08.2019
3488 Clear 6 1020 92 0 6.25 258.499 05:50 18.08.2019
3489 Clear 6 1020 92 0 6.25 258.499 04:59 18.08.2019
3490 Clear 6 1020 92 0 6.25 258.499 03:46 18.08.2019
3491 Clouds 6 1019 91 0 5.09 267.074 02:50 18.08.2019
3492 Clouds 6 1019 91 0 5.09 267.074 02:26 18.08.2019
3493 Clouds 6 1019 91 0 5.09 267.074 01:48 18.08.2019
3494 Clear 6 1019 89 0 4.79 266.111 01:25 18.08.2019
3495 Clear 6 1019 89 0 4.79 266.111 01:25 18.08.2019
3496 Clear 6 1019 89 0 4.79 266.111 01:25 18.08.2019
3497 Clear 6 1019 89 0 4.79 266.111 00:40 18.08.2019
3498 Clear 6 1017 84 0 3.11 282.639 00:19 18.08.2019
3499 Clear 6 1017 84 0 3.11 282.639 23:57 17.08.2019
3500 Clear 6 1017 84 0 3.11 282.639 23:37 17.08.2019
3501 Clear 6 1017 84 0 3.11 282.639 23:19 17.08.2019
3502 Clear 6 1017 84 0 3.11 282.639 23:19 17.08.2019
3503 Clear 6 1017 84 0 3.11 282.639 22:56 17.08.2019
3504 Clear 6 1017 84 0 3.11 282.639 22:56 17.08.2019
3505 Clear 6 1017 84 0 3.11 282.639 22:38 17.08.2019
3506 Clear 6 1017 84 0 3.11 282.639 22:20 17.08.2019
3507 Clear 6 1017 84 0 3.11 282.639 21:43 17.08.2019
3508 Clouds 6 1015 86 0 6.27 307.122 21:24 17.08.2019
3509 Clouds 6 1015 86 0 6.27 307.122 20:57 17.08.2019
3510 Clouds 6 1015 86 0 6.27 307.122 20:36 17.08.2019
3511 Clouds 6 1015 86 0 6.27 307.122 20:18 17.08.2019
3512 Clouds 6 1015 86 0 6.27 307.122 19:43 17.08.2019
3513 Clouds 6 1015 86 0 6.27 307.122 19:24 17.08.2019
3514 Clouds 6 1015 86 0 6.27 307.122 18:55 17.08.2019
3515 Clouds 6 1015 86 0 6.27 307.122 18:37 17.08.2019
3516 Rain 5 1013 93 0 7.95 310.87 18:18 17.08.2019
3517 Rain 5 1013 93 0 7.95 310.87 17:42 17.08.2019
3518 Rain 5 1013 93 0 7.95 310.87 17:22 17.08.2019
3519 Rain 5 1013 93 0 7.95 310.87 16:56 17.08.2019
3520 Rain 5 1013 93 0 7.95 310.87 16:37 17.08.2019
3521 Rain 5 1013 93 0 7.95 310.87 16:19 17.08.2019
3522 Rain 5 1013 93 0 7.95 310.87 15:42 17.08.2019
3523 Rain 5 1011 94 0 11.17 309.925 15:22 17.08.2019
3524 Rain 5 1011 94 0 11.17 309.925 14:58 17.08.2019
3525 Rain 5 1011 94 0 11.17 309.925 14:39 17.08.2019
3526 Rain 5 1011 94 0 11.17 309.925 14:21 17.08.2019
3527 Rain 5 1011 94 0 11.17 309.925 13:45 17.08.2019
3528 Rain 5 1011 94 0 11.17 309.925 13:45 17.08.2019
3529 Rain 5 1012 95 0 11.25 315.36 13:20 17.08.2019
3530 Rain 5 1012 95 0 11.25 315.36 12:45 17.08.2019
3531 Rain 6 1008 96 0 11.75 314.648 12:20 17.08.2019
3532 Rain 6 1008 96 0 11.75 314.648 11:58 17.08.2019
3533 Rain 6 1008 96 0 11.75 314.648 11:38 17.08.2019
3534 Rain 6 1008 96 0 11.75 314.648 11:20 17.08.2019
3535 Rain 6 1008 96 0 11.75 314.648 10:42 17.08.2019
3536 Rain 6 1008 96 0 11.75 314.648 10:21 17.08.2019
3537 Rain 6 1008 96 0 11.75 314.648 09:57 17.08.2019
3538 Rain 6 1008 96 0 11.75 314.648 09:38 17.08.2019
3539 Clouds 6 1005 97 0 11.29 322.532 09:20 17.08.2019
3540 Clouds 6 1005 97 0 11.29 322.532 08:50 17.08.2019
3541 Clouds 6 1005 97 0 11.29 322.532 08:21 17.08.2019
3542 Clouds 6 1005 97 0 11.29 322.532 07:42 17.08.2019
3543 Clouds 6 1005 97 0 11.29 322.532 07:20 17.08.2019
3544 Rain 6 1002 98 0 6.63 323.889 06:25 17.08.2019
3545 Rain 6 1002 98 0 6.63 323.889 04:36 17.08.2019
3546 Rain 6 1002 98 0 6.63 323.889 04:18 17.08.2019
3547 Rain 8 1000 99 0 4.48 264.137 02:43 17.08.2019
3548 Rain 8 1000 99 0 4.48 264.137 01:39 17.08.2019
3549 Rain 8 1001 99 0 3.2 241.552 01:20 17.08.2019
3550 Rain 8 1001 99 0 3.2 241.552 00:46 17.08.2019
3551 Rain 8 1000 96 0 3.98 204.512 00:21 17.08.2019
3552 Rain 8 1000 96 0 3.98 204.512 23:44 16.08.2019
3553 Rain 8 1000 96 0 3.98 204.512 23:24 16.08.2019
3554 Rain 8 1000 96 0 3.98 204.512 22:43 16.08.2019
3555 Rain 8 1000 96 0 3.98 204.512 22:20 16.08.2019
3556 Rain 8 1000 96 0 3.98 204.512 21:58 16.08.2019
3557 Rain 8 1000 95 0 4.07 191.175 21:38 16.08.2019
3558 Rain 8 1001 99 0 5.29 148.144 21:18 16.08.2019
3559 Rain 8 1001 99 0 5.29 148.144 20:43 16.08.2019
3560 Rain 8 1001 99 0 5.29 148.144 20:20 16.08.2019
3561 Rain 8 1001 99 0 5.29 148.144 19:58 16.08.2019
3562 Rain 8 1001 99 0 5.29 148.144 19:39 16.08.2019
3563 Rain 8 1001 99 0 5.29 148.144 19:19 16.08.2019
3564 Rain 8 1001 99 0 5.29 148.144 18:42 16.08.2019
3565 Rain 8 1002 99 0 8.78 93.028 18:22 16.08.2019
3566 Rain 8 1002 99 0 8.78 93.028 17:48 16.08.2019
3567 Rain 8 1002 99 0 8.78 93.028 17:28 16.08.2019
3568 Rain 8 1002 99 0 8.78 93.028 16:58 16.08.2019
3569 Rain 8 1002 99 0 8.78 93.028 16:39 16.08.2019
3570 Rain 8 1002 99 0 8.78 93.028 16:18 16.08.2019
3571 Rain 8 1002 99 0 8.78 93.028 15:55 16.08.2019
3572 Rain 8 1002 99 0 8.78 93.028 15:37 16.08.2019
3573 Rain 8 1004 94 0 8.32 104.489 15:19 16.08.2019
3574 Rain 8 1004 94 0 8.32 104.489 14:56 16.08.2019
3575 Rain 8 1004 94 0 8.32 104.489 14:37 16.08.2019
3576 Rain 8 1004 94 0 8.32 104.489 14:18 16.08.2019
3577 Rain 8 1004 94 0 8.32 104.489 13:39 16.08.2019
3578 Rain 8 1004 95 0 8.45 110.448 13:20 16.08.2019
3579 Rain 8 1004 95 0 8.45 110.448 12:40 16.08.2019
3580 Rain 9 1006 90 0 8.18 109.312 12:21 16.08.2019
3581 Rain 9 1006 90 0 8.18 109.312 11:55 16.08.2019
3582 Rain 9 1006 90 0 8.18 109.312 11:37 16.08.2019
3583 Rain 9 1006 90 0 8.18 109.312 11:37 16.08.2019
3584 Rain 9 1006 90 0 8.18 109.312 11:18 16.08.2019
3585 Rain 9 1006 90 0 8.18 109.312 10:42 16.08.2019
3586 Rain 9 1006 90 0 8.18 109.312 10:20 16.08.2019
3587 Rain 9 1006 90 0 8.18 109.312 09:39 16.08.2019
3588 Clouds 9 1008 93 0 6.92 111.38 09:19 16.08.2019
3589 Clouds 9 1008 93 0 6.92 111.38 08:58 16.08.2019
3590 Clouds 9 1008 93 0 6.92 111.38 08:39 16.08.2019
3591 Clouds 9 1008 93 0 6.92 111.38 08:19 16.08.2019
3592 Clouds 9 1008 93 0 6.92 111.38 07:45 16.08.2019
3593 Clouds 9 1008 93 0 6.92 111.38 07:26 16.08.2019
3594 Clouds 9 1008 93 0 6.92 111.38 06:55 16.08.2019
3595 Clouds 8 1009 96 0 3.03 127.067 06:19 16.08.2019
3596 Clouds 8 1009 96 0 3.03 127.067 05:34 16.08.2019
3597 Clouds 8 1010 94 0 4.33 193.773 03:20 16.08.2019
3598 Clouds 8 1010 94 0 4.33 193.773 01:52 16.08.2019
3599 Clear 8 1010 92 0 3.84 191.728 01:25 16.08.2019
3600 Clear 8 1010 92 0 3.84 191.728 00:50 16.08.2019
3601 Clear 8 1010 91 0 4.53 203.242 00:24 16.08.2019
3602 Clear 8 1010 91 0 4.53 203.242 23:57 15.08.2019
3603 Clear 8 1010 91 0 4.53 203.242 23:39 15.08.2019
3604 Clear 8 1010 91 0 4.53 203.242 23:18 15.08.2019
3605 Clear 8 1010 91 0 4.53 203.242 22:41 15.08.2019
3606 Clear 8 1010 91 0 4.53 203.242 22:23 15.08.2019
3607 Clear 8 1010 91 0 4.53 203.242 21:58 15.08.2019
3608 Clear 8 1010 91 0 4.2 194.807 21:39 15.08.2019
3609 Clear 8 1010 91 0 4.2 194.807 21:39 15.08.2019
3610 Clouds 8 1011 87 0 4.66 210.603 21:19 15.08.2019
3611 Clouds 8 1011 87 0 4.66 210.603 20:58 15.08.2019
3612 Clouds 8 1011 87 0 4.66 210.603 20:40 15.08.2019
3613 Clouds 8 1011 87 0 4.66 210.603 20:20 15.08.2019
3614 Clouds 8 1011 87 0 4.66 210.603 19:40 15.08.2019
3615 Clouds 8 1011 87 0 4.66 210.603 19:22 15.08.2019
3616 Clouds 8 1011 87 0 4.66 210.603 18:59 15.08.2019
3617 Clouds 8 1011 87 0 4.66 210.603 18:41 15.08.2019
3618 Clouds 9 1010 86 0 4.96 232.363 18:21 15.08.2019
3619 Clouds 9 1010 86 0 4.96 232.363 17:54 15.08.2019
3620 Clouds 9 1010 86 0 4.96 232.363 17:36 15.08.2019
3621 Clouds 9 1010 86 0 4.96 232.363 17:36 15.08.2019
3622 Clouds 9 1010 86 0 4.96 232.363 17:18 15.08.2019
3623 Clouds 9 1010 86 0 4.96 232.363 16:43 15.08.2019
3624 Clouds 9 1010 86 0 4.96 232.363 16:24 15.08.2019
3625 Clouds 9 1010 86 0 4.96 232.363 15:56 15.08.2019
3626 Clouds 9 1010 86 0 4.96 232.363 15:37 15.08.2019
3627 Clouds 9 1010 81 0 5.74 246.366 15:18 15.08.2019
3628 Clouds 9 1010 81 0 5.74 246.366 14:42 15.08.2019
3629 Clouds 9 1010 81 0 5.74 246.366 14:23 15.08.2019
3630 Clouds 9 1010 81 0 5.74 246.366 13:57 15.08.2019
3631 Clouds 9 1010 81 0 5.74 246.366 13:39 15.08.2019
3632 Clouds 9 1011 87 0 5.62 239.978 13:20 15.08.2019
3633 Clouds 9 1011 87 0 5.62 239.978 12:56 15.08.2019
3634 Clouds 9 1011 87 0 5.62 239.978 12:37 15.08.2019
3635 Clouds 8 1010 88 0 1.63 228.533 12:18 15.08.2019
3636 Clouds 8 1010 88 0 1.63 228.533 11:40 15.08.2019
3637 Clouds 8 1010 88 0 1.63 228.533 11:21 15.08.2019
3638 Clouds 8 1010 88 0 1.63 228.533 10:59 15.08.2019
3639 Clouds 8 1010 88 0 1.63 228.533 10:38 15.08.2019
3640 Clouds 8 1010 88 0 1.63 228.533 10:38 15.08.2019
3641 Clouds 8 1010 88 0 1.63 228.533 10:20 15.08.2019
3642 Clouds 8 1010 88 0 1.63 228.533 09:45 15.08.2019
3643 Clouds 8 1009 96 0 1.63 192.361 09:24 15.08.2019
3644 Clouds 8 1009 96 0 1.63 192.361 08:56 15.08.2019
3645 Clouds 8 1009 96 0 1.63 192.361 08:37 15.08.2019
3646 Clouds 8 1009 96 0 1.63 192.361 08:18 15.08.2019
3647 Clouds 8 1009 96 0 1.63 192.361 07:42 15.08.2019
3648 Clouds 8 1009 96 0 1.63 192.361 07:23 15.08.2019
3649 Clouds 8 1009 96 0 1.63 192.361 07:23 15.08.2019
3650 Clouds 8 1009 96 0 1.63 192.361 06:53 15.08.2019
3651 Clouds 8 1009 96 0 1.63 192.361 06:32 15.08.2019
3652 Clouds 7 1010 97 0 1.76 204.595 05:44 15.08.2019
3653 Clouds 7 1010 97 0 1.76 204.595 05:25 15.08.2019
3654 Clouds 7 1010 97 0 1.76 204.595 04:34 15.08.2019
3655 Clouds 7 1010 97 0 1.76 204.595 03:39 15.08.2019
3656 Clouds 7 1010 98 0 2.67 203.873 02:44 15.08.2019
3657 Clouds 7 1010 98 0 2.67 203.873 01:52 15.08.2019
3658 Clouds 7 1010 99 0 1.13 183.872 01:30 15.08.2019
3659 Clouds 7 1010 99 0 1.13 183.872 00:41 15.08.2019
3660 Clouds 7 1010 98 0 1.63 219.815 00:21 15.08.2019
3661 Clouds 7 1010 98 0 1.63 219.815 23:57 14.08.2019
3662 Clouds 7 1010 98 0 1.63 219.815 23:37 14.08.2019
3663 Clouds 7 1010 98 0 1.63 219.815 23:19 14.08.2019
3664 Clouds 7 1010 98 0 1.63 219.815 23:19 14.08.2019
3665 Clouds 7 1010 98 0 1.63 219.815 22:56 14.08.2019
3666 Clouds 7 1010 98 0 1.63 219.815 22:38 14.08.2019
3667 Clouds 7 1010 98 0 1.63 219.815 22:19 14.08.2019
3668 Clouds 7 1010 98 0 1.63 219.815 21:55 14.08.2019
3669 Clouds 7 1010 97 0 2.69 220.807 21:36 14.08.2019
3670 Rain 7 1011 96 0 2.93 217.312 21:18 14.08.2019
3671 Rain 7 1011 96 0 2.93 217.312 20:41 14.08.2019
3672 Rain 7 1011 96 0 2.93 217.312 20:21 14.08.2019
3673 Rain 7 1011 96 0 2.93 217.312 19:56 14.08.2019
3674 Rain 7 1011 96 0 2.93 217.312 19:37 14.08.2019
3675 Rain 7 1011 96 0 2.93 217.312 19:18 14.08.2019
3676 Rain 7 1011 96 0 2.93 217.312 18:56 14.08.2019
3677 Rain 7 1011 96 0 2.93 217.312 18:38 14.08.2019
3678 Rain 7 1012 95 0 3.82 147.836 18:19 14.08.2019
3679 Rain 7 1012 95 0 3.82 147.836 17:55 14.08.2019
3680 Rain 7 1012 95 0 3.82 147.836 17:36 14.08.2019
3681 Rain 7 1012 95 0 3.82 147.836 17:18 14.08.2019
3682 Rain 7 1012 95 0 3.82 147.836 16:41 14.08.2019
3683 Rain 7 1012 95 0 3.82 147.836 16:20 14.08.2019
3684 Rain 7 1012 95 0 3.82 147.836 15:44 14.08.2019
3685 Rain 7 1012 95 0 3.82 147.836 15:44 14.08.2019
3686 Rain 7 1013 93 0 5.67 141.233 15:22 14.08.2019
3687 Rain 7 1013 93 0 5.67 141.233 14:59 14.08.2019
3688 Rain 7 1013 93 0 5.67 141.233 14:39 14.08.2019
3689 Rain 7 1013 93 0 5.67 141.233 14:19 14.08.2019
3690 Rain 7 1013 93 0 5.67 141.233 13:55 14.08.2019
3691 Rain 7 1013 93 0 5.67 141.233 13:37 14.08.2019
3692 Rain 7 1013 95 0 5.59 141.319 13:18 14.08.2019
3693 Rain 7 1013 95 0 5.59 141.319 12:55 14.08.2019
3694 Rain 7 1013 95 0 5.59 141.319 12:36 14.08.2019
3695 Clouds 9 1014 72 0 7.11 144.728 12:18 14.08.2019
3696 Clouds 9 1014 72 0 7.11 144.728 11:45 14.08.2019
3697 Clouds 9 1014 72 0 7.11 144.728 11:23 14.08.2019
3698 Clouds 9 1014 72 0 7.11 144.728 10:54 14.08.2019
3699 Clouds 9 1014 72 0 7.11 144.728 10:36 14.08.2019
3700 Clouds 9 1014 72 0 7.11 144.728 10:18 14.08.2019
3701 Clouds 9 1014 72 0 7.11 144.728 09:41 14.08.2019
3702 Clouds 8 1016 68 0 4.01 119.003 09:20 14.08.2019
3703 Clouds 8 1016 69 0 2.97 114.086 08:43 14.08.2019
3704 Clouds 8 1016 69 0 2.97 114.086 08:25 14.08.2019
3705 Clouds 8 1016 69 0 2.97 114.086 07:56 14.08.2019
3706 Clouds 8 1016 69 0 2.97 114.086 07:35 14.08.2019
3707 Clouds 8 1016 69 0 2.97 114.086 06:50 14.08.2019
3708 Clouds 8 1016 69 0 2.97 114.086 06:28 14.08.2019
3709 Clouds 7 1017 68 0 2.99 188.206 05:32 14.08.2019
3710 Clouds 7 1017 68 0 2.99 188.206 03:52 14.08.2019
3711 Clouds 8 1018 76 0 4.63 211.978 02:37 14.08.2019
3712 Clouds 8 1018 76 0 4.63 211.978 01:59 14.08.2019
3713 Clouds 8 1017 78 0 4.64 209.828 01:30 14.08.2019
3714 Clouds 8 1017 78 0 4.64 209.828 00:31 14.08.2019
3715 Clouds 8 1018 76 0 5.68 203.474 23:43 13.08.2019
3716 Clouds 8 1018 76 0 5.68 203.474 23:20 13.08.2019
3717 Clouds 8 1018 76 0 5.68 203.474 22:56 13.08.2019
3718 Clouds 8 1018 76 0 5.68 203.474 22:38 13.08.2019
3719 Clouds 8 1018 76 0 5.68 203.474 22:19 13.08.2019
3720 Clouds 8 1018 76 0 5.68 203.474 21:55 13.08.2019
3721 Clouds 8 1018 76 0 5.68 203.474 21:36 13.08.2019
3722 Clear 8 1018 77 0 5.64 217.079 21:18 13.08.2019
3723 Clear 8 1018 77 0 5.64 217.079 20:42 13.08.2019
3724 Clear 8 1018 77 0 5.64 217.079 20:20 13.08.2019
3725 Clear 8 1018 77 0 5.64 217.079 19:56 13.08.2019
3726 Clear 8 1018 77 0 5.64 217.079 19:38 13.08.2019
3727 Clear 8 1018 77 0 5.64 217.079 19:19 13.08.2019
3728 Clear 8 1018 77 0 5.64 217.079 18:41 13.08.2019
3729 Clear 8 1018 78 0 6.91 229.36 18:22 13.08.2019
3730 Clear 8 1018 78 0 6.91 229.36 17:54 13.08.2019
3731 Clear 8 1018 78 0 6.91 229.36 17:36 13.08.2019
3732 Clear 8 1018 78 0 6.91 229.36 17:18 13.08.2019
3733 -273 0 0 0 0 0 16:54 13.08.2019
3734 -273 0 0 0 0 0 16:54 13.08.2019
3735 Clear 8 1018 78 0 6.91 229.36 16:36 13.08.2019
3736 Clear 8 1018 78 0 6.91 229.36 16:18 13.08.2019
3737 Clear 8 1018 78 0 6.91 229.36 15:38 13.08.2019
3738 Clear 8 1018 78 0 8.31 238.075 15:20 13.08.2019
3739 Clear 8 1018 78 0 8.31 238.075 14:47 13.08.2019
3740 Clear 8 1018 78 0 8.31 238.075 14:20 13.08.2019
3741 Clear 8 1018 78 0 8.31 238.075 13:59 13.08.2019
3742 Clear 8 1018 78 0 8.31 238.075 13:59 13.08.2019
3743 Clear 8 1018 78 0 8.31 238.075 13:40 13.08.2019
3744 Clear 8 1018 78 0 8.2 237.878 13:20 13.08.2019
3745 Clear 8 1018 78 0 8.2 237.878 12:57 13.08.2019
3746 Clear 8 1018 78 0 8.2 237.878 12:39 13.08.2019
3747 Clear 7 1018 81 0 10.03 236.527 12:20 13.08.2019
3748 Clear 7 1018 81 0 10.03 236.527 11:42 13.08.2019
3749 Clear 7 1018 81 0 10.03 236.527 11:22 13.08.2019
3750 Clear 7 1018 81 0 10.03 236.527 10:58 13.08.2019
3751 Clear 7 1018 81 0 10.03 236.527 10:38 13.08.2019
3752 Clear 7 1018 81 0 10.03 236.527 10:19 13.08.2019
3753 Clear 7 1018 81 0 10.03 236.527 10:19 13.08.2019
3754 Clear 7 1018 81 0 10.03 236.527 09:46 13.08.2019
3755 Clouds 6 1017 78 0 10.85 225.568 09:25 13.08.2019
3756 Clouds 6 1017 78 0 10.85 225.568 08:57 13.08.2019
3757 Clouds 6 1017 78 0 10.85 225.568 08:39 13.08.2019
3758 Clouds 6 1017 78 0 10.85 225.568 08:20 13.08.2019
3759 Clouds 6 1017 78 0 10.85 225.568 07:45 13.08.2019
3760 Clouds 6 1017 78 0 10.85 225.568 07:23 13.08.2019
3761 Clouds 6 1017 78 0 10.85 225.568 06:44 13.08.2019
3762 Clouds 4 1018 81 0 8.11 204.636 05:58 13.08.2019
3763 Clouds 4 1018 81 0 8.11 204.636 05:20 13.08.2019
3764 Clear 3 1018 81 0 5.52 222.732 02:22 13.08.2019
3765 Clear 3 1018 81 0 5.52 222.732 01:38 13.08.2019
3766 Clear 3 1018 81 0 5.34 225.728 00:49 13.08.2019
3767 Clear 4 1018 79 0 4.27 229.744 00:22 13.08.2019
3768 Clear 4 1018 79 0 4.27 229.744 23:43 12.08.2019
3769 Clear 4 1018 79 0 4.27 229.744 23:21 12.08.2019
3770 Clear 4 1018 79 0 4.27 229.744 22:54 12.08.2019
3771 Clear 4 1018 79 0 4.27 229.744 22:36 12.08.2019
3772 Clear 4 1018 79 0 4.27 229.744 22:18 12.08.2019
3773 Clear 4 1018 79 0 4.27 229.744 21:54 12.08.2019
3774 Clear 4 1018 79 0 4.27 229.744 21:36 12.08.2019
3775 Clear 4 1018 79 0 4.27 229.744 21:36 12.08.2019
3776 Clear 4 1018 79 0 4.27 229.744 21:36 12.08.2019
3777 Clear 4 1017 79 0 2.56 265.071 21:18 12.08.2019
3778 Clear 4 1017 79 0 2.56 265.071 20:41 12.08.2019
3779 Clear 4 1017 79 0 2.56 265.071 20:21 12.08.2019
3780 Clear 4 1017 79 0 2.56 265.071 19:58 12.08.2019
3781 Clear 4 1017 79 0 2.56 265.071 19:39 12.08.2019
3782 Clear 4 1017 79 0 2.56 265.071 19:20 12.08.2019
3783 Clear 4 1017 79 0 2.56 265.071 18:58 12.08.2019
3784 Clear 4 1017 79 0 2.56 265.071 18:39 12.08.2019
3785 Clear 4 1017 76 0 2.48 266.669 18:20 12.08.2019
3786 Clear 4 1017 76 0 2.48 266.669 17:48 12.08.2019
3787 Clear 4 1017 76 0 2.48 266.669 17:29 12.08.2019
3788 Clear 4 1017 76 0 2.48 266.669 16:58 12.08.2019
3789 Clear 4 1017 76 0 2.48 266.669 16:39 12.08.2019
3790 Clear 4 1017 76 0 2.48 266.669 16:20 12.08.2019
3791 Clear 4 1017 76 0 2.48 266.669 16:20 12.08.2019
3792 Clear 4 1017 76 0 2.48 266.669 15:59 12.08.2019
3793 Clear 4 1017 76 0 2.48 266.669 15:41 12.08.2019
3794 Clear 4 1017 76 0 2.48 266.669 15:41 12.08.2019
3795 Clear 4 1017 76 0 1.86 319.519 15:21 12.08.2019
3796 Clear 4 1017 76 0 1.86 319.519 14:58 12.08.2019
3797 Clear 4 1017 76 0 1.86 319.519 14:39 12.08.2019
3798 Clear 4 1017 76 0 1.86 319.519 14:39 12.08.2019
3799 Clear 4 1017 76 0 1.86 319.519 14:20 12.08.2019
3800 Clear 4 1017 76 0 1.86 319.519 14:20 12.08.2019
3801 Clear 4 1017 76 0 1.86 319.519 13:54 12.08.2019
3802 Clear 4 1017 76 0 1.86 319.519 13:36 12.08.2019
3803 Clear 4 1016 79 0 3.14 322.484 13:18 12.08.2019
3804 Clear 4 1016 79 0 3.14 322.484 12:41 12.08.2019
3805 Clear 4 1015 77 0 4.85 320.726 12:19 12.08.2019
3806 Clear 4 1015 77 0 4.85 320.726 11:43 12.08.2019
3807 Clear 4 1015 77 0 4.85 320.726 11:25 12.08.2019
3808 Clear 4 1015 77 0 4.85 320.726 10:54 12.08.2019
3809 Clear 4 1015 77 0 4.85 320.726 10:36 12.08.2019
3810 Clear 4 1015 77 0 4.85 320.726 10:18 12.08.2019
3811 Clear 4 1015 77 0 4.85 320.726 09:42 12.08.2019
3812 Clear 3 1014 78 0 5.72 301.802 09:20 12.08.2019
3813 Clear 3 1014 78 0 5.72 301.802 08:58 12.08.2019
3814 Clear 3 1014 78 0 5.72 301.802 08:39 12.08.2019
3815 Clear 3 1014 78 0 5.72 301.802 08:21 12.08.2019
3816 Clear 3 1014 78 0 5.72 301.802 07:53 12.08.2019
3817 Clear 3 1014 78 0 5.72 301.802 07:33 12.08.2019
3818 Clear 3 1014 78 0 5.72 301.802 06:52 12.08.2019
3819 Clear 3 1014 81 0 5.23 305.12 05:41 12.08.2019
3820 Clear 4 1014 81 0 4.21 302.743 02:45 12.08.2019
3821 Clear 4 1014 81 0 4.21 302.743 01:55 12.08.2019
3822 Clear 4 1014 81 0 4.21 302.743 01:22 12.08.2019
3823 Clear 4 1014 81 0 4.21 302.743 00:58 12.08.2019
3824 Clear 4 1014 81 0 4.21 302.743 00:39 12.08.2019
3825 Clear 4 1013 80 0 4.37 300.054 00:20 12.08.2019
3826 Clear 4 1013 80 0 4.37 300.054 23:56 11.08.2019
3827 Clear 4 1013 80 0 4.37 300.054 23:37 11.08.2019
3828 Clear 4 1013 80 0 4.37 300.054 23:18 11.08.2019
3829 Clear 4 1013 80 0 4.37 300.054 22:40 11.08.2019
3830 Clear 4 1013 80 0 4.37 300.054 22:20 11.08.2019
3831 Clear 4 1013 80 0 4.37 300.054 21:59 11.08.2019
3832 Clear 4 1013 80 0 4.37 300.054 21:41 11.08.2019
3833 Clouds 5 1013 79 0 4.41 270.338 21:22 11.08.2019
3834 Clouds 5 1013 81 0 2.81 257.921 20:58 11.08.2019
3835 Clouds 5 1013 81 0 2.81 257.921 20:40 11.08.2019
3836 Clouds 5 1013 81 0 2.81 257.921 20:22 11.08.2019
3837 Clouds 5 1013 81 0 2.81 257.921 19:45 11.08.2019
3838 Clouds 5 1013 81 0 2.81 257.921 19:20 11.08.2019
3839 Clouds 5 1013 81 0 2.81 257.921 18:54 11.08.2019
3840 Clouds 5 1013 81 0 2.81 257.921 18:36 11.08.2019
3841 Clouds 5 1012 84 0 3 274.419 18:18 11.08.2019
3842 Clouds 5 1012 84 0 3 274.419 17:41 11.08.2019
3843 Clouds 5 1012 84 0 3 274.419 17:20 11.08.2019
3844 Clouds 5 1012 84 0 3 274.419 16:57 11.08.2019
3845 Clouds 5 1012 84 0 3 274.419 16:38 11.08.2019
3846 Clouds 5 1012 84 0 3 274.419 16:20 11.08.2019
3847 Clouds 5 1012 84 0 3 274.419 15:44 11.08.2019
3848 Clouds 5 1012 84 0 3 274.419 15:44 11.08.2019
3849 Clouds 5 1012 87 0 3.51 300.142 15:25 11.08.2019
3850 Clouds 5 1012 87 0 3.51 300.142 14:59 11.08.2019
3851 Clouds 5 1012 87 0 3.51 300.142 14:39 11.08.2019
3852 Clouds 5 1012 87 0 3.51 300.142 14:21 11.08.2019
3853 Clouds 5 1012 87 0 3.51 300.142 13:45 11.08.2019
3854 Clouds 4 1012 88 0 3.76 290.244 13:26 11.08.2019
3855 Clouds 4 1012 88 0 3.76 290.244 12:57 11.08.2019
3856 Clouds 4 1012 88 0 3.76 290.244 12:37 11.08.2019
3857 Clouds 5 1010 84 0 4.92 267.74 12:19 11.08.2019
3858 Clouds 5 1010 84 0 4.92 267.74 11:40 11.08.2019
3859 Clouds 5 1010 84 0 4.92 267.74 11:22 11.08.2019
3860 Clouds 5 1010 84 0 4.92 267.74 10:56 11.08.2019
3861 Clouds 5 1010 84 0 4.92 267.74 10:56 11.08.2019
3862 Clouds 5 1010 84 0 4.92 267.74 10:37 11.08.2019
3863 Clouds 5 1010 84 0 4.92 267.74 10:37 11.08.2019
3864 Clouds 5 1010 84 0 4.92 267.74 10:19 11.08.2019
3865 Clouds 5 1010 84 0 4.92 267.74 09:43 11.08.2019
3866 Clouds 5 1010 86 0 6.95 240.113 09:24 11.08.2019
3867 Clouds 5 1010 86 0 6.54 242.694 08:56 11.08.2019
3868 Clouds 5 1010 86 0 6.54 242.694 08:36 11.08.2019
3869 Clouds 5 1010 86 0 6.54 242.694 08:18 11.08.2019
3870 Clouds 5 1010 86 0 6.54 242.694 07:32 11.08.2019
3871 Clouds 5 1010 86 0 6.54 242.694 06:51 11.08.2019
3872 Clouds 5 1010 86 0 6.54 242.694 06:31 11.08.2019
3873 Clouds 5 1008 90 0 7.59 250.211 04:44 11.08.2019
3874 Rain 5 1008 89 0 8 255.243 02:50 11.08.2019
3875 Rain 5 1008 89 0 8 255.243 01:57 11.08.2019
3876 Rain 5 1008 88 0 8.3 258.024 01:31 11.08.2019
3877 Rain 5 1008 88 0 8.3 258.024 00:56 11.08.2019
3878 Rain 5 1008 88 0 8.3 258.024 00:35 11.08.2019
3879 Rain 5 1006 92 0 8.56 254.019 23:50 10.08.2019
3880 Rain 5 1006 92 0 8.56 254.019 23:50 10.08.2019
3881 Rain 5 1006 92 0 8.56 254.019 23:30 10.08.2019
3882 Rain 5 1006 92 0 8.56 254.019 22:56 10.08.2019
3883 Rain 5 1006 92 0 8.56 254.019 22:36 10.08.2019
3884 Rain 5 1006 92 0 8.56 254.019 22:18 10.08.2019
3885 Rain 5 1006 92 0 8.56 254.019 21:40 10.08.2019
3886 Clouds 5 1006 93 0 9.59 235.423 21:21 10.08.2019
3887 Clouds 5 1006 93 0 9.59 235.423 21:21 10.08.2019
3888 Clouds 5 1006 93 0 9.32 231.95 20:58 10.08.2019
3889 Clouds 5 1006 93 0 9.32 231.95 20:39 10.08.2019
3890 Clouds 5 1006 93 0 9.32 231.95 20:20 10.08.2019
3891 Clouds 5 1006 93 0 9.32 231.95 19:44 10.08.2019
3892 Clouds 5 1006 93 0 9.32 231.95 19:25 10.08.2019
3893 Clouds 5 1006 93 0 9.32 231.95 19:25 10.08.2019
3894 Clouds 5 1006 93 0 9.32 231.95 18:46 10.08.2019
3895 Clouds 5 1006 93 0 9.32 231.95 18:26 10.08.2019
3896 Clouds 5 1005 93 0 8.96 231.523 17:57 10.08.2019
3897 Clouds 5 1005 93 0 8.96 231.523 17:39 10.08.2019
3898 Clouds 5 1005 93 0 8.96 231.523 17:21 10.08.2019
3899 Clouds 5 1005 93 0 8.96 231.523 16:43 10.08.2019
3900 Clouds 5 1005 93 0 8.96 231.523 16:25 10.08.2019
3901 Clouds 5 1005 93 0 8.96 231.523 15:49 10.08.2019
3902 Clouds 5 1005 93 0 8.94 229.784 15:22 10.08.2019
3903 Clouds 5 1005 93 0 8.94 229.784 14:44 10.08.2019
3904 Clouds 5 1005 93 0 8.94 229.784 14:44 10.08.2019
3905 Clouds 5 1005 93 0 8.94 229.784 14:21 10.08.2019
3906 Clouds 5 1005 93 0 8.94 229.784 13:41 10.08.2019
3907 Rain 5 1006 92 0 8.9 232.333 13:20 10.08.2019
3908 Rain 5 1006 92 0 8.9 232.333 12:55 10.08.2019
3909 Rain 5 1006 92 0 8.9 232.333 12:37 10.08.2019
3910 Clouds 5 1004 92 0 9.12 236.999 12:18 10.08.2019
3911 Clouds 5 1004 92 0 9.12 236.999 11:41 10.08.2019
3912 Clouds 5 1004 92 0 9.12 236.999 11:22 10.08.2019
3913 Clouds 5 1004 92 0 9.12 236.999 10:55 10.08.2019
3914 Clouds 5 1004 92 0 9.12 236.999 10:37 10.08.2019
3915 Clouds 5 1004 92 0 9.12 236.999 10:18 10.08.2019
3916 Clouds 5 1004 92 0 9.12 236.999 09:41 10.08.2019
3917 Clouds 5 1004 92 0 9.12 236.999 09:41 10.08.2019
3918 Clouds 5 1003 92 0 9.12 236.997 09:23 10.08.2019
3919 Clouds 5 1003 91 0 9.19 235.796 08:42 10.08.2019
3920 Clouds 5 1003 91 0 9.19 235.796 08:20 10.08.2019
3921 Clouds 5 1003 91 0 9.19 235.796 07:54 10.08.2019
3922 Clouds 5 1003 91 0 9.19 235.796 07:29 10.08.2019
3923 Clouds 5 1003 91 0 9.19 235.796 06:49 10.08.2019
3924 Clouds 5 1003 91 0 9.19 235.796 06:28 10.08.2019
3925 Clouds 5 1001 91 0 8.1 245.502 05:26 10.08.2019
3926 Clouds 5 1001 91 0 8.1 245.502 04:37 10.08.2019
3927 Clouds 5 1000 92 0 8.49 241.928 02:58 10.08.2019
3928 Clouds 5 1000 92 0 8.49 241.928 02:27 10.08.2019
3929 Clouds 5 1000 92 0 8.49 241.928 01:42 10.08.2019
3930 Clouds 5 1000 92 0 8.02 241.701 01:22 10.08.2019
3931 Clouds 5 1000 92 0 8.02 241.701 00:49 10.08.2019
3932 Rain 5 998 93 0 9.02 243.955 00:25 10.08.2019
3933 Rain 5 998 93 0 9.02 243.955 23:45 09.08.2019
3934 Rain 5 998 93 0 9.02 243.955 23:24 09.08.2019
3935 Rain 5 998 93 0 9.02 243.955 22:58 09.08.2019
3936 Rain 5 998 93 0 9.02 243.955 22:39 09.08.2019
3937 Rain 5 998 93 0 9.02 243.955 22:21 09.08.2019
3938 Rain 5 998 93 0 9.02 243.955 21:56 09.08.2019
3939 Rain 5 998 93 0 9.02 243.955 21:38 09.08.2019
3940 Rain 5 998 94 0 7.5 240.421 21:20 09.08.2019
3941 Rain 5 998 94 0 7.5 240.421 20:56 09.08.2019
3942 Clouds 5 998 94 0 7.99 235.143 20:37 09.08.2019
3943 Clouds 5 998 94 0 7.99 235.143 20:18 09.08.2019
3944 Clouds 5 998 94 0 7.99 235.143 20:18 09.08.2019
3945 Clouds 5 998 94 0 7.99 235.143 19:41 09.08.2019
3946 Clouds 5 998 94 0 7.99 235.143 19:20 09.08.2019
3947 Clouds 5 998 94 0 7.99 235.143 18:42 09.08.2019
3948 Rain 6 996 94 0 7.35 239.07 18:22 09.08.2019
3949 Rain 6 996 94 0 7.35 239.07 17:59 09.08.2019
3950 Rain 6 996 94 0 7.35 239.07 17:41 09.08.2019
3951 Rain 6 996 94 0 7.35 239.07 17:22 09.08.2019
3952 Rain 6 996 94 0 7.35 239.07 16:42 09.08.2019
3953 Rain 6 996 94 0 7.35 239.07 16:24 09.08.2019
3954 Rain 6 996 94 0 7.35 239.07 15:58 09.08.2019
3955 Rain 6 996 94 0 7.35 239.07 15:39 09.08.2019
3956 Rain 6 996 95 0 5.73 241.372 15:20 09.08.2019
3957 -273 0 0 0 0 0 14:56 09.08.2019
3958 Rain 6 996 95 0 5.73 241.372 14:37 09.08.2019
3959 Rain 6 996 95 0 5.73 241.372 14:19 09.08.2019
3960 Rain 6 996 95 0 5.73 241.372 13:44 09.08.2019
3961 Rain 6 996 92 0 6.12 241.701 13:20 09.08.2019
3962 Rain 6 996 92 0 6.12 241.701 12:47 09.08.2019
3963 Clouds 6 994 93 0 5.54 258.297 12:25 09.08.2019
3964 -273 0 0 0 0 0 11:59 09.08.2019
3965 Clouds 6 994 93 0 5.54 258.297 11:40 09.08.2019
3966 Clouds 6 994 93 0 5.54 258.297 11:19 09.08.2019
3967 Clouds 6 994 93 0 5.54 258.297 10:41 09.08.2019
3968 Clouds 6 994 93 0 5.54 258.297 10:22 09.08.2019
3969 Clouds 6 994 93 0 5.54 258.297 09:57 09.08.2019
3970 Clouds 6 994 93 0 5.54 258.297 09:37 09.08.2019
3971 Clouds 6 992 95 0 5.97 235.389 09:18 09.08.2019
3972 Clouds 7 993 94 0 3.29 248.102 08:44 09.08.2019
3973 Clouds 7 993 94 0 3.29 248.102 08:24 09.08.2019
3974 Clouds 7 993 94 0 3.29 248.102 07:55 09.08.2019
3975 Clouds 7 993 94 0 3.29 248.102 07:55 09.08.2019
3976 Clouds 7 993 94 0 3.29 248.102 07:24 09.08.2019
3977 Clouds 7 993 94 0 3.29 248.102 06:57 09.08.2019
3978 Clouds 7 993 94 0 3.29 248.102 06:36 09.08.2019
3979 Clouds 6 992 97 0 3.01 287.145 06:18 09.08.2019
3980 Clouds 6 992 97 0 3.01 287.145 04:37 09.08.2019
3981 Clouds 6 991 94 0 4.73 296.522 02:26 09.08.2019
3982 Clouds 7 991 91 0 4.3 298.304 00:58 09.08.2019
3983 Clouds 7 991 91 0 4.3 298.304 00:40 09.08.2019
3984 Clouds 6 990 90 0 1.31 357.76 00:22 09.08.2019
3985 Clouds 6 990 90 0 1.31 357.76 23:39 08.08.2019
3986 Clouds 6 990 90 0 1.31 357.76 23:20 08.08.2019
3987 Clouds 6 990 90 0 1.31 357.76 22:59 08.08.2019
3988 Clouds 6 990 90 0 1.31 357.76 22:37 08.08.2019
3989 Clouds 6 990 90 0 1.31 357.76 22:19 08.08.2019
3990 Clouds 6 990 90 0 1.31 357.76 21:59 08.08.2019
3991 Clouds 6 990 90 0 1.31 357.76 21:41 08.08.2019
3992 Clouds 8 990 86 0 3.08 32.353 21:22 08.08.2019
3993 Clouds 8 990 86 0 3.08 32.353 20:56 08.08.2019
3994 Clouds 8 990 84 0 3.52 35.097 20:38 08.08.2019
3995 Clouds 8 990 84 0 3.52 35.097 20:19 08.08.2019
3996 Clouds 8 990 84 0 3.52 35.097 19:43 08.08.2019
3997 Clouds 8 990 84 0 3.52 35.097 19:22 08.08.2019
3998 Clouds 8 990 84 0 3.52 35.097 18:43 08.08.2019
3999 Clouds 9 990 87 0 2.64 36.405 18:24 08.08.2019
4000 Clouds 9 990 87 0 2.64 36.405 17:58 08.08.2019
4001 Clouds 9 990 87 0 2.64 36.405 17:40 08.08.2019
4002 Clouds 9 990 87 0 2.64 36.405 17:21 08.08.2019
4003 Clouds 9 990 87 0 2.64 36.405 16:43 08.08.2019
4004 Clouds 9 990 87 0 2.64 36.405 16:43 08.08.2019
4005 Clouds 9 990 87 0 2.64 36.405 16:25 08.08.2019
4006 Clouds 9 990 87 0 2.64 36.405 15:59 08.08.2019
4007 Clouds 9 990 87 0 2.64 36.405 15:41 08.08.2019
4008 Clouds 9 989 84 0 4.45 105.795 15:23 08.08.2019
4009 Clouds 9 989 84 0 4.45 105.795 14:55 08.08.2019
4010 Clouds 9 989 84 0 4.45 105.795 14:36 08.08.2019
4011 Clouds 9 989 84 0 4.45 105.795 14:18 08.08.2019
4012 Clouds 9 989 84 0 4.45 105.795 13:39 08.08.2019
4013 Clouds 8 989 87 0 4.4 86.806 13:18 08.08.2019
4014 Clouds 8 989 87 0 4.4 86.806 13:18 08.08.2019
4015 Clouds 8 989 87 0 4.4 86.806 12:40 08.08.2019
4016 Clouds 8 989 91 0 1.48 37.736 12:20 08.08.2019
4017 Clouds 8 989 91 0 1.48 37.736 11:56 08.08.2019
4018 Clouds 8 989 91 0 1.48 37.736 11:38 08.08.2019
4019 Clouds 8 989 91 0 1.48 37.736 11:20 08.08.2019
4020 Clouds 8 989 91 0 1.48 37.736 10:41 08.08.2019
4021 Clouds 8 989 91 0 1.48 37.736 10:21 08.08.2019
4022 Clouds 8 989 91 0 1.48 37.736 09:49 08.08.2019
4023 Clouds 8 989 91 0 1.48 37.736 09:30 08.08.2019
4024 Clouds 8 988 89 0 2.56 106.41 08:57 08.08.2019
4025 Clouds 8 988 92 0 2.04 111.958 08:38 08.08.2019
4026 Clouds 8 988 92 0 2.04 111.958 08:18 08.08.2019
4027 Clouds 8 988 92 0 2.04 111.958 07:40 08.08.2019
4028 Clouds 8 988 92 0 2.04 111.958 07:20 08.08.2019
4029 Clouds 8 988 92 0 2.04 111.958 06:47 08.08.2019
4030 Clouds 8 988 92 0 2.04 111.958 06:26 08.08.2019
4031 Clouds 7 987 91 0 1.94 168.644 05:52 08.08.2019
4032 Clouds 7 987 91 0 1.94 168.644 04:54 08.08.2019
4033 Clouds 7 987 91 0 1.94 168.644 03:53 08.08.2019
4034 Clouds 8 987 88 0 4.21 158.421 02:28 08.08.2019
4035 Clouds 8 987 88 0 4.21 158.421 01:36 08.08.2019
4036 Clouds 8 987 91 0 4.22 178.996 00:26 08.08.2019
4037 Clouds 8 986 100 0 4.02 122.717 23:50 07.08.2019
4038 Clouds 8 986 100 0 4.02 122.717 23:19 07.08.2019
4039 Clouds 8 986 100 0 4.02 122.717 22:56 07.08.2019
4040 Clouds 8 986 100 0 4.02 122.717 22:38 07.08.2019
4041 Clouds 8 986 100 0 4.02 122.717 22:19 07.08.2019
4042 Clouds 8 986 100 0 4.02 122.717 21:55 07.08.2019
4043 Clouds 8 986 100 0 4.02 122.717 21:37 07.08.2019
4044 Rain 8 987 100 0 5.23 88.412 21:18 07.08.2019
4045 Rain 8 987 100 0 4.21 88.978 20:42 07.08.2019
4046 Rain 8 987 100 0 4.21 88.978 20:23 07.08.2019
4047 Rain 8 987 100 0 4.21 88.978 19:57 07.08.2019
4048 Rain 8 987 100 0 4.21 88.978 19:39 07.08.2019
4049 Rain 8 987 100 0 4.21 88.978 19:21 07.08.2019
4050 Rain 8 987 100 0 4.21 88.978 18:43 07.08.2019
4051 Rain 8 989 100 0 7.68 65.484 18:21 07.08.2019
4052 Rain 8 989 100 0 7.68 65.484 17:59 07.08.2019
4053 Rain 8 989 100 0 7.68 65.484 17:40 07.08.2019
4054 Rain 8 989 100 0 7.68 65.484 17:40 07.08.2019
4055 Rain 8 989 100 0 7.68 65.484 17:21 07.08.2019
4056 Rain 8 989 100 0 7.68 65.484 16:57 07.08.2019
4057 Rain 8 989 100 0 7.68 65.484 16:39 07.08.2019
4058 Rain 8 989 100 0 7.68 65.484 16:20 07.08.2019
4059 Rain 8 989 100 0 7.68 65.484 15:56 07.08.2019
4060 Rain 8 989 100 0 7.68 65.484 15:37 07.08.2019
4061 Clouds 8 991 95 0 9.32 60.66 15:19 07.08.2019
4062 Clouds 8 991 95 0 9.32 60.66 14:46 07.08.2019
4063 Clouds 8 991 95 0 9.32 60.66 14:27 07.08.2019
4064 Clouds 8 991 95 0 9.32 60.66 13:54 07.08.2019
4065 Clouds 8 991 95 0 9.32 60.66 13:36 07.08.2019
4066 Clouds 8 991 94 0 8.27 58.161 13:18 07.08.2019
4067 Clouds 8 991 94 0 8.27 58.161 12:55 07.08.2019
4068 Clouds 8 991 94 0 8.27 58.161 12:36 07.08.2019
4069 Clouds 7 993 98 0 7.06 59.879 12:18 07.08.2019
4070 Clouds 7 993 98 0 7.06 59.879 11:41 07.08.2019
4071 Clouds 7 993 98 0 7.06 59.879 11:20 07.08.2019
4072 Clouds 7 993 98 0 7.06 59.879 10:56 07.08.2019
4073 Clouds 7 993 98 0 7.06 59.879 10:38 07.08.2019
4074 Clouds 7 993 98 0 7.06 59.879 10:18 07.08.2019
4075 Clouds 7 993 98 0 7.06 59.879 09:44 07.08.2019
4076 Rain 7 994 98 0 6.1 60.458 09:22 07.08.2019
4077 Rain 7 994 98 0 6.1 60.458 08:55 07.08.2019
4078 Rain 7 994 98 0 5.36 72.65 08:37 07.08.2019
4079 Rain 7 994 98 0 5.36 72.65 08:19 07.08.2019
4080 Rain 7 994 98 0 5.36 72.65 07:39 07.08.2019
4081 Rain 7 994 98 0 5.36 72.65 07:20 07.08.2019
4082 Rain 7 994 98 0 5.36 72.65 06:29 07.08.2019
4083 Rain 7 995 99 0 7.36 70.765 05:50 07.08.2019
4084 Rain 7 995 99 0 7.36 70.765 04:53 07.08.2019
4085 Rain 7 997 98 0 6.96 71.037 03:21 07.08.2019
4086 Rain 7 997 98 0 6.96 71.037 02:46 07.08.2019
4087 Rain 7 997 98 0 6.96 71.037 01:58 07.08.2019
4088 Rain 7 997 98 0 6.96 71.037 01:38 07.08.2019
4089 Rain 7 997 98 0 7.14 67.808 00:39 07.08.2019
4090 Rain 7 998 95 0 6.31 82.768 00:20 07.08.2019
4091 Rain 7 998 95 0 6.31 82.768 23:41 06.08.2019
4092 Rain 7 998 95 0 6.31 82.768 23:21 06.08.2019
4093 Rain 7 998 95 0 6.31 82.768 22:56 06.08.2019
4094 Rain 7 998 95 0 6.31 82.768 22:37 06.08.2019
4095 Rain 7 998 95 0 6.31 82.768 22:18 06.08.2019
4096 Rain 7 998 95 0 6.31 82.768 21:41 06.08.2019
4097 Clouds 8 1000 84 0 6.68 90.283 21:21 06.08.2019
4098 Clouds 8 1000 84 0 6.68 90.283 20:54 06.08.2019
4099 Clouds 7 999 85 0 7.03 90.84 20:36 06.08.2019
4100 Clouds 7 999 85 0 7.03 90.84 20:18 06.08.2019
4101 Clouds 7 999 85 0 7.03 90.84 19:41 06.08.2019
4102 Clouds 7 999 85 0 7.03 90.84 19:23 06.08.2019
4103 Clouds 7 999 85 0 7.03 90.84 18:45 06.08.2019
4104 Clouds 7 999 85 0 7.03 90.84 18:26 06.08.2019
4105 Clouds 8 1000 81 0 7.45 90.785 17:58 06.08.2019
4106 Clouds 8 1000 81 0 7.45 90.785 17:39 06.08.2019
4107 Clouds 8 1000 81 0 7.45 90.785 17:20 06.08.2019
4108 Clouds 8 1000 81 0 7.45 90.785 16:55 06.08.2019
4109 Clouds 8 1000 81 0 7.45 90.785 16:37 06.08.2019
4110 Clouds 8 1000 81 0 7.45 90.785 16:19 06.08.2019
4111 Clouds 8 1000 81 0 7.45 90.785 15:56 06.08.2019
4112 Clouds 8 1000 81 0 7.45 90.785 15:38 06.08.2019
4113 Clear 8 1001 84 0 7.2 98.98 15:18 06.08.2019
4114 Clear 8 1001 84 0 7.2 98.98 14:41 06.08.2019
4115 Clear 8 1001 84 0 7.2 98.98 14:41 06.08.2019
4116 Clear 8 1001 84 0 7.2 98.98 14:22 06.08.2019
4117 Clear 8 1001 84 0 7.2 98.98 13:57 06.08.2019
4118 Clear 8 1001 84 0 7.2 98.98 13:38 06.08.2019
4119 Clouds 8 1001 83 0 6.61 86.294 13:19 06.08.2019
4120 Clouds 8 1001 83 0 6.61 86.294 12:55 06.08.2019
4121 Clouds 8 1001 83 0 6.61 86.294 12:36 06.08.2019
4122 Clouds 9 1002 86 0 4.62 115.321 12:18 06.08.2019
4123 Clouds 9 1002 86 0 4.62 115.321 11:40 06.08.2019
4124 Clouds 9 1002 86 0 4.62 115.321 11:40 06.08.2019
4125 Clouds 9 1002 86 0 4.62 115.321 11:40 06.08.2019
4126 Clouds 9 1002 86 0 4.62 115.321 11:18 06.08.2019
4127 Clouds 9 1002 86 0 4.62 115.321 10:41 06.08.2019
4128 Clouds 9 1002 86 0 4.62 115.321 10:22 06.08.2019
4129 Clouds 9 1002 86 0 4.62 115.321 09:48 06.08.2019
4130 Clouds 8 1002 82 0 4.07 130.049 09:24 06.08.2019
4131 Clouds 8 1002 82 0 4.07 130.049 08:57 06.08.2019
4132 Clouds 8 1003 81 0 2.58 111.103 08:37 06.08.2019
4133 Clouds 8 1003 81 0 2.58 111.103 08:19 06.08.2019
4134 Clouds 8 1003 81 0 2.58 111.103 07:35 06.08.2019
4135 Clouds 8 1003 81 0 2.58 111.103 06:51 06.08.2019
4136 Clouds 8 1003 81 0 2.58 111.103 06:26 06.08.2019
4137 Clear 8 1003 77 0 3.3 136.202 05:47 06.08.2019
4138 Clear 8 1003 80 0 3.8 142.433 02:59 06.08.2019
4139 Clear 8 1003 80 0 3.8 142.433 01:46 06.08.2019
4140 Clear 8 1003 81 0 4.33 135.664 01:22 06.08.2019
4141 Clear 8 1003 81 0 4.33 135.664 00:29 06.08.2019
4142 Clear 8 1002 86 0 4.78 140.829 23:40 05.08.2019
4143 Clear 8 1002 86 0 4.78 140.829 23:18 05.08.2019
4144 Clear 8 1002 86 0 4.78 140.829 22:40 05.08.2019
4145 Clear 8 1002 86 0 4.78 140.829 22:22 05.08.2019
4146 Clear 8 1002 86 0 4.78 140.829 21:44 05.08.2019
4147 Clouds 8 1002 86 0 4.18 134.001 21:21 05.08.2019
4148 Clear 8 1002 89 0 4.51 129.937 20:59 05.08.2019
4149 Clear 8 1002 89 0 4.51 129.937 20:40 05.08.2019
4150 Clear 8 1002 89 0 4.51 129.937 20:22 05.08.2019
4151 Clear 8 1002 89 0 4.51 129.937 19:59 05.08.2019
4152 Clear 8 1002 89 0 4.51 129.937 19:39 05.08.2019
4153 Clear 8 1002 89 0 4.51 129.937 19:20 05.08.2019
4154 Clear 8 1002 89 0 4.51 129.937 18:43 05.08.2019
4155 Clear 8 1001 84 0 2.86 263.861 18:22 05.08.2019
4156 Clear 8 1001 84 0 2.86 263.861 17:57 05.08.2019
4157 Clear 8 1001 84 0 2.86 263.861 17:39 05.08.2019
4158 Clear 8 1001 84 0 2.86 263.861 17:20 05.08.2019
4159 Clear 8 1001 84 0 2.86 263.861 16:43 05.08.2019
4160 Clear 8 1001 84 0 2.86 263.861 16:23 05.08.2019
4161 Clear 8 1001 84 0 2.86 263.861 15:43 05.08.2019
4162 Clouds 8 1000 89 0 5.74 251.609 15:21 05.08.2019
4163 Clouds 8 1000 89 0 5.74 251.609 14:43 05.08.2019
4164 Clouds 8 1000 89 0 5.74 251.609 14:23 05.08.2019
4165 Clouds 8 1000 89 0 5.74 251.609 13:57 05.08.2019
4166 Clouds 8 1000 89 0 5.74 251.609 13:39 05.08.2019
4167 Clouds 8 1000 89 0 5.03 248.186 13:18 05.08.2019
4168 Clouds 8 1000 89 0 5.03 248.186 12:42 05.08.2019
4169 Clouds 8 999 89 0 6.28 235.445 12:19 05.08.2019
4170 Clouds 8 999 89 0 6.28 235.445 11:44 05.08.2019
4171 Clouds 8 999 89 0 6.28 235.445 11:25 05.08.2019
4172 Clouds 8 999 89 0 6.28 235.445 10:49 05.08.2019
4173 Clouds 8 999 89 0 6.28 235.445 10:31 05.08.2019
4174 Clouds 8 999 89 0 6.28 235.445 09:57 05.08.2019
4175 Clouds 8 999 89 0 6.28 235.445 09:37 05.08.2019
4176 Clouds 9 998 92 0 3.07 219.234 09:19 05.08.2019
4177 Clouds 8 998 94 0 1.62 211.43 08:44 05.08.2019
4178 Clouds 8 998 94 0 1.62 211.43 08:24 05.08.2019
4179 Clouds 8 998 94 0 1.62 211.43 07:48 05.08.2019
4180 Clouds 8 998 94 0 1.62 211.43 07:28 05.08.2019
4181 Clouds 8 998 94 0 1.62 211.43 06:56 05.08.2019
4182 Clouds 8 996 91 0 2.71 193.729 06:21 05.08.2019
4183 Clouds 8 996 91 0 2.71 193.729 05:31 05.08.2019
4184 Clouds 8 996 91 0 2.71 193.729 04:50 05.08.2019
4185 Clouds 8 996 91 0 2.71 193.729 03:50 05.08.2019
4186 Clouds 9 996 86 0 3.21 186.062 02:38 05.08.2019
4187 Clouds 9 996 86 0 3.21 186.062 01:47 05.08.2019
4188 Clouds 9 996 84 0 2.58 144.713 01:19 05.08.2019
4189 Clouds 9 996 84 0 2.58 144.713 00:39 05.08.2019
4190 Clear 9 995 84 0 4.07 120.865 00:19 05.08.2019
4191 Clear 9 995 84 0 4.07 120.865 23:43 04.08.2019
4192 Clear 9 995 84 0 4.07 120.865 23:23 04.08.2019
4193 Clear 9 995 84 0 4.07 120.865 22:57 04.08.2019
4194 Clear 9 995 84 0 4.07 120.865 22:38 04.08.2019
4195 Clear 9 995 84 0 4.07 120.865 22:19 04.08.2019
4196 Clear 9 995 84 0 4.07 120.865 22:19 04.08.2019
4197 Clear 9 995 84 0 4.07 120.865 21:45 04.08.2019
4198 Clear 9 995 84 0 4.07 120.865 21:45 04.08.2019
4199 Clouds 9 995 86 0 6.92 103.705 21:24 04.08.2019
4200 Rain 7 994 90 0 7.78 97.225 20:58 04.08.2019
4201 Rain 7 994 90 0 7.78 97.225 20:40 04.08.2019
4202 Rain 7 994 90 0 7.78 97.225 20:18 04.08.2019
4203 Rain 7 994 90 0 7.78 97.225 19:48 04.08.2019
4204 Rain 7 994 90 0 7.78 97.225 19:27 04.08.2019
4205 Rain 7 994 90 0 7.78 97.225 18:57 04.08.2019
4206 Rain 7 994 90 0 7.78 97.225 18:39 04.08.2019
4207 Clouds 8 993 85 0 8.3 106.216 18:19 04.08.2019
4208 Clouds 8 993 85 0 8.3 106.216 17:42 04.08.2019
4209 Clouds 8 993 85 0 8.3 106.216 17:21 04.08.2019
4210 Clouds 8 993 85 0 8.3 106.216 16:44 04.08.2019
4211 Clouds 8 993 85 0 8.3 106.216 16:26 04.08.2019
4212 Clouds 8 993 85 0 8.3 106.216 15:55 04.08.2019
4213 Clouds 8 993 85 0 8.3 106.216 15:37 04.08.2019
4214 Clouds 8 993 85 0 8.3 106.216 15:37 04.08.2019
4215 Clouds 8 993 87 0 7.42 96.298 15:18 04.08.2019
4216 Clouds 8 993 87 0 7.42 96.298 14:42 04.08.2019
4217 Clouds 8 993 87 0 7.42 96.298 14:20 04.08.2019
4218 Clouds 8 993 87 0 7.42 96.298 13:43 04.08.2019
4219 Clear 8 993 88 0 7.65 100.008 13:23 04.08.2019
4220 Clear 8 993 88 0 7.65 100.008 12:47 04.08.2019
4221 Clear 8 993 88 0 7.65 100.008 12:28 04.08.2019
4222 Clear 7 993 91 0 8.31 103.926 11:58 04.08.2019
4223 Clear 7 993 91 0 8.31 103.926 11:39 04.08.2019
4224 Clear 7 993 91 0 8.31 103.926 11:21 04.08.2019
4225 Clear 7 993 91 0 8.31 103.926 10:41 04.08.2019
4226 Clear 7 993 91 0 8.31 103.926 10:21 04.08.2019
4227 Clear 7 993 91 0 8.31 103.926 09:45 04.08.2019
4228 Clouds 6 992 95 0 8.58 98.821 09:25 04.08.2019
4229 Clouds 6 992 99 0 8.02 97.966 08:53 04.08.2019
4230 Clouds 6 992 99 0 8.02 97.966 08:32 04.08.2019
4231 Clouds 6 992 99 0 8.02 97.966 07:53 04.08.2019
4232 Clouds 6 992 99 0 8.02 97.966 07:22 04.08.2019
4233 Clouds 6 992 99 0 8.02 97.966 06:28 04.08.2019
4234 Clouds 6 991 99 0 9 91.522 04:43 04.08.2019
4235 Rain 7 991 93 0 9.03 80.074 02:47 04.08.2019
4236 Rain 7 991 93 0 9.03 80.074 01:51 04.08.2019
4237 Rain 7 991 93 0 10.08 73.065 01:27 04.08.2019
4238 Rain 7 991 93 0 10.08 73.065 00:41 04.08.2019
4239 Rain 7 991 93 0 12.59 57.234 00:21 04.08.2019
4240 Rain 7 991 93 0 12.59 57.234 23:41 03.08.2019
4241 Rain 7 991 93 0 12.59 57.234 23:19 03.08.2019
4242 Rain 7 991 93 0 12.59 57.234 22:55 03.08.2019
4243 Rain 7 991 93 0 12.59 57.234 22:37 03.08.2019
4244 Rain 7 991 93 0 12.59 57.234 22:18 03.08.2019
4245 Rain 7 991 93 0 12.59 57.234 21:37 03.08.2019
4246 Clouds 7 993 93 0 14.63 51.223 21:19 03.08.2019
4247 Clouds 7 993 93 0 15.46 51.974 20:42 03.08.2019
4248 Clouds 7 993 93 0 15.46 51.974 20:22 03.08.2019
4249 Clouds 7 993 93 0 15.46 51.974 19:43 03.08.2019
4250 Clouds 7 993 93 0 15.46 51.974 19:24 03.08.2019
4251 Clouds 7 993 93 0 15.46 51.974 18:56 03.08.2019
4252 Clouds 7 993 93 0 15.46 51.974 18:27 03.08.2019
4253 Clouds 7 994 94 0 15.28 51.48 17:50 03.08.2019
4254 Clouds 7 994 94 0 15.28 51.48 17:22 03.08.2019
4255 Clouds 7 994 94 0 15.28 51.48 16:57 03.08.2019
4256 Clouds 7 994 94 0 15.28 51.48 16:37 03.08.2019
4257 Clouds 7 994 94 0 15.28 51.48 16:19 03.08.2019
4258 Clouds 7 994 94 0 15.28 51.48 15:43 03.08.2019
4259 Rain 7 996 97 0 15.24 55.659 15:23 03.08.2019
4260 Rain 7 996 97 0 15.24 55.659 14:42 03.08.2019
4261 Rain 7 996 97 0 15.24 55.659 14:21 03.08.2019
4262 Rain 7 996 97 0 15.24 55.659 13:52 03.08.2019
4263 Rain 7 996 97 0 15.24 55.659 13:52 03.08.2019
4264 Rain 7 996 96 0 15.57 53.344 13:25 03.08.2019
4265 Rain 7 996 96 0 15.57 53.344 12:58 03.08.2019
4266 Rain 7 996 96 0 15.57 53.344 12:39 03.08.2019
4267 Rain 6 997 97 0 14.59 54.49 12:21 03.08.2019
4268 Rain 6 997 97 0 14.59 54.49 11:49 03.08.2019
4269 Rain 6 997 97 0 14.59 54.49 11:27 03.08.2019
4270 Rain 6 997 97 0 14.59 54.49 10:42 03.08.2019
4271 Rain 6 997 97 0 14.59 54.49 10:24 03.08.2019
4272 Rain 6 997 97 0 14.59 54.49 09:44 03.08.2019
4273 Rain 5 998 97 0 13.08 53.354 09:22 03.08.2019
4274 Rain 5 998 96 0 13.23 57.759 08:52 03.08.2019
4275 Rain 5 998 96 0 13.23 57.759 07:55 03.08.2019
4276 Rain 5 998 96 0 13.23 57.759 07:32 03.08.2019
4277 Rain 5 998 96 0 13.23 57.759 06:36 03.08.2019
4278 Rain 5 999 93 0 13.23 63.4 04:41 03.08.2019
4279 Rain 5 1001 91 0 12.21 56.66 02:38 03.08.2019
4280 Rain 5 1001 91 0 12.21 56.66 01:42 03.08.2019
4281 Rain 5 1001 88 0 11.99 57.241 00:49 03.08.2019
4282 Rain 5 1002 96 0 10.85 58.303 23:59 02.08.2019
4283 Rain 5 1002 96 0 10.85 58.303 23:40 02.08.2019
4284 Rain 5 1002 96 0 10.85 58.303 23:19 02.08.2019
4285 Rain 5 1002 96 0 10.85 58.303 22:57 02.08.2019
4286 Rain 5 1002 96 0 10.85 58.303 22:38 02.08.2019
4287 Rain 5 1002 96 0 10.85 58.303 22:19 02.08.2019
4288 Rain 5 1002 96 0 10.85 58.303 21:43 02.08.2019
4289 Rain 6 1003 91 0 9.9 58.122 21:24 02.08.2019
4290 Rain 6 1003 93 0 9.09 58.68 20:57 02.08.2019
4291 Rain 6 1003 93 0 9.09 58.68 20:39 02.08.2019
4292 Rain 6 1003 93 0 9.09 58.68 20:20 02.08.2019
4293 Rain 6 1003 93 0 9.09 58.68 19:45 02.08.2019
4294 Rain 6 1003 93 0 9.09 58.68 19:25 02.08.2019
4295 Rain 6 1003 93 0 9.09 58.68 18:44 02.08.2019
4296 Rain 5 1003 90 0 8.87 45.059 18:25 02.08.2019
4297 Rain 5 1003 90 0 8.87 45.059 17:48 02.08.2019
4298 Rain 5 1003 90 0 8.87 45.059 17:25 02.08.2019
4299 Rain 5 1003 90 0 8.87 45.059 16:58 02.08.2019
4300 Rain 5 1003 90 0 8.87 45.059 16:38 02.08.2019
4301 Rain 5 1003 90 0 8.87 45.059 16:18 02.08.2019
4302 Rain 5 1003 90 0 8.87 45.059 15:39 02.08.2019
4303 Rain 5 1004 95 0 10.11 43.613 15:19 02.08.2019
4304 Rain 5 1004 95 0 10.11 43.613 14:46 02.08.2019
4305 Rain 5 1004 95 0 10.11 43.613 14:18 02.08.2019
4306 Rain 5 1004 95 0 10.11 43.613 13:48 02.08.2019
4307 -273 0 0 0 0 0 13:26 02.08.2019
4308 Rain 5 1004 93 0 9.87 43.061 12:45 02.08.2019
4309 Clouds 5 1004 93 0 9.19 47.585 12:22 02.08.2019
4310 Clouds 5 1004 93 0 9.19 47.585 11:53 02.08.2019
4311 Clouds 5 1004 93 0 9.19 47.585 11:34 02.08.2019
4312 Clouds 5 1004 93 0 9.19 47.585 10:57 02.08.2019
4313 Clouds 5 1004 93 0 9.19 47.585 10:39 02.08.2019
4314 Clouds 5 1004 93 0 9.19 47.585 10:20 02.08.2019
4315 Clouds 5 1004 93 0 9.19 47.585 09:52 02.08.2019
4316 Clouds 5 1004 94 0 8.59 39.462 09:25 02.08.2019
4317 Clouds 5 1004 93 0 9.39 39.572 08:49 02.08.2019
4318 Clouds 5 1004 93 0 9.39 39.572 08:49 02.08.2019
4319 Clouds 5 1004 93 0 9.39 39.572 08:22 02.08.2019
4320 Clouds 5 1004 93 0 9.39 39.572 07:50 02.08.2019
4321 Clouds 5 1004 93 0 9.39 39.572 07:31 02.08.2019
4322 Clouds 5 1004 93 0 9.39 39.572 06:46 02.08.2019
4323 Clouds 5 1004 93 0 7.6 34.935 06:24 02.08.2019
4324 Clouds 5 1004 93 0 7.6 34.935 05:25 02.08.2019
4325 Clouds 5 1004 93 0 7.6 34.935 03:28 02.08.2019
4326 Clouds 5 1004 94 0 8.17 29.664 02:33 02.08.2019
4327 Clouds 5 1003 92 0 8.31 32.78 00:41 02.08.2019
4328 Clear 5 1003 92 0 7.96 23.703 23:56 01.08.2019
4329 Clear 5 1003 92 0 7.96 23.703 23:38 01.08.2019
4330 Clear 5 1003 92 0 7.96 23.703 23:18 01.08.2019
4331 Clear 5 1003 92 0 7.96 23.703 22:40 01.08.2019
4332 Clear 5 1003 92 0 7.96 23.703 22:21 01.08.2019
4333 Clear 5 1003 92 0 7.96 23.703 21:44 01.08.2019
4334 Clouds 5 1003 93 0 8.04 15.776 21:24 01.08.2019
4335 -273 0 0 0 0 0 20:59 01.08.2019
4336 Clouds 4 1003 95 0 8.58 14.397 20:40 01.08.2019
4337 Clouds 4 1003 95 0 8.58 14.397 20:21 01.08.2019
4338 Clouds 4 1003 95 0 8.58 14.397 19:42 01.08.2019
4339 Clouds 4 1003 95 0 8.58 14.397 19:20 01.08.2019
4340 Clouds 4 1003 95 0 8.58 14.397 18:44 01.08.2019
4341 Clouds 4 1002 95 0 9.64 11.484 18:24 01.08.2019
4342 Clouds 4 1002 95 0 9.64 11.484 17:55 01.08.2019
4343 Clouds 4 1002 95 0 9.64 11.484 17:36 01.08.2019
4344 Clouds 4 1002 95 0 9.64 11.484 17:18 01.08.2019
4345 Clouds 4 1002 95 0 9.64 11.484 16:44 01.08.2019
4346 Clouds 4 1002 95 0 9.64 11.484 16:21 01.08.2019
4347 Clouds 4 1002 95 0 9.64 11.484 15:41 01.08.2019
4348 Clouds 4 1002 96 0 8.84 10.661 15:20 01.08.2019
4349 Clouds 4 1002 96 0 8.84 10.661 14:43 01.08.2019
4350 Clouds 4 1002 96 0 8.84 10.661 14:20 01.08.2019
4351 Clouds 4 1002 96 0 8.84 10.661 13:58 01.08.2019
4352 Clouds 4 1002 96 0 8.84 10.661 13:40 01.08.2019
4353 Clouds 5 1002 95 0 9.02 12.091 13:21 01.08.2019
4354 Clouds 5 1002 95 0 9.02 12.091 12:48 01.08.2019
4355 Clouds 5 1002 95 0 9.02 12.091 12:28 01.08.2019
4356 Clouds 5 1001 95 0 8.14 15.909 11:44 01.08.2019
4357 Clouds 5 1001 95 0 8.14 15.909 11:25 01.08.2019
4358 Clouds 5 1001 95 0 8.14 15.909 10:59 01.08.2019
4359 Clouds 5 1001 95 0 8.14 15.909 10:40 01.08.2019
4360 Clouds 5 1001 95 0 8.14 15.909 10:22 01.08.2019
4361 Clouds 5 1001 95 0 8.14 15.909 09:47 01.08.2019
4362 Clouds 5 1000 94 0 9.03 22.429 09:23 01.08.2019
4363 Clouds 5 1000 93 0 8.2 23.765 08:48 01.08.2019
4364 Clouds 5 1000 93 0 8.2 23.765 08:21 01.08.2019
4365 Clouds 5 1000 93 0 8.2 23.765 07:52 01.08.2019
4366 Clouds 5 1000 93 0 8.2 23.765 07:29 01.08.2019
4367 Clouds 5 1000 93 0 8.2 23.765 06:49 01.08.2019
4368 Clouds 5 1000 93 0 8.2 23.765 06:29 01.08.2019
4369 Clouds 5 1000 92 0 8.69 23.613 05:31 01.08.2019
4370 Clouds 5 1000 91 0 10.42 28.301 02:35 01.08.2019
4371 Clouds 5 1000 90 0 10.42 25.997 00:55 01.08.2019
4372 Clouds 5 1000 90 0 10.42 25.997 00:27 01.08.2019
4373 Clouds 6 999 89 0 10.98 27.006 23:57 31.07.2019
4374 Clouds 6 999 89 0 10.98 27.006 23:39 31.07.2019
4375 Clouds 6 999 89 0 10.98 27.006 23:19 31.07.2019
4376 Clouds 6 999 89 0 10.98 27.006 22:44 31.07.2019
4377 Clouds 6 999 89 0 10.98 27.006 22:24 31.07.2019
4378 Clouds 6 999 89 0 10.98 27.006 21:41 31.07.2019
4379 Clouds 7 1000 86 0 12.42 34.099 21:22 31.07.2019
4380 Clouds 7 1001 87 0 11.92 37.998 20:49 31.07.2019
4381 Clouds 7 1001 87 0 11.92 37.998 20:24 31.07.2019
4382 Clouds 7 1001 87 0 11.92 37.998 19:49 31.07.2019
4383 Clouds 7 1001 87 0 11.92 37.998 19:31 31.07.2019
4384 Clouds 7 1001 87 0 11.92 37.998 18:57 31.07.2019
4385 Clouds 7 1001 87 0 11.92 37.998 18:37 31.07.2019
4386 Clouds 6 1001 88 0 11.13 35.556 18:18 31.07.2019
4387 Clouds 6 1001 88 0 11.13 35.556 17:44 31.07.2019
4388 Clouds 6 1001 88 0 11.13 35.556 17:20 31.07.2019
4389 Clouds 6 1001 88 0 11.13 35.556 16:52 31.07.2019
4390 Clouds 6 1001 88 0 11.13 35.556 16:27 31.07.2019
4391 Clouds 6 1001 88 0 11.13 35.556 15:58 31.07.2019
4392 Clouds 6 1001 88 0 11.13 35.556 15:38 31.07.2019
4393 Clouds 6 1002 88 0 10.58 36.287 15:20 31.07.2019
4394 Clouds 6 1002 88 0 10.58 36.287 14:42 31.07.2019
4395 Clouds 6 1002 88 0 10.58 36.287 14:19 31.07.2019
4396 Clouds 6 1002 88 0 10.58 36.287 13:55 31.07.2019
4397 Clouds 6 1002 88 0 10.58 36.287 13:36 31.07.2019
4398 Clouds 6 1002 88 0 10.15 38.77 13:18 31.07.2019
4399 Clouds 6 1002 88 0 10.15 38.77 13:18 31.07.2019
4400 Clouds 6 1002 88 0 10.15 38.77 12:40 31.07.2019
4401 Clouds 6 1002 90 0 9.64 41.624 12:21 31.07.2019
4402 Clouds 6 1002 90 0 9.64 41.624 11:39 31.07.2019
4403 Clouds 6 1002 90 0 9.64 41.624 11:20 31.07.2019
4404 Clouds 6 1002 90 0 9.64 41.624 10:46 31.07.2019
4405 Clouds 6 1002 90 0 9.64 41.624 10:21 31.07.2019
4406 Clouds 6 1002 90 0 9.64 41.624 09:59 31.07.2019
4407 Clouds 6 1002 90 0 9.64 41.624 09:41 31.07.2019
4408 Clouds 6 1004 91 0 8.6 52.089 09:23 31.07.2019
4409 Clouds 6 1004 91 0 8.6 52.188 08:43 31.07.2019
4410 Clouds 6 1004 91 0 8.6 52.188 08:23 31.07.2019
4411 Clouds 6 1004 91 0 8.6 52.188 07:42 31.07.2019
4412 Clouds 6 1004 91 0 8.6 52.188 07:22 31.07.2019
4413 Clouds 6 1004 91 0 8.49 59.655 04:56 31.07.2019
4414 Clouds 6 1004 91 0 8.49 59.655 03:33 31.07.2019
4415 Clear 6 1005 92 0 9.33 59.5 00:30 31.07.2019
4416 Clear 7 1005 92 0 9.82 60.922 23:42 30.07.2019
4417 Clear 7 1005 92 0 9.82 60.922 23:20 30.07.2019
4418 Clear 7 1005 92 0 9.82 60.922 22:48 30.07.2019
4419 Clear 7 1005 92 0 9.82 60.922 22:25 30.07.2019
4420 Clear 7 1005 92 0 9.82 60.922 21:57 30.07.2019
4421 Clear 7 1005 92 0 9.82 60.922 21:37 30.07.2019
4422 Clear 7 1006 82 0 10.4 62.708 21:18 30.07.2019
4423 Clear 7 1007 83 0 9.76 63.873 20:43 30.07.2019
4424 Clear 7 1007 83 0 9.76 63.873 20:24 30.07.2019
4425 Clear 7 1007 83 0 9.76 63.873 19:59 30.07.2019
4426 Clear 7 1007 83 0 9.76 63.873 19:40 30.07.2019
4427 Clear 7 1007 83 0 9.76 63.873 19:18 30.07.2019
4428 Clear 7 1007 83 0 9.76 63.873 18:43 30.07.2019
4429 Clear 7 1007 81 0 10.85 59.698 18:19 30.07.2019
4430 Clear 7 1007 81 0 10.85 59.698 17:42 30.07.2019
4431 Clear 7 1007 81 0 10.85 59.698 17:20 30.07.2019
4432 Clear 7 1007 81 0 10.85 59.698 16:53 30.07.2019
4433 Clear 7 1007 81 0 10.85 59.698 16:22 30.07.2019
4434 Clear 7 1007 81 0 10.85 59.698 16:22 30.07.2019
4435 Clear 7 1007 81 0 10.85 59.698 15:58 30.07.2019
4436 Clear 7 1007 81 0 10.85 59.698 15:38 30.07.2019
4437 Clear 7 1008 83 0 11.29 63.312 15:19 30.07.2019
4438 Clear 7 1008 83 0 11.29 63.312 14:42 30.07.2019
4439 Clear 7 1008 83 0 11.29 63.312 14:21 30.07.2019
4440 Clear 7 1008 83 0 11.29 63.312 13:48 30.07.2019
4441 Clear 7 1008 83 0 11.29 63.312 13:29 30.07.2019
4442 Clouds 6 1008 85 0 10.9 58.799 12:59 30.07.2019
4443 Clouds 6 1008 85 0 10.9 58.799 12:40 30.07.2019
4444 Clouds 5 1008 92 0 9.96 59.437 12:22 30.07.2019
4445 Clouds 5 1008 92 0 9.96 59.437 11:44 30.07.2019
4446 Clouds 5 1008 92 0 9.96 59.437 11:21 30.07.2019
4447 Clouds 5 1008 92 0 9.96 59.437 11:21 30.07.2019
4448 Clouds 5 1009 92 0 10.59 58.47 10:55 30.07.2019
4449 Clouds 5 1009 92 0 10.59 58.47 10:37 30.07.2019
4450 Clouds 5 1009 92 0 10.59 58.47 10:18 30.07.2019
4451 Clouds 5 1009 92 0 10.59 58.47 09:44 30.07.2019
4452 Clear 4 1009 96 0 10.78 64.039 09:24 30.07.2019
4453 Clear 4 1009 96 0 10.78 64.039 09:24 30.07.2019
4454 Clear 4 1009 96 0 10.78 64.039 08:32 30.07.2019
4455 Clear 4 1009 96 0 10.78 64.039 07:52 30.07.2019
4456 Clear 4 1009 96 0 10.78 64.039 07:34 30.07.2019
4457 Clear 4 1009 96 0 10.78 64.039 06:52 30.07.2019
4458 Clear 4 1009 96 0 10.78 64.039 06:32 30.07.2019
4459 Clouds 5 1010 93 0 10.5 69.459 05:34 30.07.2019
4460 Clouds 5 1010 93 0 10.5 69.459 03:29 30.07.2019
4461 Clouds 5 1011 87 0 11.66 65.608 01:22 30.07.2019
4462 Clouds 5 1011 87 0 11.66 65.608 00:26 30.07.2019
4463 Clouds 6 1011 80 0 12.51 65.777 23:57 29.07.2019
4464 Clouds 6 1011 80 0 12.51 65.777 23:38 29.07.2019
4465 Clouds 6 1011 80 0 12.51 65.777 23:19 29.07.2019
4466 Clouds 6 1011 80 0 12.51 65.777 22:54 29.07.2019
4467 Clouds 6 1011 80 0 12.51 65.777 22:36 29.07.2019
4468 Clouds 6 1011 80 0 12.51 65.777 22:36 29.07.2019
4469 Clouds 6 1011 80 0 12.51 65.777 22:18 29.07.2019
4470 Clouds 6 1011 80 0 12.51 65.777 21:41 29.07.2019
4471 Clouds 6 1012 78 0 11.63 63.589 21:23 29.07.2019
4472 Clouds 6 1012 78 0 11.63 63.589 20:55 29.07.2019
4473 Clouds 6 1012 78 0 11.63 63.589 20:37 29.07.2019
4474 Clouds 6 1012 78 0 11.63 63.589 20:19 29.07.2019
4475 Clouds 6 1012 78 0 11.63 63.589 19:42 29.07.2019
4476 Clouds 6 1012 78 0 11.63 63.589 19:21 29.07.2019
4477 Clouds 6 1012 78 0 11.63 63.589 18:43 29.07.2019
4478 Clouds 5 1011 83 0 10.93 55.407 18:23 29.07.2019
4479 Clouds 5 1011 83 0 10.93 55.407 17:57 29.07.2019
4480 Clouds 5 1011 83 0 10.93 55.407 17:39 29.07.2019
4481 Clouds 5 1011 83 0 10.93 55.407 17:20 29.07.2019
4482 Clouds 5 1011 83 0 10.93 55.407 16:43 29.07.2019
4483 Clouds 5 1011 83 0 10.93 55.407 16:23 29.07.2019
4484 Clouds 5 1011 83 0 10.93 55.407 15:53 29.07.2019
4485 Clouds 5 1011 83 0 10.93 55.407 15:35 29.07.2019
4486 Clouds 5 1012 87 0 10.87 57.036 14:57 29.07.2019
4487 Clouds 5 1012 87 0 10.87 57.036 14:38 29.07.2019
4488 Clouds 5 1012 87 0 10.87 57.036 14:20 29.07.2019
4489 Clouds 5 1012 87 0 10.87 57.036 13:43 29.07.2019
4490 Clouds 4 1012 88 0 10.54 56.232 13:23 29.07.2019
4491 Clouds 4 1012 88 0 10.54 56.232 12:43 29.07.2019
4492 Clouds 4 1012 92 0 10.7 52.486 12:24 29.07.2019
4493 Clouds 4 1012 92 0 10.7 52.486 11:44 29.07.2019
4494 Clouds 4 1012 92 0 10.7 52.486 11:23 29.07.2019
4495 -273 0 0 0 0 0 10:57 29.07.2019
4496 Clouds 4 1012 92 0 10.7 52.486 10:57 29.07.2019
4497 Clouds 4 1012 92 0 10.7 52.486 10:38 29.07.2019
4498 Clouds 4 1012 92 0 10.7 52.486 10:19 29.07.2019
4499 Clouds 4 1012 92 0 10.7 52.486 09:38 29.07.2019
4500 Clouds 4 1012 91 0 9.48 59.218 09:19 29.07.2019
4501 Clouds 4 1012 92 0 9.47 57.548 08:36 29.07.2019
4502 Clouds 4 1012 92 0 9.47 57.548 08:18 29.07.2019
4503 Clouds 4 1012 92 0 9.47 57.548 07:41 29.07.2019
4504 Clouds 4 1012 92 0 9.47 57.548 07:20 29.07.2019
4505 Clouds 4 1012 93 0 9.03 62.768 05:47 29.07.2019
4506 Clouds 4 1012 93 0 9.03 62.768 04:53 29.07.2019
4507 Clouds 4 1013 91 0 8.31 67.383 02:26 29.07.2019
4508 Clouds 4 1013 91 0 8.31 67.383 01:43 29.07.2019
4509 Clouds 4 1012 89 0 8.19 68.728 01:22 29.07.2019
4510 Clouds 4 1012 89 0 8.19 68.728 00:43 29.07.2019
4511 Clouds 4 1011 90 0 8.01 60.222 00:20 29.07.2019
4512 Clouds 4 1011 90 0 8.01 60.222 23:41 28.07.2019
4513 Clouds 4 1011 90 0 8.01 60.222 23:18 28.07.2019
4514 Clouds 4 1011 90 0 8.01 60.222 22:40 28.07.2019
4515 Clouds 4 1011 90 0 8.01 60.222 22:22 28.07.2019
4516 Clouds 4 1011 90 0 8.01 60.222 21:48 28.07.2019
4517 Clouds 4 1012 92 0 7.14 63.137 21:19 28.07.2019
4518 Clouds 4 1012 90 0 7.7 61.701 20:48 28.07.2019
4519 Clouds 4 1012 90 0 7.7 61.701 20:29 28.07.2019
4520 Clouds 4 1012 90 0 7.7 61.701 19:54 28.07.2019
4521 Clouds 4 1012 90 0 7.7 61.701 19:36 28.07.2019
4522 Clouds 4 1012 90 0 7.7 61.701 19:36 28.07.2019
4523 Clouds 4 1012 90 0 7.7 61.701 19:18 28.07.2019
4524 Clouds 4 1012 90 0 7.7 61.701 18:42 28.07.2019
4525 Clouds 4 1011 91 0 7.4 66.932 18:19 28.07.2019
4526 Clouds 4 1011 91 0 7.4 66.932 17:42 28.07.2019
4527 Clouds 4 1011 91 0 7.4 66.932 17:22 28.07.2019
4528 Clouds 4 1011 91 0 7.4 66.932 16:57 28.07.2019
4529 Clouds 4 1011 91 0 7.4 66.932 16:39 28.07.2019
4530 Clouds 4 1011 91 0 7.4 66.932 16:20 28.07.2019
4531 Clouds 4 1011 91 0 7.4 66.932 15:43 28.07.2019
4532 Clouds 4 1010 91 0 6.8 67.306 15:21 28.07.2019
4533 Clouds 4 1010 91 0 6.8 67.306 14:37 28.07.2019
4534 Clouds 4 1010 91 0 6.8 67.306 14:37 28.07.2019
4535 Clouds 4 1010 91 0 6.8 67.306 14:37 28.07.2019
4536 Clouds 4 1010 91 0 6.8 67.306 14:37 28.07.2019
4537 Clouds 4 1010 91 0 6.8 67.306 14:19 28.07.2019
4538 Clouds 4 1010 91 0 6.8 67.306 13:45 28.07.2019
4539 Clouds 4 1011 90 0 7.1 63.327 13:25 28.07.2019
4540 Clouds 4 1011 90 0 7.1 63.327 12:59 28.07.2019
4541 Clouds 4 1011 90 0 7.1 63.327 12:40 28.07.2019
4542 Clouds 3 1009 89 0 6.09 70.235 12:22 28.07.2019
4543 Clouds 3 1009 89 0 6.09 70.235 11:47 28.07.2019
4544 Clouds 3 1009 89 0 6.09 70.235 11:27 28.07.2019
4545 Clouds 3 1009 89 0 6.09 70.235 10:41 28.07.2019
4546 Clouds 3 1009 89 0 6.09 70.235 10:22 28.07.2019
4547 Clouds 3 1009 89 0 6.09 70.235 09:45 28.07.2019
4548 Clouds 3 1009 89 0 6.09 70.235 09:27 28.07.2019
4549 Clouds 4 1009 86 0 5.46 90.745 08:52 28.07.2019
4550 Clouds 4 1009 86 0 5.46 90.745 08:29 28.07.2019
4551 Clouds 4 1009 86 0 5.46 90.745 07:57 28.07.2019
4552 Clouds 4 1009 86 0 5.46 90.745 07:37 28.07.2019
4553 Clouds 4 1009 86 0 5.46 90.745 06:42 28.07.2019
4554 Clouds 4 1008 92 0 4.68 69.388 05:27 28.07.2019
4555 Clouds 4 1008 92 0 4.68 69.388 03:31 28.07.2019
4556 Clouds 3 1009 92 0 3.85 67.941 02:24 28.07.2019
4557 Clouds 3 1009 92 0 3.6 72.869 01:19 28.07.2019
4558 Clouds 3 1009 92 0 3.6 72.869 00:45 28.07.2019
4559 Clouds 3 1008 93 0 3.86 59.346 00:18 28.07.2019
4560 Clouds 3 1008 93 0 3.86 59.346 23:46 27.07.2019
4561 Clouds 3 1008 93 0 3.86 59.346 23:20 27.07.2019
4562 Clouds 3 1008 93 0 3.86 59.346 22:41 27.07.2019
4563 Clouds 3 1008 93 0 3.86 59.346 22:20 27.07.2019
4564 Clouds 3 1008 93 0 3.86 59.346 21:41 27.07.2019
4565 Clouds 3 1009 92 0 2.73 52.068 21:20 27.07.2019
4566 Clouds 3 1009 88 0 3.39 61.385 20:51 27.07.2019
4567 Clouds 3 1009 88 0 3.39 61.385 20:25 27.07.2019
4568 Clouds 3 1009 88 0 3.39 61.385 19:46 27.07.2019
4569 Clouds 3 1009 88 0 3.39 61.385 19:27 27.07.2019
4570 Clouds 3 1009 88 0 3.39 61.385 18:55 27.07.2019
4571 Clouds 3 1009 88 0 3.39 61.385 18:36 27.07.2019
4572 Clouds 3 1009 90 0 2.69 52.542 17:57 27.07.2019
4573 Clouds 3 1009 90 0 2.69 52.542 17:57 27.07.2019
4574 Clouds 3 1009 90 0 2.69 52.542 17:36 27.07.2019
4575 Clouds 3 1009 90 0 2.69 52.542 17:18 27.07.2019
4576 Clouds 3 1009 90 0 2.69 52.542 16:46 27.07.2019
4577 Clouds 3 1009 90 0 2.69 52.542 16:28 27.07.2019
4578 Clouds 3 1009 90 0 2.69 52.542 15:53 27.07.2019
4579 Clouds 3 1011 92 0 3.46 29.103 15:22 27.07.2019
4580 Clouds 3 1011 92 0 3.46 29.103 14:51 27.07.2019
4581 Clouds 3 1011 92 0 3.46 29.103 14:32 27.07.2019
4582 Clouds 3 1011 92 0 3.46 29.103 13:56 27.07.2019
4583 Clouds 3 1011 92 0 3.46 29.103 13:38 27.07.2019
4584 Clouds 3 1012 91 0 3.96 32.653 13:19 27.07.2019
4585 Clouds 3 1012 91 0 3.96 32.653 12:41 27.07.2019
4586 Clouds 3 1012 92 0 5.51 26.142 12:21 27.07.2019
4587 Clouds 3 1012 92 0 5.51 26.142 11:42 27.07.2019
4588 Clouds 3 1012 92 0 5.51 26.142 11:24 27.07.2019
4589 Clouds 3 1012 92 0 5.51 26.142 10:42 27.07.2019
4590 Clouds 3 1012 92 0 5.51 26.142 10:23 27.07.2019
4591 Clouds 3 1012 92 0 5.51 26.142 09:45 27.07.2019
4592 Clouds 3 1012 92 0 5.51 26.142 09:26 27.07.2019
4593 Clouds 3 1012 95 0 6.06 37.702 08:58 27.07.2019
4594 Clouds 4 1012 95 0 6.45 34.893 08:40 27.07.2019
4595 Clouds 4 1012 95 0 6.45 34.893 08:20 27.07.2019
4596 Clouds 4 1012 95 0 6.45 34.893 07:41 27.07.2019
4597 Clouds 4 1012 95 0 6.45 34.893 07:20 27.07.2019
4598 Clouds 4 1012 95 0 6.45 34.893 06:50 27.07.2019
4599 Clouds 4 1012 95 0 6.59 29.134 06:22 27.07.2019
4600 Clouds 4 1012 95 0 6.59 29.134 05:35 27.07.2019
4601 Clouds 4 1012 95 0 6.59 29.134 04:46 27.07.2019
4602 Clouds 4 1012 95 0 6.59 29.134 03:50 27.07.2019
4603 Rain 4 1011 94 0 7.61 33.364 02:43 27.07.2019
4604 Rain 4 1011 94 0 7.61 33.364 01:59 27.07.2019
4605 -273 0 0 0 0 0 01:36 27.07.2019
4606 Rain 4 1011 94 0 8.01 31.874 00:41 27.07.2019
4607 Rain 4 1010 97 0 8.13 30.832 00:22 27.07.2019
4608 Rain 4 1010 97 0 8.13 30.832 23:44 26.07.2019
4609 -273 0 0 0 0 0 23:26 26.07.2019
4610 Rain 4 1010 97 0 8.13 30.832 22:43 26.07.2019
4611 Rain 4 1010 97 0 8.13 30.832 22:25 26.07.2019
4612 Rain 4 1010 97 0 8.13 30.832 21:52 26.07.2019
4613 Clouds 4 1010 98 0 7.99 10.998 21:20 26.07.2019
4614 Clouds 4 1009 97 0 8.74 10.274 20:52 26.07.2019
4615 Clouds 4 1009 97 0 8.74 10.274 20:33 26.07.2019
4616 Clouds 4 1009 97 0 8.74 10.274 19:57 26.07.2019
4617 Clouds 4 1009 97 0 8.74 10.274 19:38 26.07.2019
4618 Clouds 4 1009 97 0 8.74 10.274 19:20 26.07.2019
4619 Clouds 4 1009 97 0 8.74 10.274 18:44 26.07.2019
4620 Clouds 4 1008 98 0 8.61 341.092 18:21 26.07.2019
4621 Clouds 4 1008 98 0 8.61 341.092 17:57 26.07.2019
4622 Clouds 4 1008 98 0 8.61 341.092 17:38 26.07.2019
4623 Clouds 4 1008 98 0 8.61 341.092 17:18 26.07.2019
4624 Clouds 4 1008 98 0 8.61 341.092 16:54 26.07.2019
4625 Clouds 4 1008 98 0 8.61 341.092 16:36 26.07.2019
4626 Clouds 4 1008 98 0 8.61 341.092 16:18 26.07.2019
4627 Clouds 4 1008 98 0 8.61 341.092 15:44 26.07.2019
4628 Rain 4 1008 98 0 8.79 329.786 15:21 26.07.2019
4629 Rain 4 1008 98 0 8.79 329.786 14:46 26.07.2019
4630 Rain 4 1008 98 0 8.79 329.786 14:25 26.07.2019
4631 Rain 4 1008 98 0 8.79 329.786 13:56 26.07.2019
4632 Rain 4 1008 98 0 8.79 329.786 13:36 26.07.2019
4633 Rain 4 1009 97 0 8.11 326.653 13:18 26.07.2019
4634 Rain 4 1009 97 0 8.11 326.653 12:42 26.07.2019
4635 Rain 4 1008 97 0 9.3 312.282 12:18 26.07.2019
4636 Rain 4 1008 97 0 9.3 312.282 11:38 26.07.2019
4637 Rain 4 1008 97 0 9.3 312.282 11:19 26.07.2019
4638 Rain 4 1008 97 0 9.3 312.282 10:47 26.07.2019
4639 Rain 4 1008 97 0 9.3 312.282 10:28 26.07.2019
4640 Rain 4 1008 97 0 9.3 312.282 09:53 26.07.2019
4641 Rain 4 1008 97 0 9.3 312.282 09:34 26.07.2019
4642 Clouds 4 1009 95 0 8.68 301.882 08:42 26.07.2019
4643 Clouds 4 1009 95 0 8.68 301.882 08:21 26.07.2019
4644 Clouds 4 1009 95 0 8.68 301.882 07:54 26.07.2019
4645 Clouds 4 1009 95 0 8.68 301.882 07:27 26.07.2019
4646 Clouds 4 1009 95 0 8.68 301.882 06:41 26.07.2019
4647 Clouds 5 1009 97 0 9.35 289.278 04:50 26.07.2019
4648 Clouds 5 1009 97 0 9.35 289.278 04:21 26.07.2019
4649 Rain 6 1009 95 0 8.81 289.039 02:25 26.07.2019
4650 Rain 6 1009 95 0 8.73 288.719 01:31 26.07.2019
4651 Rain 6 1009 95 0 8.73 288.719 00:39 26.07.2019
4652 Rain 6 1009 99 0 7.74 251.453 23:55 25.07.2019
4653 Rain 6 1009 99 0 7.74 251.453 23:23 25.07.2019
4654 Rain 6 1009 99 0 7.74 251.453 22:55 25.07.2019
4655 Rain 6 1009 99 0 7.74 251.453 22:36 25.07.2019
4656 Rain 6 1009 99 0 7.74 251.453 22:18 25.07.2019
4657 Rain 6 1009 99 0 7.74 251.453 21:41 25.07.2019
4658 Rain 7 1011 96 0 7.39 237.815 21:21 25.07.2019
4659 Clouds 7 1012 94 0 7.42 241.888 20:45 25.07.2019
4660 Clouds 7 1012 94 0 7.42 241.888 20:22 25.07.2019
4661 Clouds 7 1012 94 0 7.42 241.888 20:22 25.07.2019
4662 Clouds 7 1012 94 0 7.42 241.888 19:42 25.07.2019
4663 Clouds 7 1012 94 0 7.42 241.888 19:24 25.07.2019
4664 Clouds 7 1012 94 0 7.42 241.888 18:46 25.07.2019
4665 Clouds 7 1012 94 0 7.42 241.888 18:27 25.07.2019
4666 Rain 9 1013 79 0 6.11 238.63 17:57 25.07.2019
4667 Rain 9 1013 79 0 6.11 238.63 17:38 25.07.2019
4668 Rain 9 1013 79 0 6.11 238.63 17:38 25.07.2019
4669 Rain 9 1013 79 0 6.11 238.63 17:20 25.07.2019
4670 Rain 9 1013 79 0 6.11 238.63 16:42 25.07.2019
4671 Rain 9 1013 79 0 6.11 238.63 16:22 25.07.2019
4672 Rain 9 1013 79 0 6.11 238.63 15:51 25.07.2019
4673 Clouds 9 1015 71 0 6.61 234.54 15:21 25.07.2019
4674 Clouds 9 1015 71 0 6.61 234.54 14:44 25.07.2019
4675 Clouds 9 1015 71 0 6.61 234.54 14:25 25.07.2019
4676 Clouds 9 1015 71 0 6.61 234.54 13:59 25.07.2019
4677 Clouds 9 1015 71 0 6.61 234.54 13:40 25.07.2019
4678 Clouds 9 1015 73 0 6.28 227.355 13:22 25.07.2019
4679 Clouds 9 1015 73 0 6.28 227.355 12:35 25.07.2019
4680 Clouds 9 1016 68 0 5.15 244.575 11:59 25.07.2019
4681 Clouds 9 1016 68 0 5.15 244.575 11:40 25.07.2019
4682 Clouds 9 1016 68 0 5.15 244.575 11:40 25.07.2019
4683 Clouds 9 1016 68 0 5.15 244.575 11:22 25.07.2019
4684 Clouds 9 1016 68 0 5.15 244.575 10:45 25.07.2019
4685 Clouds 9 1016 68 0 5.15 244.575 10:24 25.07.2019
4686 Clouds 9 1016 68 0 5.15 244.575 09:46 25.07.2019
4687 Clouds 9 1016 68 0 5.15 244.575 09:27 25.07.2019
4688 Clouds 8 1018 72 0 3.21 249.41 08:53 25.07.2019
4689 Clouds 8 1018 72 0 3.21 249.41 08:32 25.07.2019
4690 Clouds 8 1018 72 0 3.21 249.41 07:40 25.07.2019
4691 Clouds 8 1018 72 0 3.21 249.41 06:46 25.07.2019
4692 Clouds 8 1018 66 0 3.5 238.574 06:19 25.07.2019
4693 Clouds 8 1018 66 0 3.5 238.574 05:34 25.07.2019
4694 Clouds 8 1018 66 0 3.5 238.574 04:45 25.07.2019
4695 Clouds 7 1019 65 0 1.7 217.887 02:26 25.07.2019
4696 Clouds 7 1019 66 0 1.23 209.571 01:21 25.07.2019
4697 Clouds 7 1019 66 0 1.23 209.571 00:31 25.07.2019
4698 Clouds 7 1019 65 0 1.08 172.947 23:56 24.07.2019
4699 Clouds 7 1019 65 0 1.08 172.947 23:38 24.07.2019
4700 Clouds 7 1019 65 0 1.08 172.947 23:19 24.07.2019
4701 Clouds 7 1019 65 0 1.08 172.947 22:44 24.07.2019
4702 Clouds 7 1019 65 0 1.08 172.947 22:22 24.07.2019
4703 Clouds 7 1019 65 0 1.08 172.947 21:55 24.07.2019
4704 Clouds 7 1019 65 0 1.08 172.947 21:37 24.07.2019
4705 Clouds 7 1019 67 0 0.94 174.539 21:18 24.07.2019
4706 Clouds 7 1020 68 0 0.63 187.679 20:40 24.07.2019
4707 Clouds 7 1020 68 0 0.63 187.679 20:22 24.07.2019
4708 Clouds 7 1020 68 0 0.63 187.679 19:57 24.07.2019
4709 Clouds 7 1020 68 0 0.63 187.679 19:39 24.07.2019
4710 Clouds 7 1020 68 0 0.63 187.679 19:19 24.07.2019
4711 Clouds 7 1020 68 0 0.63 187.679 18:42 24.07.2019
4712 Clouds 7 1020 70 0 0.87 175.662 18:23 24.07.2019
4713 Clouds 7 1020 70 0 0.87 175.662 17:46 24.07.2019
4714 Clouds 7 1020 70 0 0.87 175.662 17:20 24.07.2019
4715 Clouds 7 1020 70 0 0.87 175.662 16:43 24.07.2019
4716 Clouds 7 1020 70 0 0.87 175.662 16:23 24.07.2019
4717 Clouds 7 1020 70 0 0.87 175.662 15:58 24.07.2019
4718 Clouds 7 1020 70 0 0.87 175.662 15:36 24.07.2019
4719 Clear 7 1020 72 0 0.69 52.052 15:18 24.07.2019
4720 Clear 7 1020 72 0 0.69 52.052 14:43 24.07.2019
4721 Clear 7 1020 72 0 0.69 52.052 14:19 24.07.2019
4722 Clear 7 1020 72 0 0.69 52.052 13:38 24.07.2019
4723 Clear 7 1021 75 0 0.57 75.964 13:19 24.07.2019
4724 Clear 7 1021 75 0 0.57 75.964 12:51 24.07.2019
4725 Clear 7 1021 75 0 0.57 75.964 12:33 24.07.2019
4726 Clear 6 1020 80 0 0.45 148.158 11:40 24.07.2019
4727 Clear 6 1020 80 0 0.45 148.158 11:21 24.07.2019
4728 Clear 6 1020 80 0 0.45 148.158 10:46 24.07.2019
4729 Clear 6 1020 80 0 0.45 148.158 10:26 24.07.2019
4730 Clear 6 1020 80 0 0.45 148.158 09:52 24.07.2019
4731 Clear 6 1020 80 0 0.45 148.158 09:26 24.07.2019
4732 Clouds 5 1020 83 0 0.71 81.199 08:58 24.07.2019
4733 Clouds 5 1020 82 0 0.08 202.834 08:32 24.07.2019
4734 Clouds 5 1020 82 0 0.08 202.834 07:52 24.07.2019
4735 Clouds 5 1020 82 0 0.08 202.834 07:31 24.07.2019
4736 Clouds 5 1020 82 0 0.08 202.834 06:49 24.07.2019
4737 Clouds 5 1021 85 0 0.83 329.343 06:23 24.07.2019
4738 Clear 4 1021 86 0 0.63 134.036 02:56 24.07.2019
4739 Clear 4 1021 86 0 0.63 134.036 01:44 24.07.2019
4740 Clear 4 1021 87 0 1.05 112.422 00:57 24.07.2019
4741 Clear 5 1021 85 0 2.28 83.51 00:24 24.07.2019
4742 Clear 5 1021 85 0 2.28 83.51 23:46 23.07.2019
4743 Clear 5 1021 85 0 2.28 83.51 23:25 23.07.2019
4744 Clear 5 1021 85 0 2.28 83.51 22:56 23.07.2019
4745 Clear 5 1021 85 0 2.28 83.51 22:36 23.07.2019
4746 Clear 5 1021 85 0 2.28 83.51 22:18 23.07.2019
4747 Clear 5 1021 85 0 2.28 83.51 22:18 23.07.2019
4748 Clear 5 1021 85 0 2.28 83.51 21:43 23.07.2019
4749 Clear 6 1021 85 0 2.76 78.34 21:25 23.07.2019
4750 Clear 6 1021 83 0 3.21 82.087 20:48 23.07.2019
4751 Clear 6 1021 83 0 3.21 82.087 20:29 23.07.2019
4752 Clear 6 1021 83 0 3.21 82.087 19:43 23.07.2019
4753 Clear 6 1021 83 0 3.21 82.087 19:24 23.07.2019
4754 Clear 6 1021 83 0 3.21 82.087 18:56 23.07.2019
4755 Clear 6 1021 83 0 3.21 82.087 18:38 23.07.2019
4756 Clear 6 1021 82 0 3.88 75.81 18:19 23.07.2019
4757 Clear 6 1021 82 0 3.88 75.81 17:42 23.07.2019
4758 Clear 6 1021 82 0 3.88 75.81 17:20 23.07.2019
4759 Clear 6 1021 82 0 3.88 75.81 16:42 23.07.2019
4760 Clear 6 1021 82 0 3.88 75.81 16:24 23.07.2019
4761 Clear 6 1021 82 0 3.88 75.81 15:48 23.07.2019
4762 Clear 6 1021 82 0 3.88 75.81 15:48 23.07.2019
4763 Clear 6 1021 82 0 3.88 75.81 15:29 23.07.2019
4764 Clear 6 1021 83 0 4.6 75.755 14:54 23.07.2019
4765 Clear 6 1021 83 0 4.6 75.755 14:36 23.07.2019
4766 Clear 6 1021 83 0 4.6 75.755 14:18 23.07.2019
4767 Clear 6 1021 83 0 4.6 75.755 13:42 23.07.2019
4768 Clear 6 1021 82 0 4.78 72.198 13:23 23.07.2019
4769 Clear 6 1021 82 0 4.78 72.198 12:54 23.07.2019
4770 -273 0 0 0 0 0 12:36 23.07.2019
4771 Clear 5 1021 86 0 4.72 83.306 12:18 23.07.2019
4772 Clear 5 1021 86 0 4.72 83.306 11:41 23.07.2019
4773 Clear 5 1021 86 0 4.72 83.306 11:20 23.07.2019
4774 Clear 5 1021 86 0 4.72 83.306 10:43 23.07.2019
4775 Clear 5 1021 86 0 4.72 83.306 10:22 23.07.2019
4776 Clear 5 1021 86 0 4.72 83.306 09:42 23.07.2019
4777 Clouds 5 1022 85 0 5.26 86.328 09:22 23.07.2019
4778 Clouds 5 1021 85 0 5.24 88.437 08:44 23.07.2019
4779 Clouds 5 1021 85 0 5.24 88.437 08:20 23.07.2019
4780 Clouds 5 1021 85 0 5.24 88.437 07:59 23.07.2019
4781 Clouds 5 1021 85 0 5.24 88.437 07:37 23.07.2019
4782 Clouds 5 1021 85 0 5.24 88.437 06:52 23.07.2019
4783 Clouds 5 1021 85 0 5.24 88.437 06:34 23.07.2019
4784 Clouds 5 1021 85 0 5.24 88.437 06:34 23.07.2019
4785 Clouds 5 1021 87 0 4.98 81.855 04:26 23.07.2019
4786 Clouds 5 1021 85 0 5.21 77.248 01:37 23.07.2019
4787 Clouds 5 1022 85 0 5.21 73.491 00:41 23.07.2019
4788 Clouds 5 1021 83 0 5.62 64.169 00:19 23.07.2019
4789 Clouds 5 1021 83 0 5.62 64.169 23:39 22.07.2019
4790 Clouds 5 1021 83 0 5.62 64.169 23:19 22.07.2019
4791 Clouds 5 1021 83 0 5.62 64.169 22:45 22.07.2019
4792 Clouds 5 1021 83 0 5.62 64.169 22:23 22.07.2019
4793 Clouds 5 1021 83 0 5.62 64.169 21:44 22.07.2019
4794 Clouds 5 1021 82 0 5.62 58.433 21:24 22.07.2019
4795 Clouds 5 1021 82 0 5.62 58.433 21:00 22.07.2019
4796 Clouds 5 1021 83 0 5.42 59.657 20:41 22.07.2019
4797 Clouds 5 1021 83 0 5.42 59.657 20:21 22.07.2019
4798 Clouds 5 1021 83 0 5.42 59.657 19:42 22.07.2019
4799 Clouds 5 1021 83 0 5.42 59.657 19:22 22.07.2019
4800 Clouds 5 1021 83 0 5.42 59.657 18:48 22.07.2019
4801 Clouds 5 1021 83 0 5.42 59.657 18:28 22.07.2019
4802 Clouds 5 1021 84 0 5.05 53.157 17:59 22.07.2019
4803 Clouds 5 1021 84 0 5.05 53.157 17:38 22.07.2019
4804 Clouds 5 1021 84 0 5.05 53.157 17:20 22.07.2019
4805 Clouds 5 1021 84 0 5.05 53.157 16:40 22.07.2019
4806 Clouds 5 1021 84 0 5.05 53.157 16:21 22.07.2019
4807 Clouds 5 1021 84 0 5.05 53.157 15:46 22.07.2019
4808 Clouds 5 1020 83 0 4.85 60.61 15:21 22.07.2019
4809 Clouds 5 1020 83 0 4.85 60.61 14:59 22.07.2019
4810 Clouds 5 1020 83 0 4.85 60.61 14:40 22.07.2019
4811 Clouds 5 1020 83 0 4.85 60.61 14:18 22.07.2019
4812 Clouds 5 1020 83 0 4.85 60.61 13:40 22.07.2019
4813 Clouds 5 1020 83 0 4.85 60.61 13:22 22.07.2019
4814 Clouds 5 1020 83 0 4.85 60.61 12:36 22.07.2019
4815 Clouds 5 1019 92 0 4.33 70.247 11:59 22.07.2019
4816 Clouds 5 1019 92 0 4.33 70.247 11:41 22.07.2019
4817 Clouds 5 1019 92 0 4.33 70.247 11:20 22.07.2019
4818 Clouds 5 1019 92 0 4.33 70.247 10:43 22.07.2019
4819 Clouds 5 1019 92 0 4.33 70.247 10:24 22.07.2019
4820 Clouds 5 1019 92 0 4.33 70.247 09:42 22.07.2019
4821 Clouds 5 1018 91 0 4.22 68.244 09:23 22.07.2019
4822 Clouds 5 1018 91 0 4.22 68.244 08:44 22.07.2019
4823 Clouds 5 1018 91 0 4.22 68.244 08:24 22.07.2019
4824 Clouds 5 1018 91 0 4.22 68.244 07:54 22.07.2019
4825 Clouds 5 1018 91 0 4.22 68.244 07:32 22.07.2019
4826 Clouds 5 1018 91 0 4.22 68.244 06:42 22.07.2019
4827 Clouds 5 1018 84 0 2.94 34.058 03:55 22.07.2019
4828 Clear 5 1017 78 0 2.67 313.316 01:53 22.07.2019
4829 Clouds 5 1017 82 0 2.89 329.495 00:54 22.07.2019
4830 Clear 6 1015 82 0 4.54 287.553 00:24 22.07.2019
4831 Clear 6 1015 82 0 4.54 287.553 23:54 21.07.2019
4832 Clear 6 1015 82 0 4.54 287.553 23:27 21.07.2019
4833 Clear 6 1015 82 0 4.54 287.553 22:42 21.07.2019
4834 Clear 6 1015 82 0 4.54 287.553 22:22 21.07.2019
4835 Clear 6 1015 82 0 4.54 287.553 21:57 21.07.2019
4836 Clear 6 1015 82 0 4.54 287.553 21:37 21.07.2019
4837 Clouds 7 1015 83 0 5.91 260.315 21:18 21.07.2019
4838 Clear 7 1015 84 0 5.6 262.391 20:44 21.07.2019
4839 Clear 7 1015 84 0 5.6 262.391 20:25 21.07.2019
4840 Clear 7 1015 84 0 5.6 262.391 20:25 21.07.2019
4841 Clear 7 1015 84 0 5.6 262.391 19:55 21.07.2019
4842 Clear 7 1015 84 0 5.6 262.391 19:36 21.07.2019
4843 Clear 7 1015 84 0 5.6 262.391 19:18 21.07.2019
4844 Clear 7 1015 84 0 5.6 262.391 18:44 21.07.2019
4845 Clear 6 1014 86 0 4.75 297.724 18:24 21.07.2019
4846 Clear 6 1014 86 0 4.75 297.724 17:42 21.07.2019
4847 Clear 6 1014 86 0 4.75 297.724 17:20 21.07.2019
4848 Clear 6 1014 86 0 4.75 297.724 16:45 21.07.2019
4849 Clear 6 1014 86 0 4.75 297.724 16:25 21.07.2019
4850 Clear 6 1014 86 0 4.75 297.724 15:54 21.07.2019
4851 Clear 6 1014 86 0 4.75 297.724 15:36 21.07.2019
4852 Clouds 7 1013 85 0 5.83 266.234 15:18 21.07.2019
4853 Clouds 7 1013 85 0 5.83 266.234 14:41 21.07.2019
4854 Clouds 7 1013 85 0 5.83 266.234 14:20 21.07.2019
4855 Clouds 7 1013 85 0 5.83 266.234 13:44 21.07.2019
4856 Clouds 7 1014 85 0 4.09 231.836 13:25 21.07.2019
4857 Clouds 7 1014 85 0 4.09 231.836 12:42 21.07.2019
4858 Clouds 4 1012 93 0 2.64 291.749 12:24 21.07.2019
4859 Clouds 4 1012 93 0 2.64 291.749 11:47 21.07.2019
4860 Clouds 4 1012 93 0 2.64 291.749 11:28 21.07.2019
4861 Clouds 4 1012 93 0 2.64 291.749 10:55 21.07.2019
4862 Clouds 4 1012 93 0 2.64 291.749 10:37 21.07.2019
4863 Clouds 4 1012 93 0 2.64 291.749 10:18 21.07.2019
4864 Clouds 4 1012 93 0 2.64 291.749 09:36 21.07.2019
4865 Clouds 5 1012 95 0 4.43 274.749 08:52 21.07.2019
4866 Clouds 4 1012 96 0 3.68 304.814 08:34 21.07.2019
4867 Clouds 4 1012 96 0 3.68 304.814 07:59 21.07.2019
4868 Clouds 4 1012 96 0 3.68 304.814 07:32 21.07.2019
4869 Clouds 4 1012 96 0 3.68 304.814 06:42 21.07.2019
4870 Clouds 5 1011 97 0 6.15 248.235 04:23 21.07.2019
4871 Clouds 5 1010 97 0 6.73 247.13 01:57 21.07.2019
4872 Clouds 5 1011 95 0 6.75 242.323 00:48 21.07.2019
4873 Clouds 6 1009 97 0 6.15 235.938 00:22 21.07.2019
4874 Clouds 6 1009 97 0 6.15 235.938 23:54 20.07.2019
4875 Clouds 6 1009 97 0 6.15 235.938 23:36 20.07.2019
4876 Clouds 6 1009 97 0 6.15 235.938 23:18 20.07.2019
4877 Clouds 6 1009 97 0 6.15 235.938 23:18 20.07.2019
4878 Clouds 6 1009 97 0 6.15 235.938 22:41 20.07.2019
4879 Clouds 6 1009 97 0 6.15 235.938 22:19 20.07.2019
4880 Clouds 6 1009 97 0 6.15 235.938 21:44 20.07.2019
4881 Clouds 7 1009 97 0 6.62 232.317 21:24 20.07.2019
4882 Clouds 8 1009 95 0 3.58 227.308 20:44 20.07.2019
4883 Clouds 8 1009 95 0 3.58 227.308 20:23 20.07.2019
4884 Clouds 8 1009 95 0 3.58 227.308 19:52 20.07.2019
4885 Clouds 8 1009 95 0 3.58 227.308 19:33 20.07.2019
4886 Clouds 8 1009 95 0 3.58 227.308 18:57 20.07.2019
4887 Clouds 8 1009 95 0 3.58 227.308 18:38 20.07.2019
4888 Clouds 8 1009 93 0 5.25 230.67 18:19 20.07.2019
4889 Clouds 8 1009 93 0 5.25 230.67 17:46 20.07.2019
4890 Clouds 8 1009 93 0 5.25 230.67 17:20 20.07.2019
4891 Clouds 8 1009 93 0 5.25 230.67 16:42 20.07.2019
4892 Clouds 8 1009 93 0 5.25 230.67 16:23 20.07.2019
4893 Clouds 8 1009 93 0 5.25 230.67 15:43 20.07.2019
4894 Clouds 9 1009 91 0 5.87 231.145 15:21 20.07.2019
4895 Clouds 9 1009 91 0 5.87 231.145 14:54 20.07.2019
4896 Clouds 9 1009 91 0 5.87 231.145 14:36 20.07.2019
4897 Clouds 9 1009 91 0 5.87 231.145 14:18 20.07.2019
4898 Clouds 9 1009 91 0 5.87 231.145 13:38 20.07.2019
4899 Clouds 8 1009 87 0 5.03 228.993 13:19 20.07.2019
4900 Clouds 8 1009 87 0 5.03 228.993 12:49 20.07.2019
4901 Clouds 8 1008 94 0 4.91 246.046 12:20 20.07.2019
4902 Clouds 8 1008 94 0 4.91 246.046 11:49 20.07.2019
4903 Clouds 8 1008 94 0 4.91 246.046 11:22 20.07.2019
4904 Clouds 8 1008 94 0 4.91 246.046 10:45 20.07.2019
4905 Clouds 8 1008 94 0 4.91 246.046 10:25 20.07.2019
4906 Clouds 8 1008 94 0 4.91 246.046 09:52 20.07.2019
4907 Clouds 8 1008 94 0 4.91 246.046 09:27 20.07.2019
4908 Clouds 8 1008 100 0 7.88 214.592 08:54 20.07.2019
4909 Clouds 7 1008 99 0 7.8 220.679 08:24 20.07.2019
4910 Clouds 7 1008 99 0 7.8 220.679 07:43 20.07.2019
4911 Clouds 7 1008 99 0 7.8 220.679 06:47 20.07.2019
4912 Clouds 9 1007 98 0 6.36 202.392 05:52 20.07.2019
4913 Clouds 9 1007 98 0 6.36 202.392 04:31 20.07.2019
4914 Clouds 8 1007 97 0 2.36 154.259 02:33 20.07.2019
4915 Clouds 8 1007 97 0 2.55 128.839 01:19 20.07.2019
4916 Clouds 8 1007 97 0 2.55 128.839 00:39 20.07.2019
4917 Clouds 5 1007 99 0 1.74 91.02 00:18 20.07.2019
4918 Clouds 5 1007 99 0 1.74 91.02 23:40 19.07.2019
4919 Clouds 5 1007 99 0 1.74 91.02 23:21 19.07.2019
4920 Clouds 5 1007 99 0 1.74 91.02 22:43 19.07.2019
4921 Clouds 5 1007 99 0 1.74 91.02 22:23 19.07.2019
4922 Clouds 5 1007 99 0 1.74 91.02 21:45 19.07.2019
4923 Clouds 5 1007 99 0 1.01 78.053 21:26 19.07.2019
4924 Rain 5 1009 97 0 5.59 58.848 20:49 19.07.2019
4925 Rain 5 1009 97 0 5.59 58.848 20:31 19.07.2019
4926 Rain 5 1009 97 0 5.59 58.848 19:48 19.07.2019
4927 Rain 5 1009 97 0 5.59 58.848 19:27 19.07.2019
4928 Rain 5 1009 97 0 5.59 58.848 18:42 19.07.2019
4929 Rain 5 1010 96 0 5.61 63.147 18:21 19.07.2019
4930 Rain 5 1010 96 0 5.61 63.147 17:54 19.07.2019
4931 Rain 5 1010 96 0 5.61 63.147 17:27 19.07.2019
4932 Rain 5 1010 96 0 5.61 63.147 16:49 19.07.2019
4933 Rain 5 1010 96 0 5.61 63.147 16:26 19.07.2019
4934 Rain 5 1010 96 0 5.61 63.147 15:52 19.07.2019
4935 Rain 5 1010 96 0 5.61 63.147 15:31 19.07.2019
4936 Clouds 5 1012 90 0 7.47 57.055 14:57 19.07.2019
4937 Clouds 5 1012 90 0 7.47 57.055 14:39 19.07.2019
4938 Clouds 5 1012 90 0 7.47 57.055 14:21 19.07.2019
4939 Clouds 5 1012 90 0 7.47 57.055 13:44 19.07.2019
4940 Clouds 5 1012 90 0 7.47 57.055 13:44 19.07.2019
4941 Clouds 5 1012 90 0 7.47 57.055 13:44 19.07.2019
4942 Clouds 5 1012 90 0 7.47 57.055 13:44 19.07.2019
4943 Clouds 5 1012 90 0 7.47 57.055 13:44 19.07.2019
4944 Clouds 5 1012 90 0 7.61 45.485 13:25 19.07.2019
4945 Clouds 5 1012 90 0 7.61 45.485 12:55 19.07.2019
4946 Clouds 5 1012 90 0 7.61 45.485 12:31 19.07.2019
4947 Clouds 4 1013 86 0 7.71 44.159 11:59 19.07.2019
4948 Clouds 4 1013 86 0 7.71 44.159 11:41 19.07.2019
4949 Clouds 4 1013 86 0 7.71 44.159 11:18 19.07.2019
4950 Clouds 4 1013 86 0 7.71 44.159 10:42 19.07.2019
4951 Clouds 4 1013 86 0 7.71 44.159 10:22 19.07.2019
4952 Clouds 4 1013 86 0 7.71 44.159 09:57 19.07.2019
4953 Clouds 4 1013 86 0 7.71 44.159 09:39 19.07.2019
4954 Clouds 5 1014 83 0 7.58 42.378 09:20 19.07.2019
4955 Clouds 5 1015 85 0 8.16 40.7 08:42 19.07.2019
4956 Clouds 5 1015 85 0 8.16 40.7 07:53 19.07.2019
4957 Clouds 5 1015 85 0 8.16 40.7 07:53 19.07.2019
4958 Clouds 5 1015 85 0 8.16 40.7 07:29 19.07.2019
4959 Rain 5 1015 91 0 6.84 38.75 05:55 19.07.2019
4960 Rain 4 1016 91 0 9.13 47.867 02:23 19.07.2019
4961 Rain 5 1016 89 0 10.93 45.634 01:18 19.07.2019
4962 Rain 5 1016 89 0 10.93 45.634 00:35 19.07.2019
4963 Rain 4 1016 92 0 9.55 19.34 23:44 18.07.2019
4964 Rain 4 1016 92 0 9.55 19.34 23:24 18.07.2019
4965 Rain 4 1016 92 0 9.55 19.34 22:59 18.07.2019
4966 Rain 4 1016 92 0 9.55 19.34 22:40 18.07.2019
4967 Rain 4 1016 92 0 9.55 19.34 22:19 18.07.2019
4968 Rain 4 1016 92 0 9.55 19.34 21:44 18.07.2019
4969 Clouds 4 1016 97 0 8.03 1.571 21:26 18.07.2019
4970 Clouds 4 1016 98 0 8.11 359.039 20:51 18.07.2019
4971 Clouds 4 1016 98 0 8.11 359.039 20:29 18.07.2019
4972 Clouds 4 1016 98 0 8.11 359.039 19:54 18.07.2019
4973 Clouds 4 1016 98 0 8.11 359.039 19:32 18.07.2019
4974 Clouds 4 1016 98 0 8.11 359.039 18:58 18.07.2019
4975 Clouds 4 1016 98 0 8.11 359.039 18:40 18.07.2019
4976 Clouds 4 1017 96 0 8.31 6.993 18:20 18.07.2019
4977 Clouds 4 1017 96 0 8.31 6.993 17:42 18.07.2019
4978 Clouds 4 1017 96 0 8.31 6.993 17:24 18.07.2019
4979 Clouds 4 1017 96 0 8.31 6.993 16:56 18.07.2019
4980 Clouds 4 1017 96 0 8.31 6.993 16:30 18.07.2019
4981 Clouds 4 1017 96 0 8.31 6.993 15:59 18.07.2019
4982 Clouds 4 1017 96 0 8.31 6.993 15:39 18.07.2019
4983 Clouds 4 1017 95 0 9.62 353.065 15:21 18.07.2019
4984 Clouds 4 1017 95 0 9.62 353.065 14:43 18.07.2019
4985 Clouds 4 1017 95 0 9.62 353.065 14:25 18.07.2019
4986 Clouds 4 1017 95 0 9.62 353.065 13:48 18.07.2019
4987 Rain 4 1017 92 0 8.87 4.144 13:23 18.07.2019
4988 Rain 4 1017 92 0 8.87 4.144 12:50 18.07.2019
4989 Rain 4 1017 96 0 9.19 344.523 12:21 18.07.2019
4990 Rain 4 1017 96 0 9.19 344.523 11:57 18.07.2019
4991 Rain 4 1017 96 0 9.19 344.523 11:39 18.07.2019
4992 Rain 4 1017 96 0 9.19 344.523 11:20 18.07.2019
4993 Rain 4 1017 96 0 9.19 344.523 10:41 18.07.2019
4994 Rain 4 1017 96 0 9.19 344.523 09:50 18.07.2019
4995 Rain 4 1017 96 0 9.19 344.523 09:26 18.07.2019
4996 Rain 4 1017 97 0 9.8 342.465 08:51 18.07.2019
4997 Rain 4 1017 97 0 9.8 342.465 08:23 18.07.2019
4998 Rain 4 1017 97 0 9.8 342.465 07:55 18.07.2019
4999 Rain 4 1017 97 0 9.8 342.465 07:34 18.07.2019
5000 Rain 4 1017 97 0 9.8 342.465 06:46 18.07.2019
5001 Rain 4 1017 98 0 8.09 329.752 05:58 18.07.2019
5002 Rain 4 1017 98 0 8.09 329.752 03:29 18.07.2019
5003 Clouds 4 1016 96 0 7.54 311.473 01:52 18.07.2019
5004 Clouds 4 1016 96 0 7.54 311.473 01:33 18.07.2019
5005 Rain 4 1015 99 0 7.64 315.716 23:57 17.07.2019
5006 Rain 4 1015 99 0 7.64 315.716 23:21 17.07.2019
5007 Rain 4 1015 99 0 7.64 315.716 22:58 17.07.2019
5008 Rain 4 1015 99 0 7.64 315.716 22:40 17.07.2019
5009 Rain 4 1015 99 0 7.64 315.716 22:21 17.07.2019
5010 Rain 4 1015 99 0 7.64 315.716 21:56 17.07.2019
5011 Rain 4 1015 99 0 7.64 315.716 21:36 17.07.2019
5012 Rain 7 1014 100 0 7.1 290.122 21:18 17.07.2019
5013 Rain 6 1014 100 0 6.91 300.463 20:41 17.07.2019
5014 Rain 6 1014 100 0 6.91 300.463 20:21 17.07.2019
5015 Rain 6 1014 100 0 6.91 300.463 19:59 17.07.2019
5016 Rain 6 1014 100 0 6.91 300.463 19:39 17.07.2019
5017 Rain 6 1014 100 0 6.91 300.463 19:18 17.07.2019
5018 Rain 6 1014 100 0 6.91 300.463 18:42 17.07.2019
5019 Rain 8 1013 100 0 7.66 317.313 18:21 17.07.2019
5020 Rain 8 1013 100 0 7.66 317.313 17:51 17.07.2019
5021 Rain 8 1013 100 0 7.66 317.313 17:27 17.07.2019
5022 Rain 8 1013 100 0 7.66 317.313 16:58 17.07.2019
5023 Rain 8 1013 100 0 7.66 317.313 16:38 17.07.2019
5024 Rain 8 1013 100 0 7.66 317.313 16:18 17.07.2019
5025 Rain 8 1013 100 0 7.66 317.313 15:51 17.07.2019
5026 Rain 8 1013 100 0 7.66 317.313 15:29 17.07.2019
5027 Rain 8 1013 100 0 7.66 317.313 15:29 17.07.2019
5028 Rain 7 1012 98 0 2.74 341.942 14:55 17.07.2019
5029 Rain 7 1012 98 0 2.74 341.942 14:37 17.07.2019
5030 Rain 7 1012 98 0 2.74 341.942 14:18 17.07.2019
5031 Rain 7 1012 98 0 2.74 341.942 13:42 17.07.2019
5032 Rain 8 1011 96 0 4.8 125.327 13:24 17.07.2019
5033 Rain 8 1011 96 0 4.8 125.327 12:41 17.07.2019
5034 Rain 8 1010 91 0 9.58 102.297 12:21 17.07.2019
5035 Rain 8 1010 91 0 9.58 102.297 11:46 17.07.2019
5036 Rain 8 1010 91 0 9.58 102.297 11:22 17.07.2019
5037 Rain 8 1010 91 0 9.58 102.297 10:56 17.07.2019
5038 Rain 8 1010 91 0 9.58 102.297 10:37 17.07.2019
5039 Rain 8 1010 91 0 9.58 102.297 10:18 17.07.2019
5040 Rain 8 1010 91 0 9.58 102.297 09:44 17.07.2019
5041 Rain 5 1010 97 0 10.87 105.175 09:24 17.07.2019
5042 Rain 5 1009 95 0 11.37 105.65 08:43 17.07.2019
5043 Rain 5 1009 95 0 11.37 105.65 08:22 17.07.2019
5044 Rain 5 1009 95 0 11.37 105.65 07:50 17.07.2019
5045 Rain 5 1009 95 0 11.37 105.65 07:24 17.07.2019
5046 Rain 5 1009 95 0 11.37 105.65 06:57 17.07.2019
5047 Rain 5 1009 95 0 11.37 105.65 06:30 17.07.2019
5048 Rain 5 1010 97 0 12.73 104.858 05:50 17.07.2019
5049 Rain 5 1010 97 0 12.73 104.858 05:30 17.07.2019
5050 Rain 5 1010 97 0 12.73 104.858 04:45 17.07.2019
5051 Rain 5 1010 97 0 12.73 104.858 03:29 17.07.2019
5052 Clouds 5 1011 92 0 13.82 103.085 02:21 17.07.2019
5053 Clouds 5 1011 94 0 14.28 104.475 01:27 17.07.2019
5054 Clouds 5 1011 94 0 14.28 104.475 00:59 17.07.2019
5055 Clouds 5 1011 94 0 14.28 104.475 00:37 17.07.2019
5056 Clouds 5 1011 90 0 13.89 99.81 00:19 17.07.2019
5057 Clouds 5 1011 90 0 13.89 99.81 23:38 16.07.2019
5058 Clouds 5 1011 90 0 13.89 99.81 23:18 16.07.2019
5059 Clouds 5 1011 90 0 13.89 99.81 22:42 16.07.2019
5060 Clouds 5 1011 90 0 13.89 99.81 22:24 16.07.2019
5061 Clouds 5 1011 90 0 13.89 99.81 21:47 16.07.2019
5062 Clouds 5 1012 89 0 12.9 89.64 21:22 16.07.2019
5063 Clouds 5 1012 90 0 13.06 90.031 20:58 16.07.2019
5064 Clouds 5 1012 90 0 13.06 90.031 20:39 16.07.2019
5065 Clouds 5 1012 90 0 13.06 90.031 20:21 16.07.2019
5066 Clouds 5 1012 90 0 13.06 90.031 19:52 16.07.2019
5067 Clouds 5 1012 90 0 13.06 90.031 19:29 16.07.2019
5068 Clouds 5 1012 90 0 13.06 90.031 18:58 16.07.2019
5069 Clouds 5 1012 90 0 13.06 90.031 18:39 16.07.2019
5070 Clouds 5 1014 91 0 11.46 80.455 18:20 16.07.2019
5071 Clouds 5 1014 91 0 11.46 80.455 17:44 16.07.2019
5072 Clouds 5 1014 91 0 11.46 80.455 17:23 16.07.2019
5073 Clouds 5 1014 91 0 11.46 80.455 16:48 16.07.2019
5074 Clouds 5 1014 91 0 11.46 80.455 16:25 16.07.2019
5075 Clouds 5 1014 91 0 11.46 80.455 15:56 16.07.2019
5076 Clouds 5 1014 91 0 11.46 80.455 15:37 16.07.2019
5077 Clouds 4 1016 93 0 10.19 72.372 15:18 16.07.2019
5078 Clouds 4 1016 93 0 10.19 72.372 14:45 16.07.2019
5079 Clouds 4 1016 93 0 10.19 72.372 14:27 16.07.2019
5080 Clouds 4 1016 93 0 10.19 72.372 13:47 16.07.2019
5081 Clouds 4 1016 93 0 10.38 71.417 13:27 16.07.2019
5082 Clouds 4 1016 93 0 10.38 71.417 12:57 16.07.2019
5083 Clouds 4 1016 93 0 10.38 71.417 12:39 16.07.2019
5084 Clouds 4 1016 93 0 10.38 71.417 12:39 16.07.2019
5085 Clouds 2 1017 97 0 8.93 67.646 12:19 16.07.2019
5086 Clouds 2 1017 97 0 8.93 67.646 11:44 16.07.2019
5087 Clouds 2 1017 97 0 8.93 67.646 11:24 16.07.2019
5088 Clouds 2 1017 97 0 8.93 67.646 10:57 16.07.2019
5089 Clouds 2 1017 97 0 8.93 67.646 10:39 16.07.2019
5090 Clouds 2 1017 97 0 8.93 67.646 10:18 16.07.2019
5091 Clouds 2 1017 97 0 8.93 67.646 09:43 16.07.2019
5092 Clouds 3 1019 96 0 7.5 56.882 09:20 16.07.2019
5093 Clouds 3 1019 97 0 8.12 53.438 08:46 16.07.2019
5094 Clouds 3 1019 97 0 8.12 53.438 08:24 16.07.2019
5095 Clouds 3 1019 97 0 8.12 53.438 07:51 16.07.2019
5096 Clouds 3 1019 97 0 8.12 53.438 07:32 16.07.2019
5097 Clouds 3 1019 97 0 8.12 53.438 06:58 16.07.2019
5098 Clouds 3 1019 97 0 8.12 53.438 06:35 16.07.2019
5099 Clouds 3 1019 96 0 5.49 51.515 05:48 16.07.2019
5100 Clouds 3 1019 96 0 5.49 51.515 05:25 16.07.2019
5101 Clouds 3 1019 96 0 5.49 51.515 04:32 16.07.2019
5102 Clouds 3 1019 96 0 5.49 51.515 03:34 16.07.2019
5103 Clouds 3 1019 94 0 4 49.652 02:42 16.07.2019
5104 Clouds 3 1019 94 0 4 49.652 02:19 16.07.2019
5105 Clouds 3 1019 94 0 4 49.652 01:23 16.07.2019
5106 Clouds 3 1018 97 0 4.78 27.203 00:22 16.07.2019
5107 Clouds 3 1018 97 0 4.78 27.203 23:58 15.07.2019
5108 Clouds 3 1018 97 0 4.78 27.203 23:37 15.07.2019
5109 Clouds 3 1018 97 0 4.78 27.203 23:18 15.07.2019
5110 Clouds 3 1018 97 0 4.78 27.203 22:43 15.07.2019
5111 Clouds 3 1018 97 0 4.78 27.203 22:20 15.07.2019
5112 Clouds 3 1018 97 0 4.78 27.203 21:57 15.07.2019
5113 Clouds 3 1018 97 0 4.78 27.203 21:38 15.07.2019
5114 Clouds 3 1017 96 0 5.35 353.271 21:19 15.07.2019
5115 Clouds 3 1017 96 0 5.35 353.271 20:42 15.07.2019
5116 Clouds 3 1017 96 0 5.35 353.271 20:22 15.07.2019
5117 Clouds 3 1017 96 0 5.35 353.271 19:56 15.07.2019
5118 Clouds 3 1017 96 0 5.35 353.271 19:38 15.07.2019
5119 Clouds 3 1017 96 0 5.35 353.271 19:18 15.07.2019
5120 Clouds 3 1017 96 0 5.35 353.271 18:43 15.07.2019
5121 Clouds 3 1015 95 0 4.02 343.238 18:20 15.07.2019
5122 Clouds 3 1015 95 0 4.02 343.238 17:56 15.07.2019
5123 Clouds 3 1015 95 0 4.02 343.238 17:37 15.07.2019
5124 Clouds 3 1015 95 0 4.02 343.238 17:19 15.07.2019
5125 Clouds 3 1015 95 0 4.02 343.238 16:40 15.07.2019
5126 Clouds 3 1015 95 0 4.02 343.238 16:21 15.07.2019
5127 Clouds 3 1015 95 0 4.02 343.238 16:21 15.07.2019
5128 Clouds 3 1015 95 0 4.02 343.238 15:59 15.07.2019
5129 Clouds 3 1015 95 0 4.02 343.238 15:38 15.07.2019
5130 Clouds 3 1014 95 0 4.82 340.201 15:20 15.07.2019
5131 Clouds 3 1014 95 0 4.82 340.201 14:45 15.07.2019
5132 Clouds 3 1014 95 0 4.82 340.201 14:27 15.07.2019
5133 Clouds 3 1014 95 0 4.82 340.201 13:57 15.07.2019
5134 Clouds 3 1014 95 0 4.82 340.201 13:36 15.07.2019
5135 Clouds 3 1014 96 0 6.18 335.073 13:18 15.07.2019
5136 Clouds 3 1014 96 0 6.18 335.073 12:42 15.07.2019
5137 Clouds 3 1012 96 0 7.01 324.699 12:22 15.07.2019
5138 Clouds 3 1012 96 0 7.01 324.699 11:44 15.07.2019
5139 Clouds 3 1012 96 0 7.01 324.699 11:25 15.07.2019
5140 Clouds 3 1012 96 0 7.01 324.699 10:48 15.07.2019
5141 Clouds 3 1012 96 0 7.01 324.699 10:30 15.07.2019
5142 Clouds 3 1012 96 0 7.01 324.699 09:57 15.07.2019
5143 Clouds 3 1012 96 0 7.01 324.699 09:39 15.07.2019
5144 Rain 3 1011 96 0 6.49 331.531 09:18 15.07.2019
5145 Clouds 3 1012 96 0 5.85 329.752 08:41 15.07.2019
5146 Clouds 3 1012 96 0 5.85 329.752 08:23 15.07.2019
5147 Clouds 3 1012 96 0 5.85 329.752 07:41 15.07.2019
5148 Clouds 3 1012 96 0 5.85 329.752 07:20 15.07.2019
5149 Clouds 3 1012 96 0 5.85 329.752 06:39 15.07.2019
5150 Clouds 3 1011 97 0 5.71 334.625 05:50 15.07.2019
5151 Clouds 3 1011 97 0 5.71 334.625 05:30 15.07.2019
5152 Clouds 3 1011 97 0 5.71 334.625 04:43 15.07.2019
5153 Clouds 3 1011 97 0 5.71 334.625 03:58 15.07.2019
5154 Clouds 3 1011 98 0 5.92 359.603 02:47 15.07.2019
5155 Clouds 3 1011 98 0 5.92 359.603 01:53 15.07.2019
5156 Clouds 3 1011 97 0 6.9 354.969 01:28 15.07.2019
5157 Clouds 3 1011 97 0 6.9 354.969 00:53 15.07.2019
5158 Clouds 3 1010 97 0 7.22 353.183 00:23 15.07.2019
5159 Clouds 3 1010 97 0 7.22 353.183 23:57 14.07.2019
5160 Clouds 3 1010 97 0 7.22 353.183 23:37 14.07.2019
5161 Clouds 3 1010 97 0 7.22 353.183 23:18 14.07.2019
5162 Clouds 3 1010 97 0 7.22 353.183 23:18 14.07.2019
5163 Clouds 3 1010 97 0 7.22 353.183 22:55 14.07.2019
5164 Clouds 3 1010 97 0 7.22 353.183 22:37 14.07.2019
5165 Clouds 3 1010 97 0 7.22 353.183 22:18 14.07.2019
5166 Clouds 3 1010 97 0 7.22 353.183 21:42 14.07.2019
5167 Clouds 3 1010 97 0 7.87 337.699 21:19 14.07.2019
5168 Clouds 3 1010 97 0 7.87 337.699 20:57 14.07.2019
5169 Clouds 3 1010 97 0 7.87 337.699 20:37 14.07.2019
5170 Clouds 3 1010 97 0 7.87 337.699 20:19 14.07.2019
5171 Clouds 3 1010 97 0 7.87 337.699 19:44 14.07.2019
5172 Clouds 3 1010 97 0 7.87 337.699 19:25 14.07.2019
5173 Clouds 3 1010 97 0 7.87 337.699 18:57 14.07.2019
5174 Clouds 3 1010 97 0 7.87 337.699 18:38 14.07.2019
5175 Rain 3 1008 98 0 8.58 339.514 18:20 14.07.2019
5176 Rain 3 1008 98 0 8.58 339.514 17:47 14.07.2019
5177 Rain 3 1008 98 0 8.58 339.514 17:21 14.07.2019
5178 Rain 3 1008 98 0 8.58 339.514 16:47 14.07.2019
5179 Rain 3 1008 98 0 8.58 339.514 16:24 14.07.2019
5180 Rain 3 1008 98 0 8.58 339.514 15:54 14.07.2019
5181 Rain 3 1008 98 0 8.58 339.514 15:29 14.07.2019
5182 Rain 3 1007 99 0 7.46 20.113 14:50 14.07.2019
5183 Rain 3 1007 99 0 7.46 20.113 14:22 14.07.2019
5184 Rain 3 1007 99 0 7.46 20.113 13:57 14.07.2019
5185 Rain 3 1007 99 0 7.46 20.113 13:37 14.07.2019
5186 Rain 3 1007 99 0 6.56 1.301 13:19 14.07.2019
5187 Rain 3 1007 99 0 6.56 1.301 12:42 14.07.2019
5188 Rain 3 1005 99 0 5.8 45.951 12:22 14.07.2019
5189 Rain 3 1005 99 0 5.8 45.951 11:53 14.07.2019
5190 Rain 3 1005 99 0 5.8 45.951 11:27 14.07.2019
5191 Rain 3 1005 99 0 5.8 45.951 10:58 14.07.2019
5192 Rain 3 1005 99 0 5.8 45.951 10:40 14.07.2019
5193 Rain 3 1005 99 0 5.8 45.951 10:19 14.07.2019
5194 Rain 3 1005 99 0 5.8 45.951 09:42 14.07.2019
5195 Rain 4 1006 99 0 10.56 69.431 09:23 14.07.2019
5196 Rain 3 1007 99 0 9.07 72.704 08:41 14.07.2019
5197 Rain 3 1007 99 0 9.07 72.704 07:58 14.07.2019
5198 Rain 3 1007 99 0 9.07 72.704 07:38 14.07.2019
5199 Rain 3 1007 99 0 9.07 72.704 06:55 14.07.2019
5200 Rain 5 1008 99 0 9.49 82.996 05:44 14.07.2019
5201 Rain 5 1008 99 0 9.49 82.996 03:47 14.07.2019
5202 Rain 5 1008 99 0 9.49 82.996 03:29 14.07.2019
5203 Clouds 5 1010 89 0 6.86 93.324 02:41 14.07.2019
5204 Clouds 5 1010 89 0 6.86 93.324 02:21 14.07.2019
5205 Rain 5 1010 87 0 8.02 99.955 01:32 14.07.2019
5206 Rain 5 1010 87 0 8.02 99.955 00:56 14.07.2019
5207 Rain 5 1010 87 0 8.02 99.955 00:37 14.07.2019
5208 Clouds 5 1012 80 0 9.32 103.631 00:19 14.07.2019
5209 Clouds 5 1012 80 0 9.32 103.631 23:43 13.07.2019
5210 Clouds 5 1012 80 0 9.32 103.631 23:23 13.07.2019
5211 Clouds 5 1012 80 0 9.32 103.631 22:47 13.07.2019
5212 Clouds 5 1012 80 0 9.32 103.631 22:23 13.07.2019
5213 Clouds 5 1012 80 0 9.32 103.631 21:55 13.07.2019
5214 Clouds 5 1014 80 0 9.26 101.429 21:24 13.07.2019
5215 Clouds 5 1014 79 0 9.06 103.585 20:59 13.07.2019
5216 Clouds 5 1014 79 0 9.06 103.585 20:40 13.07.2019
5217 Clouds 5 1014 79 0 9.06 103.585 20:40 13.07.2019
5218 Clouds 5 1014 79 0 9.06 103.585 20:21 13.07.2019
5219 Clouds 5 1014 79 0 9.06 103.585 19:43 13.07.2019
5220 Clouds 5 1014 79 0 9.06 103.585 19:23 13.07.2019
5221 Clouds 5 1014 79 0 9.06 103.585 18:41 13.07.2019
5222 Clouds 5 1016 80 0 8.51 105.658 18:20 13.07.2019
5223 Clouds 5 1016 80 0 8.51 105.658 17:38 13.07.2019
5224 Clouds 5 1016 80 0 8.51 105.658 17:19 13.07.2019
5225 Clouds 5 1016 80 0 8.51 105.658 16:46 13.07.2019
5226 Clouds 5 1016 80 0 8.51 105.658 16:26 13.07.2019
5227 Clouds 5 1016 80 0 8.51 105.658 15:54 13.07.2019
5228 Clouds 5 1016 80 0 8.51 105.658 15:36 13.07.2019
5229 Clouds 6 1017 84 0 5.51 106.39 15:18 13.07.2019
5230 Clouds 6 1017 84 0 5.51 106.39 14:41 13.07.2019
5231 Clouds 6 1017 84 0 5.51 106.39 14:20 13.07.2019
5232 Clouds 6 1017 84 0 5.51 106.39 13:44 13.07.2019
5233 Clouds 5 1017 82 0 5.54 105.728 13:23 13.07.2019
5234 Clouds 5 1017 82 0 5.54 105.728 12:42 13.07.2019
5235 Clouds 5 1017 92 0 3.12 111.126 12:23 13.07.2019
5236 Clouds 5 1017 92 0 3.12 111.126 11:58 13.07.2019
5237 Clouds 5 1017 92 0 3.12 111.126 11:37 13.07.2019
5238 Clouds 5 1017 92 0 3.12 111.126 11:18 13.07.2019
5239 Clouds 5 1017 92 0 3.12 111.126 10:41 13.07.2019
5240 Clouds 5 1017 92 0 3.12 111.126 10:23 13.07.2019
5241 Clouds 5 1017 92 0 3.12 111.126 09:48 13.07.2019
5242 Clouds 5 1017 92 0 3.12 111.126 09:28 13.07.2019
5243 Clouds 3 1017 94 0 1.46 260.389 08:56 13.07.2019
5244 Clouds 3 1017 94 0 1.46 260.389 08:28 13.07.2019
5245 Clouds 3 1017 94 0 1.46 260.389 08:28 13.07.2019
5246 Clouds 3 1017 94 0 1.46 260.389 07:53 13.07.2019
5247 Clouds 3 1017 94 0 1.46 260.389 07:25 13.07.2019
5248 Clouds 3 1017 94 0 1.46 260.389 06:31 13.07.2019
5249 Clouds 4 1016 97 0 3.48 223.173 05:47 13.07.2019
5250 Clouds 4 1016 97 0 3.48 223.173 04:40 13.07.2019
5251 Clouds 4 1016 97 0 3.48 223.173 04:20 13.07.2019
5252 Clouds 4 1016 97 0 3.48 223.173 03:41 13.07.2019
5253 Clouds 3 1015 97 0 1.11 156.011 02:54 13.07.2019
5254 Clouds 3 1015 97 0 1.11 156.011 01:53 13.07.2019
5255 Rain 3 1015 99 0 1.08 213.983 01:21 13.07.2019
5256 Rain 3 1015 99 0 1.08 213.983 00:58 13.07.2019
5257 Rain 3 1014 98 0 1.28 155.815 00:21 13.07.2019
5258 Rain 3 1014 98 0 1.28 155.815 23:50 12.07.2019
5259 Rain 3 1014 98 0 1.28 155.815 23:30 12.07.2019
5260 Rain 3 1014 98 0 1.28 155.815 22:58 12.07.2019
5261 Rain 3 1014 98 0 1.28 155.815 22:40 12.07.2019
5262 Rain 3 1014 98 0 1.28 155.815 22:40 12.07.2019
5263 Rain 3 1014 98 0 1.28 155.815 22:21 12.07.2019
5264 Rain 3 1014 98 0 1.28 155.815 21:42 12.07.2019
5265 Rain 3 1012 99 0 4.97 114.342 21:19 12.07.2019
5266 Rain 3 1012 99 0 4.97 114.342 20:46 12.07.2019
5267 Rain 3 1012 99 0 4.97 114.342 20:23 12.07.2019
5268 Rain 3 1012 99 0 4.97 114.342 19:44 12.07.2019
5269 Rain 3 1012 99 0 4.97 114.342 19:26 12.07.2019
5270 Rain 3 1012 99 0 4.97 114.342 18:57 12.07.2019
5271 Rain 3 1012 99 0 4.97 114.342 18:36 12.07.2019
5272 Rain 3 1010 99 0 6.52 93.235 18:18 12.07.2019
5273 Rain 3 1010 99 0 6.52 93.235 17:43 12.07.2019
5274 Rain 3 1010 99 0 6.52 93.235 17:23 12.07.2019
5275 Rain 3 1010 99 0 6.52 93.235 16:37 12.07.2019
5276 Rain 3 1010 99 0 6.52 93.235 16:19 12.07.2019
5277 Rain 3 1010 99 0 6.52 93.235 15:40 12.07.2019
5278 Rain 2 1009 98 0 7.15 82.271 15:20 12.07.2019
5279 Rain 2 1009 98 0 7.15 82.271 14:46 12.07.2019
5280 Rain 2 1009 98 0 7.15 82.271 14:46 12.07.2019
5281 Rain 2 1009 98 0 7.15 82.271 14:22 12.07.2019
5282 Rain 2 1009 98 0 7.15 82.271 14:22 12.07.2019
5283 Rain 2 1009 98 0 7.15 82.271 13:54 12.07.2019
5284 Rain 3 1009 98 0 7.86 89.322 13:34 12.07.2019
5285 Rain 3 1009 98 0 7.86 89.322 12:44 12.07.2019
5286 Rain 2 1006 98 0 8.16 77.953 12:24 12.07.2019
5287 Rain 2 1006 98 0 8.16 77.953 11:59 12.07.2019
5288 Rain 2 1006 98 0 8.16 77.953 11:40 12.07.2019
5289 Rain 2 1006 98 0 8.16 77.953 11:19 12.07.2019
5290 Rain 2 1006 98 0 8.16 77.953 10:42 12.07.2019
5291 Rain 2 1006 98 0 8.16 77.953 10:23 12.07.2019
5292 Rain 2 1006 98 0 8.16 77.953 09:53 12.07.2019
5293 Rain 2 1006 98 0 8.16 77.953 09:29 12.07.2019
5294 Rain 2 1004 98 0 8.12 71.056 08:56 12.07.2019
5295 Rain 2 1004 98 0 8.12 71.056 08:26 12.07.2019
5296 Rain 2 1004 98 0 8.12 71.056 07:55 12.07.2019
5297 Rain 2 1004 98 0 8.12 71.056 07:55 12.07.2019
5298 Rain 2 1004 98 0 8.12 71.056 07:32 12.07.2019
5299 Rain 2 1004 98 0 8.12 71.056 06:51 12.07.2019
5300 Rain 2 1001 98 0 9.26 63.582 06:26 12.07.2019
5301 Rain 2 1001 98 0 9.26 63.582 05:24 12.07.2019
5302 Rain 2 1001 96 0 11.16 69.327 03:20 12.07.2019
5303 Rain 2 1001 96 0 11.16 69.327 01:39 12.07.2019
5304 Rain 3 1001 96 0 11.1 62.996 00:49 12.07.2019
5305 Rain 3 1000 95 0 12.01 65.013 00:20 12.07.2019
5306 Rain 3 1000 95 0 12.01 65.013 23:43 11.07.2019
5307 Rain 3 1000 95 0 12.01 65.013 23:24 11.07.2019
5308 Rain 3 1000 95 0 12.01 65.013 22:52 11.07.2019
5309 Rain 3 1000 95 0 12.01 65.013 22:26 11.07.2019
5310 Rain 3 1000 95 0 12.01 65.013 21:57 11.07.2019
5311 Rain 3 1000 95 0 12.01 65.013 21:38 11.07.2019
5312 Rain 3 1000 96 0 12.77 65.914 21:18 11.07.2019
5313 Rain 3 1000 96 0 12.77 65.914 20:42 11.07.2019
5314 Rain 3 1000 96 0 12.77 65.914 20:23 11.07.2019
5315 Rain 3 1000 96 0 12.77 65.914 19:58 11.07.2019
5316 Rain 3 1000 96 0 12.77 65.914 19:39 11.07.2019
5317 Rain 3 1000 96 0 12.77 65.914 19:21 11.07.2019
5318 Rain 3 1000 96 0 12.77 65.914 18:42 11.07.2019
5319 Rain 4 1000 98 0 12.77 70.833 18:24 11.07.2019
5320 Rain 4 1000 98 0 12.77 70.833 17:49 11.07.2019
5321 Rain 4 1000 98 0 12.77 70.833 17:31 11.07.2019
5322 Rain 4 1000 98 0 12.77 70.833 16:56 11.07.2019
5323 Rain 4 1000 98 0 12.77 70.833 16:37 11.07.2019
5324 Rain 4 1000 98 0 12.77 70.833 16:18 11.07.2019
5325 Rain 4 1000 98 0 12.77 70.833 15:40 11.07.2019
5326 Rain 4 1001 96 0 11.77 70.161 15:21 11.07.2019
5327 Rain 4 1001 96 0 11.77 70.161 14:45 11.07.2019
5328 Rain 4 1001 96 0 11.77 70.161 14:25 11.07.2019
5329 Rain 4 1001 96 0 11.77 70.161 13:59 11.07.2019
5330 Rain 4 1001 96 0 11.77 70.161 13:40 11.07.2019
5331 Rain 4 1001 94 0 12.72 85.586 13:22 11.07.2019
5332 Rain 4 1001 94 0 12.72 85.586 12:38 11.07.2019
5333 Rain 4 1001 90 0 13.03 83.392 12:19 11.07.2019
5334 Rain 4 1001 90 0 13.03 83.392 11:45 11.07.2019
5335 Rain 4 1001 90 0 13.03 83.392 11:27 11.07.2019
5336 Rain 4 1001 90 0 13.03 83.392 10:52 11.07.2019
5337 Rain 4 1001 90 0 13.03 83.392 10:20 11.07.2019
5338 Rain 4 1001 90 0 13.03 83.392 09:52 11.07.2019
5339 Rain 4 1001 90 0 13.03 83.392 09:31 11.07.2019
5340 Rain 3 1001 93 0 13.87 77.959 08:59 11.07.2019
5341 Rain 3 1001 93 0 13.87 77.959 08:39 11.07.2019
5342 Rain 3 1001 93 0 13.87 77.959 08:19 11.07.2019
5343 Rain 3 1001 93 0 13.87 77.959 07:43 11.07.2019
5344 Rain 3 1001 93 0 13.87 77.959 06:55 11.07.2019
5345 Clouds 3 1003 94 0 13.17 77.764 06:18 11.07.2019
5346 Clouds 3 1003 94 0 13.17 77.764 05:31 11.07.2019
5347 Clouds 3 1003 94 0 13.17 77.764 04:56 11.07.2019
5348 Clouds 3 1003 94 0 13.17 77.764 03:43 11.07.2019
5349 Clouds 3 1004 96 0 11.08 68.235 02:20 11.07.2019
5350 Clouds 3 1004 94 0 11.42 67.089 00:33 11.07.2019
5351 Clouds 3 1005 96 0 9.97 65.997 23:50 10.07.2019
5352 Clouds 3 1005 96 0 9.97 65.997 23:24 10.07.2019
5353 Clouds 3 1005 96 0 9.97 65.997 22:57 10.07.2019
5354 Clouds 3 1005 96 0 9.97 65.997 22:25 10.07.2019
5355 Clouds 3 1005 96 0 9.97 65.997 21:56 10.07.2019
5356 Clouds 3 1005 96 0 9.97 65.997 21:38 10.07.2019
5357 Clouds 2 1006 94 0 10.15 56.916 21:19 10.07.2019
5358 Clouds 2 1006 94 0 10.15 56.916 20:44 10.07.2019
5359 Clouds 2 1006 94 0 10.15 56.916 20:26 10.07.2019
5360 Clouds 2 1006 94 0 10.15 56.916 19:56 10.07.2019
5361 Clouds 2 1006 94 0 10.15 56.916 19:37 10.07.2019
5362 Clouds 2 1006 94 0 10.15 56.916 19:19 10.07.2019
5363 Clouds 2 1006 94 0 10.15 56.916 18:44 10.07.2019
5364 Rain 2 1006 92 0 9.99 56.517 18:23 10.07.2019
5365 Rain 2 1006 92 0 9.99 56.517 18:23 10.07.2019
5366 Rain 2 1006 92 0 9.99 56.517 17:46 10.07.2019
5367 Rain 2 1006 92 0 9.99 56.517 17:27 10.07.2019
5368 Rain 2 1006 92 0 9.99 56.517 16:46 10.07.2019
5369 Rain 2 1006 92 0 9.99 56.517 16:21 10.07.2019
5370 Rain 2 1006 92 0 9.99 56.517 15:47 10.07.2019
5371 Rain 2 1007 91 0 8.66 62.787 15:25 10.07.2019
5372 Rain 2 1007 91 0 8.66 62.787 14:48 10.07.2019
5373 Rain 2 1007 91 0 8.66 62.787 14:29 10.07.2019
5374 Rain 2 1007 91 0 8.66 62.787 13:56 10.07.2019
5375 Rain 2 1007 91 0 8.66 62.787 13:36 10.07.2019
5376 Rain 2 1007 91 0 8.86 59.564 13:18 10.07.2019
5377 Rain 2 1007 91 0 8.86 59.564 13:18 10.07.2019
5378 Rain 2 1007 91 0 8.86 59.564 12:40 10.07.2019
5379 Rain 2 1007 97 0 7.86 73.696 12:21 10.07.2019
5380 Rain 2 1007 97 0 7.86 73.696 11:48 10.07.2019
5381 Rain 2 1007 97 0 7.86 73.696 11:22 10.07.2019
5382 Rain 2 1007 97 0 7.86 73.696 10:58 10.07.2019
5383 Rain 2 1007 97 0 7.86 73.696 10:24 10.07.2019
5384 Rain 2 1007 97 0 7.86 73.696 09:55 10.07.2019
5385 Rain 2 1007 97 0 7.86 73.696 09:55 10.07.2019
5386 Rain 2 1007 97 0 7.86 73.696 09:36 10.07.2019
5387 Rain 2 1007 98 0 7.94 61.235 09:18 10.07.2019
5388 Rain 2 1007 98 0 9.36 62.849 08:45 10.07.2019
5389 Rain 2 1007 98 0 9.36 62.849 08:22 10.07.2019
5390 Rain 2 1007 98 0 9.36 62.849 07:45 10.07.2019
5391 Rain 2 1007 98 0 9.36 62.849 07:23 10.07.2019
5392 Rain 2 1007 98 0 9.36 62.849 06:33 10.07.2019
5393 Rain 2 1007 97 0 8.76 51.763 05:40 10.07.2019
5394 Rain 2 1007 97 0 8.76 51.763 04:30 10.07.2019
5395 Rain 2 1008 97 0 7.55 49.441 01:49 10.07.2019
5396 Rain 2 1008 96 0 7.99 49.875 00:43 10.07.2019
5397 Rain 1 1008 96 0 7.18 45.09 23:42 09.07.2019
5398 Rain 1 1008 96 0 7.18 45.09 23:23 09.07.2019
5399 Rain 1 1008 96 0 7.18 45.09 22:57 09.07.2019
5400 Rain 1 1008 96 0 7.18 45.09 22:36 09.07.2019
5401 Rain 1 1008 96 0 7.18 45.09 22:18 09.07.2019
5402 Rain 1 1008 96 0 7.18 45.09 22:18 09.07.2019
5403 Rain 1 1008 96 0 7.18 45.09 21:43 09.07.2019
5404 Rain 1 1008 95 0 6.32 46.604 21:25 09.07.2019
5405 Rain 1 1009 94 0 6.15 39.869 20:44 09.07.2019
5406 Rain 1 1009 94 0 6.15 39.869 20:26 09.07.2019
5407 Rain 1 1009 94 0 6.15 39.869 19:44 09.07.2019
5408 Rain 1 1009 94 0 6.15 39.869 19:26 09.07.2019
5409 Rain 1 1009 94 0 6.15 39.869 18:49 09.07.2019
5410 Rain 1 1009 94 0 6.15 39.869 18:27 09.07.2019
5411 Clouds 1 1008 94 0 5.19 47.203 17:58 09.07.2019
5412 Clouds 1 1008 94 0 5.19 47.203 17:40 09.07.2019
5413 Clouds 1 1008 94 0 5.19 47.203 17:20 09.07.2019
5414 Clouds 1 1008 94 0 5.19 47.203 16:50 09.07.2019
5415 Clouds 1 1008 94 0 5.19 47.203 16:25 09.07.2019
5416 -273 0 0 0 0 0 15:56 09.07.2019
5417 Clouds 1 1008 94 0 5.19 47.203 15:36 09.07.2019
5418 Clouds 1 1009 93 0 4.41 48.325 14:59 09.07.2019
5419 Clouds 1 1009 93 0 4.41 48.325 14:40 09.07.2019
5420 Clouds 1 1009 93 0 4.41 48.325 14:20 09.07.2019
5421 Clouds 1 1009 93 0 4.41 48.325 13:45 09.07.2019
5422 Clouds 1 1009 92 0 3.86 57.571 13:27 09.07.2019
5423 Clouds 1 1009 92 0 3.86 57.571 12:42 09.07.2019
5424 Rain 1 1008 92 0 3.7 35.862 12:24 09.07.2019
5425 Rain 1 1008 92 0 3.7 35.862 11:59 09.07.2019
5426 Rain 1 1008 92 0 3.7 35.862 11:41 09.07.2019
5427 Rain 1 1008 92 0 3.7 35.862 11:22 09.07.2019
5428 Rain 1 1008 92 0 3.7 35.862 10:58 09.07.2019
5429 Rain 1 1008 92 0 3.7 35.862 10:34 09.07.2019
5430 Rain 1 1008 92 0 3.7 35.862 09:56 09.07.2019
5431 Rain 1 1008 92 0 3.7 35.862 09:37 09.07.2019
5432 Rain 1 1009 95 0 3.88 27.689 09:18 09.07.2019
5433 Rain 1 1009 95 0 3.88 27.689 08:41 09.07.2019
5434 Rain 7 1002 87 0 9.9 87.411 04:18 05.07.2019
5435 Rain 7 1002 87 0 9.9 87.411 03:39 05.07.2019
5436 Clouds 8 1003 80 0 9.92 93.057 03:19 05.07.2019
5437 Clouds 8 1003 80 0 9.92 93.057 02:49 05.07.2019
5438 Clouds 8 1003 80 0 9.92 93.057 01:52 05.07.2019
5439 Clouds 8 1003 85 0 10.39 90.243 01:27 05.07.2019
5440 Clouds 8 1003 85 0 10.39 90.243 00:51 05.07.2019
5441 Clouds 8 1003 85 0 10.39 90.243 00:27 05.07.2019
5442 Clear 9 1003 80 0 9.61 102.339 23:24 04.07.2019
5443 Clear 9 1003 80 0 9.61 102.339 23:00 04.07.2019
5444 Clear 9 1003 80 0 9.61 102.339 22:40 04.07.2019
5445 Clear 9 1003 80 0 9.61 102.339 22:19 04.07.2019
5446 Clear 9 1003 80 0 9.61 102.339 21:44 04.07.2019
5447 Rain 9 1003 77 0 10.38 94.897 21:25 04.07.2019
5448 Rain 9 1003 81 0 10.28 102.154 20:58 04.07.2019
5449 Rain 9 1003 81 0 10.28 102.154 20:37 04.07.2019
5450 Rain 9 1003 81 0 10.28 102.154 20:18 04.07.2019
5451 Rain 9 1003 81 0 10.28 102.154 19:41 04.07.2019
5452 Rain 9 1003 81 0 10.28 102.154 19:21 04.07.2019
5453 Rain 9 1003 81 0 10.28 102.154 18:46 04.07.2019
5454 Rain 9 1003 81 0 10.28 102.154 18:28 04.07.2019
5455 Rain 10 1004 79 0 9.35 99.499 17:58 04.07.2019
5456 Rain 10 1004 79 0 9.35 99.499 17:40 04.07.2019
5457 Rain 10 1004 79 0 9.35 99.499 17:18 04.07.2019
5458 Rain 10 1004 79 0 9.35 99.499 15:45 04.07.2019
5459 Rain 9 1005 81 0 8.48 94.334 15:25 04.07.2019
5460 Rain 9 1005 81 0 8.48 94.334 14:59 04.07.2019
5461 Rain 9 1005 81 0 8.48 94.334 14:39 04.07.2019
5462 Rain 9 1005 81 0 8.48 94.334 14:19 04.07.2019
5463 Rain 9 1005 81 0 8.48 94.334 13:57 04.07.2019
5464 Rain 9 1005 81 0 8.48 94.334 13:56 04.07.2019
5465 Rain 9 1005 81 0 8.48 94.334 13:38 04.07.2019
5466 Rain 9 1005 81 0 7.71 92.341 13:19 04.07.2019
5467 Rain 9 1005 81 0 7.71 92.341 12:38 04.07.2019
5468 Rain 11 1005 76 0 7.7 96.398 12:19 04.07.2019
5469 Rain 11 1005 76 0 7.7 96.398 11:43 04.07.2019
5470 Rain 11 1005 76 0 7.7 96.398 11:20 04.07.2019
5471 Rain 11 1005 76 0 7.7 96.398 11:20 04.07.2019
5472 Rain 11 1005 76 0 7.7 96.398 10:46 04.07.2019
5473 Rain 11 1005 76 0 7.7 96.398 10:27 04.07.2019
5474 Rain 11 1005 76 0 7.7 96.398 09:57 04.07.2019
5475 Rain 11 1005 76 0 7.7 96.398 09:38 04.07.2019
5476 Clouds 10 1005 80 0 7.11 102.047 09:19 04.07.2019
5477 Clouds 9 1005 81 0 7.47 99.176 08:44 04.07.2019
5478 Clouds 9 1005 81 0 7.47 99.176 08:18 04.07.2019
5479 Clouds 9 1005 81 0 7.47 99.176 07:39 04.07.2019
5480 Clouds 9 1005 81 0 7.47 99.176 07:18 04.07.2019
5481 Clouds 9 1005 81 0 7.47 99.176 06:30 04.07.2019
5482 Clouds 11 1005 73 0 7.47 103.201 05:41 04.07.2019
5483 Clouds 11 1005 73 0 7.47 103.201 04:18 04.07.2019
5484 Clouds 11 1005 74 0 7.65 111.576 01:52 04.07.2019
5485 Clouds 11 1006 71 0 8.27 108.021 01:26 04.07.2019
5486 Clouds 11 1006 71 0 8.27 108.021 00:41 04.07.2019
5487 Clouds 11 1006 69 0 8.4 115.195 23:52 03.07.2019
5488 Clouds 11 1006 69 0 8.4 115.195 23:21 03.07.2019
5489 Clouds 11 1006 69 0 8.4 115.195 22:56 03.07.2019
5490 Clouds 11 1006 69 0 8.4 115.195 22:56 03.07.2019
5491 Clouds 11 1006 69 0 8.4 115.195 22:37 03.07.2019
5492 Clouds 11 1006 69 0 8.75 110.795 22:19 03.07.2019
5493 Clouds 11 1006 69 0 8.75 110.795 21:54 03.07.2019
5494 Clouds 11 1006 69 0 8.75 110.795 21:35 03.07.2019
5495 Clear 12 1007 67 0 7.79 101.78 20:48 03.07.2019
5496 Clear 12 1007 67 0 7.79 101.78 20:29 03.07.2019
5497 Clear 12 1007 67 0 7.79 101.78 19:59 03.07.2019
5498 Clear 12 1007 67 0 7.79 101.78 19:40 03.07.2019
5499 Clear 12 1007 67 0 7.79 101.78 18:58 03.07.2019
5500 Clear 12 1007 67 0 7.79 101.78 18:39 03.07.2019
5501 Clear 12 1007 68 0 8.91 111.883 18:21 03.07.2019
5502 Clear 12 1007 68 0 8.91 111.883 17:49 03.07.2019
5503 Clear 12 1007 68 0 8.91 111.883 17:19 03.07.2019
5504 Clear 12 1007 68 0 8.91 111.883 16:45 03.07.2019
5505 Clear 12 1007 68 0 8.91 111.883 16:24 03.07.2019
5506 Clear 12 1007 68 0 8.91 111.883 15:55 03.07.2019
5507 Clear 12 1007 68 0 8.91 111.883 15:37 03.07.2019
5508 Clear 11 1007 71 0 8.15 100.306 15:18 03.07.2019
5509 Clear 11 1007 71 0 8.15 100.306 14:43 03.07.2019
5510 Clear 11 1007 71 0 8.15 100.306 14:20 03.07.2019
5511 Clear 11 1007 71 0 8.15 100.306 13:45 03.07.2019
5512 Clouds 10 1007 79 0 7.24 95.516 13:27 03.07.2019
5513 Clouds 10 1007 79 0 7.24 95.516 12:51 03.07.2019
5514 Clouds 9 1007 83 0 5.68 86.143 12:19 03.07.2019
5515 Clouds 9 1007 83 0 5.68 86.143 11:43 03.07.2019
5516 Clouds 9 1007 83 0 5.68 86.143 11:24 03.07.2019
5517 Clouds 9 1007 83 0 5.68 86.143 10:58 03.07.2019
5518 Clouds 9 1007 83 0 5.68 86.143 10:37 03.07.2019
5519 Clouds 9 1007 83 0 5.68 86.143 10:19 03.07.2019
5520 Clouds 9 1007 83 0 5.68 86.143 09:40 03.07.2019
5521 Clouds 8 1007 91 0 4.85 77.244 09:20 03.07.2019
5522 Clouds 8 1007 91 0 4.85 77.244 08:52 03.07.2019
5523 Clouds 8 1007 91 0 4.85 77.244 08:31 03.07.2019
5524 Clouds 7 1007 94 0 4.1 54.188 07:45 03.07.2019
5525 Clouds 7 1007 94 0 4.1 54.188 07:27 03.07.2019
5526 Clouds 7 1007 94 0 4.1 54.188 06:27 03.07.2019
5527 Clouds 5 1008 100 0 3.56 77.871 05:34 03.07.2019
5528 Clouds 5 1008 100 0 3.56 77.871 04:42 03.07.2019
5529 Clouds 5 1008 100 0 5.37 92.147 03:25 03.07.2019
5530 Clouds 5 1008 100 0 5.37 92.147 02:23 03.07.2019
5531 Clouds 6 1008 100 0 6.5 97.164 01:21 03.07.2019
5532 Clouds 6 1008 100 0 6.5 97.164 00:46 03.07.2019
5533 Clouds 5 1009 100 0 5.35 88.189 00:24 03.07.2019
5534 Clouds 5 1009 100 0 5.35 88.189 23:38 02.07.2019
5535 Clouds 5 1009 100 0 5.35 88.189 23:20 02.07.2019
5536 Clouds 5 1009 100 0 5.35 88.189 22:57 02.07.2019
5537 Clouds 5 1009 100 0 5.35 88.189 22:38 02.07.2019
5538 Clouds 5 1009 100 0 5.35 88.189 22:19 02.07.2019
5539 Clouds 5 1009 100 0 5.35 88.189 21:44 02.07.2019
5540 Rain 5 1010 100 0 7.41 93.468 21:23 02.07.2019
5541 Clouds 5 1010 98 0 8.02 89.314 20:58 02.07.2019
5542 Clouds 5 1010 98 0 8.02 89.314 20:39 02.07.2019
5543 Clouds 5 1010 98 0 8.02 89.314 20:21 02.07.2019
5544 Clouds 5 1010 98 0 8.02 89.314 19:43 02.07.2019
5545 Clouds 5 1010 98 0 8.02 89.314 19:23 02.07.2019
5546 Clouds 5 1010 98 0 8.02 89.314 18:50 02.07.2019
5547 Rain 5 1010 99 0 7.27 90.173 18:19 02.07.2019
5548 Rain 5 1010 99 0 7.27 90.173 17:45 02.07.2019
5549 Rain 5 1010 99 0 7.27 90.173 17:24 02.07.2019
5550 Rain 5 1010 99 0 7.27 90.173 16:55 02.07.2019
5551 Rain 5 1010 99 0 7.27 90.173 16:36 02.07.2019
5552 Rain 5 1010 99 0 7.27 90.173 15:59 02.07.2019
5553 Rain 5 1010 99 0 7.27 90.173 15:38 02.07.2019
5554 Clouds 5 1011 100 0 6.87 95.894 15:20 02.07.2019
5555 Clouds 5 1011 100 0 6.87 95.894 14:41 02.07.2019
5556 Clouds 5 1011 100 0 6.87 95.894 14:22 02.07.2019
5557 Clouds 5 1011 100 0 6.87 95.894 13:43 02.07.2019
5558 Clouds 5 1011 99 0 7.18 89.209 13:19 02.07.2019
5559 Clouds 5 1011 99 0 7.18 89.209 12:45 02.07.2019
5560 Clouds 4 1011 98 0 6.16 99.826 12:23 02.07.2019
5561 Clouds 4 1011 98 0 6.16 99.826 11:45 02.07.2019
5562 Clouds 4 1011 98 0 6.16 99.826 11:24 02.07.2019
5563 Clouds 4 1011 98 0 6.16 99.826 10:59 02.07.2019
5564 Clouds 4 1011 98 0 6.16 99.826 10:37 02.07.2019
5565 Clouds 4 1011 98 0 6.16 99.826 10:19 02.07.2019
5566 Clouds 4 1011 98 0 6.16 99.826 09:37 02.07.2019
5567 Rain 4 1011 93 0 4.78 79.52 09:19 02.07.2019
5568 Rain 4 1010 95 0 5.39 68.655 08:40 02.07.2019
5569 Rain 4 1010 95 0 5.39 68.655 08:20 02.07.2019
5570 Rain 4 1010 95 0 5.39 68.655 07:47 02.07.2019
5571 Rain 4 1010 95 0 5.39 68.655 07:20 02.07.2019
5572 Rain 4 1010 95 0 5.39 68.655 06:40 02.07.2019
5573 Rain 4 1010 96 0 3.97 36.616 05:46 02.07.2019
5574 Rain 5 1009 98 0 2.93 45.872 02:43 02.07.2019
5575 Rain 4 1008 99 0 3.31 37.673 00:31 02.07.2019
5576 Rain 5 1008 95 0 3.89 14.172 23:39 01.07.2019
5577 Rain 5 1008 95 0 3.89 14.172 23:19 01.07.2019
5578 Rain 5 1008 95 0 3.89 14.172 22:43 01.07.2019
5579 Rain 5 1008 95 0 3.89 14.172 22:24 01.07.2019
5580 Rain 5 1008 95 0 3.89 14.172 21:45 01.07.2019
5581 Rain 5 1007 98 0 3.52 6.144 21:25 01.07.2019
5582 Rain 5 1008 98 0 3.47 8.697 20:51 01.07.2019
5583 Rain 5 1008 98 0 3.47 8.697 20:21 01.07.2019
5584 Rain 5 1008 98 0 3.47 8.697 19:56 01.07.2019
5585 Rain 5 1008 98 0 3.47 8.697 19:37 01.07.2019
5586 Rain 5 1008 98 0 3.47 8.697 19:18 01.07.2019
5587 Rain 5 1008 98 0 3.47 8.697 18:44 01.07.2019
5588 Rain 6 1006 100 0 2.51 327.573 18:26 01.07.2019
5589 Rain 6 1006 100 0 2.51 327.573 17:47 01.07.2019
5590 Rain 6 1006 100 0 2.51 327.573 17:26 01.07.2019
5591 Rain 6 1006 100 0 2.51 327.573 16:57 01.07.2019
5592 Rain 6 1006 100 0 2.51 327.573 16:39 01.07.2019
5593 Rain 6 1006 100 0 2.51 327.573 16:21 01.07.2019
5594 Rain 6 1006 100 0 2.51 327.573 15:44 01.07.2019
5595 Clouds 9 1006 87 0 5.63 236.767 15:23 01.07.2019
5596 Clouds 9 1006 87 0 5.63 236.767 14:44 01.07.2019
5597 Clouds 9 1006 87 0 5.63 236.767 14:22 01.07.2019
5598 Clouds 9 1006 87 0 5.63 236.767 13:48 01.07.2019
5599 Rain 8 1005 91 0 2.92 93.24 13:24 01.07.2019
5600 Rain 8 1005 91 0 2.92 93.24 12:58 01.07.2019
5601 Rain 8 1005 91 0 2.92 93.24 12:38 01.07.2019
5602 Clouds 9 1004 80 0 3.78 242.777 12:20 01.07.2019
5603 Clouds 9 1004 80 0 3.78 242.777 11:45 01.07.2019
5604 Clouds 9 1004 80 0 3.78 242.777 11:23 01.07.2019
5605 Clouds 9 1004 80 0 3.78 242.777 10:48 01.07.2019
5606 Clouds 9 1004 80 0 3.78 242.777 10:25 01.07.2019
5607 Clouds 9 1004 80 0 3.78 242.777 09:59 01.07.2019
5608 Clouds 9 1004 80 0 3.78 242.777 09:40 01.07.2019
5609 Clouds 10 1003 80 0 5.61 184.753 09:22 01.07.2019
5610 Clouds 10 1004 77 0 5.89 199.631 08:39 01.07.2019
5611 Clouds 10 1004 77 0 5.89 199.631 08:21 01.07.2019
5612 Clouds 10 1004 77 0 5.89 199.631 07:28 01.07.2019
5613 Clouds 10 1004 77 0 5.89 199.631 06:30 01.07.2019
5614 Clouds 8 1002 96 0 6 170.748 02:27 01.07.2019
5615 Clouds 8 1003 96 0 5.18 160.299 00:50 01.07.2019
5616 Clouds 8 1003 96 0 5.18 160.299 00:30 01.07.2019
5617 Rain 8 1002 98 0 7.99 148.911 23:57 30.06.2019
5618 Rain 8 1002 98 0 7.99 148.911 23:22 30.06.2019
5619 Rain 8 1002 98 0 7.99 148.911 22:53 30.06.2019
5620 Rain 8 1002 98 0 7.99 148.911 22:22 30.06.2019
5621 Rain 8 1002 98 0 7.99 148.911 21:44 30.06.2019
5622 Rain 7 1001 91 0 10.09 122.212 21:26 30.06.2019
5623 Rain 7 1001 91 0 10.09 122.212 21:26 30.06.2019
5624 Rain 7 1001 91 0 10.09 122.212 20:58 30.06.2019
5625 Rain 7 1001 91 0 10.09 122.212 20:39 30.06.2019
5626 Rain 7 1002 94 0 9.97 121.455 20:21 30.06.2019
5627 Rain 7 1002 94 0 9.97 121.455 19:45 30.06.2019
5628 Rain 7 1002 94 0 9.97 121.455 19:25 30.06.2019
5629 Rain 7 1002 94 0 9.97 121.455 18:39 30.06.2019
5630 Rain 7 1003 87 0 10.24 117.816 18:20 30.06.2019
5631 Rain 7 1003 87 0 10.24 117.816 18:20 30.06.2019
5632 Rain 7 1003 87 0 10.24 117.816 17:40 30.06.2019
5633 Rain 7 1003 87 0 10.24 117.816 17:18 30.06.2019
5634 Rain 7 1003 87 0 10.24 117.816 16:50 30.06.2019
5635 Rain 7 1003 87 0 10.24 117.816 16:31 30.06.2019
5636 Rain 7 1003 87 0 10.24 117.816 15:38 30.06.2019
5637 Rain 8 1004 78 0 8.57 142.348 15:19 30.06.2019
5638 Rain 8 1004 78 0 8.57 142.348 14:56 30.06.2019
5639 Rain 8 1004 78 0 8.57 142.348 14:56 30.06.2019
5640 Rain 8 1004 78 0 8.57 142.348 14:38 30.06.2019
5641 Rain 8 1004 78 0 8.57 142.348 13:57 30.06.2019
5642 Rain 8 1004 78 0 8.57 142.348 13:38 30.06.2019
5643 Rain 7 1003 92 0 10.74 126.917 13:18 30.06.2019
5644 Rain 7 1003 92 0 10.74 126.917 12:44 30.06.2019
5645 Clouds 9 1005 63 0 8.31 124.017 12:21 30.06.2019
5646 Clouds 9 1005 63 0 8.31 124.017 11:47 30.06.2019
5647 Clouds 9 1005 63 0 8.31 124.017 11:22 30.06.2019
5648 Clouds 9 1005 63 0 8.31 124.017 10:56 30.06.2019
5649 Clouds 9 1005 63 0 8.31 124.017 10:37 30.06.2019
5650 Clouds 9 1005 63 0 8.31 124.017 10:18 30.06.2019
5651 Clouds 9 1005 63 0 8.31 124.017 09:43 30.06.2019
5652 Clouds 8 1006 67 0 9.44 117.885 09:22 30.06.2019
5653 Clouds 9 1006 59 0 8.88 123.189 08:42 30.06.2019
5654 Clouds 9 1006 59 0 8.88 123.189 08:23 30.06.2019
5655 Clouds 9 1006 59 0 8.88 123.189 07:52 30.06.2019
5656 Clouds 9 1006 59 0 8.88 123.189 07:26 30.06.2019
5657 Clouds 9 1006 59 0 8.88 123.189 06:40 30.06.2019
5658 Clouds 9 1007 63 0 8.1 133.099 04:56 30.06.2019
5659 Clouds 9 1009 63 0 8.76 143.275 02:41 30.06.2019
5660 Clouds 9 1009 63 0 8.98 142.565 01:27 30.06.2019
5661 Clouds 10 1009 63 0 8.11 161.532 00:26 30.06.2019
5662 Clouds 10 1009 63 0 8.11 161.532 23:53 29.06.2019
5663 Clouds 10 1009 63 0 8.11 161.532 23:24 29.06.2019
5664 Clouds 10 1009 63 0 8.11 161.532 22:56 29.06.2019
5665 Clouds 10 1009 63 0 8.11 161.532 22:25 29.06.2019
5666 Clouds 9 1010 67 0 7.39 148.28 21:59 29.06.2019
5667 Clouds 9 1010 67 0 7.39 148.28 21:40 29.06.2019
5668 Clouds 10 1011 65 0 5.52 156.961 21:20 29.06.2019
5669 Clouds 10 1011 65 0 5.52 156.961 20:40 29.06.2019
5670 Clouds 10 1011 65 0 5.52 156.961 20:22 29.06.2019
5671 Clouds 10 1011 65 0 5.52 156.961 19:48 29.06.2019
5672 Clouds 10 1011 65 0 5.52 156.961 19:23 29.06.2019
5673 Clouds 10 1011 65 0 5.52 156.961 18:49 29.06.2019
5674 Clouds 9 1010 63 0 7.38 121.937 18:26 29.06.2019
5675 Clouds 9 1010 63 0 7.38 121.937 17:42 29.06.2019
5676 Clouds 9 1010 63 0 7.38 121.937 17:22 29.06.2019
5677 Clouds 9 1010 63 0 7.38 121.937 16:57 29.06.2019
5678 Clouds 9 1010 63 0 7.38 121.937 16:36 29.06.2019
5679 Clouds 9 1010 63 0 7.38 121.937 15:48 29.06.2019
5680 Clouds 10 1010 62 0 6.56 119.531 15:24 29.06.2019
5681 Clouds 10 1010 62 0 6.56 119.531 14:44 29.06.2019
5682 Clouds 10 1010 62 0 6.56 119.531 14:25 29.06.2019
5683 Clouds 10 1010 62 0 6.56 119.531 13:46 29.06.2019
5684 Clouds 9 1011 67 0 7.71 114.366 13:26 29.06.2019
5685 Clouds 9 1011 67 0 7.71 114.366 12:51 29.06.2019
5686 Clouds 9 1011 67 0 7.71 114.366 12:33 29.06.2019
5687 Clouds 9 1010 67 0 4.13 137.777 11:54 29.06.2019
5688 Clouds 9 1010 67 0 4.13 137.777 11:33 29.06.2019
5689 Clouds 9 1010 67 0 4.13 137.777 10:56 29.06.2019
5690 Clouds 9 1010 67 0 4.13 137.777 10:38 29.06.2019
5691 Clouds 9 1010 67 0 4.13 137.777 10:20 29.06.2019
5692 Clouds 9 1010 67 0 4.13 137.777 09:44 29.06.2019
5693 Clouds 7 1010 76 0 4.32 118.187 08:50 29.06.2019
5694 Clouds 7 1010 75 0 3.72 109.385 07:59 29.06.2019
5695 Clouds 7 1010 75 0 3.72 109.385 07:36 29.06.2019
5696 Clouds 7 1010 75 0 3.72 109.385 06:45 29.06.2019
5697 Clouds 6 1011 79 0 2.69 137.107 06:23 29.06.2019
5698 Clouds 6 1011 81 0 2.73 147.208 02:51 29.06.2019
5699 Clouds 6 1011 82 0 2.89 144.075 01:21 29.06.2019
5700 Clouds 7 1011 76 0 5.88 142.6 00:24 29.06.2019
5701 Clouds 7 1011 76 0 5.88 142.6 23:27 28.06.2019
5702 Clouds 7 1011 76 0 5.88 142.6 22:57 28.06.2019
5703 Clouds 7 1011 76 0 5.88 142.6 22:37 28.06.2019
5704 Clouds 7 1011 76 0 5.88 142.6 21:53 28.06.2019
5705 Clouds 6 1011 74 0 7.75 121.343 21:25 28.06.2019
5706 Clouds 6 1012 74 0 7.77 123.713 20:49 28.06.2019
5707 Clouds 6 1012 74 0 7.77 123.713 20:28 28.06.2019
5708 Clouds 6 1012 74 0 7.77 123.713 19:54 28.06.2019
5709 Clouds 6 1012 74 0 7.77 123.713 19:30 28.06.2019
5710 Clouds 6 1012 74 0 7.77 123.713 18:59 28.06.2019
5711 Clouds 6 1012 74 0 7.77 123.713 18:38 28.06.2019
5712 Clear 5 1012 78 0 8.16 115.344 18:20 28.06.2019
5713 Clear 5 1012 78 0 8.16 115.344 17:30 28.06.2019
5714 Clear 5 1012 78 0 8.16 115.344 16:51 28.06.2019
5715 Clear 5 1012 78 0 8.16 115.344 16:27 28.06.2019
5716 Clear 5 1012 78 0 8.16 115.344 15:48 28.06.2019
5717 Clear 5 1012 78 0 8.16 115.344 15:48 28.06.2019
5718 Clear 5 1012 79 0 7.26 112.988 15:26 28.06.2019
5719 Clear 5 1012 79 0 7.26 112.988 14:56 28.06.2019
5720 Clear 5 1012 79 0 7.26 112.988 14:56 28.06.2019
5721 Clear 5 1012 79 0 7.26 112.988 14:37 28.06.2019
5722 Clear 5 1012 79 0 7.26 112.988 14:18 28.06.2019
5723 Clear 5 1012 79 0 7.26 112.988 13:44 28.06.2019
5724 Clear 5 1012 83 0 6.93 109.816 13:21 28.06.2019
5725 Clear 5 1012 83 0 6.93 109.816 12:48 28.06.2019
5726 Clear 5 1011 83 0 5.89 109.744 12:24 28.06.2019
5727 Clear 5 1011 83 0 5.89 109.744 11:27 28.06.2019
5728 Clear 5 1011 83 0 5.89 109.744 10:47 28.06.2019
5729 Clear 5 1011 83 0 5.89 109.744 10:23 28.06.2019
5730 Clear 5 1011 83 0 5.89 109.744 10:23 28.06.2019
5731 Clear 5 1011 83 0 5.89 109.744 09:49 28.06.2019
5732 Clear 5 1011 83 0 5.89 109.744 09:31 28.06.2019
5733 Clouds 5 1011 83 0 4.95 116.565 08:50 28.06.2019
5734 Clouds 4 1011 82 0 4.51 113.747 08:27 28.06.2019
5735 Clouds 4 1011 82 0 4.51 113.747 07:58 28.06.2019
5736 Clouds 4 1011 82 0 4.51 113.747 07:40 28.06.2019
5737 Clouds 4 1011 82 0 4.51 113.747 06:40 28.06.2019
5738 Clouds 3 1011 92 0 2.53 108.506 02:56 28.06.2019
5739 Clouds 3 1011 92 0 1.92 107.107 00:45 28.06.2019
5740 Clear 2 1011 90 0 0.74 229.75 23:58 27.06.2019
5741 Clear 2 1011 90 0 0.74 229.75 23:40 27.06.2019
5742 Clear 2 1011 90 0 0.74 229.75 23:21 27.06.2019
5743 Clear 2 1011 90 0 0.74 229.75 22:42 27.06.2019
5744 Clear 2 1011 90 0 0.74 229.75 22:24 27.06.2019
5745 Clear 2 1011 90 0 0.74 229.75 21:56 27.06.2019
5746 Clear 2 1011 90 0 0.74 229.75 21:37 27.06.2019
5747 Clouds 3 1011 85 0 1.89 232.597 21:19 27.06.2019
5748 Clouds 3 1011 90 0 1.29 198.463 20:45 27.06.2019
5749 Clouds 3 1011 90 0 1.29 198.463 20:45 27.06.2019
5750 Clouds 3 1011 90 0 1.29 198.463 20:26 27.06.2019
5751 Clouds 3 1011 90 0 1.29 198.463 19:46 27.06.2019
5752 Clouds 3 1011 90 0 1.29 198.463 19:27 27.06.2019
5753 Clouds 3 1011 90 0 1.29 198.463 18:44 27.06.2019
5754 Clouds 2 1011 85 0 1.1 135.738 18:26 27.06.2019
5755 Clouds 2 1011 85 0 1.1 135.738 17:47 27.06.2019
5756 Clouds 2 1011 85 0 1.1 135.738 17:23 27.06.2019
5757 Clouds 2 1011 85 0 1.1 135.738 16:55 27.06.2019
5758 Clouds 2 1011 85 0 1.1 135.738 16:36 27.06.2019
5759 Clouds 2 1011 85 0 1.1 135.738 16:18 27.06.2019
5760 Clouds 2 1011 85 0 1.1 135.738 15:44 27.06.2019
5761 Clouds 2 1010 85 0 0.84 359.796 15:18 27.06.2019
5762 Clouds 2 1010 85 0 0.84 359.796 14:42 27.06.2019
5763 Clouds 2 1010 85 0 0.84 359.796 14:23 27.06.2019
5764 Clouds 2 1010 85 0 0.84 359.796 13:46 27.06.2019
5765 Clouds 3 1010 84 0 2.91 255.128 13:27 27.06.2019
5766 Clouds 3 1010 84 0 2.91 255.128 12:51 27.06.2019
5767 Clouds 3 1010 84 0 2.91 255.128 12:33 27.06.2019
5768 Clouds 4 1010 83 0 5.58 244.487 11:55 27.06.2019
5769 Clouds 4 1010 83 0 5.58 244.487 11:36 27.06.2019
5770 Clouds 4 1010 83 0 5.58 244.487 11:18 27.06.2019
5771 Clouds 4 1010 83 0 5.58 244.487 10:42 27.06.2019
5772 Clouds 4 1010 83 0 5.58 244.487 10:20 27.06.2019
5773 Clouds 4 1010 83 0 5.58 244.487 09:49 27.06.2019
5774 Clouds 3 1009 91 0 6.07 235.456 09:21 27.06.2019
5775 Clouds 3 1009 91 0 6.07 235.456 08:51 27.06.2019
5776 Clouds 2 1009 94 0 7.3 224.756 08:30 27.06.2019
5777 Clouds 2 1009 94 0 7.3 224.756 07:48 27.06.2019
5778 Clouds 2 1009 94 0 7.3 224.756 07:48 27.06.2019
5779 Clouds 2 1009 94 0 7.3 224.756 07:25 27.06.2019
5780 Clouds 2 1009 94 0 7.3 224.756 06:39 27.06.2019
5781 Rain 2 1010 94 0 7.22 236.081 03:53 27.06.2019
5782 Clouds 2 1010 90 0 8.33 230.917 02:43 27.06.2019
5783 Clouds 2 1010 90 0 8.33 230.917 01:46 27.06.2019
5784 Rain 2 1010 93 0 8.31 231.118 00:54 27.06.2019
5785 Rain 2 1010 93 0 8.31 231.118 00:29 27.06.2019
5786 Clouds 2 1010 93 0 9.31 244.729 23:52 26.06.2019
5787 Clouds 2 1010 93 0 9.31 244.729 23:23 26.06.2019
5788 Clouds 2 1010 93 0 9.31 244.729 22:59 26.06.2019
5789 Clouds 2 1010 93 0 9.31 244.729 22:40 26.06.2019
5790 Clouds 2 1010 93 0 9.31 244.729 22:20 26.06.2019
5791 Clouds 2 1010 93 0 9.31 244.729 21:43 26.06.2019
5792 Rain 2 1011 92 0 8.96 240.856 21:22 26.06.2019
5793 Rain 2 1011 92 0 8.96 240.856 20:58 26.06.2019
5794 Clouds 2 1011 94 0 9.24 240.444 20:39 26.06.2019
5795 Clouds 2 1011 94 0 9.24 240.444 20:39 26.06.2019
5796 Clouds 2 1011 94 0 9.24 240.444 20:21 26.06.2019
5797 Clouds 2 1011 94 0 9.24 240.444 19:44 26.06.2019
5798 Clouds 2 1011 94 0 9.24 240.444 19:25 26.06.2019
5799 Clouds 2 1011 94 0 9.24 240.444 18:48 26.06.2019
5800 Rain 2 1011 93 0 8.64 247.486 18:23 26.06.2019
5801 Rain 2 1011 93 0 8.64 247.486 17:58 26.06.2019
5802 Rain 2 1011 93 0 8.64 247.486 17:38 26.06.2019
5803 Rain 2 1011 93 0 8.64 247.486 17:19 26.06.2019
5804 Rain 2 1011 93 0 8.64 247.486 16:46 26.06.2019
5805 Rain 2 1011 93 0 8.64 247.486 16:23 26.06.2019
5806 Rain 2 1011 93 0 8.64 247.486 15:42 26.06.2019
5807 Clouds 2 1011 93 0 9.82 243.586 15:23 26.06.2019
5808 Clouds 2 1011 93 0 9.82 243.586 15:23 26.06.2019
5809 Clouds 2 1011 93 0 9.82 243.586 14:38 26.06.2019
5810 Clouds 2 1011 93 0 9.82 243.586 14:19 26.06.2019
5811 Clouds 2 1011 93 0 9.82 243.586 13:44 26.06.2019
5812 Clouds 2 1011 93 0 10 241.879 13:20 26.06.2019
5813 Clouds 2 1011 93 0 10 241.879 12:42 26.06.2019
5814 Clouds 2 1010 91 0 9.55 251.292 12:23 26.06.2019
5815 Clouds 2 1010 91 0 9.55 251.292 11:51 26.06.2019
5816 Clouds 2 1010 91 0 9.55 251.292 11:23 26.06.2019
5817 Clouds 2 1010 91 0 9.55 251.292 10:47 26.06.2019
5818 Clouds 2 1010 91 0 9.55 251.292 10:28 26.06.2019
5819 Clouds 2 1010 91 0 9.55 251.292 09:49 26.06.2019
5820 Clouds 2 1009 87 0 8.5 262.872 09:24 26.06.2019
5821 Clouds 2 1009 87 0 8.5 262.872 08:49 26.06.2019
5822 Clouds 2 1009 85 0 7.83 261.105 08:20 26.06.2019
5823 Clouds 2 1009 85 0 7.83 261.105 07:52 26.06.2019
5824 Clouds 2 1009 85 0 7.83 261.105 07:34 26.06.2019
5825 Clouds 2 1009 85 0 7.83 261.105 06:32 26.06.2019
5826 Rain 2 1008 94 0 9.24 254.597 01:31 26.06.2019
5827 Clouds 2 1007 94 0 9.82 250.163 00:25 26.06.2019
5828 Clouds 2 1007 94 0 9.82 250.163 23:48 25.06.2019
5829 Clouds 2 1007 94 0 9.82 250.163 23:28 25.06.2019
5830 Clouds 2 1007 94 0 9.82 250.163 22:58 25.06.2019
5831 Clouds 2 1007 94 0 9.82 250.163 22:39 25.06.2019
5832 Clouds 2 1007 94 0 9.82 250.163 22:21 25.06.2019
5833 Clouds 2 1007 94 0 9.82 250.163 21:45 25.06.2019
5834 Clouds 2 1008 95 0 10.4 243.386 21:22 25.06.2019
5835 Rain 2 1007 91 0 9.66 254.63 20:47 25.06.2019
5836 Rain 2 1007 91 0 9.66 254.63 20:47 25.06.2019
5837 Rain 2 1007 91 0 9.66 254.63 20:47 25.06.2019
5838 Rain 2 1007 91 0 9.66 254.63 20:47 25.06.2019
5839 Rain 2 1007 91 0 9.66 254.63 20:47 25.06.2019
5840 Rain 2 1007 91 0 9.66 254.63 20:23 25.06.2019
5841 Rain 2 1007 91 0 9.66 254.63 19:54 25.06.2019
5842 Rain 2 1007 91 0 9.66 254.63 19:36 25.06.2019
5843 Rain 2 1007 91 0 9.66 254.63 19:18 25.06.2019
5844 Rain 2 1007 91 0 9.66 254.63 18:40 25.06.2019
5845 Clouds 2 1008 88 0 11.27 248.574 18:21 25.06.2019
5846 -273 0 0 0 0 0 17:37 25.06.2019
5847 Clouds 2 1008 88 0 11.27 248.574 17:19 25.06.2019
5848 Clouds 2 1008 88 0 11.27 248.574 17:19 25.06.2019
5849 Clouds 2 1008 88 0 11.27 248.574 17:19 25.06.2019
5850 Clouds 2 1008 88 0 11.27 248.574 17:19 25.06.2019
5851 Clouds 2 1008 88 0 11.27 248.574 16:42 25.06.2019
5852 Clouds 2 1008 88 0 11.27 248.574 16:24 25.06.2019
5853 Clouds 2 1008 88 0 11.27 248.574 15:43 25.06.2019
5854 Clouds 2 1009 89 0 9.01 255.978 15:24 25.06.2019
5855 Clouds 2 1009 89 0 9.01 255.978 14:55 25.06.2019
5856 Clouds 2 1009 89 0 9.01 255.978 14:36 25.06.2019
5857 Clouds 2 1009 89 0 9.01 255.978 13:50 25.06.2019
5858 Clouds 2 1009 86 0 8.29 257.252 13:30 25.06.2019
5859 Clouds 2 1009 86 0 8.29 257.252 12:58 25.06.2019
5860 Clouds 2 1009 86 0 8.29 257.252 12:38 25.06.2019
5861 Clouds 1 1008 95 0 7.61 261.381 12:20 25.06.2019
5862 Clouds 1 1008 95 0 7.61 261.381 11:44 25.06.2019
5863 Clouds 1 1008 95 0 7.61 261.381 11:21 25.06.2019
5864 Clouds 1 1008 95 0 7.61 261.381 10:45 25.06.2019
5865 Clouds 1 1008 95 0 7.61 261.381 10:23 25.06.2019
5866 Clouds 1 1008 95 0 7.61 261.381 09:56 25.06.2019
5867 Clouds 1 1008 95 0 7.61 261.381 09:38 25.06.2019
5868 Clouds 1 1008 89 0 6.14 259.263 09:19 25.06.2019
5869 Clouds 1 1008 89 0 6.14 259.263 08:48 25.06.2019
5870 Clouds 1 1008 84 0 5.3 265.891 08:28 25.06.2019
5871 Clouds 1 1008 84 0 5.3 265.891 07:42 25.06.2019
5872 Clouds 1 1008 84 0 5.3 265.891 06:59 25.06.2019
5873 Clouds 1 1008 84 0 5.3 265.891 06:40 25.06.2019
5874 Clouds 1 1007 84 0 5.56 283.641 04:24 25.06.2019
5875 Clouds 1 1007 84 0 6.39 276.052 02:23 25.06.2019
5876 Clouds 0 1007 83 0 6.81 274.313 00:38 25.06.2019
5877 Clouds 0 1006 86 0 5.02 295.165 00:18 25.06.2019
5878 Clouds 0 1006 86 0 5.02 295.165 23:42 24.06.2019
5879 Clouds 0 1006 86 0 5.02 295.165 23:23 24.06.2019
5880 Clouds 0 1006 86 0 5.02 295.165 22:44 24.06.2019
5881 Clouds 0 1006 86 0 5.02 295.165 22:19 24.06.2019
5882 Clouds 0 1006 86 0 5.02 295.165 21:41 24.06.2019
5883 Clouds 1 1007 82 0 4.45 283.159 21:19 24.06.2019
5884 Clouds 1 1007 82 0 4.45 283.159 20:58 24.06.2019
5885 Clouds 1 1006 82 0 4.2 280.365 20:40 24.06.2019
5886 Clouds 1 1006 82 0 4.2 280.365 20:21 24.06.2019
5887 Clouds 1 1006 82 0 4.2 280.365 19:46 24.06.2019
5888 Clouds 1 1006 82 0 4.2 280.365 19:21 24.06.2019
5889 Clouds 1 1006 82 0 4.2 280.365 18:48 24.06.2019
5890 Clouds 1 1006 82 0 4.2 280.365 18:29 24.06.2019
5891 Clouds 1 1005 81 0 3.2 222.621 17:56 24.06.2019
5892 Clouds 1 1005 81 0 3.2 222.621 17:35 24.06.2019
5893 Clouds 1 1005 81 0 3.2 222.621 16:48 24.06.2019
5894 Clouds 1 1005 81 0 3.2 222.621 16:21 24.06.2019
5895 Clouds 1 1005 81 0 3.2 222.621 16:21 24.06.2019
5896 Clouds 1 1005 81 0 3.2 222.621 15:59 24.06.2019
5897 Clouds 1 1005 81 0 3.2 222.621 15:38 24.06.2019
5898 Clouds 0 1005 84 0 2.9 267.545 15:19 24.06.2019
5899 Clouds 0 1005 84 0 2.9 267.545 14:34 24.06.2019
5900 Clouds 0 1005 84 0 2.9 267.545 13:51 24.06.2019
5901 Clouds -1 1006 86 0 3.09 278.694 13:29 24.06.2019
5902 Clouds -1 1006 86 0 3.09 278.694 12:45 24.06.2019
5903 Clouds -1 1004 86 0 2.96 319.313 12:22 24.06.2019
5904 Clouds -1 1004 86 0 2.96 319.313 11:56 24.06.2019
5905 Clouds -1 1004 86 0 2.96 319.313 11:38 24.06.2019
5906 Clouds -1 1004 86 0 2.96 319.313 11:18 24.06.2019
5907 Clouds -1 1004 86 0 2.96 319.313 10:42 24.06.2019
5908 Clouds -1 1004 86 0 2.96 319.313 10:20 24.06.2019
5909 Clouds -1 1004 86 0 2.96 319.313 09:48 24.06.2019
5910 Clouds -1 1004 89 0 3.92 347.915 09:20 24.06.2019
5911 Clouds -1 1004 89 0 3.92 347.915 08:51 24.06.2019
5912 Clouds -1 1004 88 0 3.51 356.205 08:25 24.06.2019
5913 Clouds -1 1004 88 0 3.51 356.205 08:25 24.06.2019
5914 Clouds -1 1004 88 0 3.51 356.205 07:44 24.06.2019
5915 Clouds -1 1004 88 0 3.51 356.205 07:25 24.06.2019
5916 Clouds -1 1004 88 0 3.51 356.205 06:31 24.06.2019
5917 Clouds -2 1003 93 0 4.38 14.789 05:57 24.06.2019
5918 Clouds -2 1003 93 0 4.38 14.789 04:59 24.06.2019
5919 Clouds -2 1003 93 0 4.38 14.789 04:23 24.06.2019
5920 Clouds -1 1002 92 0 4.78 34.419 02:55 24.06.2019
5921 Clouds -1 1002 92 0 4.78 34.419 01:59 24.06.2019
5922 Clouds -1 1002 92 0 4.78 34.419 01:41 24.06.2019
5923 Clouds -1 1002 92 0 4.9 35.538 01:21 24.06.2019
5924 Clouds -1 1002 92 0 4.9 35.538 00:38 24.06.2019
5925 Clouds 1 1002 95 0 2.27 347.353 00:18 24.06.2019
5926 Clouds 1 1002 95 0 2.27 347.353 23:43 23.06.2019
5927 Clouds 1 1002 95 0 2.27 347.353 23:21 23.06.2019
5928 Clouds 1 1002 95 0 2.27 347.353 22:42 23.06.2019
5929 Clouds 1 1002 95 0 2.27 347.353 22:20 23.06.2019
5930 Clouds 1 1002 95 0 2.27 347.353 21:44 23.06.2019
5931 Clouds 1 1002 92 0 4.62 253.213 21:25 23.06.2019
5932 Clouds 1 1002 92 0 4.62 253.213 20:58 23.06.2019
5933 Clouds 1 1002 92 0 4.62 253.213 20:38 23.06.2019
5934 Clouds 2 1002 91 0 4.88 245.136 20:20 23.06.2019
5935 Clouds 2 1002 91 0 4.88 245.136 19:43 23.06.2019
5936 Clouds 2 1002 91 0 4.88 245.136 19:20 23.06.2019
5937 Clouds 2 1002 91 0 4.88 245.136 18:48 23.06.2019
5938 Clouds 2 1002 90 0 6.87 244.106 18:20 23.06.2019
5939 Clouds 2 1002 90 0 6.87 244.106 17:46 23.06.2019
5940 Clouds 2 1002 90 0 6.87 244.106 17:25 23.06.2019
5941 Clouds 2 1002 90 0 6.87 244.106 16:47 23.06.2019
5942 -273 0 0 0 0 0 16:26 23.06.2019
5943 Clouds 2 1002 90 0 6.87 244.106 15:59 23.06.2019
5944 Clouds 2 1002 90 0 6.87 244.106 15:40 23.06.2019
5945 Clouds 2 1002 85 0 9.12 238.674 15:19 23.06.2019
5946 Clouds 2 1002 85 0 9.12 238.674 14:39 23.06.2019
5947 Clouds 2 1002 85 0 9.12 238.674 14:21 23.06.2019
5948 Clouds 2 1002 85 0 9.12 238.674 13:54 23.06.2019
5949 Clouds 2 1002 85 0 9.12 238.674 13:36 23.06.2019
5950 Clouds 2 1002 84 0 9.36 237.716 13:18 23.06.2019
5951 Clouds 2 1002 84 0 9.36 237.716 12:42 23.06.2019
5952 Clouds 1 1001 84 0 9.42 241.002 12:20 23.06.2019
5953 Clouds 1 1001 84 0 9.42 241.002 11:49 23.06.2019
5954 Clouds 1 1001 84 0 9.42 241.002 11:28 23.06.2019
5955 Clouds 1 1001 84 0 9.42 241.002 11:28 23.06.2019
5956 Clouds 1 1001 84 0 9.42 241.002 10:51 23.06.2019
5957 Clouds 1 1001 84 0 9.42 241.002 10:21 23.06.2019
5958 Clouds 1 1001 84 0 9.42 241.002 09:58 23.06.2019
5959 Clouds 1 1002 83 0 8.57 244.43 09:25 23.06.2019
5960 Clouds 1 1002 83 0 8.57 244.43 08:55 23.06.2019
5961 Clouds 1 1002 83 0 8.57 244.43 08:36 23.06.2019
5962 Clouds 1 1003 83 0 7.94 241.89 08:18 23.06.2019
5963 Clouds 1 1003 83 0 7.94 241.89 07:45 23.06.2019
5964 Clouds 1 1003 83 0 7.94 241.89 07:19 23.06.2019
5965 Clouds 1 1003 83 0 7.94 241.89 06:52 23.06.2019
5966 Clouds 1 1004 83 0 7.05 255.195 05:53 23.06.2019
5967 Clouds 1 1005 83 0 6.98 251.355 02:52 23.06.2019
5968 Clouds 1 1005 83 0 6.98 251.355 01:39 23.06.2019
5969 Clouds 1 1004 84 0 6.89 252.98 01:20 23.06.2019
5970 Clouds 1 1004 84 0 6.89 252.98 00:31 23.06.2019
5971 Clouds 1 1004 83 0 7.97 255.132 23:47 22.06.2019
5972 Clouds 1 1004 83 0 7.97 255.132 23:26 22.06.2019
5973 Clouds 1 1004 83 0 7.97 255.132 22:47 22.06.2019
5974 Clouds 1 1004 83 0 7.97 255.132 22:27 22.06.2019
5975 Clouds 1 1004 83 0 7.97 255.132 21:59 22.06.2019
5976 Clouds 1 1004 83 0 7.97 255.132 21:36 22.06.2019
5977 Clouds 1 1005 83 0 7.63 250.985 21:18 22.06.2019
5978 Clouds 1 1005 83 0 7.85 249.605 20:45 22.06.2019
5979 Clouds 1 1005 83 0 7.85 249.605 20:24 22.06.2019
5980 Clouds 1 1005 83 0 7.85 249.605 19:42 22.06.2019
5981 Clouds 1 1005 83 0 7.85 249.605 19:21 22.06.2019
5982 Clouds 1 1005 83 0 7.85 249.605 18:43 22.06.2019
5983 Clouds 1 1005 83 0 6.5 263.789 18:23 22.06.2019
5984 Clouds 1 1005 83 0 6.5 263.789 17:46 22.06.2019
5985 Clouds 1 1005 83 0 6.5 263.789 17:26 22.06.2019
5986 Clouds 1 1005 83 0 6.5 263.789 16:44 22.06.2019
5987 Clouds 1 1005 83 0 6.5 263.789 16:24 22.06.2019
5988 Clouds 1 1005 83 0 6.5 263.789 15:46 22.06.2019
5989 Clouds 1 1005 83 0 6.5 263.789 15:27 22.06.2019
5990 Clouds 1 1006 82 0 7.22 264.758 14:52 22.06.2019
5991 Clouds 1 1006 82 0 7.22 264.758 14:32 22.06.2019
5992 Clouds 1 1006 82 0 7.22 264.758 13:58 22.06.2019
5993 Clouds 1 1006 82 0 7.22 264.758 13:39 22.06.2019
5994 Clouds 1 1006 83 0 6.41 272.227 13:18 22.06.2019
5995 Clouds 1 1006 83 0 6.41 272.227 12:43 22.06.2019
5996 Clouds 1 1004 85 0 5.28 284.244 12:20 22.06.2019
5997 Clouds 1 1004 85 0 5.28 284.244 11:41 22.06.2019
5998 Clouds 1 1004 85 0 5.28 284.244 11:19 22.06.2019
5999 Clouds 1 1004 85 0 5.28 284.244 10:22 22.06.2019
6000 Clouds 1 1004 85 0 5.28 284.244 09:58 22.06.2019
6001 Clouds 1 1004 85 0 5.28 284.244 09:36 22.06.2019
6002 Clouds 1 1004 87 0 6.42 279.774 08:49 22.06.2019
6003 Clouds 1 1004 85 0 5.55 287.197 08:31 22.06.2019
6004 Clouds 1 1004 85 0 5.55 287.197 07:52 22.06.2019
6005 Clouds 1 1004 85 0 5.55 287.197 07:23 22.06.2019
6006 Clouds 1 1004 85 0 5.55 287.197 06:41 22.06.2019
6007 Clouds 1 1004 85 0 7.5 282.245 03:42 22.06.2019
6008 Clear 1 1003 91 0 7.7 270.528 02:24 22.06.2019
6009 Clear 1 1003 90 0 7.73 272.188 00:54 22.06.2019
6010 Clear 1 1003 90 0 7.73 272.188 00:30 22.06.2019
6011 Clear 1 1003 85 0 7.73 270.852 23:50 21.06.2019
6012 Clear 1 1003 85 0 7.73 270.852 23:23 21.06.2019
6013 Clear 1 1003 85 0 7.73 270.852 22:57 21.06.2019
6014 Clear 1 1003 85 0 7.73 270.852 22:34 21.06.2019
6015 Clear 1 1003 85 0 7.73 270.852 21:58 21.06.2019
6016 Clear 1 1003 85 0 7.73 270.852 21:38 21.06.2019
6017 Clouds 1 1003 88 0 6.52 282.407 21:19 21.06.2019
6018 Clouds 2 1003 90 0 6.28 279.024 20:47 21.06.2019
6019 Clouds 2 1003 90 0 6.28 279.024 20:25 21.06.2019
6020 Clouds 2 1003 90 0 6.28 279.024 19:48 21.06.2019
6021 Clouds 2 1003 90 0 6.28 279.024 19:21 21.06.2019
6022 Clouds 2 1003 90 0 6.28 279.024 18:40 21.06.2019
6023 Rain 2 1002 92 0 7.1 270.791 18:22 21.06.2019
6024 Rain 2 1002 92 0 7.1 270.791 17:31 21.06.2019
6025 Rain 2 1002 92 0 7.1 270.791 16:56 21.06.2019
6026 Rain 2 1002 92 0 7.1 270.791 16:36 21.06.2019
6027 Rain 2 1002 92 0 7.1 270.791 16:18 21.06.2019
6028 Rain 2 1002 92 0 7.1 270.791 15:37 21.06.2019
6029 Rain 2 1001 97 0 9.6 246.714 14:57 21.06.2019
6030 Rain 2 1001 97 0 9.6 246.714 14:38 21.06.2019
6031 Rain 2 1001 97 0 9.6 246.714 14:20 21.06.2019
6032 Rain 2 1001 97 0 9.6 246.714 13:39 21.06.2019
6033 Rain 1 1001 98 0 9.43 244.536 13:21 21.06.2019
6034 Rain 1 1001 98 0 9.43 244.536 12:49 21.06.2019
6035 Rain 1 1001 98 0 11.29 235.943 12:23 21.06.2019
6036 Rain 1 1001 98 0 11.29 235.943 12:23 21.06.2019
6037 Rain 1 1001 98 0 11.29 235.943 11:49 21.06.2019
6038 Rain 1 1001 98 0 11.29 235.943 11:28 21.06.2019
6039 Rain 1 1001 98 0 11.29 235.943 10:59 21.06.2019
6040 Rain 1 1001 98 0 11.29 235.943 10:40 21.06.2019
6041 Rain 1 1001 98 0 11.29 235.943 10:20 21.06.2019
6042 Rain 1 1001 98 0 11.29 235.943 09:43 21.06.2019
6043 Clouds 1 1001 97 0 13 231.418 09:22 21.06.2019
6044 Clouds 1 1001 97 0 13 231.418 08:55 21.06.2019
6045 Rain 1 1001 97 0 12.53 229.261 08:37 21.06.2019
6046 Rain 1 1001 97 0 12.53 229.261 08:18 21.06.2019
6047 Rain 1 1001 97 0 12.53 229.261 07:40 21.06.2019
6048 Rain 1 1001 97 0 12.53 229.261 06:59 21.06.2019
6049 Clouds 1 1000 96 0 12.54 240.261 06:24 21.06.2019
6050 Clouds 1 1000 96 0 12.54 240.261 05:33 21.06.2019
6051 Clouds 1 1000 96 0 12.54 240.261 04:36 21.06.2019
6052 Clouds 1 1000 96 0 12.54 240.261 03:35 21.06.2019
6053 Clouds 1 1000 88 0 12.17 251.418 02:59 21.06.2019
6054 Clouds 1 1000 88 0 12.17 251.418 01:59 21.06.2019
6055 Clouds 1 1000 87 0 11.85 251.222 01:25 21.06.2019
6056 Clouds 1 1000 87 0 11.85 251.222 00:27 21.06.2019
6057 Clouds 1 1000 81 0 11.37 250.047 23:53 20.06.2019
6058 Clouds 1 1000 81 0 11.37 250.047 23:24 20.06.2019
6059 Clouds 1 1000 81 0 11.37 250.047 22:59 20.06.2019
6060 Clouds 1 1000 81 0 11.37 250.047 22:40 20.06.2019
6061 Clouds 1 1000 81 0 11.37 250.047 22:21 20.06.2019
6062 Clouds 1 1000 81 0 11.37 250.047 21:52 20.06.2019
6063 Clouds 1 1000 82 0 11.2 251.855 21:20 20.06.2019
6064 Clouds 1 1000 82 0 11.2 251.855 20:59 20.06.2019
6065 Clouds 1 1000 82 0 11.42 251.671 20:40 20.06.2019
6066 Clouds 1 1000 82 0 11.42 251.671 20:21 20.06.2019
6067 Clouds 1 1000 82 0 11.42 251.671 19:43 20.06.2019
6068 Clouds 1 1000 82 0 11.42 251.671 19:19 20.06.2019
6069 Clouds 1 1000 82 0 11.42 251.671 18:55 20.06.2019
6070 Clouds 1 1000 82 0 11.42 251.671 18:37 20.06.2019
6071 Clouds 1 1001 80 0 10.83 251.363 18:18 20.06.2019
6072 Clouds 1 1001 80 0 10.83 251.363 17:43 20.06.2019
6073 Clouds 1 1001 80 0 10.83 251.363 17:19 20.06.2019
6074 Clouds 1 1001 80 0 10.83 251.363 16:41 20.06.2019
6075 Clouds 1 1001 80 0 10.83 251.363 16:19 20.06.2019
6076 Clouds 1 1001 80 0 10.83 251.363 15:43 20.06.2019
6077 Clouds 1 1001 82 0 9.7 255.527 15:23 20.06.2019
6078 Clouds 1 1001 82 0 9.7 255.527 14:57 20.06.2019
6079 Clouds 1 1001 82 0 9.7 255.527 14:38 20.06.2019
6080 Clouds 1 1001 82 0 9.7 255.527 14:19 20.06.2019
6081 Clouds 1 1001 82 0 9.7 255.527 13:39 20.06.2019
6082 Clouds 1 1001 82 0 9.62 255.627 13:18 20.06.2019
6083 Clouds 1 1001 82 0 9.62 255.627 12:42 20.06.2019
6084 Clouds 1 1001 81 0 8.93 265.375 12:21 20.06.2019
6085 Clouds 1 1001 81 0 8.93 265.375 11:41 20.06.2019
6086 Clouds 1 1001 81 0 8.93 265.375 11:23 20.06.2019
6087 Clouds 1 1001 81 0 8.93 265.375 10:45 20.06.2019
6088 Clouds 1 1001 81 0 8.93 265.375 10:24 20.06.2019
6089 Clouds 1 1001 81 0 8.93 265.375 09:55 20.06.2019
6090 Clouds 1 1001 81 0 8.93 265.375 09:37 20.06.2019
6091 Clouds 0 999 83 0 8.44 276.41 09:19 20.06.2019
6092 Clouds 0 1001 82 0 6.94 276.549 08:44 20.06.2019
6093 Clouds 0 1001 82 0 6.94 276.549 08:23 20.06.2019
6094 Clouds 0 1001 82 0 6.94 276.549 07:47 20.06.2019
6095 Clouds 0 1001 82 0 6.94 276.549 07:25 20.06.2019
6096 Clouds 0 1000 84 0 7.77 278.09 06:20 20.06.2019
6097 Clouds 0 1000 84 0 7.77 278.09 03:41 20.06.2019
6098 Clouds 0 1000 86 0 8.08 268.455 02:26 20.06.2019
6099 Clouds 0 1000 93 0 6.58 284.342 00:33 20.06.2019
6100 Clouds 0 1000 98 0 4.72 288.988 23:48 19.06.2019
6101 Clouds 0 1000 98 0 4.72 288.988 23:29 19.06.2019
6102 Clouds 0 1000 98 0 4.72 288.988 22:49 19.06.2019
6103 Clouds 0 1000 98 0 4.72 288.988 22:24 19.06.2019
6104 Clouds 0 1000 98 0 4.72 288.988 21:58 19.06.2019
6105 Clouds 0 1000 98 0 4.72 288.988 21:58 19.06.2019
6106 Clouds 0 1000 98 0 4.72 288.988 21:38 19.06.2019
6107 Clouds 1 1001 98 0 3.84 264.537 21:19 19.06.2019
6108 Clouds 1 1001 98 0 3.84 264.537 20:41 19.06.2019
6109 Clouds 1 1001 98 0 3.84 264.537 20:21 19.06.2019
6110 Clouds 1 1001 98 0 3.84 264.537 19:46 19.06.2019
6111 Clouds 1 1001 98 0 3.84 264.537 19:26 19.06.2019
6112 Clouds 1 1001 98 0 3.84 264.537 18:56 19.06.2019
6113 Clouds 0 1001 92 0 4 271.632 18:24 19.06.2019
6114 Clouds 0 1001 92 0 4 271.632 17:48 19.06.2019
6115 Clouds 0 1001 92 0 4 271.632 17:26 19.06.2019
6116 Clouds 0 1001 92 0 4 271.632 16:56 19.06.2019
6117 Clouds 0 1001 92 0 4 271.632 16:37 19.06.2019
6118 Clouds 0 1001 92 0 4 271.632 16:19 19.06.2019
6119 Clouds 0 1001 92 0 4 271.632 15:44 19.06.2019
6120 Clouds 0 1001 89 0 3.51 293.117 15:24 19.06.2019
6121 Clouds 0 1001 89 0 3.51 293.117 14:43 19.06.2019
6122 Clouds 0 1001 89 0 3.51 293.117 14:25 19.06.2019
6123 Clouds 0 1001 89 0 3.51 293.117 13:48 19.06.2019
6124 Clouds 0 1002 90 0 2.67 306.162 13:29 19.06.2019
6125 Clouds 0 1002 90 0 2.67 306.162 12:59 19.06.2019
6126 Clouds 0 1002 90 0 2.67 306.162 12:40 19.06.2019
6127 Clouds 0 1001 91 0 3.17 310.844 12:18 19.06.2019
6128 Clouds 0 1001 91 0 3.17 310.844 11:42 19.06.2019
6129 Clouds 0 1001 91 0 3.17 310.844 11:21 19.06.2019
6130 Clouds 0 1001 91 0 3.17 310.844 10:49 19.06.2019
6131 Clouds 0 1001 91 0 3.17 310.844 10:28 19.06.2019
6132 Clouds 0 1001 91 0 3.17 310.844 10:28 19.06.2019
6133 Clouds 0 1001 91 0 3.17 310.844 09:56 19.06.2019
6134 Clouds 0 1001 91 0 3.17 310.844 09:38 19.06.2019
6135 Clouds -1 1000 90 0 3.24 319.335 09:18 19.06.2019
6136 Clouds -1 1000 94 0 2.26 319.964 08:43 19.06.2019
6137 Clouds -1 1000 94 0 2.26 319.964 08:25 19.06.2019
6138 Clouds -1 1000 94 0 2.26 319.964 07:44 19.06.2019
6139 Clouds -1 1000 94 0 2.26 319.964 07:23 19.06.2019
6140 Clouds -1 1000 94 0 2.26 319.964 06:42 19.06.2019
6141 Clouds -1 1000 94 0 3.04 322.059 06:19 19.06.2019
6142 Clouds -1 1000 94 0 3.04 322.059 05:32 19.06.2019
6143 Clouds -1 1000 94 0 3.04 322.059 03:58 19.06.2019
6144 Clouds -1 999 90 0 3.34 318.305 02:52 19.06.2019
6145 Clouds -1 999 90 0 3.34 318.305 01:44 19.06.2019
6146 Clouds -1 999 88 0 3.46 321.102 00:56 19.06.2019
6147 Clouds -1 999 88 0 3.46 321.102 00:56 19.06.2019
6148 Clouds -1 999 88 0 3.46 321.102 00:38 19.06.2019
6149 Clouds -1 998 88 0 3.96 332.064 00:18 19.06.2019
6150 Clouds -1 998 88 0 3.96 332.064 23:42 18.06.2019
6151 Clouds -1 998 88 0 3.96 332.064 23:24 18.06.2019
6152 Clouds -1 998 88 0 3.96 332.064 22:41 18.06.2019
6153 Clouds -1 998 88 0 3.96 332.064 22:23 18.06.2019
6154 Clouds -1 998 88 0 3.96 332.064 21:47 18.06.2019
6155 Clouds -1 997 90 0 4.27 346.218 21:23 18.06.2019
6156 Clouds -1 997 90 0 4.27 346.218 20:59 18.06.2019
6157 Clouds -1 997 88 0 4.6 340.303 20:40 18.06.2019
6158 Clouds -1 997 88 0 4.6 340.303 20:21 18.06.2019
6159 Clouds -1 997 88 0 4.6 340.303 19:40 18.06.2019
6160 Clouds -1 997 88 0 4.6 340.303 19:22 18.06.2019
6161 Clouds -1 997 88 0 4.6 340.303 18:55 18.06.2019
6162 Clouds 0 996 95 0 4.69 334.764 18:25 18.06.2019
6163 Clouds 0 996 95 0 4.69 334.764 17:55 18.06.2019
6164 Clouds 0 996 95 0 4.69 334.764 17:36 18.06.2019
6165 Clouds 0 996 95 0 4.69 334.764 17:18 18.06.2019
6166 Clouds 0 996 95 0 4.69 334.764 16:42 18.06.2019
6167 Clouds 0 996 95 0 4.69 334.764 16:22 18.06.2019
6168 Clouds 0 996 95 0 4.69 334.764 15:41 18.06.2019
6169 -273 0 0 0 0 0 15:23 18.06.2019
6170 Clouds 0 995 95 0 2.95 325.975 14:56 18.06.2019
6171 Clouds 0 995 95 0 2.95 325.975 14:37 18.06.2019
6172 Clouds 0 995 95 0 2.95 325.975 14:19 18.06.2019
6173 Clouds 0 995 95 0 2.95 325.975 13:49 18.06.2019
6174 Clouds -1 995 96 0 2.03 329.94 13:29 18.06.2019
6175 Clouds -1 995 96 0 2.03 329.94 12:46 18.06.2019
6176 Clouds -1 995 96 0 2.03 329.94 12:28 18.06.2019
6177 Clouds -1 994 99 0 0.71 310.043 11:50 18.06.2019
6178 Clouds -1 994 99 0 0.71 310.043 11:24 18.06.2019
6179 Clouds -1 994 99 0 0.71 310.043 10:59 18.06.2019
6180 Clouds -1 994 99 0 0.71 310.043 10:40 18.06.2019
6181 Clouds -1 994 99 0 0.71 310.043 10:20 18.06.2019
6182 Clouds -1 994 99 0 0.71 310.043 09:51 18.06.2019
6183 Clouds -1 993 98 0 2.61 274.249 09:24 18.06.2019
6184 Clouds -1 993 98 0 2.61 274.249 08:49 18.06.2019
6185 Clouds -1 994 98 0 3.33 281.34 08:23 18.06.2019
6186 Clouds -1 994 98 0 3.33 281.34 07:55 18.06.2019
6187 Clouds -1 994 98 0 3.33 281.34 07:25 18.06.2019
6188 Clouds -1 994 98 0 3.33 281.34 06:52 18.06.2019
6189 Clouds -1 993 97 0 3.81 271.008 05:24 18.06.2019
6190 Clouds -1 993 97 0 3.81 271.008 04:21 18.06.2019
6191 Clouds 0 992 98 0 4.34 262.451 02:47 18.06.2019
6192 Clouds 0 992 95 0 4.31 260.855 01:27 18.06.2019
6193 Clouds 0 992 95 0 4.31 260.855 00:58 18.06.2019
6194 Clouds 0 992 95 0 4.31 260.855 00:30 18.06.2019
6195 Clouds -1 992 98 0 5.95 258.11 23:42 17.06.2019
6196 Clouds -1 992 98 0 5.95 258.11 23:42 17.06.2019
6197 Clouds -1 992 98 0 5.95 258.11 23:24 17.06.2019
6198 Clouds -1 992 98 0 5.95 258.11 22:58 17.06.2019
6199 Clouds -1 992 98 0 5.95 258.11 22:39 17.06.2019
6200 Clouds -1 992 98 0 5.95 258.11 22:20 17.06.2019
6201 Clouds -1 992 98 0 5.95 258.11 21:45 17.06.2019
6202 Clouds 0 992 98 0 8.25 258.19 21:23 17.06.2019
6203 Clouds 0 992 98 0 8.25 258.19 21:23 17.06.2019
6204 Clouds 0 992 98 0 8.25 258.19 20:42 17.06.2019
6205 Clouds 0 992 98 0 8.59 256.773 20:23 17.06.2019
6206 Clouds 0 992 98 0 8.59 256.773 19:57 17.06.2019
6207 Clouds 0 992 98 0 8.59 256.773 19:39 17.06.2019
6208 Clouds 0 992 98 0 8.59 256.773 19:20 17.06.2019
6209 Clouds 0 992 98 0 8.59 256.773 18:39 17.06.2019
6210 Clouds 0 992 98 0 7.67 257.413 18:18 17.06.2019
6211 Clouds 0 992 98 0 7.67 257.413 18:18 17.06.2019
6212 Clouds 0 992 98 0 7.67 257.413 17:48 17.06.2019
6213 Clouds 0 992 98 0 7.67 257.413 17:29 17.06.2019
6214 Clouds 0 992 98 0 7.67 257.413 16:59 17.06.2019
6215 Clouds 0 992 98 0 7.67 257.413 16:39 17.06.2019
6216 Clouds 0 992 98 0 7.67 257.413 16:21 17.06.2019
6217 Clouds 0 992 98 0 7.67 257.413 15:44 17.06.2019
6218 Clouds 0 991 98 0 6.17 250.064 15:20 17.06.2019
6219 Clouds 0 991 98 0 6.17 250.064 14:56 17.06.2019
6220 Clouds 0 991 98 0 6.17 250.064 14:37 17.06.2019
6221 Clouds 0 991 98 0 6.17 250.064 14:18 17.06.2019
6222 Clouds 0 991 98 0 6.17 250.064 13:41 17.06.2019
6223 Clouds 0 991 98 0 5.84 253.798 13:21 17.06.2019
6224 Clouds 0 991 98 0 5.84 253.798 12:42 17.06.2019
6225 Clouds 0 991 98 0 4.96 235.214 12:21 17.06.2019
6226 Clouds 0 991 98 0 4.96 235.214 11:43 17.06.2019
6227 Clouds 0 991 98 0 4.96 235.214 11:25 17.06.2019
6228 Clouds 0 991 98 0 4.96 235.214 10:48 17.06.2019
6229 Clouds 0 991 98 0 4.96 235.214 10:29 17.06.2019
6230 Clouds 0 991 98 0 4.96 235.214 09:56 17.06.2019
6231 Clouds 0 991 98 0 4.96 235.214 09:35 17.06.2019
6232 Clouds 0 992 98 0 3.65 221.51 08:58 17.06.2019
6233 Clouds 0 992 98 0 3.65 221.51 08:38 17.06.2019
6234 Clouds 0 992 98 0 3.65 221.51 08:20 17.06.2019
6235 Clouds 0 992 98 0 3.65 221.51 07:39 17.06.2019
6236 Clouds 0 992 98 0 3.65 221.51 07:19 17.06.2019
6237 Clouds 0 992 99 0 4.37 202.809 06:23 17.06.2019
6238 Clouds 0 992 99 0 4.37 202.809 05:31 17.06.2019
6239 Clouds 0 992 99 0 4.37 202.809 04:32 17.06.2019
6240 Clouds 0 992 99 0 4.37 202.809 03:32 17.06.2019
6241 Clouds 0 991 98 0 4.39 218.503 02:46 17.06.2019
6242 Clouds 0 991 98 0 4.39 218.503 02:28 17.06.2019
6243 Clouds 0 991 98 0 4.39 218.503 01:36 17.06.2019
6244 Clouds 0 992 98 0 4.97 217.105 00:58 17.06.2019
6245 Clouds 0 992 98 0 4.97 217.105 00:38 17.06.2019
6246 Clouds 0 991 98 0 5.5 225.376 00:19 17.06.2019
6247 Clouds 0 991 98 0 5.5 225.376 23:39 16.06.2019
6248 Clouds 0 991 98 0 5.5 225.376 23:20 16.06.2019
6249 Clouds 0 991 98 0 5.5 225.376 23:20 16.06.2019
6250 Clouds 0 991 98 0 5.5 225.376 22:45 16.06.2019
6251 Clouds 0 991 98 0 5.5 225.376 22:45 16.06.2019
6252 Clouds 0 991 98 0 5.5 225.376 22:21 16.06.2019
6253 Clouds 0 991 98 0 5.5 225.376 21:58 16.06.2019
6254 Clouds 0 991 98 0 5.5 225.376 21:40 16.06.2019
6255 Clouds 0 992 98 0 5.35 240.145 21:21 16.06.2019
6256 Clouds 0 993 96 0 5.78 227.214 20:40 16.06.2019
6257 Clouds 0 993 96 0 5.78 227.214 20:19 16.06.2019
6258 Clouds 0 993 96 0 5.78 227.214 19:58 16.06.2019
6259 Clouds 0 993 96 0 5.78 227.214 19:39 16.06.2019
6260 Clouds 0 993 96 0 5.78 227.214 19:21 16.06.2019
6261 Clouds 0 993 96 0 5.78 227.214 18:42 16.06.2019
6262 Clouds 1 993 97 0 4.39 246.693 18:21 16.06.2019
6263 Clouds 1 993 97 0 4.39 246.693 17:58 16.06.2019
6264 Clouds 1 993 97 0 4.39 246.693 17:40 16.06.2019
6265 Clouds 1 993 97 0 4.39 246.693 17:21 16.06.2019
6266 Clouds 1 993 97 0 4.39 246.693 16:55 16.06.2019
6267 Clouds 1 993 97 0 4.39 246.693 16:36 16.06.2019
6268 Clouds 1 993 97 0 4.39 246.693 16:36 16.06.2019
6269 Clouds 1 993 97 0 4.39 246.693 16:18 16.06.2019
6270 Clouds 1 993 97 0 4.39 246.693 15:39 16.06.2019
6271 Rain 1 993 99 0 3.15 203.139 15:21 16.06.2019
6272 Rain 1 993 99 0 3.15 203.139 14:40 16.06.2019
6273 Rain 1 993 99 0 3.15 203.139 14:21 16.06.2019
6274 Rain 1 993 99 0 3.15 203.139 13:50 16.06.2019
6275 Rain 1 993 99 0 3.15 203.139 13:25 16.06.2019
6276 Clouds 1 994 98 0 3.39 206.345 12:47 16.06.2019
6277 Clouds 1 994 90 0 6.05 235.832 12:23 16.06.2019
6278 Clouds 1 994 90 0 6.05 235.832 12:23 16.06.2019
6279 Clouds 1 994 90 0 6.05 235.832 11:59 16.06.2019
6280 Clouds 1 994 90 0 6.05 235.832 11:38 16.06.2019
6281 Clouds 1 994 90 0 6.05 235.832 11:19 16.06.2019
6282 Clouds 1 994 90 0 6.05 235.832 10:45 16.06.2019
6283 Clouds 1 994 90 0 6.05 235.832 10:20 16.06.2019
6284 Clouds 1 994 90 0 6.05 235.832 09:46 16.06.2019
6285 Clouds 1 993 88 0 5.52 235.348 09:25 16.06.2019
6286 Clouds 1 995 87 0 3.66 245.082 08:50 16.06.2019
6287 Clouds 1 995 87 0 3.66 245.082 08:22 16.06.2019
6288 Clouds 1 995 87 0 3.66 245.082 07:50 16.06.2019
6289 Clouds 1 995 87 0 3.66 245.082 07:32 16.06.2019
6290 Clouds 1 995 87 0 3.66 245.082 06:55 16.06.2019
6291 Clouds 0 995 98 0 5.73 238.577 06:20 16.06.2019
6292 Clouds 0 995 98 0 5.73 238.577 05:26 16.06.2019
6293 Clouds 0 995 98 0 5.73 238.577 04:26 16.06.2019
6294 Clouds 0 995 98 0 5.73 238.577 03:44 16.06.2019
6295 Clouds 0 995 97 0 6.42 234.336 03:26 16.06.2019
6296 Clouds 0 995 97 0 6.42 234.336 01:55 16.06.2019
6297 Clouds 0 995 97 0 6.42 234.336 01:37 16.06.2019
6298 Clouds 0 995 95 0 6.04 233.35 00:59 16.06.2019
6299 Clouds 0 995 95 0 6.04 233.35 00:37 16.06.2019
6300 Clouds 1 995 85 0 4.05 248.017 00:18 16.06.2019
6301 Clouds 1 995 85 0 4.05 248.017 23:40 15.06.2019
6302 Clouds 1 995 85 0 4.05 248.017 23:20 15.06.2019
6303 Clouds 1 995 85 0 4.05 248.017 22:49 15.06.2019
6304 Clouds 1 995 85 0 4.05 248.017 22:26 15.06.2019
6305 Clouds 1 995 85 0 4.05 248.017 21:45 15.06.2019
6306 -273 0 0 0 0 0 21:27 15.06.2019
6307 Clouds 1 997 89 0 5.91 213.948 20:46 15.06.2019
6308 Clouds 1 997 89 0 5.91 213.948 20:24 15.06.2019
6309 Clouds 1 997 89 0 5.91 213.948 19:53 15.06.2019
6310 Clouds 1 997 89 0 5.91 213.948 19:30 15.06.2019
6311 Clouds 1 997 89 0 5.91 213.948 18:59 15.06.2019
6312 Clouds 1 997 89 0 5.91 213.948 18:37 15.06.2019
6313 Clouds 0 997 90 0 2.49 239.681 18:19 15.06.2019
6314 Clouds 0 997 90 0 2.49 239.681 17:41 15.06.2019
6315 Clouds 0 997 90 0 2.49 239.681 17:21 15.06.2019
6316 Clouds 0 997 90 0 2.49 239.681 16:44 15.06.2019
6317 Clouds 0 997 90 0 2.49 239.681 16:18 15.06.2019
6318 Clouds 0 997 90 0 2.49 239.681 15:42 15.06.2019
6319 Clouds 0 997 91 0 3.54 308.435 15:22 15.06.2019
6320 Clouds 0 997 91 0 3.54 308.435 14:39 15.06.2019
6321 Clouds 0 997 91 0 3.54 308.435 14:18 15.06.2019
6322 Clouds 0 997 91 0 3.54 308.435 13:44 15.06.2019
6323 Clouds 0 997 91 0 3.54 308.435 13:22 15.06.2019
6324 Clouds 0 997 91 0 3.54 308.435 13:00 15.06.2019
6325 Clouds 0 997 91 0 3.54 308.435 12:41 15.06.2019
6326 Clouds 0 997 96 0 4.3 309.958 12:23 15.06.2019
6327 Clouds 0 997 94 0 3.86 312.512 11:47 15.06.2019
6328 Clouds 0 997 94 0 3.86 312.512 11:28 15.06.2019
6329 Clouds 0 997 92 0 3.83 315.729 10:43 15.06.2019
6330 Clouds 0 997 92 0 3.83 315.729 10:25 15.06.2019
6331 Clouds 0 997 92 0 3.83 315.729 09:48 15.06.2019
6332 Clouds 0 996 90 0 3.68 336.456 09:26 15.06.2019
6333 Clouds 0 996 90 0 3.68 336.456 08:54 15.06.2019
6334 Clouds 0 996 90 0 3.68 336.456 08:36 15.06.2019
6335 -273 0 0 0 0 0 08:18 15.06.2019
6336 Clouds 0 996 90 0 3.68 336.456 07:25 15.06.2019
6337 Clouds 0 996 90 0 3.68 336.456 06:48 15.06.2019
6338 Clouds 0 995 93 0 4.36 322.841 06:22 15.06.2019
6339 Clouds 0 995 93 0 4.36 322.841 05:37 15.06.2019
6340 Clouds 0 995 93 0 4.36 322.841 04:51 15.06.2019
6341 Clouds 0 995 93 0 4.36 322.841 03:51 15.06.2019
6342 Clouds 0 995 98 0 3.71 342.107 03:21 15.06.2019
6343 Clouds 0 995 98 0 3.71 342.107 02:30 15.06.2019
6344 Clouds 0 995 98 0 3.71 342.107 01:53 15.06.2019
6345 Clouds 0 995 98 0 3.71 342.107 01:19 15.06.2019
6346 Clouds 0 995 98 0 3.71 342.107 00:40 15.06.2019
6347 Clouds 0 996 98 0 5.36 264.74 00:20 15.06.2019
6348 Clouds 0 996 99 0 5.65 267.859 23:42 14.06.2019
6349 Clouds 0 996 99 0 5.65 267.859 23:18 14.06.2019
6350 Clouds 0 996 99 0 5.65 267.859 22:41 14.06.2019
6351 Clouds 0 996 99 0 5.65 267.859 22:21 14.06.2019
6352 Clouds 0 996 99 0 5.65 267.859 21:48 14.06.2019
6353 Clouds 0 997 97 0 4.28 281.772 21:27 14.06.2019
6354 Clouds 0 997 97 0 4.28 281.772 20:44 14.06.2019
6355 Clouds 0 997 97 0 4.28 281.772 20:19 14.06.2019
6356 Clouds 0 997 97 0 4.28 281.772 19:57 14.06.2019
6357 Clouds 0 997 97 0 4.28 281.772 19:37 14.06.2019
6358 Clouds 0 997 97 0 4.28 281.772 19:18 14.06.2019
6359 Clouds 0 997 97 0 4.28 281.772 18:45 14.06.2019
6360 Clouds 0 999 89 0 5.13 302.755 18:26 14.06.2019
6361 Clouds 0 999 89 0 5.13 302.755 17:58 14.06.2019
6362 Clouds 0 999 89 0 5.13 302.755 17:39 14.06.2019
6363 Clouds 0 999 89 0 5.13 302.755 17:21 14.06.2019
6364 Clouds 0 999 89 0 5.13 302.755 16:46 14.06.2019
6365 -273 0 0 0 0 0 16:22 14.06.2019
6366 Clouds 0 999 89 0 5.13 302.755 16:22 14.06.2019
6367 Clouds 0 999 89 0 5.13 302.755 15:57 14.06.2019
6368 Clouds 0 999 89 0 5.13 302.755 15:38 14.06.2019
6369 Clouds 0 999 89 0 5.13 302.755 15:38 14.06.2019
6370 Clouds 0 1001 86 0 4.82 300.142 15:19 14.06.2019
6371 Clouds 0 1001 86 0 4.82 300.142 15:19 14.06.2019
6372 Clouds 0 1001 86 0 4.82 300.142 14:43 14.06.2019
6373 Clouds 0 1001 86 0 4.82 300.142 14:25 14.06.2019
6374 Clouds 0 1001 87 0 4.96 306.574 13:45 14.06.2019
6375 Clouds 0 1001 87 0 4.96 306.574 13:26 14.06.2019
6376 Clouds 0 1001 87 0 4.96 306.574 12:49 14.06.2019
6377 Clouds 0 1001 87 0 4.96 306.574 12:49 14.06.2019
6378 Clouds 0 1001 87 0 4.96 306.574 12:27 14.06.2019
6379 Clear 0 1002 88 0 4.84 309.263 11:59 14.06.2019
6380 Clear 0 1002 88 0 4.84 309.263 11:41 14.06.2019
6381 Clear 0 1002 88 0 4.84 309.263 11:23 14.06.2019
6382 Clear 0 1002 88 0 4.84 309.263 10:46 14.06.2019
6383 Clear 0 1002 88 0 4.84 309.263 10:20 14.06.2019
6384 Clear 0 1002 88 0 4.84 309.263 10:20 14.06.2019
6385 Clear 0 1002 88 0 4.84 309.263 09:52 14.06.2019
6386 Clouds 1 997 90 0 4.61 288.643 09:33 14.06.2019
6387 Clear 0 998 90 0 5.53 294.387 08:48 14.06.2019
6388 Clear 0 998 90 0 5.53 294.387 08:20 14.06.2019
6389 Clear 0 998 90 0 5.53 294.387 07:53 14.06.2019
6390 Clear 0 998 90 0 5.53 294.387 07:23 14.06.2019
6391 Clear 0 998 90 0 5.53 294.387 06:52 14.06.2019
6392 Clear 0 998 90 0 5.53 294.387 06:52 14.06.2019
6393 Clear 0 999 87 0 6.63 308.688 06:18 14.06.2019
6394 Clear 0 999 87 0 6.63 308.688 05:33 14.06.2019
6395 Clear 0 999 87 0 6.63 308.688 04:51 14.06.2019
6396 Clear 0 999 87 0 6.63 308.688 04:18 14.06.2019
6397 Clouds 0 1000 87 0 7.39 320.736 03:26 14.06.2019
6398 Clouds 0 1000 87 0 7.39 320.736 02:58 14.06.2019
6399 Clouds 0 1000 87 0 7.39 320.736 02:35 14.06.2019
6400 Clouds 0 1000 87 0 7.39 320.736 01:35 14.06.2019
6401 Clouds 0 1000 87 0 7.39 320.736 00:36 14.06.2019
6402 Clouds 0 1001 88 0 8.44 335.576 00:18 14.06.2019
6403 Clouds 0 1001 88 0 8.44 335.576 23:48 13.06.2019
6404 Clouds 0 1001 88 0 8.44 335.576 23:24 13.06.2019
6405 Clouds 0 1001 88 0 8.44 335.576 22:40 13.06.2019
6406 Clouds 0 1001 88 0 8.44 335.576 22:22 13.06.2019
6407 Clouds 0 1001 88 0 8.44 335.576 21:56 13.06.2019
6408 Clouds 0 1001 88 0 8.44 335.576 21:36 13.06.2019
6409 Clouds 0 1001 88 0 8.44 335.576 21:36 13.06.2019
6410 Clouds 0 1002 94 0 9.28 340.156 21:18 13.06.2019
6411 Clouds 0 1002 94 0 9.28 340.156 20:42 13.06.2019
6412 Clouds 0 1002 94 0 9.28 340.156 20:20 13.06.2019
6413 Clouds 0 1002 94 0 9.28 340.156 19:43 13.06.2019
6414 Clouds 0 1002 94 0 9.28 340.156 19:24 13.06.2019
6415 Clouds 0 1002 94 0 9.28 340.156 18:58 13.06.2019
6416 Clouds 0 1002 94 0 9.28 340.156 18:40 13.06.2019
6417 Clouds 0 1003 97 0 6.16 324.746 18:21 13.06.2019
6418 Clouds 0 1003 97 0 6.16 324.746 17:44 13.06.2019
6419 Clouds 0 1003 97 0 6.16 324.746 17:21 13.06.2019
6420 Clouds 0 1003 97 0 6.16 324.746 16:58 13.06.2019
6421 Clouds 0 1003 97 0 6.16 324.746 16:38 13.06.2019
6422 Clouds 0 1003 97 0 6.16 324.746 16:18 13.06.2019
6423 Clouds 0 1003 97 0 6.16 324.746 15:40 13.06.2019
6424 Clouds 0 1004 93 0 5.72 330.855 15:22 13.06.2019
6425 Clouds 0 1004 93 0 5.72 330.855 14:49 13.06.2019
6426 Clouds 0 1004 93 0 5.72 330.855 14:31 13.06.2019
6427 Clouds 0 1004 93 0 5.72 330.855 13:54 13.06.2019
6428 Clouds 0 1004 93 0 5.72 330.855 13:36 13.06.2019
6429 Clouds 0 1004 93 0 5.72 330.855 13:18 13.06.2019
6430 Clouds 0 1004 93 0 5.72 330.855 12:39 13.06.2019
6431 Clouds 0 1003 94 0 5.33 346.713 12:21 13.06.2019
6432 Clouds 0 1003 94 0 5.33 346.713 11:44 13.06.2019
6433 Clouds 0 1003 94 0 5.33 346.713 11:25 13.06.2019
6434 Clouds 0 1003 94 0 5.33 346.713 10:49 13.06.2019
6435 Clouds 0 1003 94 0 5.33 346.713 10:30 13.06.2019
6436 Clouds 0 1003 94 0 5.33 346.713 09:53 13.06.2019
6437 Clouds 0 1003 94 0 5.33 346.713 09:33 13.06.2019
6438 Clouds -1 1001 96 0 4.89 345.609 08:57 13.06.2019
6439 Clouds -1 1001 96 0 4.89 345.609 08:56 13.06.2019
6440 Clouds -1 1001 96 0 4.89 345.609 08:38 13.06.2019
6441 Clouds -1 1001 96 0 4.89 345.609 08:19 13.06.2019
6442 Clouds -1 1001 96 0 4.89 345.609 07:39 13.06.2019
6443 Clouds -1 1001 96 0 4.89 345.609 07:19 13.06.2019
6444 Clouds -1 1001 96 0 4.89 345.609 06:40 13.06.2019
6445 Clouds 0 1000 97 0 5.28 341.311 06:21 13.06.2019
6446 Clouds 0 1000 97 0 5.28 341.311 05:44 13.06.2019
6447 Clouds 0 1000 97 0 5.28 341.311 05:26 13.06.2019
6448 Clouds 0 1000 97 0 5.28 341.311 03:50 13.06.2019
6449 Clouds 0 1000 96 0 6.2 325.964 02:20 13.06.2019
6450 Clouds 0 1000 96 0 6.2 325.964 00:36 13.06.2019
6451 Clouds 0 1001 96 0 5.57 316.455 23:38 12.06.2019
6452 Clouds 0 1001 96 0 5.57 316.455 23:20 12.06.2019
6453 Clouds 0 1001 96 0 5.57 316.455 22:41 12.06.2019
6454 Clouds 0 1001 96 0 5.57 316.455 22:41 12.06.2019
6455 Clouds 0 1001 96 0 5.57 316.455 22:22 12.06.2019
6456 Clouds 0 1001 96 0 5.57 316.455 21:47 12.06.2019
6457 Clouds 0 1001 96 0 5.57 316.455 21:28 12.06.2019
6458 Clouds 0 1002 95 0 5.26 319.513 20:49 12.06.2019
6459 Clouds 0 1002 95 0 5.26 319.513 20:31 12.06.2019
6460 Clouds 0 1002 95 0 5.26 319.513 19:59 12.06.2019
6461 Clouds 0 1002 95 0 5.26 319.513 19:41 12.06.2019
6462 Clouds 0 1002 95 0 5.26 319.513 19:22 12.06.2019
6463 Clouds 0 1002 95 0 5.26 319.513 18:49 12.06.2019
6464 Clouds 0 1002 95 0 5.26 319.513 18:28 12.06.2019
6465 Clouds 0 1002 94 0 6.39 324.964 17:51 12.06.2019
6466 Clouds 0 1002 94 0 6.39 324.964 17:23 12.06.2019
6467 Clouds 0 1002 94 0 6.39 324.964 16:59 12.06.2019
6468 Clouds 0 1002 94 0 6.39 324.964 16:39 12.06.2019
6469 Clouds 0 1002 94 0 6.39 324.964 16:20 12.06.2019
6470 Clouds 0 1002 94 0 6.39 324.964 15:46 12.06.2019
6471 Clouds 0 1002 94 0 6.39 324.964 15:28 12.06.2019
6472 Clouds 0 1002 93 0 7.02 323.066 14:39 12.06.2019
6473 Clouds 0 1002 93 0 7.02 323.066 14:20 12.06.2019
6474 Clouds 0 1002 93 0 7.02 323.066 13:42 12.06.2019
6475 Clouds 0 1002 90 0 6.14 316.498 13:20 12.06.2019
6476 Clouds 0 1002 90 0 6.14 316.498 12:56 12.06.2019
6477 Clouds 0 1002 90 0 6.14 316.498 12:37 12.06.2019
6478 Clouds 0 1002 89 0 4.81 315.278 12:19 12.06.2019
6479 Clouds 0 1002 89 0 4.81 315.278 12:19 12.06.2019
6480 Clouds 0 1002 89 0 4.81 315.278 11:44 12.06.2019
6481 Clouds 0 1002 89 0 4.81 315.278 11:26 12.06.2019
6482 Clouds 0 1002 89 0 4.81 315.278 10:50 12.06.2019
6483 Clouds 0 1002 89 0 4.81 315.278 10:25 12.06.2019
6484 Clouds 0 1002 89 0 4.81 315.278 09:45 12.06.2019
6485 Clouds 0 1003 87 0 3.6 318.517 09:23 12.06.2019
6486 Clouds 0 1003 87 0 3.6 318.517 08:53 12.06.2019
6487 Clouds 0 1003 87 0 3.6 318.517 08:21 12.06.2019
6488 Clouds 0 1003 87 0 3.6 318.517 07:39 12.06.2019
6489 Clouds 0 1003 87 0 3.6 318.517 06:53 12.06.2019
6490 Clear 0 1004 86 0 3.23 309.849 05:27 12.06.2019
6491 Clear 0 1004 86 0 3.23 309.849 04:29 12.06.2019
6492 Clouds 0 1005 83 0 3.18 308.902 01:27 12.06.2019
6493 Clear 0 1004 83 0 3.25 300.77 00:38 12.06.2019
6494 Clear 1 1006 74 0 2.92 247.059 23:47 11.06.2019
6495 Clear 1 1006 74 0 2.92 247.059 23:29 11.06.2019
6496 Clouds 0 1006 74 0 2.03 220.033 22:44 11.06.2019
6497 Clouds 0 1006 74 0 2.03 220.033 22:19 11.06.2019
6498 Clouds 0 1006 74 0 2.03 220.033 21:57 11.06.2019
6499 Clouds 0 1006 74 0 2.03 220.033 21:38 11.06.2019
6500 Clear 0 1007 77 0 0.99 120.003 21:19 11.06.2019
6501 Clear 0 1007 77 0 0.99 120.003 20:48 11.06.2019
6502 Clear 0 1007 77 0 0.99 120.003 20:25 11.06.2019
6503 Clear 0 1007 77 0 0.99 120.003 20:25 11.06.2019
6504 Clear 0 1007 77 0 0.99 120.003 19:55 11.06.2019
6505 Clear 0 1007 77 0 0.99 120.003 19:33 11.06.2019
6506 Clear 0 1007 77 0 0.99 120.003 18:56 11.06.2019
6507 Clear 0 1008 75 0 1.96 57.675 18:22 11.06.2019
6508 Clear 0 1008 75 0 1.96 57.675 17:42 11.06.2019
6509 Clear 0 1008 75 0 1.96 57.675 17:42 11.06.2019
6510 Clear 0 1008 75 0 1.96 57.675 17:22 11.06.2019
6511 Clear 0 1008 75 0 1.96 57.675 16:57 11.06.2019
6512 Clear 0 1008 75 0 1.96 57.675 16:39 11.06.2019
6513 Clear 0 1008 75 0 1.96 57.675 16:21 11.06.2019
6514 Clear 0 1008 75 0 1.96 57.675 15:42 11.06.2019
6515 Clouds 0 1009 77 0 2.56 37.804 15:23 11.06.2019
6516 Clouds 0 1009 77 0 2.56 37.804 14:49 11.06.2019
6517 Clouds 0 1009 77 0 2.56 37.804 14:21 11.06.2019
6518 Clouds 0 1009 77 0 2.56 37.804 13:52 11.06.2019
6519 Clouds 0 1009 77 0 2.56 37.804 13:24 11.06.2019
6520 Clear 0 1009 80 0 2.82 16.429 12:58 11.06.2019
6521 Clear 0 1009 80 0 2.82 16.429 12:40 11.06.2019
6522 Clouds 0 1010 80 0 3.05 22.039 12:19 11.06.2019
6523 Clouds 0 1010 80 0 3.05 22.039 11:40 11.06.2019
6524 Clouds 0 1010 80 0 3.05 22.039 11:19 11.06.2019
6525 Clouds 0 1010 80 0 3.05 22.039 10:46 11.06.2019
6526 Clouds 0 1010 80 0 3.05 22.039 10:26 11.06.2019
6527 Clouds 0 1010 80 0 3.05 22.039 09:49 11.06.2019
6528 Clouds 0 1009 79 0 2.66 36.151 09:24 11.06.2019
6529 Clouds 0 1009 79 0 2.66 36.151 08:46 11.06.2019
6530 Clouds 0 1009 79 0 2.66 36.151 08:28 11.06.2019
6531 Clouds 0 1009 79 0 2.66 36.151 07:46 11.06.2019
6532 Clouds 0 1009 79 0 2.66 36.151 07:27 11.06.2019
6533 Clouds 0 1009 82 0 3.38 42.999 06:50 11.06.2019
6534 Clouds 0 1010 81 0 3.13 59.513 04:55 11.06.2019
6535 Clouds 0 1010 81 0 3.13 59.513 03:43 11.06.2019
6536 Clouds 0 1010 80 0 3.04 71.035 01:41 11.06.2019
6537 Clouds 0 1010 80 0 3.04 71.035 00:48 11.06.2019
6538 Clouds 0 1011 80 0 3.13 84.703 23:50 10.06.2019
6539 Clouds 0 1011 80 0 3.13 84.703 23:32 10.06.2019
6540 Clouds 0 1010 81 0 3.56 84.168 22:56 10.06.2019
6541 Clouds 0 1010 81 0 3.56 84.168 22:37 10.06.2019
6542 Clouds 0 1010 81 0 3.56 84.168 22:19 10.06.2019
6543 Clouds 0 1010 81 0 3.56 84.168 21:41 10.06.2019
6544 Clouds 0 1011 81 0 3.82 88.321 21:22 10.06.2019
6545 Clouds 0 1011 81 0 3.82 88.321 20:46 10.06.2019
6546 Clouds 0 1011 81 0 3.82 88.321 20:25 10.06.2019
6547 Clouds 0 1011 81 0 3.82 88.321 19:56 10.06.2019
6548 Clouds 0 1011 81 0 3.82 88.321 19:36 10.06.2019
6549 Clouds 0 1011 81 0 3.82 88.321 19:18 10.06.2019
6550 Clouds 0 1011 81 0 3.82 88.321 18:55 10.06.2019
6551 Clouds 0 1011 81 0 3.82 88.321 18:36 10.06.2019
6552 Clouds 0 1012 80 0 3.57 85.286 18:18 10.06.2019
6553 Clouds 0 1012 80 0 3.57 85.286 17:39 10.06.2019
6554 Clouds 0 1012 80 0 3.57 85.286 17:20 10.06.2019
6555 Clouds 0 1012 80 0 3.57 85.286 16:44 10.06.2019
6556 Clouds 0 1012 80 0 3.57 85.286 16:25 10.06.2019
6557 Clouds 0 1012 80 0 3.57 85.286 15:42 10.06.2019
6558 Clouds 0 1013 81 0 2.54 69.742 15:24 10.06.2019
6559 Clouds 0 1013 81 0 2.54 69.742 14:58 10.06.2019
6560 Clouds 0 1013 81 0 2.54 69.742 14:38 10.06.2019
6561 Clouds 0 1013 81 0 2.54 69.742 14:20 10.06.2019
6562 Clouds 0 1013 81 0 2.54 69.742 13:43 10.06.2019
6563 Clouds 0 1013 81 0 2.54 69.742 13:21 10.06.2019
6564 Clouds 0 1013 82 0 2.67 64.058 12:43 10.06.2019
6565 Clear 0 1014 84 0 1.95 17.618 12:25 10.06.2019
6566 Clear 0 1014 84 0 1.95 17.618 11:44 10.06.2019
6567 Clear 0 1014 84 0 1.95 17.618 11:26 10.06.2019
6568 Clear 0 1014 84 0 1.95 17.618 10:43 10.06.2019
6569 Clear 0 1014 84 0 1.95 17.618 10:21 10.06.2019
6570 Clear 0 1014 84 0 1.95 17.618 09:57 10.06.2019
6571 Clear 0 1014 84 0 1.95 17.618 09:38 10.06.2019
6572 Clear 0 1014 87 0 2.36 318.652 09:19 10.06.2019
6573 Clear 0 1014 87 0 2.36 318.652 08:45 10.06.2019
6574 Clear 0 1014 87 0 2.36 318.652 08:25 10.06.2019
6575 Clear 0 1014 87 0 2.36 318.652 07:20 10.06.2019
6576 Clear -1 1014 88 0 2.93 319.617 04:29 10.06.2019
6577 Clear -1 1013 88 0 3.76 325.295 01:59 10.06.2019
6578 Clear -1 1013 88 0 3.76 325.295 01:59 10.06.2019
6579 Clear -1 1013 88 0 3.76 325.295 01:26 10.06.2019
6580 Clear -1 1013 88 0 3.76 325.295 00:58 10.06.2019
6581 Clear -1 1013 88 0 4.12 331.874 00:20 10.06.2019
6582 Clear -1 1013 88 0 4.12 331.874 23:43 09.06.2019
6583 Clear -1 1013 88 0 4.12 331.874 23:20 09.06.2019
6584 Clear -1 1013 88 0 4.12 331.874 22:45 09.06.2019
6585 Clear -1 1013 88 0 4.12 331.874 22:25 09.06.2019
6586 Clear -1 1013 88 0 4.12 331.874 21:45 09.06.2019
6587 Clear -1 1012 89 0 4.39 344.574 21:26 09.06.2019
6588 Clear -1 1012 89 0 4.39 344.574 20:45 09.06.2019
6589 Clear -1 1012 89 0 4.39 344.574 20:23 09.06.2019
6590 Clear -1 1012 89 0 4.39 344.574 19:56 09.06.2019
6591 Clear -1 1012 89 0 4.39 344.574 19:36 09.06.2019
6592 Clear -1 1011 89 0 4.24 343.618 19:18 09.06.2019
6593 Clear -1 1011 89 0 4.24 343.618 18:41 09.06.2019
6594 Clear -1 1011 89 0 4.24 343.618 18:41 09.06.2019
6595 Clear 0 1010 93 0 4.21 350.873 18:23 09.06.2019
6596 Clear 0 1010 93 0 4.21 350.873 17:48 09.06.2019
6597 Clear 0 1010 93 0 4.21 350.873 17:27 09.06.2019
6598 Clear 0 1010 93 0 4.21 350.873 16:55 09.06.2019
6599 Clear 0 1010 93 0 4.21 350.873 16:37 09.06.2019
6600 Clear 0 1010 93 0 4.21 350.873 16:19 09.06.2019
6601 Clear 0 1010 93 0 4.21 350.873 15:47 09.06.2019
6602 Clouds 0 1010 96 0 3.7 11.735 15:27 09.06.2019
6603 Clouds 0 1010 96 0 3.7 11.735 14:46 09.06.2019
6604 Clouds 0 1010 96 0 3.7 11.735 14:27 09.06.2019
6605 Clouds 0 1010 96 0 3.7 11.735 13:56 09.06.2019
6606 Clouds 0 1010 96 0 3.7 11.735 13:36 09.06.2019
6607 Clouds 0 1011 95 0 3.43 19.073 12:44 09.06.2019
6608 Clouds 0 1010 95 0 3.7 36.434 12:26 09.06.2019
6609 Clouds 0 1010 95 0 3.7 36.434 11:48 09.06.2019
6610 Clouds 0 1010 95 0 3.7 36.434 11:29 09.06.2019
6611 Clouds 0 1010 96 0 3.44 37.58 10:47 09.06.2019
6612 Clouds 0 1010 96 0 3.44 37.58 10:24 09.06.2019
6613 Clouds 0 1010 96 0 3.44 37.58 09:42 09.06.2019
6614 Clouds 0 1010 95 0 3.09 55.342 09:24 09.06.2019
6615 Clouds 0 1009 95 0 3.67 57.314 08:58 09.06.2019
6616 Clouds 0 1009 95 0 3.67 57.314 08:40 09.06.2019
6617 Clouds 0 1009 95 0 3.67 57.314 07:50 09.06.2019
6618 Clouds 0 1009 95 0 3.67 57.314 06:33 09.06.2019
6619 Rain 0 1010 93 0 3.16 69.703 05:47 09.06.2019
6620 Rain 1 1012 92 0 2.57 48.86 02:52 09.06.2019
6621 Rain 1 1012 92 0 2.57 48.86 01:36 09.06.2019
6622 Rain 1 1012 92 0 2.08 33.896 01:18 09.06.2019
6623 Rain 1 1012 92 0 2.08 33.896 01:18 09.06.2019
6624 Clouds 1 1013 93 0 1.44 350.944 00:22 09.06.2019
6625 Clouds 1 1013 93 0 1.44 350.944 23:40 08.06.2019
6626 Clouds 1 1013 93 0 1.44 350.944 23:22 08.06.2019
6627 Clouds 1 1013 93 0 1.44 350.944 22:45 08.06.2019
6628 Clouds 1 1013 93 0 1.44 350.944 22:26 08.06.2019
6629 Clouds 1 1013 93 0 1.44 350.944 21:56 08.06.2019
6630 Clouds 1 1013 93 0 1.44 350.944 21:38 08.06.2019
6631 Clouds 1 1013 93 0 1.44 350.944 21:38 08.06.2019
6632 Clouds 1 1015 90 0 1.53 338.421 21:19 08.06.2019
6633 Clouds 1 1015 90 0 1.53 338.421 20:42 08.06.2019
6634 Clouds 1 1015 90 0 1.53 338.421 20:21 08.06.2019
6635 Clouds 1 1015 90 0 1.53 338.421 19:42 08.06.2019
6636 Clouds 1 1015 90 0 1.53 338.421 19:23 08.06.2019
6637 Clouds 1 1014 90 0 1.8 356.649 18:58 08.06.2019
6638 Clouds 1 1014 90 0 1.8 356.649 18:39 08.06.2019
6639 Clouds 2 1015 87 0 1.51 333.943 18:18 08.06.2019
6640 Clouds 2 1015 87 0 1.51 333.943 17:42 08.06.2019
6641 Clouds 2 1015 87 0 1.51 333.943 17:19 08.06.2019
6642 Clouds 2 1015 87 0 1.51 333.943 16:45 08.06.2019
6643 Clouds 2 1015 87 0 1.51 333.943 16:24 08.06.2019
6644 -273 0 0 0 0 0 15:40 08.06.2019
6645 -273 0 0 0 0 0 15:40 08.06.2019
6646 Clouds 2 1017 82 0 2.5 258.192 15:21 08.06.2019
6647 Clouds 2 1017 82 0 2.5 258.192 14:42 08.06.2019
6648 Clouds 2 1017 82 0 2.5 258.192 14:24 08.06.2019
6649 Clouds 2 1017 82 0 2.5 258.192 13:38 08.06.2019
6650 Clouds 3 1017 83 0 2.44 253.168 12:47 08.06.2019
6651 Clouds 3 1017 83 0 2.44 253.168 12:27 08.06.2019
6652 Clouds 2 1018 83 0 4.12 227.797 11:44 08.06.2019
6653 Clouds 2 1018 83 0 4.12 227.797 11:24 08.06.2019
6654 Clouds 2 1018 83 0 4.12 227.797 10:45 08.06.2019
6655 Clouds 2 1018 83 0 4.12 227.797 10:24 08.06.2019
6656 Clouds 2 1018 83 0 4.12 227.797 09:51 08.06.2019
6657 Clouds 2 1019 83 0 4.4 225.93 09:24 08.06.2019
6658 Clouds 2 1019 83 0 4.4 225.93 08:35 08.06.2019
6659 Clouds 2 1019 83 0 4.4 225.93 07:59 08.06.2019
6660 Clouds 2 1019 79 0 4.13 230.712 06:51 08.06.2019
6661 Clouds 2 1020 82 0 4.18 227.697 05:49 08.06.2019
6662 Clouds 2 1020 82 0 4.18 227.697 03:32 08.06.2019
6663 Clouds 2 1021 79 0 4.02 230.355 01:31 08.06.2019
6664 Clouds 2 1021 79 0 3.67 242.94 00:26 08.06.2019
6665 Clouds 2 1021 79 0 3.67 242.94 23:47 07.06.2019
6666 Clouds 2 1021 79 0 3.67 242.94 23:20 07.06.2019
6667 Clouds 2 1021 79 0 3.67 242.94 22:47 07.06.2019
6668 Clouds 2 1021 79 0 3.82 238.921 22:25 07.06.2019
6669 Clouds 2 1021 79 0 3.82 238.921 21:54 07.06.2019
6670 Clouds 2 1021 79 0 3.82 238.921 21:31 07.06.2019
6671 Clouds 3 1022 78 0 3.51 250.899 20:57 07.06.2019
6672 Clouds 3 1022 78 0 3.51 250.899 20:37 07.06.2019
6673 Clouds 3 1022 78 0 3.51 250.899 19:50 07.06.2019
6674 Clouds 3 1022 78 0 3.51 250.899 19:24 07.06.2019
6675 Clouds 3 1022 78 0 3.51 250.899 18:59 07.06.2019
6676 Clouds 3 1022 78 0 3.51 250.899 18:37 07.06.2019
6677 Clouds 2 1022 81 0 0.99 204.954 18:18 07.06.2019
6678 Clouds 2 1022 81 0 0.99 204.954 17:38 07.06.2019
6679 Clouds 2 1022 81 0 0.99 204.954 17:18 07.06.2019
6680 Clouds 2 1022 81 0 0.99 204.954 16:40 07.06.2019
6681 Clouds 2 1022 81 0 0.99 204.954 15:54 07.06.2019
6682 Clear 2 1022 78 0 1.61 109.135 15:23 07.06.2019
6683 Clear 2 1022 78 0 1.61 109.135 14:48 07.06.2019
6684 Clear 2 1022 78 0 1.61 109.135 14:27 07.06.2019
6685 Clear 2 1022 78 0 1.61 109.135 13:49 07.06.2019
6686 Clear 2 1022 78 0 1.61 109.135 13:25 07.06.2019
6687 Clear 2 1022 76 0 1.93 109.78 12:50 07.06.2019
6688 Clear 1 1022 80 0 1.52 98.471 12:24 07.06.2019
6689 Clear 1 1022 80 0 1.52 98.471 11:53 07.06.2019
6690 Clear 1 1022 80 0 1.52 98.471